<?xml version='1.0' encoding='UTF-8'?><gpx version="1.1" creator="JPX - https://github.com/jenetics/jpx" xmlns="http://www.topografix.com/GPX/1/1"><trk><trkseg><trkpt lat="41.82275" lon="12.8276833"><ele>323.2</ele><time>2026-04-08T15:08:04.818Z</time></trkpt><trkpt lat="41.8228283" lon="12.82757"><ele>321.4</ele><time>2026-04-08T15:08:06.818Z</time></trkpt><trkpt lat="41.8228867" lon="12.8275283"><ele>319.6</ele><time>2026-04-08T15:08:07.819Z</time></trkpt><trkpt lat="41.8229617" lon="12.8275"><ele>317.8</ele><time>2026-04-08T15:08:08.819Z</time></trkpt><trkpt lat="41.8230533" lon="12.8274867"><ele>316.0</ele><time>2026-04-08T15:08:09.818Z</time></trkpt><trkpt lat="41.8231533" lon="12.8274833"><ele>316.0</ele><time>2026-04-08T15:08:10.817Z</time></trkpt><trkpt lat="41.8232517" lon="12.8274783"><ele>316.0</ele><time>2026-04-08T15:08:11.818Z</time></trkpt><trkpt lat="41.8233533" lon="12.82747"><ele>316.0</ele><time>2026-04-08T15:08:12.818Z</time></trkpt><trkpt lat="41.8234633" lon="12.8274583"><ele>316.0</ele><time>2026-04-08T15:08:13.819Z</time></trkpt><trkpt lat="41.82358" lon="12.82745"><ele>316.0</ele><time>2026-04-08T15:08:14.818Z</time></trkpt><trkpt lat="41.8237083" lon="12.8274383"><ele>316.0</ele><time>2026-04-08T15:08:15.818Z</time></trkpt><trkpt lat="41.823845" lon="12.8274267"><ele>316.0</ele><time>2026-04-08T15:08:16.82Z</time></trkpt><trkpt lat="41.823985" lon="12.8274167"><ele>316.0</ele><time>2026-04-08T15:08:17.819Z</time></trkpt><trkpt lat="41.8241267" lon="12.82741"><ele>316.0</ele><time>2026-04-08T15:08:18.817Z</time></trkpt><trkpt lat="41.8242683" lon="12.8274033"><ele>316.25</ele><time>2026-04-08T15:08:19.819Z</time></trkpt><trkpt lat="41.8244117" lon="12.8273917"><ele>316.5</ele><time>2026-04-08T15:08:20.817Z</time></trkpt><trkpt lat="41.82456" lon="12.8273783"><ele>316.75</ele><time>2026-04-08T15:08:21.818Z</time></trkpt><trkpt lat="41.8247133" lon="12.8273717"><ele>317.0</ele><time>2026-04-08T15:08:22.818Z</time></trkpt><trkpt lat="41.8248633" lon="12.827365"><ele>317.0</ele><time>2026-04-08T15:08:23.819Z</time></trkpt><trkpt lat="41.8250067" lon="12.8273517"><ele>317.0</ele><time>2026-04-08T15:08:24.817Z</time></trkpt><trkpt lat="41.8251417" lon="12.8273433"><ele>317.0</ele><time>2026-04-08T15:08:25.82Z</time></trkpt><trkpt lat="41.8252683" lon="12.8273333"><ele>317.0</ele><time>2026-04-08T15:08:26.82Z</time></trkpt><trkpt lat="41.825385" lon="12.8273283"><ele>316.8</ele><time>2026-04-08T15:08:27.82Z</time></trkpt><trkpt lat="41.8254967" lon="12.8273433"><ele>316.6</ele><time>2026-04-08T15:08:28.819Z</time></trkpt><trkpt lat="41.825595" lon="12.8273683"><ele>316.40000000000003</ele><time>2026-04-08T15:08:29.82Z</time></trkpt><trkpt lat="41.825685" lon="12.82741"><ele>316.2</ele><time>2026-04-08T15:08:30.819Z</time></trkpt><trkpt lat="41.8257617" lon="12.8274533"><ele>316.0</ele><time>2026-04-08T15:08:31.818Z</time></trkpt><trkpt lat="41.825825" lon="12.8275067"><ele>316.0</ele><time>2026-04-08T15:08:32.819Z</time></trkpt><trkpt lat="41.8258883" lon="12.8275683"><ele>316.0</ele><time>2026-04-08T15:08:33.817Z</time></trkpt><trkpt lat="41.8259483" lon="12.82764"><ele>316.0</ele><time>2026-04-08T15:08:34.818Z</time></trkpt><trkpt lat="41.8260033" lon="12.8277333"><ele>316.0</ele><time>2026-04-08T15:08:35.819Z</time></trkpt><trkpt lat="41.8260433" lon="12.827875"><ele>316.0</ele><time>2026-04-08T15:08:36.818Z</time></trkpt><trkpt lat="41.82608" lon="12.828025"><ele>317.5</ele><time>2026-04-08T15:08:37.818Z</time></trkpt><trkpt lat="41.8261183" lon="12.8281767"><ele>319.0</ele><time>2026-04-08T15:08:38.818Z</time></trkpt><trkpt lat="41.8261567" lon="12.8283183"><ele>320.5</ele><time>2026-04-08T15:08:39.819Z</time></trkpt><trkpt lat="41.8261967" lon="12.8284717"><ele>322.0</ele><time>2026-04-08T15:08:40.818Z</time></trkpt><trkpt lat="41.82624" lon="12.8286317"><ele>322.25</ele><time>2026-04-08T15:08:41.817Z</time></trkpt><trkpt lat="41.8262867" lon="12.8287967"><ele>322.5</ele><time>2026-04-08T15:08:42.817Z</time></trkpt><trkpt lat="41.8263317" lon="12.8289683"><ele>322.75</ele><time>2026-04-08T15:08:43.818Z</time></trkpt><trkpt lat="41.826385" lon="12.8291483"><ele>323.0</ele><time>2026-04-08T15:08:44.818Z</time></trkpt><trkpt lat="41.8264367" lon="12.8293333"><ele>323.25</ele><time>2026-04-08T15:08:45.818Z</time></trkpt><trkpt lat="41.8264883" lon="12.8295233"><ele>323.5</ele><time>2026-04-08T15:08:46.818Z</time></trkpt><trkpt lat="41.8265283" lon="12.8297033"><ele>323.75</ele><time>2026-04-08T15:08:47.818Z</time></trkpt><trkpt lat="41.8265583" lon="12.82989"><ele>324.0</ele><time>2026-04-08T15:08:48.821Z</time></trkpt><trkpt lat="41.8265817" lon="12.8300817"><ele>323.75</ele><time>2026-04-08T15:08:49.821Z</time></trkpt><trkpt lat="41.8266" lon="12.8302717"><ele>323.5</ele><time>2026-04-08T15:08:50.821Z</time></trkpt><trkpt lat="41.8266133" lon="12.83045"><ele>323.25</ele><time>2026-04-08T15:08:51.82Z</time></trkpt><trkpt lat="41.8266233" lon="12.8306217"><ele>323.0</ele><time>2026-04-08T15:08:52.822Z</time></trkpt><trkpt lat="41.8266283" lon="12.8307883"><ele>323.0</ele><time>2026-04-08T15:08:53.821Z</time></trkpt><trkpt lat="41.8266333" lon="12.830955"><ele>323.0</ele><time>2026-04-08T15:08:54.821Z</time></trkpt><trkpt lat="41.826645" lon="12.8311217"><ele>323.0</ele><time>2026-04-08T15:08:55.818Z</time></trkpt><trkpt lat="41.8266533" lon="12.8312933"><ele>323.0</ele><time>2026-04-08T15:08:56.821Z</time></trkpt><trkpt lat="41.8266567" lon="12.8314667"><ele>324.0</ele><time>2026-04-08T15:08:57.821Z</time></trkpt><trkpt lat="41.82666" lon="12.8316433"><ele>325.0</ele><time>2026-04-08T15:08:58.821Z</time></trkpt><trkpt lat="41.8266633" lon="12.8318283"><ele>326.0</ele><time>2026-04-08T15:08:59.821Z</time></trkpt><trkpt lat="41.8266683" lon="12.8320217"><ele>327.0</ele><time>2026-04-08T15:09:00.817Z</time></trkpt><trkpt lat="41.8266567" lon="12.83222"><ele>327.6666666666667</ele><time>2026-04-08T15:09:01.818Z</time></trkpt><trkpt lat="41.82663" lon="12.8324233"><ele>328.33333333333337</ele><time>2026-04-08T15:09:02.818Z</time></trkpt><trkpt lat="41.8265883" lon="12.8326233"><ele>329.0</ele><time>2026-04-08T15:09:03.82Z</time></trkpt><trkpt lat="41.82655" lon="12.8328183"><ele>327.25</ele><time>2026-04-08T15:09:04.821Z</time></trkpt><trkpt lat="41.8264967" lon="12.833005"><ele>325.5</ele><time>2026-04-08T15:09:05.82Z</time></trkpt><trkpt lat="41.826445" lon="12.83319"><ele>323.75</ele><time>2026-04-08T15:09:06.821Z</time></trkpt><trkpt lat="41.8263967" lon="12.83337"><ele>322.0</ele><time>2026-04-08T15:09:07.821Z</time></trkpt><trkpt lat="41.82635" lon="12.8335467"><ele>319.25</ele><time>2026-04-08T15:09:08.82Z</time></trkpt><trkpt lat="41.8263033" lon="12.833715"><ele>316.5</ele><time>2026-04-08T15:09:09.821Z</time></trkpt><trkpt lat="41.8262583" lon="12.833885"><ele>313.75</ele><time>2026-04-08T15:09:10.818Z</time></trkpt><trkpt lat="41.8262167" lon="12.8340433"><ele>311.0</ele><time>2026-04-08T15:09:11.821Z</time></trkpt><trkpt lat="41.8261767" lon="12.834185"><ele>309.33333333333337</ele><time>2026-04-08T15:09:12.821Z</time></trkpt><trkpt lat="41.826145" lon="12.8343067"><ele>307.6666666666667</ele><time>2026-04-08T15:09:13.821Z</time></trkpt><trkpt lat="41.8261183" lon="12.8344167"><ele>306.0</ele><time>2026-04-08T15:09:14.821Z</time></trkpt><trkpt lat="41.8261033" lon="12.8345233"><ele>304.3333333333333</ele><time>2026-04-08T15:09:15.821Z</time></trkpt><trkpt lat="41.826085" lon="12.8346217"><ele>302.66666666666663</ele><time>2026-04-08T15:09:16.82Z</time></trkpt><trkpt lat="41.8260683" lon="12.8347217"><ele>301.0</ele><time>2026-04-08T15:09:17.821Z</time></trkpt><trkpt lat="41.826055" lon="12.8348233"><ele>301.0</ele><time>2026-04-08T15:09:18.816Z</time></trkpt><trkpt lat="41.8260483" lon="12.8349333"><ele>301.0</ele><time>2026-04-08T15:09:19.821Z</time></trkpt><trkpt lat="41.8260483" lon="12.83505"><ele>301.0</ele><time>2026-04-08T15:09:20.818Z</time></trkpt><trkpt lat="41.8260567" lon="12.8351617"><ele>301.0</ele><time>2026-04-08T15:09:21.821Z</time></trkpt><trkpt lat="41.8260717" lon="12.8352683"><ele>301.0</ele><time>2026-04-08T15:09:22.822Z</time></trkpt><trkpt lat="41.8260883" lon="12.8353683"><ele>301.0</ele><time>2026-04-08T15:09:23.821Z</time></trkpt><trkpt lat="41.82611" lon="12.8354617"><ele>301.3333333333333</ele><time>2026-04-08T15:09:24.817Z</time></trkpt><trkpt lat="41.8261467" lon="12.8356083"><ele>301.66666666666663</ele><time>2026-04-08T15:09:26.823Z</time></trkpt><trkpt lat="41.8261717" lon="12.8356867"><ele>302.0</ele><time>2026-04-08T15:09:27.819Z</time></trkpt><trkpt lat="41.8262" lon="12.8357767"><ele>302.3333333333333</ele><time>2026-04-08T15:09:28.821Z</time></trkpt><trkpt lat="41.82624" lon="12.83589"><ele>302.6666666666667</ele><time>2026-04-08T15:09:29.821Z</time></trkpt><trkpt lat="41.8262833" lon="12.8360083"><ele>303.0</ele><time>2026-04-08T15:09:30.821Z</time></trkpt><trkpt lat="41.8263183" lon="12.8361133"><ele>305.5</ele><time>2026-04-08T15:09:31.821Z</time></trkpt><trkpt lat="41.8263517" lon="12.8362133"><ele>308.0</ele><time>2026-04-08T15:09:32.821Z</time></trkpt><trkpt lat="41.82639" lon="12.8363133"><ele>310.5</ele><time>2026-04-08T15:09:33.821Z</time></trkpt><trkpt lat="41.826415" lon="12.8363983"><ele>313.0</ele><time>2026-04-08T15:09:34.821Z</time></trkpt><trkpt lat="41.82644" lon="12.83648"><ele>315.5</ele><time>2026-04-08T15:09:35.821Z</time></trkpt><trkpt lat="41.8264667" lon="12.8365683"><ele>318.0</ele><time>2026-04-08T15:09:36.821Z</time></trkpt><trkpt lat="41.8265033" lon="12.836665"><ele>318.0</ele><time>2026-04-08T15:09:37.821Z</time></trkpt><trkpt lat="41.826545" lon="12.83677"><ele>318.0</ele><time>2026-04-08T15:09:38.822Z</time></trkpt><trkpt lat="41.8265867" lon="12.8368783"><ele>318.0</ele><time>2026-04-08T15:09:39.821Z</time></trkpt><trkpt lat="41.8266267" lon="12.83698"><ele>318.0</ele><time>2026-04-08T15:09:40.821Z</time></trkpt><trkpt lat="41.826665" lon="12.8370733"><ele>318.0</ele><time>2026-04-08T15:09:41.82Z</time></trkpt><trkpt lat="41.8267033" lon="12.8371767"><ele>318.0</ele><time>2026-04-08T15:09:42.822Z</time></trkpt><trkpt lat="41.82674" lon="12.8372867"><ele>318.8</ele><time>2026-04-08T15:09:43.821Z</time></trkpt><trkpt lat="41.8267817" lon="12.8374"><ele>319.6</ele><time>2026-04-08T15:09:44.821Z</time></trkpt><trkpt lat="41.8268267" lon="12.8375267"><ele>320.40000000000003</ele><time>2026-04-08T15:09:45.821Z</time></trkpt><trkpt lat="41.826875" lon="12.8376567"><ele>321.20000000000005</ele><time>2026-04-08T15:09:46.821Z</time></trkpt><trkpt lat="41.826925" lon="12.8377833"><ele>322.0</ele><time>2026-04-08T15:09:47.818Z</time></trkpt><trkpt lat="41.8269717" lon="12.8379017"><ele>322.0</ele><time>2026-04-08T15:09:48.818Z</time></trkpt><trkpt lat="41.8270167" lon="12.8380117"><ele>322.0</ele><time>2026-04-08T15:09:49.819Z</time></trkpt><trkpt lat="41.8270533" lon="12.8381267"><ele>322.0</ele><time>2026-04-08T15:09:50.821Z</time></trkpt><trkpt lat="41.8270883" lon="12.8382367"><ele>322.0</ele><time>2026-04-08T15:09:51.817Z</time></trkpt><trkpt lat="41.827125" lon="12.8383383"><ele>322.0</ele><time>2026-04-08T15:09:52.82Z</time></trkpt><trkpt lat="41.8271517" lon="12.8384283"><ele>322.0</ele><time>2026-04-08T15:09:53.819Z</time></trkpt><trkpt lat="41.8272017" lon="12.8385567"><ele>321.8333333333333</ele><time>2026-04-08T15:09:55.822Z</time></trkpt><trkpt lat="41.8272283" lon="12.8386383"><ele>321.66666666666663</ele><time>2026-04-08T15:09:59.82Z</time></trkpt><trkpt lat="41.827235" lon="12.8387517"><ele>321.5</ele><time>2026-04-08T15:10:02.817Z</time></trkpt><trkpt lat="41.8272417" lon="12.8388983"><ele>321.3333333333333</ele><time>2026-04-08T15:10:04.818Z</time></trkpt><trkpt lat="41.8272483" lon="12.8389867"><ele>321.1666666666667</ele><time>2026-04-08T15:10:05.82Z</time></trkpt><trkpt lat="41.827255" lon="12.839075"><ele>321.0</ele><time>2026-04-08T15:10:06.821Z</time></trkpt><trkpt lat="41.82725" lon="12.839235"><ele>321.6</ele><time>2026-04-08T15:10:08.822Z</time></trkpt><trkpt lat="41.8272183" lon="12.8393667"><ele>322.20000000000005</ele><time>2026-04-08T15:10:10.82Z</time></trkpt><trkpt lat="41.8271633" lon="12.8394917"><ele>322.79999999999995</ele><time>2026-04-08T15:10:12.822Z</time></trkpt><trkpt lat="41.8271333" lon="12.839645"><ele>323.4</ele><time>2026-04-08T15:10:14.821Z</time></trkpt><trkpt lat="41.8271317" lon="12.83974"><ele>324.0</ele><time>2026-04-08T15:10:15.82Z</time></trkpt><trkpt lat="41.8271167" lon="12.83985"><ele>324.0</ele><time>2026-04-08T15:10:16.821Z</time></trkpt><trkpt lat="41.8270783" lon="12.839965"><ele>324.0</ele><time>2026-04-08T15:10:17.818Z</time></trkpt><trkpt lat="41.827025" lon="12.8400867"><ele>324.0</ele><time>2026-04-08T15:10:18.818Z</time></trkpt><trkpt lat="41.826965" lon="12.840205"><ele>324.0</ele><time>2026-04-08T15:10:19.82Z</time></trkpt><trkpt lat="41.8269133" lon="12.84032"><ele>324.0</ele><time>2026-04-08T15:10:20.818Z</time></trkpt><trkpt lat="41.8268667" lon="12.8404383"><ele>324.79999999999995</ele><time>2026-04-08T15:10:21.82Z</time></trkpt><trkpt lat="41.8268267" lon="12.84057"><ele>325.59999999999997</ele><time>2026-04-08T15:10:22.817Z</time></trkpt><trkpt lat="41.8267917" lon="12.8407133"><ele>326.4</ele><time>2026-04-08T15:10:23.818Z</time></trkpt><trkpt lat="41.8267633" lon="12.84086"><ele>327.2</ele><time>2026-04-08T15:10:24.82Z</time></trkpt><trkpt lat="41.8267367" lon="12.841005"><ele>328.0</ele><time>2026-04-08T15:10:25.821Z</time></trkpt><trkpt lat="41.826715" lon="12.8411517"><ele>328.79999999999995</ele><time>2026-04-08T15:10:26.822Z</time></trkpt><trkpt lat="41.8266933" lon="12.8413017"><ele>329.6</ele><time>2026-04-08T15:10:27.817Z</time></trkpt><trkpt lat="41.8266733" lon="12.8414467"><ele>330.4</ele><time>2026-04-08T15:10:28.822Z</time></trkpt><trkpt lat="41.82665" lon="12.8415883"><ele>331.20000000000005</ele><time>2026-04-08T15:10:29.821Z</time></trkpt><trkpt lat="41.826625" lon="12.8417283"><ele>332.0</ele><time>2026-04-08T15:10:30.821Z</time></trkpt><trkpt lat="41.8265933" lon="12.8418667"><ele>333.5</ele><time>2026-04-08T15:10:31.822Z</time></trkpt><trkpt lat="41.8265583" lon="12.8420083"><ele>335.0</ele><time>2026-04-08T15:10:32.822Z</time></trkpt><trkpt lat="41.82652" lon="12.8421533"><ele>336.5</ele><time>2026-04-08T15:10:33.821Z</time></trkpt><trkpt lat="41.82648" lon="12.842305"><ele>338.0</ele><time>2026-04-08T15:10:34.82Z</time></trkpt><trkpt lat="41.8264367" lon="12.84246"><ele>338.0</ele><time>2026-04-08T15:10:35.821Z</time></trkpt><trkpt lat="41.8263917" lon="12.8426167"><ele>338.0</ele><time>2026-04-08T15:10:36.821Z</time></trkpt><trkpt lat="41.82634" lon="12.842775"><ele>338.0</ele><time>2026-04-08T15:10:37.821Z</time></trkpt><trkpt lat="41.82629" lon="12.8429333"><ele>338.0</ele><time>2026-04-08T15:10:38.82Z</time></trkpt><trkpt lat="41.8262417" lon="12.843085"><ele>339.75</ele><time>2026-04-08T15:10:39.822Z</time></trkpt><trkpt lat="41.826195" lon="12.8432333"><ele>341.5</ele><time>2026-04-08T15:10:40.821Z</time></trkpt><trkpt lat="41.8261517" lon="12.84339"><ele>343.25</ele><time>2026-04-08T15:10:41.824Z</time></trkpt><trkpt lat="41.82611" lon="12.8435567"><ele>345.0</ele><time>2026-04-08T15:10:42.821Z</time></trkpt><trkpt lat="41.8260683" lon="12.84373"><ele>344.5</ele><time>2026-04-08T15:10:43.821Z</time></trkpt><trkpt lat="41.82603" lon="12.8439117"><ele>344.0</ele><time>2026-04-08T15:10:44.818Z</time></trkpt><trkpt lat="41.826" lon="12.8441017"><ele>343.5</ele><time>2026-04-08T15:10:45.821Z</time></trkpt><trkpt lat="41.8259783" lon="12.8442983"><ele>343.0</ele><time>2026-04-08T15:10:46.82Z</time></trkpt><trkpt lat="41.8259683" lon="12.84449"><ele>343.0</ele><time>2026-04-08T15:10:47.818Z</time></trkpt><trkpt lat="41.82597" lon="12.844685"><ele>343.0</ele><time>2026-04-08T15:10:48.818Z</time></trkpt><trkpt lat="41.825975" lon="12.8448817"><ele>343.0</ele><time>2026-04-08T15:10:49.818Z</time></trkpt><trkpt lat="41.8259783" lon="12.8450683"><ele>343.0</ele><time>2026-04-08T15:10:50.817Z</time></trkpt><trkpt lat="41.8259817" lon="12.8452517"><ele>345.25</ele><time>2026-04-08T15:10:51.817Z</time></trkpt><trkpt lat="41.8259817" lon="12.8454333"><ele>347.5</ele><time>2026-04-08T15:10:52.819Z</time></trkpt><trkpt lat="41.82598" lon="12.8456183"><ele>349.75</ele><time>2026-04-08T15:10:53.818Z</time></trkpt><trkpt lat="41.82598" lon="12.8457983"><ele>352.0</ele><time>2026-04-08T15:10:54.819Z</time></trkpt><trkpt lat="41.82598" lon="12.84598"><ele>351.75</ele><time>2026-04-08T15:10:55.819Z</time></trkpt><trkpt lat="41.8259783" lon="12.846165"><ele>351.5</ele><time>2026-04-08T15:10:56.818Z</time></trkpt><trkpt lat="41.8259767" lon="12.84636"><ele>351.25</ele><time>2026-04-08T15:10:57.82Z</time></trkpt><trkpt lat="41.8259733" lon="12.8465567"><ele>351.0</ele><time>2026-04-08T15:10:58.821Z</time></trkpt><trkpt lat="41.8259667" lon="12.846755"><ele>352.25</ele><time>2026-04-08T15:10:59.822Z</time></trkpt><trkpt lat="41.8259583" lon="12.846955"><ele>353.5</ele><time>2026-04-08T15:11:00.821Z</time></trkpt><trkpt lat="41.825955" lon="12.84714"><ele>354.75</ele><time>2026-04-08T15:11:01.821Z</time></trkpt><trkpt lat="41.8259517" lon="12.8472917"><ele>356.0</ele><time>2026-04-08T15:11:02.821Z</time></trkpt><trkpt lat="41.8259483" lon="12.8474383"><ele>356.0</ele><time>2026-04-08T15:11:03.821Z</time></trkpt><trkpt lat="41.82594" lon="12.8476017"><ele>356.0</ele><time>2026-04-08T15:11:04.817Z</time></trkpt><trkpt lat="41.8259317" lon="12.8477833"><ele>356.0</ele><time>2026-04-08T15:11:05.821Z</time></trkpt><trkpt lat="41.8259233" lon="12.8479833"><ele>356.0</ele><time>2026-04-08T15:11:06.821Z</time></trkpt><trkpt lat="41.8259167" lon="12.848195"><ele>356.6666666666667</ele><time>2026-04-08T15:11:07.821Z</time></trkpt><trkpt lat="41.8259133" lon="12.8484017"><ele>357.3333333333333</ele><time>2026-04-08T15:11:08.821Z</time></trkpt><trkpt lat="41.825905" lon="12.8486033"><ele>358.0</ele><time>2026-04-08T15:11:09.82Z</time></trkpt><trkpt lat="41.8259" lon="12.8488017"><ele>358.75</ele><time>2026-04-08T15:11:10.82Z</time></trkpt><trkpt lat="41.8258933" lon="12.8489917"><ele>359.5</ele><time>2026-04-08T15:11:11.821Z</time></trkpt><trkpt lat="41.8258817" lon="12.8491717"><ele>360.25</ele><time>2026-04-08T15:11:12.821Z</time></trkpt><trkpt lat="41.8258767" lon="12.84934"><ele>361.0</ele><time>2026-04-08T15:11:13.821Z</time></trkpt><trkpt lat="41.8258717" lon="12.8494967"><ele>361.0</ele><time>2026-04-08T15:11:14.82Z</time></trkpt><trkpt lat="41.825865" lon="12.84964"><ele>361.0</ele><time>2026-04-08T15:11:15.821Z</time></trkpt><trkpt lat="41.8258567" lon="12.8497783"><ele>361.0</ele><time>2026-04-08T15:11:16.821Z</time></trkpt><trkpt lat="41.8258533" lon="12.8499133"><ele>361.0</ele><time>2026-04-08T15:11:17.818Z</time></trkpt><trkpt lat="41.8258483" lon="12.8500467"><ele>361.0</ele><time>2026-04-08T15:11:18.817Z</time></trkpt><trkpt lat="41.825845" lon="12.8501817"><ele>360.5</ele><time>2026-04-08T15:11:19.818Z</time></trkpt><trkpt lat="41.8258383" lon="12.85032"><ele>360.0</ele><time>2026-04-08T15:11:20.818Z</time></trkpt><trkpt lat="41.82583" lon="12.8504667"><ele>359.5</ele><time>2026-04-08T15:11:21.818Z</time></trkpt><trkpt lat="41.8258267" lon="12.8506233"><ele>359.0</ele><time>2026-04-08T15:11:22.819Z</time></trkpt><trkpt lat="41.8258233" lon="12.8507867"><ele>359.0</ele><time>2026-04-08T15:11:23.817Z</time></trkpt><trkpt lat="41.825815" lon="12.8509517"><ele>359.0</ele><time>2026-04-08T15:11:24.823Z</time></trkpt><trkpt lat="41.82581" lon="12.8511117"><ele>359.0</ele><time>2026-04-08T15:11:25.821Z</time></trkpt><trkpt lat="41.8258067" lon="12.8512583"><ele>359.0</ele><time>2026-04-08T15:11:26.821Z</time></trkpt><trkpt lat="41.825805" lon="12.851395"><ele>359.0</ele><time>2026-04-08T15:11:27.821Z</time></trkpt><trkpt lat="41.8258017" lon="12.8515267"><ele>359.0</ele><time>2026-04-08T15:11:28.82Z</time></trkpt><trkpt lat="41.8258" lon="12.851645"><ele>359.0</ele><time>2026-04-08T15:11:29.821Z</time></trkpt><trkpt lat="41.8257967" lon="12.8517817"><ele>359.0</ele><time>2026-04-08T15:11:31.821Z</time></trkpt><trkpt lat="41.8258033" lon="12.8518917"><ele>359.0</ele><time>2026-04-08T15:11:38.822Z</time></trkpt><trkpt lat="41.825785" lon="12.8520767"><ele>359.33333333333337</ele><time>2026-04-08T15:11:40.821Z</time></trkpt><trkpt lat="41.8257767" lon="12.8521833"><ele>359.6666666666667</ele><time>2026-04-08T15:11:41.821Z</time></trkpt><trkpt lat="41.8257733" lon="12.85229"><ele>360.0</ele><time>2026-04-08T15:11:42.821Z</time></trkpt><trkpt lat="41.8257717" lon="12.8523967"><ele>360.3333333333333</ele><time>2026-04-08T15:11:43.82Z</time></trkpt><trkpt lat="41.8257683" lon="12.852505"><ele>360.66666666666663</ele><time>2026-04-08T15:11:44.822Z</time></trkpt><trkpt lat="41.8257617" lon="12.8526183"><ele>361.0</ele><time>2026-04-08T15:11:45.821Z</time></trkpt><trkpt lat="41.82575" lon="12.8527417"><ele>361.0</ele><time>2026-04-08T15:11:46.821Z</time></trkpt><trkpt lat="41.8257367" lon="12.8528717"><ele>361.0</ele><time>2026-04-08T15:11:47.82Z</time></trkpt><trkpt lat="41.8257233" lon="12.8529967"><ele>361.0</ele><time>2026-04-08T15:11:48.82Z</time></trkpt><trkpt lat="41.82571" lon="12.8531017"><ele>361.0</ele><time>2026-04-08T15:11:49.821Z</time></trkpt><trkpt lat="41.8257" lon="12.85319"><ele>361.0</ele><time>2026-04-08T15:11:50.82Z</time></trkpt><trkpt lat="41.8256833" lon="12.8533267"><ele>361.0</ele><time>2026-04-08T15:11:52.821Z</time></trkpt><trkpt lat="41.8256733" lon="12.853425"><ele>360.6</ele><time>2026-04-08T15:11:59.821Z</time></trkpt><trkpt lat="41.8256717" lon="12.8535367"><ele>360.20000000000005</ele><time>2026-04-08T15:12:02.822Z</time></trkpt><trkpt lat="41.82576" lon="12.8535783"><ele>359.79999999999995</ele><time>2026-04-08T15:12:04.821Z</time></trkpt><trkpt lat="41.8258383" lon="12.85357"><ele>359.4</ele><time>2026-04-08T15:12:05.821Z</time></trkpt><trkpt lat="41.8259417" lon="12.85356"><ele>359.0</ele><time>2026-04-08T15:12:06.821Z</time></trkpt><trkpt lat="41.8260633" lon="12.8535633"><ele>358.0</ele><time>2026-04-08T15:12:07.821Z</time></trkpt><trkpt lat="41.8262133" lon="12.8535867"><ele>357.0</ele><time>2026-04-08T15:12:08.822Z</time></trkpt><trkpt lat="41.8263667" lon="12.853625"><ele>356.0</ele><time>2026-04-08T15:12:09.821Z</time></trkpt><trkpt lat="41.8265267" lon="12.853685"><ele>356.0</ele><time>2026-04-08T15:12:10.822Z</time></trkpt><trkpt lat="41.826695" lon="12.8537617"><ele>356.0</ele><time>2026-04-08T15:12:11.822Z</time></trkpt><trkpt lat="41.8268667" lon="12.8538483"><ele>356.0</ele><time>2026-04-08T15:12:12.821Z</time></trkpt><trkpt lat="41.827045" lon="12.8539367"><ele>355.6666666666667</ele><time>2026-04-08T15:12:13.821Z</time></trkpt><trkpt lat="41.8272283" lon="12.8540233"><ele>355.3333333333333</ele><time>2026-04-08T15:12:14.822Z</time></trkpt><trkpt lat="41.8274133" lon="12.8540917"><ele>355.0</ele><time>2026-04-08T15:12:15.821Z</time></trkpt><trkpt lat="41.8275933" lon="12.8541483"><ele>353.0</ele><time>2026-04-08T15:12:16.821Z</time></trkpt><trkpt lat="41.8277783" lon="12.8541917"><ele>351.0</ele><time>2026-04-08T15:12:17.821Z</time></trkpt><trkpt lat="41.8279583" lon="12.8542183"><ele>349.0</ele><time>2026-04-08T15:12:18.821Z</time></trkpt><trkpt lat="41.828135" lon="12.8542333"><ele>349.0</ele><time>2026-04-08T15:12:19.821Z</time></trkpt><trkpt lat="41.8283267" lon="12.8542"><ele>349.0</ele><time>2026-04-08T15:12:20.822Z</time></trkpt><trkpt lat="41.82853" lon="12.8541467"><ele>349.0</ele><time>2026-04-08T15:12:21.821Z</time></trkpt><trkpt lat="41.82873" lon="12.8540883"><ele>346.0</ele><time>2026-04-08T15:12:22.821Z</time></trkpt><trkpt lat="41.8289217" lon="12.854055"><ele>343.0</ele><time>2026-04-08T15:12:23.821Z</time></trkpt><trkpt lat="41.829115" lon="12.8540483"><ele>340.0</ele><time>2026-04-08T15:12:24.82Z</time></trkpt><trkpt lat="41.8293083" lon="12.8540683"><ele>339.3333333333333</ele><time>2026-04-08T15:12:25.817Z</time></trkpt><trkpt lat="41.8295133" lon="12.8541067"><ele>338.6666666666667</ele><time>2026-04-08T15:12:26.819Z</time></trkpt><trkpt lat="41.8297117" lon="12.854165"><ele>338.0</ele><time>2026-04-08T15:12:27.82Z</time></trkpt><trkpt lat="41.8298933" lon="12.8542283"><ele>338.0</ele><time>2026-04-08T15:12:28.82Z</time></trkpt><trkpt lat="41.830065" lon="12.8542667"><ele>338.0</ele><time>2026-04-08T15:12:29.821Z</time></trkpt><trkpt lat="41.8302433" lon="12.8542717"><ele>338.0</ele><time>2026-04-08T15:12:30.822Z</time></trkpt><trkpt lat="41.8304367" lon="12.8542517"><ele>338.33333333333337</ele><time>2026-04-08T15:12:31.82Z</time></trkpt><trkpt lat="41.830635" lon="12.8542267"><ele>338.6666666666667</ele><time>2026-04-08T15:12:32.82Z</time></trkpt><trkpt lat="41.8308283" lon="12.8542017"><ele>339.0</ele><time>2026-04-08T15:12:33.821Z</time></trkpt><trkpt lat="41.8310067" lon="12.85418"><ele>337.3333333333333</ele><time>2026-04-08T15:12:34.82Z</time></trkpt><trkpt lat="41.8311733" lon="12.85419"><ele>335.66666666666663</ele><time>2026-04-08T15:12:35.821Z</time></trkpt><trkpt lat="41.83133" lon="12.8542333"><ele>334.0</ele><time>2026-04-08T15:12:36.821Z</time></trkpt><trkpt lat="41.8314783" lon="12.85431"><ele>336.66666666666663</ele><time>2026-04-08T15:12:37.82Z</time></trkpt><trkpt lat="41.8316217" lon="12.85442"><ele>339.3333333333333</ele><time>2026-04-08T15:12:38.822Z</time></trkpt><trkpt lat="41.8317517" lon="12.8545467"><ele>342.0</ele><time>2026-04-08T15:12:39.821Z</time></trkpt><trkpt lat="41.8318567" lon="12.8546917"><ele>342.0</ele><time>2026-04-08T15:12:40.82Z</time></trkpt><trkpt lat="41.831945" lon="12.8548567"><ele>342.0</ele><time>2026-04-08T15:12:41.821Z</time></trkpt><trkpt lat="41.8320333" lon="12.8550417"><ele>342.0</ele><time>2026-04-08T15:12:42.825Z</time></trkpt><trkpt lat="41.83213" lon="12.8552483"><ele>340.3333333333333</ele><time>2026-04-08T15:12:43.82Z</time></trkpt><trkpt lat="41.8322333" lon="12.8554683"><ele>338.66666666666663</ele><time>2026-04-08T15:12:44.821Z</time></trkpt><trkpt lat="41.8323367" lon="12.8557"><ele>337.0</ele><time>2026-04-08T15:12:45.818Z</time></trkpt><trkpt lat="41.8324367" lon="12.8559467"><ele>336.66666666666663</ele><time>2026-04-08T15:12:46.817Z</time></trkpt><trkpt lat="41.8325283" lon="12.8561917"><ele>336.3333333333333</ele><time>2026-04-08T15:12:47.818Z</time></trkpt><trkpt lat="41.832615" lon="12.85642"><ele>336.0</ele><time>2026-04-08T15:12:48.819Z</time></trkpt><trkpt lat="41.8326967" lon="12.8566217"><ele>337.5</ele><time>2026-04-08T15:12:49.817Z</time></trkpt><trkpt lat="41.8327767" lon="12.8567833"><ele>339.0</ele><time>2026-04-08T15:12:50.819Z</time></trkpt><trkpt lat="41.8328683" lon="12.8569067"><ele>340.5</ele><time>2026-04-08T15:12:51.817Z</time></trkpt><trkpt lat="41.832985" lon="12.8569917"><ele>342.0</ele><time>2026-04-08T15:12:52.82Z</time></trkpt><trkpt lat="41.83312" lon="12.8570517"><ele>342.0</ele><time>2026-04-08T15:12:53.818Z</time></trkpt><trkpt lat="41.8332717" lon="12.8570933"><ele>342.0</ele><time>2026-04-08T15:12:54.82Z</time></trkpt><trkpt lat="41.833435" lon="12.857115"><ele>342.0</ele><time>2026-04-08T15:12:55.82Z</time></trkpt><trkpt lat="41.8336083" lon="12.8571183"><ele>346.3333333333333</ele><time>2026-04-08T15:12:56.821Z</time></trkpt><trkpt lat="41.8337817" lon="12.857125"><ele>350.66666666666663</ele><time>2026-04-08T15:12:57.821Z</time></trkpt><trkpt lat="41.833945" lon="12.8571317"><ele>355.0</ele><time>2026-04-08T15:12:58.821Z</time></trkpt><trkpt lat="41.8341117" lon="12.85713"><ele>355.0</ele><time>2026-04-08T15:12:59.821Z</time></trkpt><trkpt lat="41.8342817" lon="12.85713"><ele>355.0</ele><time>2026-04-08T15:13:00.821Z</time></trkpt><trkpt lat="41.83445" lon="12.8571583"><ele>355.0</ele><time>2026-04-08T15:13:01.822Z</time></trkpt><trkpt lat="41.8346133" lon="12.8572133"><ele>358.3333333333333</ele><time>2026-04-08T15:13:02.821Z</time></trkpt><trkpt lat="41.8347683" lon="12.8573117"><ele>361.6666666666667</ele><time>2026-04-08T15:13:03.821Z</time></trkpt><trkpt lat="41.8349167" lon="12.85744"><ele>365.0</ele><time>2026-04-08T15:13:04.821Z</time></trkpt><trkpt lat="41.8350533" lon="12.8575917"><ele>366.0</ele><time>2026-04-08T15:13:05.821Z</time></trkpt><trkpt lat="41.83517" lon="12.857765"><ele>367.0</ele><time>2026-04-08T15:13:06.817Z</time></trkpt><trkpt lat="41.8352967" lon="12.8579133"><ele>368.0</ele><time>2026-04-08T15:13:07.819Z</time></trkpt><trkpt lat="41.8354233" lon="12.85807"><ele>368.0</ele><time>2026-04-08T15:13:08.819Z</time></trkpt><trkpt lat="41.83557" lon="12.8581917"><ele>368.0</ele><time>2026-04-08T15:13:09.817Z</time></trkpt><trkpt lat="41.8357317" lon="12.858295"><ele>368.0</ele><time>2026-04-08T15:13:10.821Z</time></trkpt><trkpt lat="41.835885" lon="12.85839"><ele>367.75</ele><time>2026-04-08T15:13:11.82Z</time></trkpt><trkpt lat="41.83603" lon="12.858475"><ele>367.5</ele><time>2026-04-08T15:13:12.823Z</time></trkpt><trkpt lat="41.8361633" lon="12.858555"><ele>367.25</ele><time>2026-04-08T15:13:13.822Z</time></trkpt><trkpt lat="41.8362817" lon="12.858625"><ele>367.0</ele><time>2026-04-08T15:13:14.82Z</time></trkpt><trkpt lat="41.83639" lon="12.85869"><ele>367.0</ele><time>2026-04-08T15:13:15.821Z</time></trkpt><trkpt lat="41.8364817" lon="12.8587433"><ele>367.0</ele><time>2026-04-08T15:13:16.818Z</time></trkpt><trkpt lat="41.8365517" lon="12.85879"><ele>367.0</ele><time>2026-04-08T15:13:17.817Z</time></trkpt><trkpt lat="41.83663" lon="12.8588567"><ele>367.0</ele><time>2026-04-08T15:13:19.823Z</time></trkpt><trkpt lat="41.8366317" lon="12.8589567"><ele>367.0</ele><time>2026-04-08T15:13:23.817Z</time></trkpt><trkpt lat="41.836585" lon="12.85912"><ele>367.0</ele><time>2026-04-08T15:13:25.82Z</time></trkpt><trkpt lat="41.836555" lon="12.8592117"><ele>367.0</ele><time>2026-04-08T15:13:26.821Z</time></trkpt><trkpt lat="41.8365267" lon="12.8593117"><ele>367.0</ele><time>2026-04-08T15:13:27.825Z</time></trkpt><trkpt lat="41.836495" lon="12.8594233"><ele>367.0</ele><time>2026-04-08T15:13:28.822Z</time></trkpt><trkpt lat="41.8364617" lon="12.8595467"><ele>367.0</ele><time>2026-04-08T15:13:29.821Z</time></trkpt><trkpt lat="41.8364267" lon="12.85968"><ele>367.0</ele><time>2026-04-08T15:13:30.82Z</time></trkpt><trkpt lat="41.8364" lon="12.859815"><ele>367.0</ele><time>2026-04-08T15:13:31.824Z</time></trkpt><trkpt lat="41.83637" lon="12.8599567"><ele>367.0</ele><time>2026-04-08T15:13:32.821Z</time></trkpt><trkpt lat="41.8363317" lon="12.8601033"><ele>367.0</ele><time>2026-04-08T15:13:33.821Z</time></trkpt><trkpt lat="41.83629" lon="12.8602567"><ele>367.0</ele><time>2026-04-08T15:13:34.82Z</time></trkpt><trkpt lat="41.83624" lon="12.8604183"><ele>367.0</ele><time>2026-04-08T15:13:35.82Z</time></trkpt><trkpt lat="41.8361833" lon="12.8605833"><ele>367.0</ele><time>2026-04-08T15:13:36.821Z</time></trkpt><trkpt lat="41.836125" lon="12.8607517"><ele>367.0</ele><time>2026-04-08T15:13:37.821Z</time></trkpt><trkpt lat="41.836065" lon="12.860915"><ele>367.0</ele><time>2026-04-08T15:13:38.821Z</time></trkpt><trkpt lat="41.8360083" lon="12.8610733"><ele>368.25</ele><time>2026-04-08T15:13:39.821Z</time></trkpt><trkpt lat="41.835945" lon="12.861235"><ele>369.5</ele><time>2026-04-08T15:13:40.821Z</time></trkpt><trkpt lat="41.83588" lon="12.8613983"><ele>370.75</ele><time>2026-04-08T15:13:41.821Z</time></trkpt><trkpt lat="41.8358133" lon="12.8615683"><ele>372.0</ele><time>2026-04-08T15:13:42.821Z</time></trkpt><trkpt lat="41.8357483" lon="12.8617467"><ele>371.3333333333333</ele><time>2026-04-08T15:13:43.822Z</time></trkpt><trkpt lat="41.8356833" lon="12.8619283"><ele>370.66666666666663</ele><time>2026-04-08T15:13:44.82Z</time></trkpt><trkpt lat="41.8356233" lon="12.862115"><ele>370.0</ele><time>2026-04-08T15:13:45.821Z</time></trkpt><trkpt lat="41.83557" lon="12.8623017"><ele>370.0</ele><time>2026-04-08T15:13:46.823Z</time></trkpt><trkpt lat="41.83552" lon="12.86249"><ele>370.0</ele><time>2026-04-08T15:13:47.821Z</time></trkpt><trkpt lat="41.83548" lon="12.86268"><ele>370.0</ele><time>2026-04-08T15:13:48.82Z</time></trkpt><trkpt lat="41.8354567" lon="12.8628783"><ele>370.0</ele><time>2026-04-08T15:13:49.819Z</time></trkpt><trkpt lat="41.8354417" lon="12.86308"><ele>369.66666666666663</ele><time>2026-04-08T15:13:50.82Z</time></trkpt><trkpt lat="41.835425" lon="12.863285"><ele>369.3333333333333</ele><time>2026-04-08T15:13:51.819Z</time></trkpt><trkpt lat="41.8354033" lon="12.8634933"><ele>369.0</ele><time>2026-04-08T15:13:52.82Z</time></trkpt><trkpt lat="41.8353783" lon="12.8637067"><ele>369.6666666666667</ele><time>2026-04-08T15:13:53.819Z</time></trkpt><trkpt lat="41.8353433" lon="12.8639183"><ele>370.33333333333337</ele><time>2026-04-08T15:13:54.819Z</time></trkpt><trkpt lat="41.8353" lon="12.8641167"><ele>371.0</ele><time>2026-04-08T15:13:55.819Z</time></trkpt><trkpt lat="41.83525" lon="12.8643083"><ele>372.0</ele><time>2026-04-08T15:13:56.82Z</time></trkpt><trkpt lat="41.8351933" lon="12.864495"><ele>373.0</ele><time>2026-04-08T15:13:57.823Z</time></trkpt><trkpt lat="41.8351333" lon="12.8646883"><ele>374.0</ele><time>2026-04-08T15:13:58.821Z</time></trkpt><trkpt lat="41.8350717" lon="12.8648867"><ele>374.6666666666667</ele><time>2026-04-08T15:13:59.821Z</time></trkpt><trkpt lat="41.835" lon="12.8650817"><ele>375.3333333333333</ele><time>2026-04-08T15:14:00.82Z</time></trkpt><trkpt lat="41.8349367" lon="12.8652783"><ele>376.0</ele><time>2026-04-08T15:14:01.822Z</time></trkpt><trkpt lat="41.8348733" lon="12.8654783"><ele>376.0</ele><time>2026-04-08T15:14:02.821Z</time></trkpt><trkpt lat="41.8348117" lon="12.8656767"><ele>376.0</ele><time>2026-04-08T15:14:03.821Z</time></trkpt><trkpt lat="41.8347517" lon="12.8658733"><ele>376.0</ele><time>2026-04-08T15:14:04.821Z</time></trkpt><trkpt lat="41.8346933" lon="12.8660733"><ele>376.66666666666663</ele><time>2026-04-08T15:14:05.821Z</time></trkpt><trkpt lat="41.834645" lon="12.8662817"><ele>377.3333333333333</ele><time>2026-04-08T15:14:06.821Z</time></trkpt><trkpt lat="41.83461" lon="12.8664967"><ele>378.0</ele><time>2026-04-08T15:14:07.821Z</time></trkpt><trkpt lat="41.834575" lon="12.86672"><ele>378.6666666666667</ele><time>2026-04-08T15:14:08.821Z</time></trkpt><trkpt lat="41.834545" lon="12.8669433"><ele>379.33333333333337</ele><time>2026-04-08T15:14:09.821Z</time></trkpt><trkpt lat="41.8345117" lon="12.867165"><ele>380.0</ele><time>2026-04-08T15:14:10.821Z</time></trkpt><trkpt lat="41.8344767" lon="12.8673867"><ele>380.33333333333337</ele><time>2026-04-08T15:14:11.825Z</time></trkpt><trkpt lat="41.8344533" lon="12.8676117"><ele>380.6666666666667</ele><time>2026-04-08T15:14:12.821Z</time></trkpt><trkpt lat="41.8344233" lon="12.867835"><ele>381.0</ele><time>2026-04-08T15:14:13.821Z</time></trkpt><trkpt lat="41.8343933" lon="12.8680567"><ele>381.0</ele><time>2026-04-08T15:14:14.822Z</time></trkpt><trkpt lat="41.834365" lon="12.8682683"><ele>381.0</ele><time>2026-04-08T15:14:15.821Z</time></trkpt><trkpt lat="41.8343417" lon="12.8684767"><ele>381.0</ele><time>2026-04-08T15:14:16.82Z</time></trkpt><trkpt lat="41.8343333" lon="12.86869"><ele>383.0</ele><time>2026-04-08T15:14:17.821Z</time></trkpt><trkpt lat="41.8343283" lon="12.8689083"><ele>385.0</ele><time>2026-04-08T15:14:18.821Z</time></trkpt><trkpt lat="41.8343267" lon="12.86913"><ele>387.0</ele><time>2026-04-08T15:14:19.822Z</time></trkpt><trkpt lat="41.83433" lon="12.8693583"><ele>387.66666666666663</ele><time>2026-04-08T15:14:20.821Z</time></trkpt><trkpt lat="41.834335" lon="12.869585"><ele>388.3333333333333</ele><time>2026-04-08T15:14:21.822Z</time></trkpt><trkpt lat="41.8343433" lon="12.869815"><ele>389.0</ele><time>2026-04-08T15:14:22.822Z</time></trkpt><trkpt lat="41.83435" lon="12.870045"><ele>389.66666666666663</ele><time>2026-04-08T15:14:23.822Z</time></trkpt><trkpt lat="41.8343617" lon="12.8702833"><ele>390.33333333333337</ele><time>2026-04-08T15:14:24.821Z</time></trkpt><trkpt lat="41.8343733" lon="12.870525"><ele>391.0</ele><time>2026-04-08T15:14:25.822Z</time></trkpt><trkpt lat="41.8343867" lon="12.87077"><ele>391.33333333333337</ele><time>2026-04-08T15:14:26.821Z</time></trkpt><trkpt lat="41.8343967" lon="12.8710167"><ele>391.66666666666663</ele><time>2026-04-08T15:14:27.821Z</time></trkpt><trkpt lat="41.8344067" lon="12.8712667"><ele>392.0</ele><time>2026-04-08T15:14:28.821Z</time></trkpt><trkpt lat="41.8344183" lon="12.8715183"><ele>392.0</ele><time>2026-04-08T15:14:29.821Z</time></trkpt><trkpt lat="41.83443" lon="12.8717717"><ele>392.0</ele><time>2026-04-08T15:14:30.821Z</time></trkpt><trkpt lat="41.8344383" lon="12.87202"><ele>392.0</ele><time>2026-04-08T15:14:31.822Z</time></trkpt><trkpt lat="41.834445" lon="12.87227"><ele>392.66666666666663</ele><time>2026-04-08T15:14:32.82Z</time></trkpt><trkpt lat="41.834455" lon="12.8725233"><ele>393.33333333333337</ele><time>2026-04-08T15:14:33.82Z</time></trkpt><trkpt lat="41.83447" lon="12.8727717"><ele>394.0</ele><time>2026-04-08T15:14:34.82Z</time></trkpt><trkpt lat="41.834485" lon="12.8730233"><ele>394.6666666666667</ele><time>2026-04-08T15:14:35.821Z</time></trkpt><trkpt lat="41.8344983" lon="12.8732733"><ele>395.33333333333337</ele><time>2026-04-08T15:14:36.82Z</time></trkpt><trkpt lat="41.8345083" lon="12.8735267"><ele>396.0</ele><time>2026-04-08T15:14:37.821Z</time></trkpt><trkpt lat="41.8345167" lon="12.8737667"><ele>398.0</ele><time>2026-04-08T15:14:38.82Z</time></trkpt><trkpt lat="41.8345233" lon="12.8739933"><ele>400.0</ele><time>2026-04-08T15:14:39.821Z</time></trkpt><trkpt lat="41.83453" lon="12.8742083"><ele>402.0</ele><time>2026-04-08T15:14:40.821Z</time></trkpt><trkpt lat="41.83454" lon="12.87441"><ele>402.25</ele><time>2026-04-08T15:14:41.82Z</time></trkpt><trkpt lat="41.83455" lon="12.8745967"><ele>402.5</ele><time>2026-04-08T15:14:42.82Z</time></trkpt><trkpt lat="41.834565" lon="12.8747717"><ele>402.75</ele><time>2026-04-08T15:14:43.821Z</time></trkpt><trkpt lat="41.8345967" lon="12.8749383"><ele>403.0</ele><time>2026-04-08T15:14:44.82Z</time></trkpt><trkpt lat="41.8346483" lon="12.8751"><ele>403.25</ele><time>2026-04-08T15:14:45.821Z</time></trkpt><trkpt lat="41.83472" lon="12.875255"><ele>403.5</ele><time>2026-04-08T15:14:46.821Z</time></trkpt><trkpt lat="41.8348" lon="12.8754183"><ele>403.75</ele><time>2026-04-08T15:14:47.821Z</time></trkpt><trkpt lat="41.83488" lon="12.8755967"><ele>404.0</ele><time>2026-04-08T15:14:48.821Z</time></trkpt><trkpt lat="41.8349533" lon="12.8757717"><ele>404.0</ele><time>2026-04-08T15:14:49.822Z</time></trkpt><trkpt lat="41.8350267" lon="12.87594"><ele>404.0</ele><time>2026-04-08T15:14:50.82Z</time></trkpt><trkpt lat="41.8351017" lon="12.8761083"><ele>404.0</ele><time>2026-04-08T15:14:51.823Z</time></trkpt><trkpt lat="41.835175" lon="12.8762683"><ele>404.0</ele><time>2026-04-08T15:14:52.821Z</time></trkpt><trkpt lat="41.8352433" lon="12.8764133"><ele>404.0</ele><time>2026-04-08T15:14:53.821Z</time></trkpt><trkpt lat="41.8353133" lon="12.8765517"><ele>404.0</ele><time>2026-04-08T15:14:54.821Z</time></trkpt><trkpt lat="41.8353867" lon="12.876685"><ele>404.0</ele><time>2026-04-08T15:14:55.821Z</time></trkpt><trkpt lat="41.8354617" lon="12.87682"><ele>404.0</ele><time>2026-04-08T15:14:56.82Z</time></trkpt><trkpt lat="41.83554" lon="12.876955"><ele>404.25</ele><time>2026-04-08T15:14:57.822Z</time></trkpt><trkpt lat="41.8356233" lon="12.87709"><ele>404.5</ele><time>2026-04-08T15:14:58.821Z</time></trkpt><trkpt lat="41.8357067" lon="12.8772267"><ele>404.75</ele><time>2026-04-08T15:14:59.821Z</time></trkpt><trkpt lat="41.835795" lon="12.8773633"><ele>405.0</ele><time>2026-04-08T15:15:00.82Z</time></trkpt><trkpt lat="41.8358833" lon="12.8774933"><ele>405.6</ele><time>2026-04-08T15:15:01.821Z</time></trkpt><trkpt lat="41.8359667" lon="12.877615"><ele>406.2</ele><time>2026-04-08T15:15:02.821Z</time></trkpt><trkpt lat="41.83604" lon="12.8777267"><ele>406.79999999999995</ele><time>2026-04-08T15:15:03.821Z</time></trkpt><trkpt lat="41.836105" lon="12.8778333"><ele>407.4</ele><time>2026-04-08T15:15:04.821Z</time></trkpt><trkpt lat="41.8361617" lon="12.8779333"><ele>408.0</ele><time>2026-04-08T15:15:05.822Z</time></trkpt><trkpt lat="41.8362183" lon="12.8780333"><ele>408.1666666666667</ele><time>2026-04-08T15:15:06.823Z</time></trkpt><trkpt lat="41.836275" lon="12.8781317"><ele>408.33333333333337</ele><time>2026-04-08T15:15:07.821Z</time></trkpt><trkpt lat="41.8363267" lon="12.878225"><ele>408.5</ele><time>2026-04-08T15:15:08.82Z</time></trkpt><trkpt lat="41.8363733" lon="12.8783133"><ele>408.6666666666667</ele><time>2026-04-08T15:15:09.82Z</time></trkpt><trkpt lat="41.8364183" lon="12.8783983"><ele>408.83333333333337</ele><time>2026-04-08T15:15:10.822Z</time></trkpt><trkpt lat="41.8364633" lon="12.878485"><ele>409.0</ele><time>2026-04-08T15:15:11.821Z</time></trkpt><trkpt lat="41.8365083" lon="12.8785733"><ele>409.1666666666667</ele><time>2026-04-08T15:15:12.82Z</time></trkpt><trkpt lat="41.8365517" lon="12.8786617"><ele>409.33333333333337</ele><time>2026-04-08T15:15:13.82Z</time></trkpt><trkpt lat="41.8365933" lon="12.8787517"><ele>409.5</ele><time>2026-04-08T15:15:14.821Z</time></trkpt><trkpt lat="41.836635" lon="12.8788417"><ele>409.66666666666663</ele><time>2026-04-08T15:15:15.82Z</time></trkpt><trkpt lat="41.8366767" lon="12.8789333"><ele>409.8333333333333</ele><time>2026-04-08T15:15:16.823Z</time></trkpt><trkpt lat="41.836715" lon="12.8790317"><ele>410.0</ele><time>2026-04-08T15:15:17.821Z</time></trkpt><trkpt lat="41.8367533" lon="12.879135"><ele>409.99999999999994</ele><time>2026-04-08T15:15:18.818Z</time></trkpt><trkpt lat="41.8367917" lon="12.8792417"><ele>410.0</ele><time>2026-04-08T15:15:19.818Z</time></trkpt><trkpt lat="41.836825" lon="12.87935"><ele>410.0</ele><time>2026-04-08T15:15:20.819Z</time></trkpt><trkpt lat="41.8368583" lon="12.8794583"><ele>410.0</ele><time>2026-04-08T15:15:21.818Z</time></trkpt><trkpt lat="41.836885" lon="12.879565"><ele>409.99999999999994</ele><time>2026-04-08T15:15:22.819Z</time></trkpt><trkpt lat="41.8369067" lon="12.87967"><ele>410.0</ele><time>2026-04-08T15:15:23.819Z</time></trkpt><trkpt lat="41.83693" lon="12.87978"><ele>411.16666666666663</ele><time>2026-04-08T15:15:24.817Z</time></trkpt><trkpt lat="41.8369483" lon="12.879895"><ele>412.3333333333333</ele><time>2026-04-08T15:15:25.818Z</time></trkpt><trkpt lat="41.8369617" lon="12.8800067"><ele>413.5</ele><time>2026-04-08T15:15:26.818Z</time></trkpt><trkpt lat="41.83697" lon="12.8801167"><ele>414.66666666666663</ele><time>2026-04-08T15:15:27.818Z</time></trkpt><trkpt lat="41.836975" lon="12.88023"><ele>415.8333333333333</ele><time>2026-04-08T15:15:28.819Z</time></trkpt><trkpt lat="41.83698" lon="12.8803417"><ele>417.0</ele><time>2026-04-08T15:15:29.821Z</time></trkpt><trkpt lat="41.8369783" lon="12.8804583"><ele>417.8</ele><time>2026-04-08T15:15:30.82Z</time></trkpt><trkpt lat="41.836975" lon="12.8805717"><ele>418.6</ele><time>2026-04-08T15:15:31.821Z</time></trkpt><trkpt lat="41.83698" lon="12.8806783"><ele>419.40000000000003</ele><time>2026-04-08T15:15:32.82Z</time></trkpt><trkpt lat="41.836985" lon="12.88077"><ele>420.20000000000005</ele><time>2026-04-08T15:15:33.818Z</time></trkpt><trkpt lat="41.836995" lon="12.88093"><ele>421.0</ele><time>2026-04-08T15:15:35.819Z</time></trkpt><trkpt lat="41.8370117" lon="12.8811"><ele>421.14285714285717</ele><time>2026-04-08T15:15:37.821Z</time></trkpt><trkpt lat="41.8370217" lon="12.8811917"><ele>421.2857142857143</ele><time>2026-04-08T15:15:38.821Z</time></trkpt><trkpt lat="41.837035" lon="12.8812867"><ele>421.42857142857144</ele><time>2026-04-08T15:15:39.817Z</time></trkpt><trkpt lat="41.8370483" lon="12.8813733"><ele>421.57142857142856</ele><time>2026-04-08T15:15:40.819Z</time></trkpt><trkpt lat="41.8370717" lon="12.8814833"><ele>421.7142857142857</ele><time>2026-04-08T15:15:42.817Z</time></trkpt><trkpt lat="41.83708" lon="12.8815767"><ele>421.8571428571429</ele><time>2026-04-08T15:15:51.818Z</time></trkpt><trkpt lat="41.8371033" lon="12.881665"><ele>422.0</ele><time>2026-04-08T15:15:55.82Z</time></trkpt><trkpt lat="41.8370817" lon="12.8817767"><ele>422.0</ele><time>2026-04-08T15:15:59.821Z</time></trkpt><trkpt lat="41.837055" lon="12.8818683"><ele>422.0</ele><time>2026-04-08T15:16:02.82Z</time></trkpt><trkpt lat="41.837025" lon="12.881965"><ele>422.0</ele><time>2026-04-08T15:16:06.821Z</time></trkpt><trkpt lat="41.8369933" lon="12.8820717"><ele>422.0</ele><time>2026-04-08T15:16:10.82Z</time></trkpt><trkpt lat="41.836985" lon="12.8821933"><ele>422.0</ele><time>2026-04-08T15:16:12.822Z</time></trkpt><trkpt lat="41.837" lon="12.88236"><ele>421.99999999999994</ele><time>2026-04-08T15:16:14.821Z</time></trkpt><trkpt lat="41.8370017" lon="12.8825267"><ele>422.0</ele><time>2026-04-08T15:16:16.821Z</time></trkpt><trkpt lat="41.837" lon="12.88262"><ele>422.0</ele><time>2026-04-08T15:16:17.821Z</time></trkpt><trkpt lat="41.837" lon="12.88272"><ele>422.0</ele><time>2026-04-08T15:16:18.818Z</time></trkpt><trkpt lat="41.837015" lon="12.88283"><ele>421.99999999999994</ele><time>2026-04-08T15:16:19.819Z</time></trkpt><trkpt lat="41.8370417" lon="12.8829433"><ele>422.0</ele><time>2026-04-08T15:16:20.818Z</time></trkpt><trkpt lat="41.8370767" lon="12.88306"><ele>423.0</ele><time>2026-04-08T15:16:21.82Z</time></trkpt><trkpt lat="41.83712" lon="12.8831783"><ele>424.0</ele><time>2026-04-08T15:16:22.818Z</time></trkpt><trkpt lat="41.8371733" lon="12.8832983"><ele>425.00000000000006</ele><time>2026-04-08T15:16:23.819Z</time></trkpt><trkpt lat="41.8372333" lon="12.8834183"><ele>426.0</ele><time>2026-04-08T15:16:24.819Z</time></trkpt><trkpt lat="41.83729" lon="12.883535"><ele>427.0</ele><time>2026-04-08T15:16:25.818Z</time></trkpt><trkpt lat="41.8373383" lon="12.8836467"><ele>427.20000000000005</ele><time>2026-04-08T15:16:26.818Z</time></trkpt><trkpt lat="41.8373867" lon="12.88376"><ele>427.40000000000003</ele><time>2026-04-08T15:16:27.82Z</time></trkpt><trkpt lat="41.8374383" lon="12.88387"><ele>427.59999999999997</ele><time>2026-04-08T15:16:28.819Z</time></trkpt><trkpt lat="41.83749" lon="12.8839833"><ele>427.79999999999995</ele><time>2026-04-08T15:16:29.822Z</time></trkpt><trkpt lat="41.8375483" lon="12.8840983"><ele>428.0</ele><time>2026-04-08T15:16:30.822Z</time></trkpt><trkpt lat="41.8376067" lon="12.8842267"><ele>430.0</ele><time>2026-04-08T15:16:31.821Z</time></trkpt><trkpt lat="41.8376667" lon="12.8843567"><ele>432.0</ele><time>2026-04-08T15:16:32.822Z</time></trkpt><trkpt lat="41.837725" lon="12.8844883"><ele>434.0</ele><time>2026-04-08T15:16:33.821Z</time></trkpt><trkpt lat="41.8377883" lon="12.8846233"><ele>436.0</ele><time>2026-04-08T15:16:34.818Z</time></trkpt><trkpt lat="41.837865" lon="12.8847533"><ele>436.0</ele><time>2026-04-08T15:16:35.817Z</time></trkpt><trkpt lat="41.8379483" lon="12.8848783"><ele>436.0</ele><time>2026-04-08T15:16:36.821Z</time></trkpt><trkpt lat="41.8380383" lon="12.8849967"><ele>436.0</ele><time>2026-04-08T15:16:37.82Z</time></trkpt><trkpt lat="41.8381367" lon="12.8851183"><ele>436.0</ele><time>2026-04-08T15:16:38.821Z</time></trkpt><trkpt lat="41.8382467" lon="12.885225"><ele>436.8</ele><time>2026-04-08T15:16:39.818Z</time></trkpt><trkpt lat="41.83835" lon="12.8853167"><ele>437.6</ele><time>2026-04-08T15:16:40.821Z</time></trkpt><trkpt lat="41.8384433" lon="12.8853933"><ele>438.4</ele><time>2026-04-08T15:16:41.818Z</time></trkpt><trkpt lat="41.8385317" lon="12.8854583"><ele>439.2</ele><time>2026-04-08T15:16:42.818Z</time></trkpt><trkpt lat="41.8386133" lon="12.8855117"><ele>440.0</ele><time>2026-04-08T15:16:43.82Z</time></trkpt><trkpt lat="41.8386883" lon="12.8855517"><ele>439.99999999999994</ele><time>2026-04-08T15:16:44.818Z</time></trkpt><trkpt lat="41.838765" lon="12.885575"><ele>440.0</ele><time>2026-04-08T15:16:45.823Z</time></trkpt><trkpt lat="41.8388517" lon="12.8855717"><ele>440.0</ele><time>2026-04-08T15:16:46.823Z</time></trkpt><trkpt lat="41.838935" lon="12.8855583"><ele>440.0</ele><time>2026-04-08T15:16:47.82Z</time></trkpt><trkpt lat="41.8390067" lon="12.88553"><ele>439.99999999999994</ele><time>2026-04-08T15:16:48.817Z</time></trkpt><trkpt lat="41.8390817" lon="12.8854917"><ele>440.0</ele><time>2026-04-08T15:16:49.819Z</time></trkpt><trkpt lat="41.8391683" lon="12.8854633"><ele>440.0</ele><time>2026-04-08T15:16:50.818Z</time></trkpt><trkpt lat="41.8392633" lon="12.8854433"><ele>440.0</ele><time>2026-04-08T15:16:51.818Z</time></trkpt><trkpt lat="41.83937" lon="12.8854367"><ele>440.0</ele><time>2026-04-08T15:16:52.818Z</time></trkpt><trkpt lat="41.8394867" lon="12.8854383"><ele>440.0</ele><time>2026-04-08T15:16:53.819Z</time></trkpt><trkpt lat="41.8395983" lon="12.8854417"><ele>440.0</ele><time>2026-04-08T15:16:54.819Z</time></trkpt><trkpt lat="41.839695" lon="12.885455"><ele>441.8333333333333</ele><time>2026-04-08T15:16:55.819Z</time></trkpt><trkpt lat="41.8397817" lon="12.8854783"><ele>443.66666666666663</ele><time>2026-04-08T15:16:56.818Z</time></trkpt><trkpt lat="41.839855" lon="12.8855017"><ele>445.5</ele><time>2026-04-08T15:16:57.818Z</time></trkpt><trkpt lat="41.839965" lon="12.8855417"><ele>447.33333333333337</ele><time>2026-04-08T15:16:59.819Z</time></trkpt><trkpt lat="41.84003" lon="12.8855567"><ele>449.1666666666667</ele><time>2026-04-08T15:17:01.818Z</time></trkpt><trkpt lat="41.8400933" lon="12.8855683"><ele>451.0</ele><time>2026-04-08T15:17:04.818Z</time></trkpt><trkpt lat="41.840155" lon="12.8855867"><ele>451.0</ele><time>2026-04-08T15:17:06.817Z</time></trkpt><trkpt lat="41.84022" lon="12.8855867"><ele>451.0</ele><time>2026-04-08T15:17:09.818Z</time></trkpt><trkpt lat="41.8401583" lon="12.8854683"><ele>451.0</ele><time>2026-04-08T15:17:13.818Z</time></trkpt><trkpt lat="41.840085" lon="12.8854183"><ele>451.0</ele><time>2026-04-08T15:17:14.818Z</time></trkpt><trkpt lat="41.84" lon="12.88535"><ele>451.0</ele><time>2026-04-08T15:17:15.821Z</time></trkpt><trkpt lat="41.83992" lon="12.8852617"><ele>451.0</ele><time>2026-04-08T15:17:16.82Z</time></trkpt><trkpt lat="41.839835" lon="12.8851583"><ele>451.0</ele><time>2026-04-08T15:17:17.818Z</time></trkpt><trkpt lat="41.8397533" lon="12.885045"><ele>451.0</ele><time>2026-04-08T15:17:18.819Z</time></trkpt><trkpt lat="41.8396733" lon="12.8849233"><ele>451.0</ele><time>2026-04-08T15:17:19.82Z</time></trkpt><trkpt lat="41.8396033" lon="12.8848017"><ele>454.5</ele><time>2026-04-08T15:17:20.819Z</time></trkpt><trkpt lat="41.839545" lon="12.88467"><ele>458.0</ele><time>2026-04-08T15:17:21.818Z</time></trkpt><trkpt lat="41.8394983" lon="12.8845233"><ele>461.5</ele><time>2026-04-08T15:17:22.818Z</time></trkpt><trkpt lat="41.8394617" lon="12.8843717"><ele>465.0</ele><time>2026-04-08T15:17:23.82Z</time></trkpt><trkpt lat="41.8394383" lon="12.8842167"><ele>466.25</ele><time>2026-04-08T15:17:24.822Z</time></trkpt><trkpt lat="41.8394333" lon="12.88407"><ele>467.5</ele><time>2026-04-08T15:17:25.822Z</time></trkpt><trkpt lat="41.83945" lon="12.8839283"><ele>468.75</ele><time>2026-04-08T15:17:26.822Z</time></trkpt><trkpt lat="41.839495" lon="12.883775"><ele>470.0</ele><time>2026-04-08T15:17:27.821Z</time></trkpt><trkpt lat="41.8395567" lon="12.8836333"><ele>470.0</ele><time>2026-04-08T15:17:28.821Z</time></trkpt><trkpt lat="41.8396383" lon="12.88349"><ele>470.0</ele><time>2026-04-08T15:17:29.819Z</time></trkpt><trkpt lat="41.8397283" lon="12.8833483"><ele>470.0</ele><time>2026-04-08T15:17:30.819Z</time></trkpt><trkpt lat="41.8398217" lon="12.8832083"><ele>470.0</ele><time>2026-04-08T15:17:31.818Z</time></trkpt><trkpt lat="41.83992" lon="12.88308"><ele>469.5</ele><time>2026-04-08T15:17:32.817Z</time></trkpt><trkpt lat="41.840015" lon="12.88296"><ele>469.0</ele><time>2026-04-08T15:17:33.817Z</time></trkpt><trkpt lat="41.8401117" lon="12.8828483"><ele>468.5</ele><time>2026-04-08T15:17:34.826Z</time></trkpt><trkpt lat="41.840215" lon="12.88274"><ele>468.0</ele><time>2026-04-08T15:17:35.823Z</time></trkpt><trkpt lat="41.8403167" lon="12.8826317"><ele>469.59999999999997</ele><time>2026-04-08T15:17:36.818Z</time></trkpt><trkpt lat="41.84041" lon="12.882535"><ele>471.19999999999993</ele><time>2026-04-08T15:17:37.817Z</time></trkpt><trkpt lat="41.84049" lon="12.882455"><ele>472.8</ele><time>2026-04-08T15:17:38.822Z</time></trkpt><trkpt lat="41.8405533" lon="12.88239"><ele>474.4</ele><time>2026-04-08T15:17:39.821Z</time></trkpt><trkpt lat="41.840655" lon="12.882345"><ele>476.0</ele><time>2026-04-08T15:17:41.822Z</time></trkpt><trkpt lat="41.840745" lon="12.8824133"><ele>475.99999999999994</ele><time>2026-04-08T15:17:43.822Z</time></trkpt><trkpt lat="41.84077" lon="12.8825017"><ele>476.0</ele><time>2026-04-08T15:17:44.822Z</time></trkpt><trkpt lat="41.84077" lon="12.8826017"><ele>476.0</ele><time>2026-04-08T15:17:45.822Z</time></trkpt><trkpt lat="41.840755" lon="12.8827083"><ele>476.0</ele><time>2026-04-08T15:17:46.821Z</time></trkpt><trkpt lat="41.84073" lon="12.8828233"><ele>475.99999999999994</ele><time>2026-04-08T15:17:47.818Z</time></trkpt><trkpt lat="41.840705" lon="12.8829467"><ele>476.0</ele><time>2026-04-08T15:17:48.819Z</time></trkpt><trkpt lat="41.8406733" lon="12.8830567"><ele>477.16666666666663</ele><time>2026-04-08T15:17:49.822Z</time></trkpt><trkpt lat="41.8406417" lon="12.8831717"><ele>478.3333333333333</ele><time>2026-04-08T15:17:50.818Z</time></trkpt><trkpt lat="41.8406133" lon="12.8833117"><ele>479.5</ele><time>2026-04-08T15:17:51.818Z</time></trkpt><trkpt lat="41.8405883" lon="12.8834217"><ele>480.66666666666663</ele><time>2026-04-08T15:17:52.819Z</time></trkpt><trkpt lat="41.8405733" lon="12.88352"><ele>481.8333333333333</ele><time>2026-04-08T15:17:53.82Z</time></trkpt><trkpt lat="41.8405633" lon="12.8836083"><ele>483.0</ele><time>2026-04-08T15:17:54.821Z</time></trkpt><trkpt lat="41.8405533" lon="12.883695"><ele>483.5</ele><time>2026-04-08T15:17:55.821Z</time></trkpt><trkpt lat="41.840565" lon="12.883825"><ele>484.0</ele><time>2026-04-08T15:17:57.82Z</time></trkpt><trkpt lat="41.8406167" lon="12.883875"><ele>484.5</ele><time>2026-04-08T15:17:59.818Z</time></trkpt><trkpt lat="41.8406717" lon="12.88378"><ele>485.0</ele><time>2026-04-08T15:18:45.818Z</time></trkpt><trkpt lat="41.840715" lon="12.8837017"><ele>485.5</ele><time>2026-04-08T15:18:47.821Z</time></trkpt><trkpt lat="41.8408083" lon="12.88366"><ele>486.0</ele><time>2026-04-08T15:18:49.821Z</time></trkpt><trkpt lat="41.8408717" lon="12.883665"><ele>486.0</ele><time>2026-04-08T15:18:50.822Z</time></trkpt><trkpt lat="41.8409417" lon="12.8836817"><ele>486.0</ele><time>2026-04-08T15:18:51.821Z</time></trkpt><trkpt lat="41.841005" lon="12.8836917"><ele>486.0</ele><time>2026-04-08T15:18:52.821Z</time></trkpt><trkpt lat="41.8411317" lon="12.8837067"><ele>486.0</ele><time>2026-04-08T15:18:54.818Z</time></trkpt><trkpt lat="41.8412067" lon="12.8837233"><ele>486.0</ele><time>2026-04-08T15:18:55.821Z</time></trkpt><trkpt lat="41.8412933" lon="12.88374"><ele>486.0</ele><time>2026-04-08T15:18:56.822Z</time></trkpt><trkpt lat="41.8413883" lon="12.8837567"><ele>487.0</ele><time>2026-04-08T15:18:57.821Z</time></trkpt><trkpt lat="41.8414783" lon="12.8837733"><ele>488.0</ele><time>2026-04-08T15:18:58.821Z</time></trkpt><trkpt lat="41.8415583" lon="12.88379"><ele>489.0</ele><time>2026-04-08T15:18:59.818Z</time></trkpt><trkpt lat="41.84164" lon="12.8838067"><ele>490.0</ele><time>2026-04-08T15:19:00.818Z</time></trkpt><trkpt lat="41.8417317" lon="12.8838417"><ele>491.0</ele><time>2026-04-08T15:19:01.819Z</time></trkpt><trkpt lat="41.84183" lon="12.8838967"><ele>491.5</ele><time>2026-04-08T15:19:02.818Z</time></trkpt><trkpt lat="41.841935" lon="12.8839683"><ele>492.0</ele><time>2026-04-08T15:19:03.818Z</time></trkpt><trkpt lat="41.8420467" lon="12.8840467"><ele>492.5</ele><time>2026-04-08T15:19:04.822Z</time></trkpt><trkpt lat="41.8421567" lon="12.8841283"><ele>493.0</ele><time>2026-04-08T15:19:05.82Z</time></trkpt><trkpt lat="41.8422667" lon="12.8842233"><ele>494.0</ele><time>2026-04-08T15:19:06.821Z</time></trkpt><trkpt lat="41.8423733" lon="12.8843367"><ele>495.0</ele><time>2026-04-08T15:19:07.819Z</time></trkpt><trkpt lat="41.842465" lon="12.8844717"><ele>496.0</ele><time>2026-04-08T15:19:08.823Z</time></trkpt><trkpt lat="41.8425533" lon="12.884625"><ele>497.0</ele><time>2026-04-08T15:19:09.821Z</time></trkpt><trkpt lat="41.84264" lon="12.8847917"><ele>499.0</ele><time>2026-04-08T15:19:10.821Z</time></trkpt><trkpt lat="41.8427233" lon="12.8849567"><ele>501.0</ele><time>2026-04-08T15:19:11.821Z</time></trkpt><trkpt lat="41.8428067" lon="12.8851117"><ele>503.0</ele><time>2026-04-08T15:19:12.822Z</time></trkpt><trkpt lat="41.8428883" lon="12.8852583"><ele>505.0</ele><time>2026-04-08T15:19:13.821Z</time></trkpt><trkpt lat="41.84297" lon="12.8854033"><ele>506.5</ele><time>2026-04-08T15:19:14.822Z</time></trkpt><trkpt lat="41.8430517" lon="12.88555"><ele>508.0</ele><time>2026-04-08T15:19:15.821Z</time></trkpt><trkpt lat="41.84313" lon="12.8856983"><ele>509.5</ele><time>2026-04-08T15:19:16.822Z</time></trkpt><trkpt lat="41.8431917" lon="12.885845"><ele>511.0</ele><time>2026-04-08T15:19:17.824Z</time></trkpt><trkpt lat="41.8432417" lon="12.8859883"><ele>511.6</ele><time>2026-04-08T15:19:18.821Z</time></trkpt><trkpt lat="41.843285" lon="12.8861367"><ele>512.2</ele><time>2026-04-08T15:19:19.82Z</time></trkpt><trkpt lat="41.84332" lon="12.8862817"><ele>512.8</ele><time>2026-04-08T15:19:20.82Z</time></trkpt><trkpt lat="41.8433617" lon="12.8864183"><ele>513.4</ele><time>2026-04-08T15:19:21.822Z</time></trkpt><trkpt lat="41.8433967" lon="12.8865467"><ele>514.0</ele><time>2026-04-08T15:19:22.824Z</time></trkpt><trkpt lat="41.843435" lon="12.8866767"><ele>518.0</ele><time>2026-04-08T15:19:23.82Z</time></trkpt><trkpt lat="41.8434733" lon="12.8868083"><ele>522.0</ele><time>2026-04-08T15:19:24.821Z</time></trkpt><trkpt lat="41.84351" lon="12.8869417"><ele>526.0</ele><time>2026-04-08T15:19:25.822Z</time></trkpt><trkpt lat="41.8435483" lon="12.8870783"><ele>530.0</ele><time>2026-04-08T15:19:26.823Z</time></trkpt><trkpt lat="41.8435867" lon="12.8872167"><ele>534.0</ele><time>2026-04-08T15:19:27.817Z</time></trkpt><trkpt lat="41.8436267" lon="12.8873583"><ele>534.0</ele><time>2026-04-08T15:19:28.82Z</time></trkpt><trkpt lat="41.8436717" lon="12.8875033"><ele>534.0</ele><time>2026-04-08T15:19:29.82Z</time></trkpt><trkpt lat="41.8437133" lon="12.8876583"><ele>534.0</ele><time>2026-04-08T15:19:30.821Z</time></trkpt><trkpt lat="41.8437533" lon="12.8878217"><ele>534.0</ele><time>2026-04-08T15:19:31.824Z</time></trkpt><trkpt lat="41.84379" lon="12.8879933"><ele>535.5</ele><time>2026-04-08T15:19:32.822Z</time></trkpt><trkpt lat="41.8438167" lon="12.888165"><ele>537.0</ele><time>2026-04-08T15:19:33.821Z</time></trkpt><trkpt lat="41.8438267" lon="12.8883317"><ele>538.5</ele><time>2026-04-08T15:19:34.821Z</time></trkpt><trkpt lat="41.8438283" lon="12.8884883"><ele>540.0</ele><time>2026-04-08T15:19:35.821Z</time></trkpt><trkpt lat="41.8438267" lon="12.888635"><ele>542.5</ele><time>2026-04-08T15:19:36.818Z</time></trkpt><trkpt lat="41.8438217" lon="12.8887717"><ele>545.0</ele><time>2026-04-08T15:19:37.818Z</time></trkpt><trkpt lat="41.8438167" lon="12.8888917"><ele>547.5</ele><time>2026-04-08T15:19:38.82Z</time></trkpt><trkpt lat="41.84381" lon="12.888995"><ele>550.0</ele><time>2026-04-08T15:19:39.818Z</time></trkpt><trkpt lat="41.8438017" lon="12.8890817"><ele>552.5</ele><time>2026-04-08T15:19:40.819Z</time></trkpt><trkpt lat="41.8437917" lon="12.8891867"><ele>555.0</ele><time>2026-04-08T15:19:42.817Z</time></trkpt><trkpt lat="41.8437783" lon="12.8893"><ele>558.0</ele><time>2026-04-08T15:19:53.821Z</time></trkpt><trkpt lat="41.8437783" lon="12.8894333"><ele>561.0</ele><time>2026-04-08T15:19:55.821Z</time></trkpt><trkpt lat="41.8437767" lon="12.889525"><ele>564.0</ele><time>2026-04-08T15:19:56.821Z</time></trkpt><trkpt lat="41.8437567" lon="12.8896917"><ele>567.0</ele><time>2026-04-08T15:19:58.821Z</time></trkpt><trkpt lat="41.8437317" lon="12.8897783"><ele>570.0</ele><time>2026-04-08T15:19:59.817Z</time></trkpt><trkpt lat="41.843695" lon="12.8898683"><ele>573.0</ele><time>2026-04-08T15:20:00.821Z</time></trkpt><trkpt lat="41.843645" lon="12.8899617"><ele>573.0</ele><time>2026-04-08T15:20:01.822Z</time></trkpt><trkpt lat="41.843575" lon="12.890055"><ele>573.0</ele><time>2026-04-08T15:20:02.822Z</time></trkpt><trkpt lat="41.8434967" lon="12.8901283"><ele>573.0</ele><time>2026-04-08T15:20:03.822Z</time></trkpt><trkpt lat="41.8434167" lon="12.890185"><ele>573.0</ele><time>2026-04-08T15:20:04.821Z</time></trkpt><trkpt lat="41.8433283" lon="12.8902233"><ele>573.0</ele><time>2026-04-08T15:20:05.822Z</time></trkpt><trkpt lat="41.8432367" lon="12.8902483"><ele>572.3333333333334</ele><time>2026-04-08T15:20:06.821Z</time></trkpt><trkpt lat="41.84314" lon="12.8902533"><ele>571.6666666666666</ele><time>2026-04-08T15:20:07.821Z</time></trkpt><trkpt lat="41.8430533" lon="12.890255"><ele>571.0</ele><time>2026-04-08T15:20:08.821Z</time></trkpt><trkpt lat="41.8429767" lon="12.89025"><ele>570.3333333333333</ele><time>2026-04-08T15:20:09.817Z</time></trkpt><trkpt lat="41.8429083" lon="12.8902467"><ele>569.6666666666666</ele><time>2026-04-08T15:20:10.821Z</time></trkpt><trkpt lat="41.8428433" lon="12.8902283"><ele>569.0</ele><time>2026-04-08T15:20:11.821Z</time></trkpt><trkpt lat="41.8427233" lon="12.8901883"><ele>569.0000000000001</ele><time>2026-04-08T15:20:13.821Z</time></trkpt><trkpt lat="41.8426533" lon="12.89015"><ele>569.0</ele><time>2026-04-08T15:20:14.821Z</time></trkpt><trkpt lat="41.842595" lon="12.890085"><ele>569.0</ele><time>2026-04-08T15:20:15.822Z</time></trkpt><trkpt lat="41.8425467" lon="12.8900267"><ele>569.0</ele><time>2026-04-08T15:20:16.821Z</time></trkpt><trkpt lat="41.8424817" lon="12.8899333"><ele>569.0</ele><time>2026-04-08T15:20:18.823Z</time></trkpt><trkpt lat="41.8424217" lon="12.8898933"><ele>569.0000000000001</ele><time>2026-04-08T15:20:21.82Z</time></trkpt><trkpt lat="41.84237" lon="12.8899417"><ele>569.0</ele><time>2026-04-08T15:20:25.821Z</time></trkpt><trkpt lat="41.8424167" lon="12.8900133"><ele>569.0</ele><time>2026-04-08T15:20:27.821Z</time></trkpt><trkpt lat="41.8425083" lon="12.890115"><ele>569.0</ele><time>2026-04-08T15:20:29.822Z</time></trkpt><trkpt lat="41.8425667" lon="12.8901783"><ele>569.0</ele><time>2026-04-08T15:20:30.821Z</time></trkpt><trkpt lat="41.8426317" lon="12.89024"><ele>569.0</ele><time>2026-04-08T15:20:31.821Z</time></trkpt><trkpt lat="41.8427017" lon="12.8902983"><ele>569.0</ele><time>2026-04-08T15:20:32.822Z</time></trkpt><trkpt lat="41.8427783" lon="12.8903633"><ele>569.0</ele><time>2026-04-08T15:20:33.821Z</time></trkpt><trkpt lat="41.8428733" lon="12.8904283"><ele>569.0</ele><time>2026-04-08T15:20:34.818Z</time></trkpt><trkpt lat="41.8429767" lon="12.8904817"><ele>569.0</ele><time>2026-04-08T15:20:35.819Z</time></trkpt><trkpt lat="41.843085" lon="12.8905267"><ele>569.0</ele><time>2026-04-08T15:20:36.818Z</time></trkpt><trkpt lat="41.8432" lon="12.890565"><ele>569.0</ele><time>2026-04-08T15:20:37.822Z</time></trkpt><trkpt lat="41.8433183" lon="12.8905933"><ele>569.0</ele><time>2026-04-08T15:20:38.821Z</time></trkpt><trkpt lat="41.8434283" lon="12.8906233"><ele>569.0</ele><time>2026-04-08T15:20:39.818Z</time></trkpt><trkpt lat="41.84353" lon="12.8906483"><ele>569.0</ele><time>2026-04-08T15:20:40.821Z</time></trkpt><trkpt lat="41.8436317" lon="12.89065"><ele>569.0</ele><time>2026-04-08T15:20:41.821Z</time></trkpt><trkpt lat="41.8437333" lon="12.8906217"><ele>569.0</ele><time>2026-04-08T15:20:42.821Z</time></trkpt><trkpt lat="41.8438283" lon="12.890545"><ele>570.0</ele><time>2026-04-08T15:20:43.82Z</time></trkpt><trkpt lat="41.84392" lon="12.8904367"><ele>571.0</ele><time>2026-04-08T15:20:44.817Z</time></trkpt><trkpt lat="41.8440017" lon="12.8902883"><ele>572.0</ele><time>2026-04-08T15:20:45.818Z</time></trkpt><trkpt lat="41.8440817" lon="12.8901067"><ele>573.0</ele><time>2026-04-08T15:20:46.818Z</time></trkpt><trkpt lat="41.844175" lon="12.88992"><ele>573.0</ele><time>2026-04-08T15:20:47.817Z</time></trkpt><trkpt lat="41.8442733" lon="12.8897267"><ele>573.0</ele><time>2026-04-08T15:20:48.821Z</time></trkpt><trkpt lat="41.84437" lon="12.8895433"><ele>573.0</ele><time>2026-04-08T15:20:49.821Z</time></trkpt><trkpt lat="41.8444667" lon="12.88936"><ele>576.5</ele><time>2026-04-08T15:20:50.819Z</time></trkpt><trkpt lat="41.8445533" lon="12.8891867"><ele>580.0</ele><time>2026-04-08T15:20:51.819Z</time></trkpt><trkpt lat="41.84464" lon="12.8890367"><ele>583.5</ele><time>2026-04-08T15:20:52.819Z</time></trkpt><trkpt lat="41.844735" lon="12.88891"><ele>587.0</ele><time>2026-04-08T15:20:53.819Z</time></trkpt><trkpt lat="41.844845" lon="12.8887967"><ele>587.0</ele><time>2026-04-08T15:20:54.821Z</time></trkpt><trkpt lat="41.8449717" lon="12.8887"><ele>587.0</ele><time>2026-04-08T15:20:55.821Z</time></trkpt><trkpt lat="41.845115" lon="12.8886233"><ele>587.0</ele><time>2026-04-08T15:20:56.817Z</time></trkpt><trkpt lat="41.8452667" lon="12.8885467"><ele>590.0</ele><time>2026-04-08T15:20:57.822Z</time></trkpt><trkpt lat="41.84543" lon="12.888475"><ele>593.0</ele><time>2026-04-08T15:20:58.821Z</time></trkpt><trkpt lat="41.8455917" lon="12.8884083"><ele>596.0</ele><time>2026-04-08T15:20:59.821Z</time></trkpt><trkpt lat="41.8457417" lon="12.8883483"><ele>592.0</ele><time>2026-04-08T15:21:00.821Z</time></trkpt><trkpt lat="41.8458783" lon="12.8883067"><ele>588.0</ele><time>2026-04-08T15:21:01.822Z</time></trkpt><trkpt lat="41.8459867" lon="12.8882667"><ele>584.0</ele><time>2026-04-08T15:21:02.82Z</time></trkpt><trkpt lat="41.8460683" lon="12.888255"><ele>580.0</ele><time>2026-04-08T15:21:03.821Z</time></trkpt><trkpt lat="41.846135" lon="12.8882667"><ele>576.0</ele><time>2026-04-08T15:21:04.822Z</time></trkpt><trkpt lat="41.8462017" lon="12.8883967"><ele>580.0</ele><time>2026-04-08T15:21:06.821Z</time></trkpt><trkpt lat="41.8461817" lon="12.88849"><ele>584.0</ele><time>2026-04-08T15:21:07.822Z</time></trkpt><trkpt lat="41.846105" lon="12.88855"><ele>588.0</ele><time>2026-04-08T15:21:08.821Z</time></trkpt><trkpt lat="41.8460167" lon="12.888585"><ele>592.0</ele><time>2026-04-08T15:21:09.821Z</time></trkpt><trkpt lat="41.845915" lon="12.8886167"><ele>596.0</ele><time>2026-04-08T15:21:10.823Z</time></trkpt><trkpt lat="41.8457867" lon="12.88866"><ele>596.0</ele><time>2026-04-08T15:21:11.821Z</time></trkpt><trkpt lat="41.8456633" lon="12.8887283"><ele>596.0</ele><time>2026-04-08T15:21:12.822Z</time></trkpt><trkpt lat="41.8455333" lon="12.8888083"><ele>596.0</ele><time>2026-04-08T15:21:13.821Z</time></trkpt><trkpt lat="41.8454017" lon="12.8889"><ele>596.0</ele><time>2026-04-08T15:21:14.822Z</time></trkpt><trkpt lat="41.8452617" lon="12.8889967"><ele>593.0</ele><time>2026-04-08T15:21:15.822Z</time></trkpt><trkpt lat="41.8451233" lon="12.8890967"><ele>590.0</ele><time>2026-04-08T15:21:16.821Z</time></trkpt><trkpt lat="41.8449933" lon="12.8892233"><ele>587.0</ele><time>2026-04-08T15:21:17.822Z</time></trkpt><trkpt lat="41.8448783" lon="12.8893883"><ele>594.3333333333333</ele><time>2026-04-08T15:21:18.82Z</time></trkpt><trkpt lat="41.8447917" lon="12.8895817"><ele>601.6666666666666</ele><time>2026-04-08T15:21:19.82Z</time></trkpt><trkpt lat="41.84472" lon="12.889785"><ele>609.0</ele><time>2026-04-08T15:21:20.821Z</time></trkpt><trkpt lat="41.8446567" lon="12.890005"><ele>615.3333333333334</ele><time>2026-04-08T15:21:21.821Z</time></trkpt><trkpt lat="41.8445967" lon="12.8902367"><ele>621.6666666666667</ele><time>2026-04-08T15:21:22.821Z</time></trkpt><trkpt lat="41.8445183" lon="12.8904717"><ele>628.0</ele><time>2026-04-08T15:21:23.821Z</time></trkpt><trkpt lat="41.8444233" lon="12.8907083"><ele>624.6666666666667</ele><time>2026-04-08T15:21:24.821Z</time></trkpt><trkpt lat="41.8443167" lon="12.890945"><ele>621.3333333333334</ele><time>2026-04-08T15:21:25.821Z</time></trkpt><trkpt lat="41.8442067" lon="12.891175"><ele>618.0</ele><time>2026-04-08T15:21:26.825Z</time></trkpt><trkpt lat="41.8440967" lon="12.8913983"><ele>618.0</ele><time>2026-04-08T15:21:27.822Z</time></trkpt><trkpt lat="41.8439883" lon="12.8916233"><ele>618.0</ele><time>2026-04-08T15:21:28.821Z</time></trkpt><trkpt lat="41.84389" lon="12.8918417"><ele>618.0</ele><time>2026-04-08T15:21:29.818Z</time></trkpt><trkpt lat="41.8438" lon="12.8920317"><ele>620.0</ele><time>2026-04-08T15:21:30.821Z</time></trkpt><trkpt lat="41.8437233" lon="12.8921767"><ele>622.0</ele><time>2026-04-08T15:21:31.822Z</time></trkpt><trkpt lat="41.8436433" lon="12.8922567"><ele>624.0</ele><time>2026-04-08T15:21:32.821Z</time></trkpt><trkpt lat="41.8435483" lon="12.8922967"><ele>626.0</ele><time>2026-04-08T15:21:33.82Z</time></trkpt><trkpt lat="41.8434383" lon="12.8923133"><ele>628.0</ele><time>2026-04-08T15:21:34.82Z</time></trkpt><trkpt lat="41.8433067" lon="12.8923033"><ele>628.0</ele><time>2026-04-08T15:21:35.82Z</time></trkpt><trkpt lat="41.8431683" lon="12.892275"><ele>628.0</ele><time>2026-04-08T15:21:36.821Z</time></trkpt><trkpt lat="41.8430283" lon="12.8922"><ele>628.0</ele><time>2026-04-08T15:21:37.821Z</time></trkpt><trkpt lat="41.842895" lon="12.8921067"><ele>628.0</ele><time>2026-04-08T15:21:38.824Z</time></trkpt><trkpt lat="41.8427683" lon="12.8920333"><ele>628.0</ele><time>2026-04-08T15:21:39.821Z</time></trkpt><trkpt lat="41.842635" lon="12.8919983"><ele>628.0</ele><time>2026-04-08T15:21:40.822Z</time></trkpt><trkpt lat="41.842495" lon="12.8920117"><ele>628.0</ele><time>2026-04-08T15:21:41.822Z</time></trkpt><trkpt lat="41.842345" lon="12.8920667"><ele>628.0</ele><time>2026-04-08T15:21:42.821Z</time></trkpt><trkpt lat="41.8421933" lon="12.8921517"><ele>629.0</ele><time>2026-04-08T15:21:43.821Z</time></trkpt><trkpt lat="41.84205" lon="12.89226"><ele>630.0</ele><time>2026-04-08T15:21:44.82Z</time></trkpt><trkpt lat="41.8419333" lon="12.8923833"><ele>631.0</ele><time>2026-04-08T15:21:45.821Z</time></trkpt><trkpt lat="41.84184" lon="12.892525"><ele>628.3333333333334</ele><time>2026-04-08T15:21:46.821Z</time></trkpt><trkpt lat="41.8417733" lon="12.8926983"><ele>625.6666666666666</ele><time>2026-04-08T15:21:47.817Z</time></trkpt><trkpt lat="41.8417267" lon="12.8928967"><ele>623.0</ele><time>2026-04-08T15:21:48.819Z</time></trkpt><trkpt lat="41.8416917" lon="12.8931083"><ele>623.0</ele><time>2026-04-08T15:21:49.818Z</time></trkpt><trkpt lat="41.8416667" lon="12.8933267"><ele>623.0</ele><time>2026-04-08T15:21:50.819Z</time></trkpt><trkpt lat="41.8416717" lon="12.8935533"><ele>623.0</ele><time>2026-04-08T15:21:51.818Z</time></trkpt><trkpt lat="41.8417017" lon="12.89379"><ele>623.0</ele><time>2026-04-08T15:21:52.819Z</time></trkpt><trkpt lat="41.8417417" lon="12.8940367"><ele>623.0</ele><time>2026-04-08T15:21:53.818Z</time></trkpt><trkpt lat="41.8417833" lon="12.8942817"><ele>623.0</ele><time>2026-04-08T15:21:54.825Z</time></trkpt><trkpt lat="41.8418233" lon="12.8945217"><ele>638.0</ele><time>2026-04-08T15:21:55.821Z</time></trkpt><trkpt lat="41.84186" lon="12.8947683"><ele>653.0</ele><time>2026-04-08T15:21:56.822Z</time></trkpt><trkpt lat="41.8419" lon="12.8950217"><ele>668.0</ele><time>2026-04-08T15:21:57.821Z</time></trkpt><trkpt lat="41.8419367" lon="12.89528"><ele>668.0</ele><time>2026-04-08T15:21:58.821Z</time></trkpt><trkpt lat="41.8419717" lon="12.89553"><ele>668.0</ele><time>2026-04-08T15:21:59.82Z</time></trkpt><trkpt lat="41.8420167" lon="12.89576"><ele>668.0</ele><time>2026-04-08T15:22:00.82Z</time></trkpt><trkpt lat="41.8420783" lon="12.895975"><ele>662.0</ele><time>2026-04-08T15:22:01.821Z</time></trkpt><trkpt lat="41.8421667" lon="12.89618"><ele>656.0</ele><time>2026-04-08T15:22:02.821Z</time></trkpt><trkpt lat="41.8422717" lon="12.8963867"><ele>650.0</ele><time>2026-04-08T15:22:03.821Z</time></trkpt><trkpt lat="41.8423683" lon="12.896585"><ele>649.0</ele><time>2026-04-08T15:22:04.821Z</time></trkpt><trkpt lat="41.8424617" lon="12.89676"><ele>648.0</ele><time>2026-04-08T15:22:05.821Z</time></trkpt><trkpt lat="41.8425567" lon="12.8969033"><ele>647.0</ele><time>2026-04-08T15:22:06.821Z</time></trkpt><trkpt lat="41.84266" lon="12.8970117"><ele>646.0</ele><time>2026-04-08T15:22:07.821Z</time></trkpt><trkpt lat="41.8427867" lon="12.8970533"><ele>646.0</ele><time>2026-04-08T15:22:08.821Z</time></trkpt><trkpt lat="41.8429217" lon="12.897055"><ele>646.0</ele><time>2026-04-08T15:22:09.821Z</time></trkpt><trkpt lat="41.8430667" lon="12.8970367"><ele>646.0</ele><time>2026-04-08T15:22:10.82Z</time></trkpt><trkpt lat="41.843225" lon="12.897025"><ele>646.0</ele><time>2026-04-08T15:22:11.821Z</time></trkpt><trkpt lat="41.8433967" lon="12.8970533"><ele>650.3333333333334</ele><time>2026-04-08T15:22:12.822Z</time></trkpt><trkpt lat="41.84358" lon="12.8971083"><ele>654.6666666666666</ele><time>2026-04-08T15:22:13.821Z</time></trkpt><trkpt lat="41.8437717" lon="12.8971817"><ele>659.0</ele><time>2026-04-08T15:22:14.822Z</time></trkpt><trkpt lat="41.843955" lon="12.897255"><ele>659.0</ele><time>2026-04-08T15:22:15.821Z</time></trkpt><trkpt lat="41.8441233" lon="12.8973433"><ele>659.0</ele><time>2026-04-08T15:22:16.821Z</time></trkpt><trkpt lat="41.8442917" lon="12.8974417"><ele>659.0</ele><time>2026-04-08T15:22:17.818Z</time></trkpt><trkpt lat="41.844465" lon="12.8975383"><ele>659.3333333333333</ele><time>2026-04-08T15:22:18.819Z</time></trkpt><trkpt lat="41.844635" lon="12.8976383"><ele>659.6666666666666</ele><time>2026-04-08T15:22:19.818Z</time></trkpt><trkpt lat="41.8448" lon="12.8977617"><ele>660.0</ele><time>2026-04-08T15:22:20.819Z</time></trkpt><trkpt lat="41.8449667" lon="12.8978967"><ele>667.6666666666666</ele><time>2026-04-08T15:22:21.818Z</time></trkpt><trkpt lat="41.845145" lon="12.89802"><ele>675.3333333333333</ele><time>2026-04-08T15:22:22.817Z</time></trkpt><trkpt lat="41.8453367" lon="12.898125"><ele>683.0</ele><time>2026-04-08T15:22:23.819Z</time></trkpt><trkpt lat="41.8455283" lon="12.8982217"><ele>683.0</ele><time>2026-04-08T15:22:24.821Z</time></trkpt><trkpt lat="41.8457117" lon="12.89831"><ele>683.0</ele><time>2026-04-08T15:22:25.821Z</time></trkpt><trkpt lat="41.845895" lon="12.8983717"><ele>683.0</ele><time>2026-04-08T15:22:26.821Z</time></trkpt><trkpt lat="41.8460833" lon="12.8984117"><ele>680.3333333333333</ele><time>2026-04-08T15:22:27.82Z</time></trkpt><trkpt lat="41.8462667" lon="12.89845"><ele>677.6666666666666</ele><time>2026-04-08T15:22:28.821Z</time></trkpt><trkpt lat="41.8464467" lon="12.8984783"><ele>675.0</ele><time>2026-04-08T15:22:29.821Z</time></trkpt><trkpt lat="41.84663" lon="12.8984933"><ele>681.6666666666666</ele><time>2026-04-08T15:22:30.823Z</time></trkpt><trkpt lat="41.846805" lon="12.8984867"><ele>688.3333333333333</ele><time>2026-04-08T15:22:31.822Z</time></trkpt><trkpt lat="41.8469683" lon="12.89847"><ele>695.0</ele><time>2026-04-08T15:22:32.821Z</time></trkpt><trkpt lat="41.84712" lon="12.898455"><ele>695.0</ele><time>2026-04-08T15:22:33.821Z</time></trkpt><trkpt lat="41.8472567" lon="12.8984533"><ele>695.0</ele><time>2026-04-08T15:22:34.821Z</time></trkpt><trkpt lat="41.84738" lon="12.8984667"><ele>695.0</ele><time>2026-04-08T15:22:35.82Z</time></trkpt><trkpt lat="41.8474883" lon="12.8985017"><ele>695.0</ele><time>2026-04-08T15:22:36.821Z</time></trkpt><trkpt lat="41.84759" lon="12.8985617"><ele>697.2</ele><time>2026-04-08T15:22:37.821Z</time></trkpt><trkpt lat="41.8476817" lon="12.8986417"><ele>699.4</ele><time>2026-04-08T15:22:38.821Z</time></trkpt><trkpt lat="41.84776" lon="12.898715"><ele>701.5999999999999</ele><time>2026-04-08T15:22:39.821Z</time></trkpt><trkpt lat="41.84784" lon="12.898775"><ele>703.8</ele><time>2026-04-08T15:22:40.822Z</time></trkpt><trkpt lat="41.8479383" lon="12.89881"><ele>706.0</ele><time>2026-04-08T15:22:41.82Z</time></trkpt><trkpt lat="41.84805" lon="12.8988133"><ele>706.0</ele><time>2026-04-08T15:22:42.82Z</time></trkpt><trkpt lat="41.8481717" lon="12.8987917"><ele>706.0</ele><time>2026-04-08T15:22:43.822Z</time></trkpt><trkpt lat="41.8483017" lon="12.8987683"><ele>706.0</ele><time>2026-04-08T15:22:44.822Z</time></trkpt><trkpt lat="41.84844" lon="12.8987367"><ele>706.0</ele><time>2026-04-08T15:22:45.82Z</time></trkpt><trkpt lat="41.8485767" lon="12.898695"><ele>705.0</ele><time>2026-04-08T15:22:46.821Z</time></trkpt><trkpt lat="41.8487167" lon="12.898645"><ele>704.0</ele><time>2026-04-08T15:22:47.818Z</time></trkpt><trkpt lat="41.84886" lon="12.8985867"><ele>703.0</ele><time>2026-04-08T15:22:48.818Z</time></trkpt><trkpt lat="41.8489983" lon="12.89851"><ele>702.0</ele><time>2026-04-08T15:22:49.819Z</time></trkpt><trkpt lat="41.8491383" lon="12.8984167"><ele>702.0</ele><time>2026-04-08T15:22:50.819Z</time></trkpt><trkpt lat="41.8492767" lon="12.89831"><ele>702.0</ele><time>2026-04-08T15:22:51.819Z</time></trkpt><trkpt lat="41.8494083" lon="12.8981983"><ele>702.0</ele><time>2026-04-08T15:22:52.821Z</time></trkpt><trkpt lat="41.849525" lon="12.8980817"><ele>704.0</ele><time>2026-04-08T15:22:53.818Z</time></trkpt><trkpt lat="41.8496333" lon="12.8979617"><ele>706.0</ele><time>2026-04-08T15:22:54.822Z</time></trkpt><trkpt lat="41.8497383" lon="12.8978433"><ele>708.0</ele><time>2026-04-08T15:22:55.82Z</time></trkpt><trkpt lat="41.8498317" lon="12.8977383"><ele>710.0</ele><time>2026-04-08T15:22:56.822Z</time></trkpt><trkpt lat="41.8499183" lon="12.8976517"><ele>707.0</ele><time>2026-04-08T15:22:57.821Z</time></trkpt><trkpt lat="41.8500083" lon="12.897585"><ele>704.0</ele><time>2026-04-08T15:22:58.821Z</time></trkpt><trkpt lat="41.8501117" lon="12.89754"><ele>701.0</ele><time>2026-04-08T15:22:59.821Z</time></trkpt><trkpt lat="41.8502267" lon="12.8975267"><ele>698.0</ele><time>2026-04-08T15:23:00.821Z</time></trkpt><trkpt lat="41.8503417" lon="12.8975383"><ele>695.0</ele><time>2026-04-08T15:23:01.821Z</time></trkpt><trkpt lat="41.8504467" lon="12.8975667"><ele>697.0</ele><time>2026-04-08T15:23:02.821Z</time></trkpt><trkpt lat="41.8505417" lon="12.8976167"><ele>699.0</ele><time>2026-04-08T15:23:03.821Z</time></trkpt><trkpt lat="41.850625" lon="12.8977"><ele>701.0</ele><time>2026-04-08T15:23:04.822Z</time></trkpt><trkpt lat="41.8506917" lon="12.8978033"><ele>703.0</ele><time>2026-04-08T15:23:05.822Z</time></trkpt><trkpt lat="41.8507383" lon="12.8979267"><ele>705.0</ele><time>2026-04-08T15:23:06.82Z</time></trkpt><trkpt lat="41.8507633" lon="12.898065"><ele>705.0</ele><time>2026-04-08T15:23:07.82Z</time></trkpt><trkpt lat="41.8507717" lon="12.8982"><ele>705.0</ele><time>2026-04-08T15:23:08.821Z</time></trkpt><trkpt lat="41.850765" lon="12.8983367"><ele>705.0</ele><time>2026-04-08T15:23:09.821Z</time></trkpt><trkpt lat="41.8507517" lon="12.8984767"><ele>705.0</ele><time>2026-04-08T15:23:10.821Z</time></trkpt><trkpt lat="41.8507417" lon="12.8986183"><ele>705.0</ele><time>2026-04-08T15:23:11.821Z</time></trkpt><trkpt lat="41.850735" lon="12.89876"><ele>706.2</ele><time>2026-04-08T15:23:12.824Z</time></trkpt><trkpt lat="41.85074" lon="12.8989033"><ele>707.4</ele><time>2026-04-08T15:23:13.821Z</time></trkpt><trkpt lat="41.8507617" lon="12.8990383"><ele>708.5999999999999</ele><time>2026-04-08T15:23:14.821Z</time></trkpt><trkpt lat="41.8508117" lon="12.899165"><ele>709.8</ele><time>2026-04-08T15:23:15.821Z</time></trkpt><trkpt lat="41.8508883" lon="12.8992783"><ele>711.0</ele><time>2026-04-08T15:23:16.822Z</time></trkpt><trkpt lat="41.850995" lon="12.89937"><ele>714.75</ele><time>2026-04-08T15:23:17.818Z</time></trkpt><trkpt lat="41.8511183" lon="12.8994383"><ele>718.5</ele><time>2026-04-08T15:23:18.819Z</time></trkpt><trkpt lat="41.8512583" lon="12.8994933"><ele>722.25</ele><time>2026-04-08T15:23:19.819Z</time></trkpt><trkpt lat="41.8514083" lon="12.8995533"><ele>726.0</ele><time>2026-04-08T15:23:20.819Z</time></trkpt><trkpt lat="41.8515533" lon="12.8996317"><ele>726.0</ele><time>2026-04-08T15:23:21.819Z</time></trkpt><trkpt lat="41.85169" lon="12.899725"><ele>726.0</ele><time>2026-04-08T15:23:22.819Z</time></trkpt><trkpt lat="41.85182" lon="12.8998233"><ele>726.0</ele><time>2026-04-08T15:23:23.819Z</time></trkpt><trkpt lat="41.8519533" lon="12.8999133"><ele>725.6666666666666</ele><time>2026-04-08T15:23:24.82Z</time></trkpt><trkpt lat="41.8520933" lon="12.8999717"><ele>725.3333333333333</ele><time>2026-04-08T15:23:25.822Z</time></trkpt><trkpt lat="41.8522417" lon="12.8999833"><ele>725.0</ele><time>2026-04-08T15:23:26.822Z</time></trkpt><trkpt lat="41.8523933" lon="12.8999367"><ele>725.0</ele><time>2026-04-08T15:23:27.821Z</time></trkpt><trkpt lat="41.85254" lon="12.8998567"><ele>725.0</ele><time>2026-04-08T15:23:28.82Z</time></trkpt><trkpt lat="41.8526767" lon="12.89978"><ele>725.0</ele><time>2026-04-08T15:23:29.821Z</time></trkpt><trkpt lat="41.8528" lon="12.8997417"><ele>725.0</ele><time>2026-04-08T15:23:30.821Z</time></trkpt><trkpt lat="41.85291" lon="12.899755"><ele>723.8</ele><time>2026-04-08T15:23:31.821Z</time></trkpt><trkpt lat="41.853005" lon="12.899805"><ele>722.6</ele><time>2026-04-08T15:23:32.822Z</time></trkpt><trkpt lat="41.85307" lon="12.8999117"><ele>721.4000000000001</ele><time>2026-04-08T15:23:33.82Z</time></trkpt><trkpt lat="41.8531017" lon="12.9000383"><ele>720.2</ele><time>2026-04-08T15:23:34.821Z</time></trkpt><trkpt lat="41.8531017" lon="12.9001883"><ele>719.0</ele><time>2026-04-08T15:23:35.822Z</time></trkpt><trkpt lat="41.8530817" lon="12.900345"><ele>721.8000000000001</ele><time>2026-04-08T15:23:36.821Z</time></trkpt><trkpt lat="41.8530633" lon="12.900505"><ele>724.6</ele><time>2026-04-08T15:23:37.822Z</time></trkpt><trkpt lat="41.8530733" lon="12.90065"><ele>727.4</ele><time>2026-04-08T15:23:38.821Z</time></trkpt><trkpt lat="41.8531183" lon="12.9007717"><ele>730.2</ele><time>2026-04-08T15:23:39.821Z</time></trkpt><trkpt lat="41.8531933" lon="12.90088"><ele>733.0</ele><time>2026-04-08T15:23:40.82Z</time></trkpt><trkpt lat="41.8533017" lon="12.9009517"><ele>736.6666666666667</ele><time>2026-04-08T15:23:41.82Z</time></trkpt><trkpt lat="41.8534367" lon="12.90097"><ele>740.3333333333334</ele><time>2026-04-08T15:23:42.821Z</time></trkpt><trkpt lat="41.8535933" lon="12.900965"><ele>744.0</ele><time>2026-04-08T15:23:43.821Z</time></trkpt><trkpt lat="41.85376" lon="12.9009533"><ele>744.0</ele><time>2026-04-08T15:23:44.822Z</time></trkpt><trkpt lat="41.8539233" lon="12.90094"><ele>744.0</ele><time>2026-04-08T15:23:45.821Z</time></trkpt><trkpt lat="41.8540883" lon="12.90093"><ele>744.0</ele><time>2026-04-08T15:23:46.82Z</time></trkpt><trkpt lat="41.8542417" lon="12.9009317"><ele>741.75</ele><time>2026-04-08T15:23:47.82Z</time></trkpt><trkpt lat="41.85436" lon="12.9009633"><ele>739.5</ele><time>2026-04-08T15:23:48.82Z</time></trkpt><trkpt lat="41.8544567" lon="12.901035"><ele>737.25</ele><time>2026-04-08T15:23:49.821Z</time></trkpt><trkpt lat="41.8545467" lon="12.9011333"><ele>735.0</ele><time>2026-04-08T15:23:50.822Z</time></trkpt><trkpt lat="41.8546417" lon="12.9012433"><ele>735.0</ele><time>2026-04-08T15:23:51.82Z</time></trkpt><trkpt lat="41.8547583" lon="12.9013333"><ele>735.0</ele><time>2026-04-08T15:23:52.821Z</time></trkpt><trkpt lat="41.8548983" lon="12.9013883"><ele>735.0</ele><time>2026-04-08T15:23:53.821Z</time></trkpt><trkpt lat="41.8550483" lon="12.9014033"><ele>735.0</ele><time>2026-04-08T15:23:54.821Z</time></trkpt><trkpt lat="41.855205" lon="12.9014117"><ele>733.0</ele><time>2026-04-08T15:23:55.821Z</time></trkpt><trkpt lat="41.8553683" lon="12.90143"><ele>731.0</ele><time>2026-04-08T15:23:56.817Z</time></trkpt><trkpt lat="41.85554" lon="12.901465"><ele>729.0</ele><time>2026-04-08T15:23:57.819Z</time></trkpt><trkpt lat="41.8557183" lon="12.9015183"><ele>729.0</ele><time>2026-04-08T15:23:58.821Z</time></trkpt><trkpt lat="41.8559" lon="12.9015667"><ele>729.0</ele><time>2026-04-08T15:23:59.821Z</time></trkpt><trkpt lat="41.8560833" lon="12.9016"><ele>729.0</ele><time>2026-04-08T15:24:00.82Z</time></trkpt><trkpt lat="41.8562717" lon="12.9015983"><ele>728.6666666666666</ele><time>2026-04-08T15:24:01.821Z</time></trkpt><trkpt lat="41.8564617" lon="12.9015617"><ele>728.3333333333333</ele><time>2026-04-08T15:24:02.822Z</time></trkpt><trkpt lat="41.8566567" lon="12.90151"><ele>728.0</ele><time>2026-04-08T15:24:03.822Z</time></trkpt><trkpt lat="41.85685" lon="12.9014567"><ele>728.0</ele><time>2026-04-08T15:24:04.821Z</time></trkpt><trkpt lat="41.8570367" lon="12.9014217"><ele>728.0</ele><time>2026-04-08T15:24:05.82Z</time></trkpt><trkpt lat="41.8572217" lon="12.9013967"><ele>728.0</ele><time>2026-04-08T15:24:06.82Z</time></trkpt><trkpt lat="41.85741" lon="12.901395"><ele>728.0</ele><time>2026-04-08T15:24:07.821Z</time></trkpt><trkpt lat="41.8576017" lon="12.9014"><ele>728.0</ele><time>2026-04-08T15:24:08.823Z</time></trkpt><trkpt lat="41.85779" lon="12.90141"><ele>728.0</ele><time>2026-04-08T15:24:09.821Z</time></trkpt><trkpt lat="41.8579717" lon="12.901425"><ele>727.6666666666666</ele><time>2026-04-08T15:24:10.822Z</time></trkpt><trkpt lat="41.8581433" lon="12.9014517"><ele>727.3333333333334</ele><time>2026-04-08T15:24:11.821Z</time></trkpt><trkpt lat="41.85831" lon="12.901495"><ele>727.0</ele><time>2026-04-08T15:24:12.821Z</time></trkpt><trkpt lat="41.8584783" lon="12.9015667"><ele>730.0</ele><time>2026-04-08T15:24:13.821Z</time></trkpt><trkpt lat="41.858645" lon="12.9016683"><ele>733.0</ele><time>2026-04-08T15:24:14.822Z</time></trkpt><trkpt lat="41.85881" lon="12.9017667"><ele>736.0</ele><time>2026-04-08T15:24:15.82Z</time></trkpt><trkpt lat="41.8589733" lon="12.9018567"><ele>733.0</ele><time>2026-04-08T15:24:16.821Z</time></trkpt><trkpt lat="41.8591317" lon="12.90194"><ele>730.0</ele><time>2026-04-08T15:24:17.821Z</time></trkpt><trkpt lat="41.8592817" lon="12.902005"><ele>727.0</ele><time>2026-04-08T15:24:18.821Z</time></trkpt><trkpt lat="41.859425" lon="12.902055"><ele>727.0</ele><time>2026-04-08T15:24:19.821Z</time></trkpt><trkpt lat="41.8595617" lon="12.9021167"><ele>727.0</ele><time>2026-04-08T15:24:20.821Z</time></trkpt><trkpt lat="41.859685" lon="12.9022067"><ele>727.0</ele><time>2026-04-08T15:24:21.821Z</time></trkpt><trkpt lat="41.859795" lon="12.9023283"><ele>727.0</ele><time>2026-04-08T15:24:22.82Z</time></trkpt><trkpt lat="41.85989" lon="12.9024667"><ele>724.75</ele><time>2026-04-08T15:24:23.82Z</time></trkpt><trkpt lat="41.859975" lon="12.902615"><ele>722.5</ele><time>2026-04-08T15:24:24.821Z</time></trkpt><trkpt lat="41.860035" lon="12.9027767"><ele>720.25</ele><time>2026-04-08T15:24:25.821Z</time></trkpt><trkpt lat="41.86007" lon="12.902955"><ele>718.0</ele><time>2026-04-08T15:24:26.821Z</time></trkpt><trkpt lat="41.8600933" lon="12.9031283"><ele>720.0</ele><time>2026-04-08T15:24:27.82Z</time></trkpt><trkpt lat="41.8601183" lon="12.9032883"><ele>722.0</ele><time>2026-04-08T15:24:28.826Z</time></trkpt><trkpt lat="41.8601733" lon="12.9034367"><ele>724.0</ele><time>2026-04-08T15:24:29.82Z</time></trkpt><trkpt lat="41.8602583" lon="12.9035667"><ele>726.0</ele><time>2026-04-08T15:24:30.821Z</time></trkpt><trkpt lat="41.8603817" lon="12.9036717"><ele>720.6666666666666</ele><time>2026-04-08T15:24:31.821Z</time></trkpt><trkpt lat="41.8605283" lon="12.90375"><ele>715.3333333333333</ele><time>2026-04-08T15:24:32.821Z</time></trkpt><trkpt lat="41.8606783" lon="12.9038167"><ele>710.0</ele><time>2026-04-08T15:24:33.822Z</time></trkpt><trkpt lat="41.860815" lon="12.9038717"><ele>710.0</ele><time>2026-04-08T15:24:34.829Z</time></trkpt><trkpt lat="41.8609467" lon="12.9039033"><ele>710.0</ele><time>2026-04-08T15:24:35.82Z</time></trkpt><trkpt lat="41.8610817" lon="12.9038917"><ele>710.0</ele><time>2026-04-08T15:24:36.821Z</time></trkpt><trkpt lat="41.86123" lon="12.903825"><ele>710.0</ele><time>2026-04-08T15:24:37.824Z</time></trkpt><trkpt lat="41.861385" lon="12.903725"><ele>706.0</ele><time>2026-04-08T15:24:38.821Z</time></trkpt><trkpt lat="41.8615433" lon="12.903645"><ele>702.0</ele><time>2026-04-08T15:24:39.821Z</time></trkpt><trkpt lat="41.861705" lon="12.903595"><ele>698.0</ele><time>2026-04-08T15:24:40.82Z</time></trkpt><trkpt lat="41.8618817" lon="12.9035717"><ele>696.3333333333333</ele><time>2026-04-08T15:24:41.822Z</time></trkpt><trkpt lat="41.8620633" lon="12.9035633"><ele>694.6666666666666</ele><time>2026-04-08T15:24:42.82Z</time></trkpt><trkpt lat="41.8622433" lon="12.903565"><ele>693.0</ele><time>2026-04-08T15:24:43.82Z</time></trkpt><trkpt lat="41.86241" lon="12.9035817"><ele>693.0</ele><time>2026-04-08T15:24:44.822Z</time></trkpt><trkpt lat="41.86257" lon="12.9036317"><ele>693.0</ele><time>2026-04-08T15:24:45.82Z</time></trkpt><trkpt lat="41.8627233" lon="12.9037117"><ele>693.0</ele><time>2026-04-08T15:24:46.821Z</time></trkpt><trkpt lat="41.8628717" lon="12.903835"><ele>693.6666666666666</ele><time>2026-04-08T15:24:47.819Z</time></trkpt><trkpt lat="41.86302" lon="12.9039883"><ele>694.3333333333333</ele><time>2026-04-08T15:24:48.819Z</time></trkpt><trkpt lat="41.8631717" lon="12.9041533"><ele>695.0</ele><time>2026-04-08T15:24:49.822Z</time></trkpt><trkpt lat="41.8633233" lon="12.904315"><ele>698.3333333333333</ele><time>2026-04-08T15:24:50.819Z</time></trkpt><trkpt lat="41.8634717" lon="12.9044783"><ele>701.6666666666666</ele><time>2026-04-08T15:24:51.818Z</time></trkpt><trkpt lat="41.8636167" lon="12.9046383"><ele>705.0</ele><time>2026-04-08T15:24:52.823Z</time></trkpt><trkpt lat="41.8637583" lon="12.9047983"><ele>705.0</ele><time>2026-04-08T15:24:53.82Z</time></trkpt><trkpt lat="41.8639" lon="12.9049583"><ele>705.0</ele><time>2026-04-08T15:24:54.821Z</time></trkpt><trkpt lat="41.8640417" lon="12.90512"><ele>705.0</ele><time>2026-04-08T15:24:55.82Z</time></trkpt><trkpt lat="41.8641833" lon="12.9052817"><ele>709.6666666666666</ele><time>2026-04-08T15:24:56.822Z</time></trkpt><trkpt lat="41.864315" lon="12.9054333"><ele>714.3333333333333</ele><time>2026-04-08T15:24:57.822Z</time></trkpt><trkpt lat="41.8644283" lon="12.9055817"><ele>719.0</ele><time>2026-04-08T15:24:58.822Z</time></trkpt><trkpt lat="41.8645183" lon="12.9057333"><ele>719.0</ele><time>2026-04-08T15:24:59.82Z</time></trkpt><trkpt lat="41.8645783" lon="12.9058917"><ele>719.0</ele><time>2026-04-08T15:25:00.821Z</time></trkpt><trkpt lat="41.8646167" lon="12.906075"><ele>719.0</ele><time>2026-04-08T15:25:01.821Z</time></trkpt><trkpt lat="41.8646267" lon="12.9062683"><ele>719.0</ele><time>2026-04-08T15:25:02.821Z</time></trkpt><trkpt lat="41.864605" lon="12.9064633"><ele>723.3333333333333</ele><time>2026-04-08T15:25:03.821Z</time></trkpt><trkpt lat="41.864555" lon="12.9066633"><ele>727.6666666666666</ele><time>2026-04-08T15:25:04.821Z</time></trkpt><trkpt lat="41.86451" lon="12.9068733"><ele>732.0</ele><time>2026-04-08T15:25:05.819Z</time></trkpt><trkpt lat="41.8644817" lon="12.9070933"><ele>735.6666666666666</ele><time>2026-04-08T15:25:06.822Z</time></trkpt><trkpt lat="41.8644783" lon="12.90733"><ele>739.3333333333333</ele><time>2026-04-08T15:25:07.821Z</time></trkpt><trkpt lat="41.8644733" lon="12.907565"><ele>743.0</ele><time>2026-04-08T15:25:08.821Z</time></trkpt><trkpt lat="41.8644383" lon="12.9077783"><ele>747.0</ele><time>2026-04-08T15:25:09.82Z</time></trkpt><trkpt lat="41.86438" lon="12.9079717"><ele>751.0</ele><time>2026-04-08T15:25:10.822Z</time></trkpt><trkpt lat="41.8642917" lon="12.9081367"><ele>755.0</ele><time>2026-04-08T15:25:11.82Z</time></trkpt><trkpt lat="41.8641983" lon="12.9082983"><ele>749.25</ele><time>2026-04-08T15:25:12.817Z</time></trkpt><trkpt lat="41.8641117" lon="12.90845"><ele>743.5</ele><time>2026-04-08T15:25:13.822Z</time></trkpt><trkpt lat="41.8640517" lon="12.9086"><ele>737.75</ele><time>2026-04-08T15:25:14.822Z</time></trkpt><trkpt lat="41.8640233" lon="12.9087583"><ele>732.0</ele><time>2026-04-08T15:25:15.822Z</time></trkpt><trkpt lat="41.8640333" lon="12.9089117"><ele>732.0</ele><time>2026-04-08T15:25:16.821Z</time></trkpt><trkpt lat="41.8640717" lon="12.9090467"><ele>732.0</ele><time>2026-04-08T15:25:17.818Z</time></trkpt><trkpt lat="41.864125" lon="12.9091483"><ele>732.0</ele><time>2026-04-08T15:25:18.817Z</time></trkpt><trkpt lat="41.864195" lon="12.9092217"><ele>732.0</ele><time>2026-04-08T15:25:19.817Z</time></trkpt><trkpt lat="41.8642717" lon="12.909255"><ele>732.0</ele><time>2026-04-08T15:25:20.818Z</time></trkpt><trkpt lat="41.8643583" lon="12.909225"><ele>739.0</ele><time>2026-04-08T15:25:21.819Z</time></trkpt><trkpt lat="41.864445" lon="12.9091167"><ele>746.0</ele><time>2026-04-08T15:25:22.818Z</time></trkpt><trkpt lat="41.86451" lon="12.908985"><ele>753.0</ele><time>2026-04-08T15:25:23.819Z</time></trkpt><trkpt lat="41.86456" lon="12.9087983"><ele>760.0</ele><time>2026-04-08T15:25:24.821Z</time></trkpt><trkpt lat="41.8646233" lon="12.9086367"><ele>760.0</ele><time>2026-04-08T15:25:25.821Z</time></trkpt><trkpt lat="41.8646967" lon="12.908465"><ele>760.0</ele><time>2026-04-08T15:25:26.822Z</time></trkpt><trkpt lat="41.8647733" lon="12.9082833"><ele>760.0</ele><time>2026-04-08T15:25:27.821Z</time></trkpt><trkpt lat="41.8648467" lon="12.9080967"><ele>758.75</ele><time>2026-04-08T15:25:28.82Z</time></trkpt><trkpt lat="41.8649183" lon="12.9079167"><ele>757.5</ele><time>2026-04-08T15:25:29.821Z</time></trkpt><trkpt lat="41.864985" lon="12.90774"><ele>756.25</ele><time>2026-04-08T15:25:30.822Z</time></trkpt><trkpt lat="41.865065" lon="12.90757"><ele>755.0</ele><time>2026-04-08T15:25:31.82Z</time></trkpt><trkpt lat="41.8651433" lon="12.9074017"><ele>757.75</ele><time>2026-04-08T15:25:32.822Z</time></trkpt><trkpt lat="41.8652167" lon="12.9072517"><ele>760.5</ele><time>2026-04-08T15:25:33.821Z</time></trkpt><trkpt lat="41.8652817" lon="12.9071167"><ele>763.25</ele><time>2026-04-08T15:25:34.821Z</time></trkpt><trkpt lat="41.8653517" lon="12.907"><ele>766.0</ele><time>2026-04-08T15:25:35.821Z</time></trkpt><trkpt lat="41.8654283" lon="12.9069217"><ele>766.0</ele><time>2026-04-08T15:25:36.82Z</time></trkpt><trkpt lat="41.8655017" lon="12.9068867"><ele>766.0</ele><time>2026-04-08T15:25:37.82Z</time></trkpt><trkpt lat="41.865585" lon="12.9069583"><ele>766.0</ele><time>2026-04-08T15:25:39.821Z</time></trkpt><trkpt lat="41.8655783" lon="12.90709"><ele>766.0</ele><time>2026-04-08T15:25:41.82Z</time></trkpt><trkpt lat="41.865525" lon="12.9071933"><ele>766.0</ele><time>2026-04-08T15:25:42.82Z</time></trkpt><trkpt lat="41.8654433" lon="12.907315"><ele>766.0</ele><time>2026-04-08T15:25:43.821Z</time></trkpt><trkpt lat="41.8653683" lon="12.9074583"><ele>766.0</ele><time>2026-04-08T15:25:44.82Z</time></trkpt><trkpt lat="41.8653083" lon="12.9076133"><ele>766.0</ele><time>2026-04-08T15:25:45.82Z</time></trkpt><trkpt lat="41.86526" lon="12.9077667"><ele>766.0</ele><time>2026-04-08T15:25:46.817Z</time></trkpt><trkpt lat="41.8652233" lon="12.907925"><ele>764.5</ele><time>2026-04-08T15:25:47.821Z</time></trkpt><trkpt lat="41.8651817" lon="12.9080933"><ele>763.0</ele><time>2026-04-08T15:25:48.821Z</time></trkpt><trkpt lat="41.86513" lon="12.9082633"><ele>761.5</ele><time>2026-04-08T15:25:49.821Z</time></trkpt><trkpt lat="41.8650767" lon="12.9084333"><ele>760.0</ele><time>2026-04-08T15:25:50.821Z</time></trkpt><trkpt lat="41.8650367" lon="12.9086"><ele>760.0</ele><time>2026-04-08T15:25:51.82Z</time></trkpt><trkpt lat="41.86502" lon="12.9087567"><ele>760.0</ele><time>2026-04-08T15:25:52.822Z</time></trkpt><trkpt lat="41.8650333" lon="12.9089117"><ele>760.0</ele><time>2026-04-08T15:25:53.822Z</time></trkpt><trkpt lat="41.8650733" lon="12.909065"><ele>760.0</ele><time>2026-04-08T15:25:54.821Z</time></trkpt><trkpt lat="41.8651367" lon="12.90923"><ele>764.75</ele><time>2026-04-08T15:25:55.821Z</time></trkpt><trkpt lat="41.8652067" lon="12.909405"><ele>769.5</ele><time>2026-04-08T15:25:56.822Z</time></trkpt><trkpt lat="41.865275" lon="12.9095733"><ele>774.25</ele><time>2026-04-08T15:25:57.821Z</time></trkpt><trkpt lat="41.8653517" lon="12.9097133"><ele>779.0</ele><time>2026-04-08T15:25:58.822Z</time></trkpt><trkpt lat="41.8654367" lon="12.9098267"><ele>779.0</ele><time>2026-04-08T15:25:59.821Z</time></trkpt><trkpt lat="41.8655433" lon="12.9099083"><ele>779.0</ele><time>2026-04-08T15:26:00.821Z</time></trkpt><trkpt lat="41.8656417" lon="12.90998"><ele>779.0</ele><time>2026-04-08T15:26:01.821Z</time></trkpt><trkpt lat="41.8657167" lon="12.9100667"><ele>779.0</ele><time>2026-04-08T15:26:02.822Z</time></trkpt><trkpt lat="41.8657633" lon="12.9101717"><ele>779.0</ele><time>2026-04-08T15:26:03.821Z</time></trkpt><trkpt lat="41.86578" lon="12.9103017"><ele>778.25</ele><time>2026-04-08T15:26:04.818Z</time></trkpt><trkpt lat="41.8657833" lon="12.9104517"><ele>777.5</ele><time>2026-04-08T15:26:05.821Z</time></trkpt><trkpt lat="41.8657933" lon="12.9106133"><ele>776.75</ele><time>2026-04-08T15:26:06.821Z</time></trkpt><trkpt lat="41.86582" lon="12.910775"><ele>776.0</ele><time>2026-04-08T15:26:07.823Z</time></trkpt><trkpt lat="41.86586" lon="12.91094"><ele>773.75</ele><time>2026-04-08T15:26:08.824Z</time></trkpt><trkpt lat="41.8659117" lon="12.9111083"><ele>771.5</ele><time>2026-04-08T15:26:09.821Z</time></trkpt><trkpt lat="41.8659633" lon="12.9112717"><ele>769.25</ele><time>2026-04-08T15:26:10.82Z</time></trkpt><trkpt lat="41.8660233" lon="12.911415"><ele>767.0</ele><time>2026-04-08T15:26:11.821Z</time></trkpt><trkpt lat="41.8660967" lon="12.9115367"><ele>768.5</ele><time>2026-04-08T15:26:12.822Z</time></trkpt><trkpt lat="41.8661983" lon="12.9116383"><ele>770.0</ele><time>2026-04-08T15:26:13.821Z</time></trkpt><trkpt lat="41.8663167" lon="12.911725"><ele>771.5</ele><time>2026-04-08T15:26:14.821Z</time></trkpt><trkpt lat="41.866455" lon="12.9118"><ele>773.0</ele><time>2026-04-08T15:26:15.821Z</time></trkpt><trkpt lat="41.8665967" lon="12.9118783"><ele>773.0</ele><time>2026-04-08T15:26:16.821Z</time></trkpt><trkpt lat="41.8667333" lon="12.9119633"><ele>773.0</ele><time>2026-04-08T15:26:17.821Z</time></trkpt><trkpt lat="41.866855" lon="12.9120433"><ele>773.0</ele><time>2026-04-08T15:26:18.82Z</time></trkpt><trkpt lat="41.86696" lon="12.912125"><ele>773.0</ele><time>2026-04-08T15:26:19.821Z</time></trkpt><trkpt lat="41.8670367" lon="12.9122117"><ele>776.5999999999999</ele><time>2026-04-08T15:26:20.823Z</time></trkpt><trkpt lat="41.8670933" lon="12.9123333"><ele>780.1999999999999</ele><time>2026-04-08T15:26:21.821Z</time></trkpt><trkpt lat="41.867145" lon="12.9124683"><ele>783.8</ele><time>2026-04-08T15:26:22.821Z</time></trkpt><trkpt lat="41.867205" lon="12.9125917"><ele>787.4</ele><time>2026-04-08T15:26:23.821Z</time></trkpt><trkpt lat="41.86729" lon="12.9126933"><ele>791.0</ele><time>2026-04-08T15:26:24.82Z</time></trkpt><trkpt lat="41.867405" lon="12.9127717"><ele>791.0</ele><time>2026-04-08T15:26:25.824Z</time></trkpt><trkpt lat="41.8675167" lon="12.912845"><ele>791.0</ele><time>2026-04-08T15:26:26.824Z</time></trkpt><trkpt lat="41.8676167" lon="12.912915"><ele>791.0</ele><time>2026-04-08T15:26:27.82Z</time></trkpt><trkpt lat="41.8676967" lon="12.9129983"><ele>791.0</ele><time>2026-04-08T15:26:28.821Z</time></trkpt><trkpt lat="41.867765" lon="12.9131067"><ele>791.0</ele><time>2026-04-08T15:26:29.821Z</time></trkpt><trkpt lat="41.8678067" lon="12.913245"><ele>795.5</ele><time>2026-04-08T15:26:30.821Z</time></trkpt><trkpt lat="41.8678233" lon="12.913405"><ele>800.0</ele><time>2026-04-08T15:26:31.823Z</time></trkpt><trkpt lat="41.8678117" lon="12.9135583"><ele>804.5</ele><time>2026-04-08T15:26:32.822Z</time></trkpt><trkpt lat="41.8677767" lon="12.9136967"><ele>809.0</ele><time>2026-04-08T15:26:33.821Z</time></trkpt><trkpt lat="41.8677217" lon="12.913825"><ele>807.75</ele><time>2026-04-08T15:26:34.822Z</time></trkpt><trkpt lat="41.86763" lon="12.9139433"><ele>806.5</ele><time>2026-04-08T15:26:35.821Z</time></trkpt><trkpt lat="41.86752" lon="12.9140467"><ele>805.25</ele><time>2026-04-08T15:26:36.82Z</time></trkpt><trkpt lat="41.867395" lon="12.914145"><ele>804.0</ele><time>2026-04-08T15:26:37.819Z</time></trkpt><trkpt lat="41.86727" lon="12.9142417"><ele>809.0</ele><time>2026-04-08T15:26:38.819Z</time></trkpt><trkpt lat="41.8671583" lon="12.9143367"><ele>814.0</ele><time>2026-04-08T15:26:39.82Z</time></trkpt><trkpt lat="41.8670633" lon="12.9144433"><ele>819.0</ele><time>2026-04-08T15:26:40.817Z</time></trkpt><trkpt lat="41.8669983" lon="12.914575"><ele>824.0</ele><time>2026-04-08T15:26:41.819Z</time></trkpt><trkpt lat="41.8669483" lon="12.91473"><ele>824.0</ele><time>2026-04-08T15:26:42.821Z</time></trkpt><trkpt lat="41.8669083" lon="12.9149"><ele>824.0</ele><time>2026-04-08T15:26:43.818Z</time></trkpt><trkpt lat="41.8668567" lon="12.91508"><ele>824.0</ele><time>2026-04-08T15:26:44.822Z</time></trkpt><trkpt lat="41.8667833" lon="12.9152483"><ele>824.0</ele><time>2026-04-08T15:26:45.821Z</time></trkpt><trkpt lat="41.8666867" lon="12.9153917"><ele>823.0</ele><time>2026-04-08T15:26:46.822Z</time></trkpt><trkpt lat="41.8665767" lon="12.9155017"><ele>822.0</ele><time>2026-04-08T15:26:47.821Z</time></trkpt><trkpt lat="41.86647" lon="12.915585"><ele>821.0</ele><time>2026-04-08T15:26:48.821Z</time></trkpt><trkpt lat="41.8663833" lon="12.9156717"><ele>820.0</ele><time>2026-04-08T15:26:49.821Z</time></trkpt><trkpt lat="41.8663233" lon="12.9157783"><ele>822.5</ele><time>2026-04-08T15:26:50.82Z</time></trkpt><trkpt lat="41.8662967" lon="12.9159133"><ele>825.0</ele><time>2026-04-08T15:26:51.821Z</time></trkpt><trkpt lat="41.8663017" lon="12.9160767"><ele>827.5</ele><time>2026-04-08T15:26:52.822Z</time></trkpt><trkpt lat="41.86632" lon="12.9162483"><ele>830.0</ele><time>2026-04-08T15:26:53.822Z</time></trkpt><trkpt lat="41.8663333" lon="12.9164083"><ele>830.0</ele><time>2026-04-08T15:26:54.822Z</time></trkpt><trkpt lat="41.86633" lon="12.9165633"><ele>830.0</ele><time>2026-04-08T15:26:55.819Z</time></trkpt><trkpt lat="41.8663067" lon="12.9167167"><ele>830.0</ele><time>2026-04-08T15:26:56.822Z</time></trkpt><trkpt lat="41.866245" lon="12.9168633"><ele>830.0</ele><time>2026-04-08T15:26:57.82Z</time></trkpt><trkpt lat="41.8661567" lon="12.917005"><ele>828.0</ele><time>2026-04-08T15:26:58.822Z</time></trkpt><trkpt lat="41.8660483" lon="12.9171467"><ele>826.0</ele><time>2026-04-08T15:26:59.821Z</time></trkpt><trkpt lat="41.86593" lon="12.9173"><ele>824.0</ele><time>2026-04-08T15:27:00.82Z</time></trkpt><trkpt lat="41.8658233" lon="12.9174583"><ele>829.6666666666667</ele><time>2026-04-08T15:27:01.821Z</time></trkpt><trkpt lat="41.865725" lon="12.9176183"><ele>835.3333333333333</ele><time>2026-04-08T15:27:02.822Z</time></trkpt><trkpt lat="41.86563" lon="12.9177867"><ele>841.0</ele><time>2026-04-08T15:27:03.822Z</time></trkpt><trkpt lat="41.8655317" lon="12.9179617"><ele>841.0</ele><time>2026-04-08T15:27:04.821Z</time></trkpt><trkpt lat="41.86546" lon="12.9181417"><ele>841.0</ele><time>2026-04-08T15:27:05.82Z</time></trkpt><trkpt lat="41.8654133" lon="12.9183217"><ele>841.0</ele><time>2026-04-08T15:27:06.821Z</time></trkpt><trkpt lat="41.8653733" lon="12.9184867"><ele>841.0</ele><time>2026-04-08T15:27:07.824Z</time></trkpt><trkpt lat="41.8653183" lon="12.9186283"><ele>839.25</ele><time>2026-04-08T15:27:08.821Z</time></trkpt><trkpt lat="41.86524" lon="12.9187367"><ele>837.5</ele><time>2026-04-08T15:27:09.821Z</time></trkpt><trkpt lat="41.8651283" lon="12.9188017"><ele>835.75</ele><time>2026-04-08T15:27:10.82Z</time></trkpt><trkpt lat="41.8649983" lon="12.9188417"><ele>834.0</ele><time>2026-04-08T15:27:11.821Z</time></trkpt><trkpt lat="41.8648567" lon="12.9188783"><ele>834.0</ele><time>2026-04-08T15:27:12.822Z</time></trkpt><trkpt lat="41.8647233" lon="12.9189333"><ele>834.0</ele><time>2026-04-08T15:27:13.821Z</time></trkpt><trkpt lat="41.8646067" lon="12.9190267"><ele>834.0</ele><time>2026-04-08T15:27:14.822Z</time></trkpt><trkpt lat="41.8644967" lon="12.919155"><ele>834.0</ele><time>2026-04-08T15:27:15.822Z</time></trkpt><trkpt lat="41.86438" lon="12.9192867"><ele>836.25</ele><time>2026-04-08T15:27:16.821Z</time></trkpt><trkpt lat="41.8642617" lon="12.9194167"><ele>838.5</ele><time>2026-04-08T15:27:17.818Z</time></trkpt><trkpt lat="41.8641483" lon="12.9195417"><ele>840.75</ele><time>2026-04-08T15:27:18.818Z</time></trkpt><trkpt lat="41.8640367" lon="12.9196717"><ele>843.0</ele><time>2026-04-08T15:27:19.818Z</time></trkpt><trkpt lat="41.8639233" lon="12.9198067"><ele>843.0</ele><time>2026-04-08T15:27:20.818Z</time></trkpt><trkpt lat="41.8638083" lon="12.9199433"><ele>843.0</ele><time>2026-04-08T15:27:21.818Z</time></trkpt><trkpt lat="41.8637" lon="12.9200867"><ele>843.0</ele><time>2026-04-08T15:27:22.818Z</time></trkpt><trkpt lat="41.8636083" lon="12.920235"><ele>843.0</ele><time>2026-04-08T15:27:23.819Z</time></trkpt><trkpt lat="41.8635317" lon="12.92038"><ele>842.75</ele><time>2026-04-08T15:27:24.818Z</time></trkpt><trkpt lat="41.863485" lon="12.9205367"><ele>842.5</ele><time>2026-04-08T15:27:25.817Z</time></trkpt><trkpt lat="41.8634483" lon="12.9207067"><ele>842.25</ele><time>2026-04-08T15:27:26.819Z</time></trkpt><trkpt lat="41.8634383" lon="12.9208883"><ele>842.0</ele><time>2026-04-08T15:27:27.818Z</time></trkpt><trkpt lat="41.86344" lon="12.92108"><ele>842.0</ele><time>2026-04-08T15:27:28.818Z</time></trkpt><trkpt lat="41.8634317" lon="12.92128"><ele>842.0</ele><time>2026-04-08T15:27:29.82Z</time></trkpt><trkpt lat="41.8634017" lon="12.92148"><ele>842.0</ele><time>2026-04-08T15:27:30.821Z</time></trkpt><trkpt lat="41.86336" lon="12.92167"><ele>842.0</ele><time>2026-04-08T15:27:31.821Z</time></trkpt><trkpt lat="41.863325" lon="12.92185"><ele>843.75</ele><time>2026-04-08T15:27:32.822Z</time></trkpt><trkpt lat="41.8633217" lon="12.9220217"><ele>845.5</ele><time>2026-04-08T15:27:33.82Z</time></trkpt><trkpt lat="41.8633417" lon="12.922185"><ele>847.25</ele><time>2026-04-08T15:27:34.821Z</time></trkpt><trkpt lat="41.8633467" lon="12.9223383"><ele>849.0</ele><time>2026-04-08T15:27:35.822Z</time></trkpt><trkpt lat="41.8633233" lon="12.9224767"><ele>850.5</ele><time>2026-04-08T15:27:36.821Z</time></trkpt><trkpt lat="41.8632583" lon="12.92262"><ele>852.0</ele><time>2026-04-08T15:27:37.821Z</time></trkpt><trkpt lat="41.8631767" lon="12.9227633"><ele>853.5</ele><time>2026-04-08T15:27:38.821Z</time></trkpt><trkpt lat="41.863105" lon="12.9229133"><ele>855.0</ele><time>2026-04-08T15:27:39.817Z</time></trkpt><trkpt lat="41.86306" lon="12.9230767"><ele>855.0</ele><time>2026-04-08T15:27:40.822Z</time></trkpt><trkpt lat="41.86305" lon="12.9232667"><ele>855.0</ele><time>2026-04-08T15:27:41.822Z</time></trkpt><trkpt lat="41.8630517" lon="12.9234733"><ele>855.0</ele><time>2026-04-08T15:27:42.821Z</time></trkpt><trkpt lat="41.8630583" lon="12.9236917"><ele>855.75</ele><time>2026-04-08T15:27:43.821Z</time></trkpt><trkpt lat="41.8630767" lon="12.9239067"><ele>856.5</ele><time>2026-04-08T15:27:44.819Z</time></trkpt><trkpt lat="41.8631033" lon="12.9241033"><ele>857.25</ele><time>2026-04-08T15:27:45.821Z</time></trkpt><trkpt lat="41.8631267" lon="12.9242867"><ele>858.0</ele><time>2026-04-08T15:27:46.822Z</time></trkpt><trkpt lat="41.863125" lon="12.9244633"><ele>858.75</ele><time>2026-04-08T15:27:47.821Z</time></trkpt><trkpt lat="41.86309" lon="12.9246467"><ele>859.5</ele><time>2026-04-08T15:27:48.818Z</time></trkpt><trkpt lat="41.8630267" lon="12.92482"><ele>860.25</ele><time>2026-04-08T15:27:49.819Z</time></trkpt><trkpt lat="41.8629733" lon="12.9249917"><ele>861.0</ele><time>2026-04-08T15:27:50.819Z</time></trkpt><trkpt lat="41.8629433" lon="12.9251783"><ele>862.0</ele><time>2026-04-08T15:27:51.818Z</time></trkpt><trkpt lat="41.8629483" lon="12.9253883"><ele>863.0</ele><time>2026-04-08T15:27:52.817Z</time></trkpt><trkpt lat="41.862965" lon="12.925605"><ele>864.0</ele><time>2026-04-08T15:27:53.819Z</time></trkpt><trkpt lat="41.8629933" lon="12.9258067"><ele>864.5</ele><time>2026-04-08T15:27:54.819Z</time></trkpt><trkpt lat="41.863045" lon="12.9259933"><ele>865.0</ele><time>2026-04-08T15:27:55.818Z</time></trkpt><trkpt lat="41.86311" lon="12.9261533"><ele>865.5</ele><time>2026-04-08T15:27:56.817Z</time></trkpt><trkpt lat="41.8631717" lon="12.9262867"><ele>866.0</ele><time>2026-04-08T15:27:57.818Z</time></trkpt><trkpt lat="41.86321" lon="12.9264133"><ele>866.0</ele><time>2026-04-08T15:27:58.819Z</time></trkpt><trkpt lat="41.863215" lon="12.926545"><ele>865.9999999999999</ele><time>2026-04-08T15:27:59.822Z</time></trkpt><trkpt lat="41.86319" lon="12.9266833"><ele>865.9999999999999</ele><time>2026-04-08T15:28:00.818Z</time></trkpt><trkpt lat="41.86313" lon="12.926815"><ele>866.0</ele><time>2026-04-08T15:28:01.821Z</time></trkpt><trkpt lat="41.8630367" lon="12.926935"><ele>866.0</ele><time>2026-04-08T15:28:02.822Z</time></trkpt><trkpt lat="41.8629417" lon="12.9270667"><ele>868.0</ele><time>2026-04-08T15:28:03.822Z</time></trkpt><trkpt lat="41.8628467" lon="12.9272083"><ele>870.0</ele><time>2026-04-08T15:28:04.821Z</time></trkpt><trkpt lat="41.862755" lon="12.9273733"><ele>872.0</ele><time>2026-04-08T15:28:05.821Z</time></trkpt><trkpt lat="41.8626717" lon="12.9275567"><ele>870.6666666666667</ele><time>2026-04-08T15:28:06.821Z</time></trkpt><trkpt lat="41.86259" lon="12.9277433"><ele>869.3333333333333</ele><time>2026-04-08T15:28:07.821Z</time></trkpt><trkpt lat="41.86251" lon="12.9279267"><ele>868.0</ele><time>2026-04-08T15:28:08.821Z</time></trkpt><trkpt lat="41.8624417" lon="12.9281183"><ele>868.0</ele><time>2026-04-08T15:28:09.821Z</time></trkpt><trkpt lat="41.8623867" lon="12.9283217"><ele>868.0</ele><time>2026-04-08T15:28:10.819Z</time></trkpt><trkpt lat="41.8623483" lon="12.9285267"><ele>868.0</ele><time>2026-04-08T15:28:11.822Z</time></trkpt><trkpt lat="41.8623233" lon="12.9287283"><ele>870.0</ele><time>2026-04-08T15:28:12.819Z</time></trkpt><trkpt lat="41.862315" lon="12.9289367"><ele>872.0</ele><time>2026-04-08T15:28:13.822Z</time></trkpt><trkpt lat="41.862325" lon="12.929155"><ele>874.0</ele><time>2026-04-08T15:28:14.821Z</time></trkpt><trkpt lat="41.8623433" lon="12.9293783"><ele>874.3333333333333</ele><time>2026-04-08T15:28:15.818Z</time></trkpt><trkpt lat="41.8623633" lon="12.9296117"><ele>874.6666666666667</ele><time>2026-04-08T15:28:16.821Z</time></trkpt><trkpt lat="41.8623883" lon="12.92985"><ele>875.0</ele><time>2026-04-08T15:28:17.817Z</time></trkpt><trkpt lat="41.86241" lon="12.930085"><ele>875.5</ele><time>2026-04-08T15:28:18.818Z</time></trkpt><trkpt lat="41.8624283" lon="12.9303033"><ele>876.0</ele><time>2026-04-08T15:28:19.817Z</time></trkpt><trkpt lat="41.8624483" lon="12.9305"><ele>876.5</ele><time>2026-04-08T15:28:20.819Z</time></trkpt><trkpt lat="41.8624833" lon="12.9306767"><ele>877.0</ele><time>2026-04-08T15:28:21.817Z</time></trkpt><trkpt lat="41.8625417" lon="12.93084"><ele>876.5</ele><time>2026-04-08T15:28:22.819Z</time></trkpt><trkpt lat="41.862615" lon="12.9309933"><ele>876.0</ele><time>2026-04-08T15:28:23.819Z</time></trkpt><trkpt lat="41.8626917" lon="12.9311317"><ele>875.5</ele><time>2026-04-08T15:28:24.818Z</time></trkpt><trkpt lat="41.8627767" lon="12.93125"><ele>875.0</ele><time>2026-04-08T15:28:25.819Z</time></trkpt><trkpt lat="41.8628733" lon="12.93135"><ele>875.0</ele><time>2026-04-08T15:28:26.819Z</time></trkpt><trkpt lat="41.8629867" lon="12.931425"><ele>875.0</ele><time>2026-04-08T15:28:27.817Z</time></trkpt><trkpt lat="41.863105" lon="12.931465"><ele>875.0</ele><time>2026-04-08T15:28:28.818Z</time></trkpt><trkpt lat="41.8632217" lon="12.9314683"><ele>875.0</ele><time>2026-04-08T15:28:29.82Z</time></trkpt><trkpt lat="41.86334" lon="12.9314317"><ele>874.75</ele><time>2026-04-08T15:28:30.821Z</time></trkpt><trkpt lat="41.8634617" lon="12.9313817"><ele>874.5</ele><time>2026-04-08T15:28:31.821Z</time></trkpt><trkpt lat="41.8635817" lon="12.9313333"><ele>874.25</ele><time>2026-04-08T15:28:32.822Z</time></trkpt><trkpt lat="41.8637" lon="12.9313083"><ele>874.0</ele><time>2026-04-08T15:28:33.821Z</time></trkpt><trkpt lat="41.86382" lon="12.9313217"><ele>874.0</ele><time>2026-04-08T15:28:34.82Z</time></trkpt><trkpt lat="41.8639333" lon="12.93136"><ele>874.0</ele><time>2026-04-08T15:28:35.821Z</time></trkpt><trkpt lat="41.8640433" lon="12.931395"><ele>874.0</ele><time>2026-04-08T15:28:36.82Z</time></trkpt><trkpt lat="41.8641533" lon="12.9313917"><ele>874.0</ele><time>2026-04-08T15:28:37.818Z</time></trkpt><trkpt lat="41.8642717" lon="12.9313567"><ele>874.5</ele><time>2026-04-08T15:28:38.82Z</time></trkpt><trkpt lat="41.8643983" lon="12.931305"><ele>875.0</ele><time>2026-04-08T15:28:39.821Z</time></trkpt><trkpt lat="41.864525" lon="12.9312683"><ele>875.5</ele><time>2026-04-08T15:28:40.821Z</time></trkpt><trkpt lat="41.8646433" lon="12.9312417"><ele>876.0</ele><time>2026-04-08T15:28:41.821Z</time></trkpt><trkpt lat="41.8647617" lon="12.9312367"><ele>876.0</ele><time>2026-04-08T15:28:42.821Z</time></trkpt><trkpt lat="41.864885" lon="12.9312533"><ele>876.0</ele><time>2026-04-08T15:28:43.82Z</time></trkpt><trkpt lat="41.8650017" lon="12.9313"><ele>876.0</ele><time>2026-04-08T15:28:44.821Z</time></trkpt><trkpt lat="41.8651167" lon="12.931355"><ele>876.0</ele><time>2026-04-08T15:28:45.82Z</time></trkpt><trkpt lat="41.8652283" lon="12.9314233"><ele>877.75</ele><time>2026-04-08T15:28:46.82Z</time></trkpt><trkpt lat="41.8653317" lon="12.93151"><ele>879.5</ele><time>2026-04-08T15:28:47.818Z</time></trkpt><trkpt lat="41.865425" lon="12.9316317"><ele>881.25</ele><time>2026-04-08T15:28:48.818Z</time></trkpt><trkpt lat="41.865495" lon="12.9317667"><ele>883.0</ele><time>2026-04-08T15:28:49.818Z</time></trkpt><trkpt lat="41.86554" lon="12.9319033"><ele>883.0</ele><time>2026-04-08T15:28:50.819Z</time></trkpt><trkpt lat="41.8655517" lon="12.9320517"><ele>883.0</ele><time>2026-04-08T15:28:51.818Z</time></trkpt><trkpt lat="41.8655333" lon="12.9322133"><ele>883.0</ele><time>2026-04-08T15:28:52.817Z</time></trkpt><trkpt lat="41.865515" lon="12.9323733"><ele>883.0</ele><time>2026-04-08T15:28:53.819Z</time></trkpt><trkpt lat="41.8655233" lon="12.9325283"><ele>881.25</ele><time>2026-04-08T15:28:54.818Z</time></trkpt><trkpt lat="41.8655583" lon="12.93268"><ele>879.5</ele><time>2026-04-08T15:28:55.818Z</time></trkpt><trkpt lat="41.86562" lon="12.9328483"><ele>877.75</ele><time>2026-04-08T15:28:56.818Z</time></trkpt><trkpt lat="41.8657067" lon="12.933025"><ele>876.0</ele><time>2026-04-08T15:28:57.817Z</time></trkpt><trkpt lat="41.8657883" lon="12.933195"><ele>876.0</ele><time>2026-04-08T15:28:58.819Z</time></trkpt><trkpt lat="41.8658717" lon="12.9333583"><ele>876.0</ele><time>2026-04-08T15:28:59.821Z</time></trkpt><trkpt lat="41.8659467" lon="12.9335133"><ele>876.0</ele><time>2026-04-08T15:29:00.821Z</time></trkpt><trkpt lat="41.8660233" lon="12.9336567"><ele>876.0</ele><time>2026-04-08T15:29:01.82Z</time></trkpt><trkpt lat="41.8661033" lon="12.9337733"><ele>874.0</ele><time>2026-04-08T15:29:02.821Z</time></trkpt><trkpt lat="41.8662" lon="12.9338567"><ele>872.0</ele><time>2026-04-08T15:29:03.821Z</time></trkpt><trkpt lat="41.8663083" lon="12.93389"><ele>870.0</ele><time>2026-04-08T15:29:04.821Z</time></trkpt><trkpt lat="41.8664333" lon="12.933865"><ele>868.0</ele><time>2026-04-08T15:29:05.821Z</time></trkpt><trkpt lat="41.866565" lon="12.9338067"><ele>868.0</ele><time>2026-04-08T15:29:06.82Z</time></trkpt><trkpt lat="41.86669" lon="12.9337517"><ele>868.0</ele><time>2026-04-08T15:29:07.821Z</time></trkpt><trkpt lat="41.8668067" lon="12.933715"><ele>868.0</ele><time>2026-04-08T15:29:08.82Z</time></trkpt><trkpt lat="41.8669083" lon="12.9337333"><ele>868.0</ele><time>2026-04-08T15:29:09.82Z</time></trkpt><trkpt lat="41.8670033" lon="12.9337983"><ele>870.0</ele><time>2026-04-08T15:29:10.82Z</time></trkpt><trkpt lat="41.8671" lon="12.933895"><ele>872.0</ele><time>2026-04-08T15:29:11.821Z</time></trkpt><trkpt lat="41.867205" lon="12.93397"><ele>874.0</ele><time>2026-04-08T15:29:12.82Z</time></trkpt><trkpt lat="41.8673117" lon="12.9340267"><ele>876.0</ele><time>2026-04-08T15:29:13.821Z</time></trkpt><trkpt lat="41.86742" lon="12.9340367"><ele>876.0</ele><time>2026-04-08T15:29:14.821Z</time></trkpt><trkpt lat="41.8675383" lon="12.934"><ele>876.0</ele><time>2026-04-08T15:29:15.822Z</time></trkpt><trkpt lat="41.8676567" lon="12.9339333"><ele>876.0</ele><time>2026-04-08T15:29:16.82Z</time></trkpt><trkpt lat="41.86776" lon="12.93388"><ele>876.0</ele><time>2026-04-08T15:29:17.819Z</time></trkpt><trkpt lat="41.8678517" lon="12.93385"><ele>877.1999999999999</ele><time>2026-04-08T15:29:18.818Z</time></trkpt><trkpt lat="41.8679317" lon="12.9338417"><ele>878.3999999999999</ele><time>2026-04-08T15:29:19.818Z</time></trkpt><trkpt lat="41.868" lon="12.9338733"><ele>879.6</ele><time>2026-04-08T15:29:20.819Z</time></trkpt><trkpt lat="41.8680683" lon="12.9339467"><ele>880.8</ele><time>2026-04-08T15:29:21.818Z</time></trkpt><trkpt lat="41.86814" lon="12.934075"><ele>882.0</ele><time>2026-04-08T15:29:22.818Z</time></trkpt><trkpt lat="41.8681883" lon="12.9342683"><ele>882.0</ele><time>2026-04-08T15:29:23.819Z</time></trkpt><trkpt lat="41.8682367" lon="12.934445"><ele>882.0</ele><time>2026-04-08T15:29:24.818Z</time></trkpt><trkpt lat="41.8682883" lon="12.934645"><ele>882.0</ele><time>2026-04-08T15:29:25.817Z</time></trkpt><trkpt lat="41.8683333" lon="12.93483"><ele>882.0</ele><time>2026-04-08T15:29:26.822Z</time></trkpt><trkpt lat="41.8683867" lon="12.9350183"><ele>881.75</ele><time>2026-04-08T15:29:27.821Z</time></trkpt><trkpt lat="41.86844" lon="12.9352083"><ele>881.5</ele><time>2026-04-08T15:29:28.818Z</time></trkpt><trkpt lat="41.868495" lon="12.93539"><ele>881.25</ele><time>2026-04-08T15:29:29.818Z</time></trkpt><trkpt lat="41.86854" lon="12.9355767"><ele>881.0</ele><time>2026-04-08T15:29:30.819Z</time></trkpt><trkpt lat="41.868575" lon="12.9357583"><ele>889.75</ele><time>2026-04-08T15:29:31.819Z</time></trkpt><trkpt lat="41.8685817" lon="12.9359433"><ele>898.5</ele><time>2026-04-08T15:29:32.819Z</time></trkpt><trkpt lat="41.8685767" lon="12.9361317"><ele>907.25</ele><time>2026-04-08T15:29:33.819Z</time></trkpt><trkpt lat="41.8685583" lon="12.936325"><ele>916.0</ele><time>2026-04-08T15:29:34.819Z</time></trkpt><trkpt lat="41.86853" lon="12.9365067"><ele>916.0</ele><time>2026-04-08T15:29:35.818Z</time></trkpt><trkpt lat="41.8684933" lon="12.936655"><ele>915.9999999999999</ele><time>2026-04-08T15:29:36.818Z</time></trkpt><trkpt lat="41.8684333" lon="12.93677"><ele>915.9999999999999</ele><time>2026-04-08T15:29:37.819Z</time></trkpt><trkpt lat="41.86835" lon="12.93686"><ele>916.0</ele><time>2026-04-08T15:29:38.819Z</time></trkpt><trkpt lat="41.8682433" lon="12.9369267"><ele>916.0</ele><time>2026-04-08T15:29:39.818Z</time></trkpt><trkpt lat="41.86812" lon="12.93699"><ele>914.0</ele><time>2026-04-08T15:29:40.819Z</time></trkpt><trkpt lat="41.8679783" lon="12.9370433"><ele>912.0</ele><time>2026-04-08T15:29:41.818Z</time></trkpt><trkpt lat="41.8678317" lon="12.9370883"><ele>910.0</ele><time>2026-04-08T15:29:42.819Z</time></trkpt><trkpt lat="41.86769" lon="12.93713"><ele>908.0</ele><time>2026-04-08T15:29:43.819Z</time></trkpt><trkpt lat="41.86755" lon="12.937165"><ele>902.75</ele><time>2026-04-08T15:29:44.819Z</time></trkpt><trkpt lat="41.8674217" lon="12.93721"><ele>897.5</ele><time>2026-04-08T15:29:45.818Z</time></trkpt><trkpt lat="41.86732" lon="12.9372717"><ele>892.25</ele><time>2026-04-08T15:29:46.82Z</time></trkpt><trkpt lat="41.867245" lon="12.9373683"><ele>887.0</ele><time>2026-04-08T15:29:47.819Z</time></trkpt><trkpt lat="41.867205" lon="12.9375"><ele>890.0</ele><time>2026-04-08T15:29:48.819Z</time></trkpt><trkpt lat="41.867175" lon="12.9376467"><ele>893.0</ele><time>2026-04-08T15:29:49.819Z</time></trkpt><trkpt lat="41.8671583" lon="12.937815"><ele>896.0</ele><time>2026-04-08T15:29:50.819Z</time></trkpt><trkpt lat="41.8671483" lon="12.9379917"><ele>899.0</ele><time>2026-04-08T15:29:51.819Z</time></trkpt><trkpt lat="41.867155" lon="12.9381817"><ele>899.0</ele><time>2026-04-08T15:29:52.819Z</time></trkpt><trkpt lat="41.8671667" lon="12.93837"><ele>899.0</ele><time>2026-04-08T15:29:53.819Z</time></trkpt><trkpt lat="41.8671883" lon="12.93855"><ele>899.0</ele><time>2026-04-08T15:29:54.819Z</time></trkpt><trkpt lat="41.8672333" lon="12.9387367"><ele>899.0</ele><time>2026-04-08T15:29:55.82Z</time></trkpt><trkpt lat="41.8672867" lon="12.93892"><ele>899.25</ele><time>2026-04-08T15:29:56.818Z</time></trkpt><trkpt lat="41.8673333" lon="12.9390883"><ele>899.5</ele><time>2026-04-08T15:29:57.819Z</time></trkpt><trkpt lat="41.8673767" lon="12.9392533"><ele>899.75</ele><time>2026-04-08T15:29:58.818Z</time></trkpt><trkpt lat="41.8674133" lon="12.9394183"><ele>900.0</ele><time>2026-04-08T15:29:59.818Z</time></trkpt><trkpt lat="41.8674233" lon="12.9395767"><ele>900.5</ele><time>2026-04-08T15:30:00.818Z</time></trkpt><trkpt lat="41.86741" lon="12.9397383"><ele>901.0</ele><time>2026-04-08T15:30:01.818Z</time></trkpt><trkpt lat="41.86736" lon="12.939895"><ele>901.5</ele><time>2026-04-08T15:30:02.821Z</time></trkpt><trkpt lat="41.8672967" lon="12.9400583"><ele>902.0</ele><time>2026-04-08T15:30:03.817Z</time></trkpt><trkpt lat="41.8672217" lon="12.9402183"><ele>904.5</ele><time>2026-04-08T15:30:04.819Z</time></trkpt><trkpt lat="41.8671417" lon="12.9403833"><ele>907.0</ele><time>2026-04-08T15:30:05.819Z</time></trkpt><trkpt lat="41.867065" lon="12.940555"><ele>909.5</ele><time>2026-04-08T15:30:06.818Z</time></trkpt><trkpt lat="41.867005" lon="12.9407383"><ele>912.0</ele><time>2026-04-08T15:30:07.819Z</time></trkpt><trkpt lat="41.866965" lon="12.9409183"><ele>914.0</ele><time>2026-04-08T15:30:08.819Z</time></trkpt><trkpt lat="41.866945" lon="12.9410883"><ele>916.0</ele><time>2026-04-08T15:30:09.817Z</time></trkpt><trkpt lat="41.8669383" lon="12.9412467"><ele>918.0</ele><time>2026-04-08T15:30:10.817Z</time></trkpt><trkpt lat="41.8669217" lon="12.941395"><ele>920.0</ele><time>2026-04-08T15:30:11.821Z</time></trkpt><trkpt lat="41.86688" lon="12.9415267"><ele>920.0</ele><time>2026-04-08T15:30:12.823Z</time></trkpt><trkpt lat="41.8667917" lon="12.941645"><ele>920.0</ele><time>2026-04-08T15:30:13.82Z</time></trkpt><trkpt lat="41.8666767" lon="12.9417583"><ele>920.0</ele><time>2026-04-08T15:30:14.821Z</time></trkpt><trkpt lat="41.866555" lon="12.9418667"><ele>920.0</ele><time>2026-04-08T15:30:15.821Z</time></trkpt><trkpt lat="41.8664467" lon="12.9419783"><ele>922.25</ele><time>2026-04-08T15:30:16.821Z</time></trkpt><trkpt lat="41.8663533" lon="12.9420833"><ele>924.5</ele><time>2026-04-08T15:30:17.819Z</time></trkpt><trkpt lat="41.86628" lon="12.942215"><ele>926.75</ele><time>2026-04-08T15:30:18.818Z</time></trkpt><trkpt lat="41.8662317" lon="12.9423833"><ele>929.0</ele><time>2026-04-08T15:30:19.817Z</time></trkpt><trkpt lat="41.8661817" lon="12.9425533"><ele>929.0</ele><time>2026-04-08T15:30:20.822Z</time></trkpt><trkpt lat="41.8661333" lon="12.9427283"><ele>929.0</ele><time>2026-04-08T15:30:21.82Z</time></trkpt><trkpt lat="41.8660667" lon="12.9428967"><ele>929.0</ele><time>2026-04-08T15:30:22.821Z</time></trkpt><trkpt lat="41.8659767" lon="12.94305"><ele>929.0</ele><time>2026-04-08T15:30:23.821Z</time></trkpt><trkpt lat="41.8658683" lon="12.9431783"><ele>928.75</ele><time>2026-04-08T15:30:24.82Z</time></trkpt><trkpt lat="41.8657467" lon="12.9432767"><ele>928.5</ele><time>2026-04-08T15:30:25.82Z</time></trkpt><trkpt lat="41.8656133" lon="12.9433583"><ele>928.25</ele><time>2026-04-08T15:30:26.822Z</time></trkpt><trkpt lat="41.865475" lon="12.943435"><ele>928.0</ele><time>2026-04-08T15:30:27.821Z</time></trkpt><trkpt lat="41.8653533" lon="12.9435217"><ele>928.0</ele><time>2026-04-08T15:30:28.824Z</time></trkpt><trkpt lat="41.8652533" lon="12.9436333"><ele>928.0</ele><time>2026-04-08T15:30:29.821Z</time></trkpt><trkpt lat="41.865175" lon="12.9437717"><ele>928.0</ele><time>2026-04-08T15:30:30.818Z</time></trkpt><trkpt lat="41.86511" lon="12.943935"><ele>928.0</ele><time>2026-04-08T15:30:31.819Z</time></trkpt><trkpt lat="41.865055" lon="12.9441183"><ele>922.0</ele><time>2026-04-08T15:30:32.819Z</time></trkpt><trkpt lat="41.8649967" lon="12.94431"><ele>916.0</ele><time>2026-04-08T15:30:33.82Z</time></trkpt><trkpt lat="41.864915" lon="12.9444817"><ele>910.0</ele><time>2026-04-08T15:30:34.818Z</time></trkpt><trkpt lat="41.8648117" lon="12.9446333"><ele>910.0</ele><time>2026-04-08T15:30:35.817Z</time></trkpt><trkpt lat="41.8646983" lon="12.9447783"><ele>910.0</ele><time>2026-04-08T15:30:36.818Z</time></trkpt><trkpt lat="41.864575" lon="12.94492"><ele>910.0</ele><time>2026-04-08T15:30:37.818Z</time></trkpt><trkpt lat="41.864455" lon="12.9450617"><ele>906.75</ele><time>2026-04-08T15:30:38.82Z</time></trkpt><trkpt lat="41.86434" lon="12.9451983"><ele>903.5</ele><time>2026-04-08T15:30:39.817Z</time></trkpt><trkpt lat="41.8642383" lon="12.9453367"><ele>900.25</ele><time>2026-04-08T15:30:40.817Z</time></trkpt><trkpt lat="41.864145" lon="12.945485"><ele>897.0</ele><time>2026-04-08T15:30:41.821Z</time></trkpt><trkpt lat="41.8640583" lon="12.9456383"><ele>897.0</ele><time>2026-04-08T15:30:42.821Z</time></trkpt><trkpt lat="41.8639783" lon="12.945795"><ele>897.0</ele><time>2026-04-08T15:30:43.819Z</time></trkpt><trkpt lat="41.86391" lon="12.9459583"><ele>897.0</ele><time>2026-04-08T15:30:44.818Z</time></trkpt><trkpt lat="41.8638467" lon="12.9461367"><ele>897.0</ele><time>2026-04-08T15:30:45.817Z</time></trkpt><trkpt lat="41.8637867" lon="12.9463133"><ele>900.75</ele><time>2026-04-08T15:30:46.819Z</time></trkpt><trkpt lat="41.8637367" lon="12.94649"><ele>904.5</ele><time>2026-04-08T15:30:47.819Z</time></trkpt><trkpt lat="41.8636867" lon="12.946665"><ele>908.25</ele><time>2026-04-08T15:30:48.817Z</time></trkpt><trkpt lat="41.86364" lon="12.946835"><ele>912.0</ele><time>2026-04-08T15:30:49.818Z</time></trkpt><trkpt lat="41.8635917" lon="12.9469983"><ele>914.25</ele><time>2026-04-08T15:30:50.819Z</time></trkpt><trkpt lat="41.8635483" lon="12.94716"><ele>916.5</ele><time>2026-04-08T15:30:51.817Z</time></trkpt><trkpt lat="41.863505" lon="12.947325"><ele>918.75</ele><time>2026-04-08T15:30:52.818Z</time></trkpt><trkpt lat="41.86346" lon="12.9474833"><ele>921.0</ele><time>2026-04-08T15:30:53.817Z</time></trkpt><trkpt lat="41.8634217" lon="12.9476417"><ele>913.75</ele><time>2026-04-08T15:30:54.818Z</time></trkpt><trkpt lat="41.8633883" lon="12.94779"><ele>906.5</ele><time>2026-04-08T15:30:55.818Z</time></trkpt><trkpt lat="41.863355" lon="12.947935"><ele>899.25</ele><time>2026-04-08T15:30:56.821Z</time></trkpt><trkpt lat="41.8633167" lon="12.94808"><ele>892.0</ele><time>2026-04-08T15:30:57.818Z</time></trkpt><trkpt lat="41.8632767" lon="12.9482183"><ele>892.0</ele><time>2026-04-08T15:30:58.819Z</time></trkpt><trkpt lat="41.8632417" lon="12.948355"><ele>892.0</ele><time>2026-04-08T15:30:59.82Z</time></trkpt><trkpt lat="41.8632283" lon="12.9485017"><ele>892.0</ele><time>2026-04-08T15:31:00.821Z</time></trkpt><trkpt lat="41.86322" lon="12.9486517"><ele>892.0</ele><time>2026-04-08T15:31:01.819Z</time></trkpt><trkpt lat="41.8632117" lon="12.9488083"><ele>892.0</ele><time>2026-04-08T15:31:02.82Z</time></trkpt><trkpt lat="41.863205" lon="12.9489683"><ele>892.2</ele><time>2026-04-08T15:31:03.818Z</time></trkpt><trkpt lat="41.863205" lon="12.9491233"><ele>892.4000000000001</ele><time>2026-04-08T15:31:04.818Z</time></trkpt><trkpt lat="41.8632017" lon="12.9492667"><ele>892.5999999999999</ele><time>2026-04-08T15:31:05.818Z</time></trkpt><trkpt lat="41.8632" lon="12.9494083"><ele>892.8</ele><time>2026-04-08T15:31:06.819Z</time></trkpt><trkpt lat="41.86319" lon="12.949545"><ele>893.0</ele><time>2026-04-08T15:31:07.818Z</time></trkpt><trkpt lat="41.8631867" lon="12.9496817"><ele>893.4</ele><time>2026-04-08T15:31:08.818Z</time></trkpt><trkpt lat="41.8631767" lon="12.9498133"><ele>893.8</ele><time>2026-04-08T15:31:09.818Z</time></trkpt><trkpt lat="41.863175" lon="12.94995"><ele>894.2</ele><time>2026-04-08T15:31:10.818Z</time></trkpt><trkpt lat="41.86318" lon="12.9500917"><ele>894.6</ele><time>2026-04-08T15:31:11.82Z</time></trkpt><trkpt lat="41.86318" lon="12.9502267"><ele>895.0</ele><time>2026-04-08T15:31:12.82Z</time></trkpt><trkpt lat="41.8631917" lon="12.9503633"><ele>894.9999999999999</ele><time>2026-04-08T15:31:13.819Z</time></trkpt><trkpt lat="41.86319" lon="12.95048"><ele>895.0</ele><time>2026-04-08T15:31:14.822Z</time></trkpt><trkpt lat="41.863185" lon="12.9505883"><ele>895.0</ele><time>2026-04-08T15:31:15.821Z</time></trkpt><trkpt lat="41.863175" lon="12.9506783"><ele>895.0</ele><time>2026-04-08T15:31:16.821Z</time></trkpt><trkpt lat="41.8631667" lon="12.950765"><ele>894.9999999999999</ele><time>2026-04-08T15:31:17.818Z</time></trkpt><trkpt lat="41.8631483" lon="12.950915"><ele>895.0</ele><time>2026-04-08T15:31:19.817Z</time></trkpt><trkpt lat="41.8631217" lon="12.9510433"><ele>894.0</ele><time>2026-04-08T15:31:21.82Z</time></trkpt><trkpt lat="41.86311" lon="12.951175"><ele>893.0</ele><time>2026-04-08T15:31:23.818Z</time></trkpt><trkpt lat="41.863155" lon="12.951295"><ele>892.0</ele><time>2026-04-08T15:31:25.821Z</time></trkpt><trkpt lat="41.8632583" lon="12.9513267"><ele>891.0</ele><time>2026-04-08T15:31:27.817Z</time></trkpt><trkpt lat="41.8633083" lon="12.9512717"><ele>890.0</ele><time>2026-04-08T15:31:28.819Z</time></trkpt><trkpt lat="41.863345" lon="12.951145"><ele>890.0000000000001</ele><time>2026-04-08T15:31:30.819Z</time></trkpt><trkpt lat="41.86333" lon="12.95105"><ele>890.0</ele><time>2026-04-08T15:31:31.819Z</time></trkpt><trkpt lat="41.863315" lon="12.9509467"><ele>890.0</ele><time>2026-04-08T15:31:32.819Z</time></trkpt><trkpt lat="41.8633083" lon="12.9508333"><ele>890.0</ele><time>2026-04-08T15:31:33.818Z</time></trkpt><trkpt lat="41.86331" lon="12.9507117"><ele>890.0000000000001</ele><time>2026-04-08T15:31:34.819Z</time></trkpt><trkpt lat="41.86331" lon="12.9505867"><ele>890.0</ele><time>2026-04-08T15:31:35.82Z</time></trkpt><trkpt lat="41.8633267" lon="12.9504567"><ele>890.2</ele><time>2026-04-08T15:31:36.819Z</time></trkpt><trkpt lat="41.8633717" lon="12.9503283"><ele>890.4</ele><time>2026-04-08T15:31:37.819Z</time></trkpt><trkpt lat="41.8634217" lon="12.9501933"><ele>890.5999999999999</ele><time>2026-04-08T15:31:38.819Z</time></trkpt><trkpt lat="41.8634633" lon="12.95006"><ele>890.8</ele><time>2026-04-08T15:31:39.821Z</time></trkpt><trkpt lat="41.8635017" lon="12.9499317"><ele>891.0</ele><time>2026-04-08T15:31:40.817Z</time></trkpt><trkpt lat="41.86353" lon="12.94979"><ele>892.0</ele><time>2026-04-08T15:31:41.822Z</time></trkpt><trkpt lat="41.8635433" lon="12.9496417"><ele>893.0</ele><time>2026-04-08T15:31:42.822Z</time></trkpt><trkpt lat="41.8635417" lon="12.9494833"><ele>894.0</ele><time>2026-04-08T15:31:43.82Z</time></trkpt><trkpt lat="41.8635433" lon="12.9493183"><ele>895.0</ele><time>2026-04-08T15:31:44.822Z</time></trkpt><trkpt lat="41.8635383" lon="12.949155"><ele>898.75</ele><time>2026-04-08T15:31:45.822Z</time></trkpt><trkpt lat="41.8635433" lon="12.9489883"><ele>902.5</ele><time>2026-04-08T15:31:46.822Z</time></trkpt><trkpt lat="41.8635517" lon="12.948825"><ele>906.25</ele><time>2026-04-08T15:31:47.821Z</time></trkpt><trkpt lat="41.8635683" lon="12.9486817"><ele>910.0</ele><time>2026-04-08T15:31:48.82Z</time></trkpt><trkpt lat="41.8636067" lon="12.9485517"><ele>910.0</ele><time>2026-04-08T15:31:49.818Z</time></trkpt><trkpt lat="41.8636617" lon="12.9484283"><ele>910.0</ele><time>2026-04-08T15:31:50.821Z</time></trkpt><trkpt lat="41.8637317" lon="12.9483017"><ele>910.0</ele><time>2026-04-08T15:31:51.821Z</time></trkpt><trkpt lat="41.863805" lon="12.94817"><ele>910.0</ele><time>2026-04-08T15:31:52.821Z</time></trkpt><trkpt lat="41.8638767" lon="12.9480317"><ele>912.5</ele><time>2026-04-08T15:31:53.82Z</time></trkpt><trkpt lat="41.8639333" lon="12.9478867"><ele>915.0</ele><time>2026-04-08T15:31:54.821Z</time></trkpt><trkpt lat="41.8639683" lon="12.94772"><ele>917.5</ele><time>2026-04-08T15:31:55.821Z</time></trkpt><trkpt lat="41.8639783" lon="12.94753"><ele>920.0</ele><time>2026-04-08T15:31:56.821Z</time></trkpt><trkpt lat="41.863975" lon="12.9473383"><ele>920.2</ele><time>2026-04-08T15:31:57.821Z</time></trkpt><trkpt lat="41.8639683" lon="12.9471633"><ele>920.4</ele><time>2026-04-08T15:31:58.818Z</time></trkpt><trkpt lat="41.8639667" lon="12.94701"><ele>920.5999999999999</ele><time>2026-04-08T15:31:59.818Z</time></trkpt><trkpt lat="41.8639783" lon="12.9468767"><ele>920.8</ele><time>2026-04-08T15:32:00.817Z</time></trkpt><trkpt lat="41.8640083" lon="12.94675"><ele>921.0</ele><time>2026-04-08T15:32:01.818Z</time></trkpt><trkpt lat="41.8640633" lon="12.9466233"><ele>918.75</ele><time>2026-04-08T15:32:02.822Z</time></trkpt><trkpt lat="41.8641283" lon="12.9464983"><ele>916.5</ele><time>2026-04-08T15:32:03.817Z</time></trkpt><trkpt lat="41.8642067" lon="12.946365"><ele>914.25</ele><time>2026-04-08T15:32:04.818Z</time></trkpt><trkpt lat="41.86429" lon="12.9462233"><ele>912.0</ele><time>2026-04-08T15:32:05.818Z</time></trkpt><trkpt lat="41.8643733" lon="12.946075"><ele>917.6666666666667</ele><time>2026-04-08T15:32:06.817Z</time></trkpt><trkpt lat="41.86446" lon="12.9459183"><ele>923.3333333333334</ele><time>2026-04-08T15:32:07.818Z</time></trkpt><trkpt lat="41.864555" lon="12.9457583"><ele>929.0</ele><time>2026-04-08T15:32:08.818Z</time></trkpt><trkpt lat="41.8646617" lon="12.9456017"><ele>929.0</ele><time>2026-04-08T15:32:09.818Z</time></trkpt><trkpt lat="41.8647817" lon="12.9454467"><ele>929.0</ele><time>2026-04-08T15:32:10.818Z</time></trkpt><trkpt lat="41.8649133" lon="12.9452967"><ele>929.0</ele><time>2026-04-08T15:32:11.821Z</time></trkpt><trkpt lat="41.8650483" lon="12.9451533"><ele>933.3333333333334</ele><time>2026-04-08T15:32:12.82Z</time></trkpt><trkpt lat="41.8651683" lon="12.9450117"><ele>937.6666666666667</ele><time>2026-04-08T15:32:13.821Z</time></trkpt><trkpt lat="41.8652683" lon="12.9448583"><ele>942.0</ele><time>2026-04-08T15:32:14.821Z</time></trkpt><trkpt lat="41.8653483" lon="12.9446733"><ele>942.0</ele><time>2026-04-08T15:32:15.821Z</time></trkpt><trkpt lat="41.8654133" lon="12.9444717"><ele>942.0</ele><time>2026-04-08T15:32:16.82Z</time></trkpt><trkpt lat="41.8654767" lon="12.944295"><ele>942.0</ele><time>2026-04-08T15:32:17.82Z</time></trkpt><trkpt lat="41.8655433" lon="12.9441533"><ele>942.0</ele><time>2026-04-08T15:32:18.821Z</time></trkpt><trkpt lat="41.8656283" lon="12.9440417"><ele>944.5</ele><time>2026-04-08T15:32:19.821Z</time></trkpt><trkpt lat="41.8657417" lon="12.9439517"><ele>947.0</ele><time>2026-04-08T15:32:20.821Z</time></trkpt><trkpt lat="41.86587" lon="12.9438683"><ele>949.5</ele><time>2026-04-08T15:32:21.821Z</time></trkpt><trkpt lat="41.86601" lon="12.9437783"><ele>952.0</ele><time>2026-04-08T15:32:22.821Z</time></trkpt><trkpt lat="41.86615" lon="12.94368"><ele>952.0</ele><time>2026-04-08T15:32:23.821Z</time></trkpt><trkpt lat="41.8662867" lon="12.9435817"><ele>952.0</ele><time>2026-04-08T15:32:24.823Z</time></trkpt><trkpt lat="41.86642" lon="12.9434633"><ele>952.0</ele><time>2026-04-08T15:32:25.82Z</time></trkpt><trkpt lat="41.86655" lon="12.94333"><ele>953.3333333333333</ele><time>2026-04-08T15:32:26.822Z</time></trkpt><trkpt lat="41.86668" lon="12.9431833"><ele>954.6666666666667</ele><time>2026-04-08T15:32:27.82Z</time></trkpt><trkpt lat="41.8668167" lon="12.9430333"><ele>956.0</ele><time>2026-04-08T15:32:28.818Z</time></trkpt><trkpt lat="41.8669567" lon="12.9428817"><ele>956.0</ele><time>2026-04-08T15:32:29.818Z</time></trkpt><trkpt lat="41.867095" lon="12.9427267"><ele>956.0</ele><time>2026-04-08T15:32:30.819Z</time></trkpt><trkpt lat="41.867235" lon="12.9425617"><ele>956.0</ele><time>2026-04-08T15:32:31.818Z</time></trkpt><trkpt lat="41.8673717" lon="12.9424033"><ele>954.5</ele><time>2026-04-08T15:32:32.819Z</time></trkpt><trkpt lat="41.8674983" lon="12.9422583"><ele>953.0</ele><time>2026-04-08T15:32:33.818Z</time></trkpt><trkpt lat="41.8676133" lon="12.9421283"><ele>951.5</ele><time>2026-04-08T15:32:34.819Z</time></trkpt><trkpt lat="41.8677033" lon="12.942"><ele>950.0</ele><time>2026-04-08T15:32:35.82Z</time></trkpt><trkpt lat="41.86777" lon="12.9418617"><ele>952.0</ele><time>2026-04-08T15:32:36.817Z</time></trkpt><trkpt lat="41.8678133" lon="12.9417017"><ele>954.0</ele><time>2026-04-08T15:32:37.817Z</time></trkpt><trkpt lat="41.86783" lon="12.9415167"><ele>956.0</ele><time>2026-04-08T15:32:38.817Z</time></trkpt><trkpt lat="41.8678483" lon="12.9413317"><ele>958.0</ele><time>2026-04-08T15:32:39.818Z</time></trkpt><trkpt lat="41.8678767" lon="12.941165"><ele>958.0</ele><time>2026-04-08T15:32:40.822Z</time></trkpt><trkpt lat="41.8679217" lon="12.94101"><ele>958.0</ele><time>2026-04-08T15:32:41.82Z</time></trkpt><trkpt lat="41.867995" lon="12.9408717"><ele>958.0</ele><time>2026-04-08T15:32:42.82Z</time></trkpt><trkpt lat="41.8680817" lon="12.9407333"><ele>958.0</ele><time>2026-04-08T15:32:43.821Z</time></trkpt><trkpt lat="41.8681683" lon="12.940595"><ele>956.75</ele><time>2026-04-08T15:32:44.822Z</time></trkpt><trkpt lat="41.86823" lon="12.940455"><ele>955.5</ele><time>2026-04-08T15:32:45.821Z</time></trkpt><trkpt lat="41.8682733" lon="12.9403083"><ele>954.25</ele><time>2026-04-08T15:32:46.818Z</time></trkpt><trkpt lat="41.86829" lon="12.9401517"><ele>953.0</ele><time>2026-04-08T15:32:47.818Z</time></trkpt><trkpt lat="41.86828" lon="12.93999"><ele>951.0</ele><time>2026-04-08T15:32:48.818Z</time></trkpt><trkpt lat="41.8682567" lon="12.93982"><ele>949.0</ele><time>2026-04-08T15:32:49.82Z</time></trkpt><trkpt lat="41.8682483" lon="12.9396617"><ele>947.0</ele><time>2026-04-08T15:32:50.821Z</time></trkpt><trkpt lat="41.8682567" lon="12.9395117"><ele>945.0</ele><time>2026-04-08T15:32:51.821Z</time></trkpt><trkpt lat="41.868285" lon="12.939365"><ele>944.75</ele><time>2026-04-08T15:32:52.821Z</time></trkpt><trkpt lat="41.8683183" lon="12.9391967"><ele>944.5</ele><time>2026-04-08T15:32:53.818Z</time></trkpt><trkpt lat="41.8683217" lon="12.9390183"><ele>944.25</ele><time>2026-04-08T15:32:54.821Z</time></trkpt><trkpt lat="41.8683233" lon="12.9388467"><ele>944.0</ele><time>2026-04-08T15:32:55.821Z</time></trkpt><trkpt lat="41.8683433" lon="12.9387"><ele>944.0</ele><time>2026-04-08T15:32:56.818Z</time></trkpt><trkpt lat="41.8683867" lon="12.938575"><ele>944.0000000000001</ele><time>2026-04-08T15:32:57.818Z</time></trkpt><trkpt lat="41.8684617" lon="12.9384767"><ele>944.0000000000001</ele><time>2026-04-08T15:32:58.818Z</time></trkpt><trkpt lat="41.86856" lon="12.9384183"><ele>944.0</ele><time>2026-04-08T15:32:59.819Z</time></trkpt><trkpt lat="41.8686733" lon="12.9384"><ele>944.0</ele><time>2026-04-08T15:33:00.818Z</time></trkpt><trkpt lat="41.8687833" lon="12.9384267"><ele>945.25</ele><time>2026-04-08T15:33:01.818Z</time></trkpt><trkpt lat="41.868895" lon="12.9384867"><ele>946.5</ele><time>2026-04-08T15:33:02.819Z</time></trkpt><trkpt lat="41.86902" lon="12.9385667"><ele>947.75</ele><time>2026-04-08T15:33:03.818Z</time></trkpt><trkpt lat="41.8691467" lon="12.93866"><ele>949.0</ele><time>2026-04-08T15:33:04.819Z</time></trkpt><trkpt lat="41.8692783" lon="12.9387583"><ele>949.0</ele><time>2026-04-08T15:33:05.82Z</time></trkpt><trkpt lat="41.8694183" lon="12.938865"><ele>949.0</ele><time>2026-04-08T15:33:06.817Z</time></trkpt><trkpt lat="41.8695517" lon="12.93897"><ele>949.0</ele><time>2026-04-08T15:33:07.817Z</time></trkpt><trkpt lat="41.869675" lon="12.9390617"><ele>949.0</ele><time>2026-04-08T15:33:08.817Z</time></trkpt><trkpt lat="41.8697833" lon="12.9391467"><ele>949.0</ele><time>2026-04-08T15:33:09.82Z</time></trkpt><trkpt lat="41.8698867" lon="12.9392167"><ele>949.0</ele><time>2026-04-08T15:33:10.818Z</time></trkpt><trkpt lat="41.869995" lon="12.9392517"><ele>949.0</ele><time>2026-04-08T15:33:11.82Z</time></trkpt><trkpt lat="41.8701083" lon="12.9392483"><ele>951.75</ele><time>2026-04-08T15:33:12.818Z</time></trkpt><trkpt lat="41.8702233" lon="12.9392117"><ele>954.5</ele><time>2026-04-08T15:33:13.821Z</time></trkpt><trkpt lat="41.8703217" lon="12.9391333"><ele>957.25</ele><time>2026-04-08T15:33:14.821Z</time></trkpt><trkpt lat="41.8704" lon="12.9390217"><ele>960.0</ele><time>2026-04-08T15:33:15.82Z</time></trkpt><trkpt lat="41.8704567" lon="12.9388833"><ele>960.0</ele><time>2026-04-08T15:33:16.822Z</time></trkpt><trkpt lat="41.870485" lon="12.9387283"><ele>960.0</ele><time>2026-04-08T15:33:17.821Z</time></trkpt><trkpt lat="41.8704867" lon="12.9385533"><ele>960.0</ele><time>2026-04-08T15:33:18.821Z</time></trkpt><trkpt lat="41.8704583" lon="12.9383667"><ele>960.0</ele><time>2026-04-08T15:33:19.823Z</time></trkpt><trkpt lat="41.8704283" lon="12.9381667"><ele>964.6666666666667</ele><time>2026-04-08T15:33:20.824Z</time></trkpt><trkpt lat="41.8703967" lon="12.9379617"><ele>969.3333333333334</ele><time>2026-04-08T15:33:21.817Z</time></trkpt><trkpt lat="41.8703583" lon="12.9377533"><ele>974.0</ele><time>2026-04-08T15:33:22.822Z</time></trkpt><trkpt lat="41.8703217" lon="12.9375483"><ele>978.3333333333334</ele><time>2026-04-08T15:33:23.819Z</time></trkpt><trkpt lat="41.8702867" lon="12.9373433"><ele>982.6666666666667</ele><time>2026-04-08T15:33:24.82Z</time></trkpt><trkpt lat="41.8702533" lon="12.9371367"><ele>987.0</ele><time>2026-04-08T15:33:25.822Z</time></trkpt><trkpt lat="41.8702217" lon="12.936935"><ele>987.0</ele><time>2026-04-08T15:33:26.821Z</time></trkpt><trkpt lat="41.8701917" lon="12.9367533"><ele>987.0</ele><time>2026-04-08T15:33:27.82Z</time></trkpt><trkpt lat="41.870175" lon="12.9365933"><ele>987.0</ele><time>2026-04-08T15:33:28.817Z</time></trkpt><trkpt lat="41.870175" lon="12.9364433"><ele>987.0</ele><time>2026-04-08T15:33:29.817Z</time></trkpt><trkpt lat="41.870195" lon="12.9362917"><ele>988.75</ele><time>2026-04-08T15:33:30.819Z</time></trkpt><trkpt lat="41.8702333" lon="12.93614"><ele>990.5</ele><time>2026-04-08T15:33:31.819Z</time></trkpt><trkpt lat="41.87028" lon="12.9359833"><ele>992.25</ele><time>2026-04-08T15:33:32.82Z</time></trkpt><trkpt lat="41.8703217" lon="12.935825"><ele>994.0</ele><time>2026-04-08T15:33:33.818Z</time></trkpt><trkpt lat="41.87035" lon="12.93567"><ele>994.75</ele><time>2026-04-08T15:33:34.818Z</time></trkpt><trkpt lat="41.8703517" lon="12.9355217"><ele>995.5</ele><time>2026-04-08T15:33:35.817Z</time></trkpt><trkpt lat="41.870315" lon="12.9353867"><ele>996.25</ele><time>2026-04-08T15:33:36.818Z</time></trkpt><trkpt lat="41.8702483" lon="12.9352583"><ele>997.0</ele><time>2026-04-08T15:33:37.818Z</time></trkpt><trkpt lat="41.87017" lon="12.9351333"><ele>990.75</ele><time>2026-04-08T15:33:38.817Z</time></trkpt><trkpt lat="41.8701017" lon="12.9350033"><ele>984.5</ele><time>2026-04-08T15:33:39.819Z</time></trkpt><trkpt lat="41.87005" lon="12.934855"><ele>978.25</ele><time>2026-04-08T15:33:40.819Z</time></trkpt><trkpt lat="41.870025" lon="12.93469"><ele>972.0</ele><time>2026-04-08T15:33:41.818Z</time></trkpt><trkpt lat="41.8700217" lon="12.9345267"><ele>972.0</ele><time>2026-04-08T15:33:42.821Z</time></trkpt><trkpt lat="41.8700367" lon="12.9343817"><ele>972.0</ele><time>2026-04-08T15:33:43.818Z</time></trkpt><trkpt lat="41.87007" lon="12.9342517"><ele>972.0</ele><time>2026-04-08T15:33:44.821Z</time></trkpt><trkpt lat="41.87013" lon="12.9341383"><ele>972.0</ele><time>2026-04-08T15:33:45.82Z</time></trkpt><trkpt lat="41.8702133" lon="12.9340417"><ele>972.0</ele><time>2026-04-08T15:33:46.821Z</time></trkpt><trkpt lat="41.8702867" lon="12.9339383"><ele>980.0</ele><time>2026-04-08T15:33:47.818Z</time></trkpt><trkpt lat="41.8703417" lon="12.93382"><ele>988.0</ele><time>2026-04-08T15:33:48.819Z</time></trkpt><trkpt lat="41.8703583" lon="12.9336767"><ele>996.0</ele><time>2026-04-08T15:33:49.818Z</time></trkpt><trkpt lat="41.8703417" lon="12.9335267"><ele>1004.0</ele><time>2026-04-08T15:33:50.819Z</time></trkpt><trkpt lat="41.870315" lon="12.933385"><ele>1012.0</ele><time>2026-04-08T15:33:51.819Z</time></trkpt><trkpt lat="41.8702933" lon="12.9332483"><ele>1011.8</ele><time>2026-04-08T15:33:52.824Z</time></trkpt><trkpt lat="41.870285" lon="12.93311"><ele>1011.6</ele><time>2026-04-08T15:33:53.819Z</time></trkpt><trkpt lat="41.8703017" lon="12.932965"><ele>1011.3999999999999</ele><time>2026-04-08T15:33:54.818Z</time></trkpt><trkpt lat="41.870335" lon="12.9328167"><ele>1011.1999999999999</ele><time>2026-04-08T15:33:55.821Z</time></trkpt><trkpt lat="41.87039" lon="12.9326733"><ele>1011.0</ele><time>2026-04-08T15:33:56.823Z</time></trkpt><trkpt lat="41.8704617" lon="12.9325383"><ele>1011.0</ele><time>2026-04-08T15:33:57.817Z</time></trkpt><trkpt lat="41.870555" lon="12.9323967"><ele>1011.0</ele><time>2026-04-08T15:33:58.819Z</time></trkpt><trkpt lat="41.8706567" lon="12.9322467"><ele>1011.0</ele><time>2026-04-08T15:33:59.821Z</time></trkpt><trkpt lat="41.870755" lon="12.9320967"><ele>1011.0</ele><time>2026-04-08T15:34:00.817Z</time></trkpt><trkpt lat="41.870845" lon="12.9319567"><ele>1011.0</ele><time>2026-04-08T15:34:01.818Z</time></trkpt><trkpt lat="41.870935" lon="12.93182"><ele>1011.0</ele><time>2026-04-08T15:34:02.823Z</time></trkpt><trkpt lat="41.8710317" lon="12.931695"><ele>1011.0</ele><time>2026-04-08T15:34:03.818Z</time></trkpt><trkpt lat="41.87113" lon="12.931575"><ele>1011.0</ele><time>2026-04-08T15:34:04.818Z</time></trkpt><trkpt lat="41.871235" lon="12.931465"><ele>1014.25</ele><time>2026-04-08T15:34:05.818Z</time></trkpt><trkpt lat="41.871345" lon="12.9313667"><ele>1017.5</ele><time>2026-04-08T15:34:06.817Z</time></trkpt><trkpt lat="41.8714617" lon="12.9312733"><ele>1020.75</ele><time>2026-04-08T15:34:07.818Z</time></trkpt><trkpt lat="41.8715817" lon="12.93119"><ele>1024.0</ele><time>2026-04-08T15:34:08.82Z</time></trkpt><trkpt lat="41.8717133" lon="12.9311217"><ele>1026.0</ele><time>2026-04-08T15:34:09.818Z</time></trkpt><trkpt lat="41.871845" lon="12.9310667"><ele>1028.0</ele><time>2026-04-08T15:34:10.819Z</time></trkpt><trkpt lat="41.8719833" lon="12.93103"><ele>1030.0</ele><time>2026-04-08T15:34:11.821Z</time></trkpt><trkpt lat="41.8721233" lon="12.931"><ele>1032.0</ele><time>2026-04-08T15:34:12.822Z</time></trkpt><trkpt lat="41.8722683" lon="12.930975"><ele>1032.0</ele><time>2026-04-08T15:34:13.82Z</time></trkpt><trkpt lat="41.8724183" lon="12.9309533"><ele>1032.0</ele><time>2026-04-08T15:34:14.822Z</time></trkpt><trkpt lat="41.8725617" lon="12.930925"><ele>1032.0</ele><time>2026-04-08T15:34:15.818Z</time></trkpt><trkpt lat="41.8727083" lon="12.9309033"><ele>1032.0</ele><time>2026-04-08T15:34:16.821Z</time></trkpt><trkpt lat="41.8728517" lon="12.93087"><ele>1029.5</ele><time>2026-04-08T15:34:17.817Z</time></trkpt><trkpt lat="41.872995" lon="12.9308367"><ele>1027.0</ele><time>2026-04-08T15:34:18.818Z</time></trkpt><trkpt lat="41.8731383" lon="12.9308067"><ele>1024.5</ele><time>2026-04-08T15:34:19.817Z</time></trkpt><trkpt lat="41.8732833" lon="12.9307783"><ele>1022.0</ele><time>2026-04-08T15:34:20.819Z</time></trkpt><trkpt lat="41.87343" lon="12.9307517"><ele>1023.0</ele><time>2026-04-08T15:34:21.817Z</time></trkpt><trkpt lat="41.87358" lon="12.930725"><ele>1024.0</ele><time>2026-04-08T15:34:22.818Z</time></trkpt><trkpt lat="41.8737317" lon="12.9307033"><ele>1025.0</ele><time>2026-04-08T15:34:23.819Z</time></trkpt><trkpt lat="41.8738867" lon="12.9306817"><ele>1025.0</ele><time>2026-04-08T15:34:24.822Z</time></trkpt><trkpt lat="41.8740367" lon="12.9306567"><ele>1025.0</ele><time>2026-04-08T15:34:25.821Z</time></trkpt><trkpt lat="41.8741817" lon="12.9306317"><ele>1025.0</ele><time>2026-04-08T15:34:26.821Z</time></trkpt><trkpt lat="41.8743217" lon="12.9306067"><ele>1025.0</ele><time>2026-04-08T15:34:27.821Z</time></trkpt><trkpt lat="41.8744633" lon="12.930585"><ele>1026.0</ele><time>2026-04-08T15:34:28.817Z</time></trkpt><trkpt lat="41.8746067" lon="12.9305583"><ele>1027.0</ele><time>2026-04-08T15:34:29.819Z</time></trkpt><trkpt lat="41.8747533" lon="12.9305317"><ele>1028.0</ele><time>2026-04-08T15:34:30.82Z</time></trkpt><trkpt lat="41.8749017" lon="12.9304983"><ele>1029.0</ele><time>2026-04-08T15:34:31.818Z</time></trkpt><trkpt lat="41.8750517" lon="12.930465"><ele>1029.0</ele><time>2026-04-08T15:34:32.819Z</time></trkpt><trkpt lat="41.8751983" lon="12.9304367"><ele>1029.0</ele><time>2026-04-08T15:34:33.819Z</time></trkpt><trkpt lat="41.87534" lon="12.93042"><ele>1029.0</ele><time>2026-04-08T15:34:34.818Z</time></trkpt><trkpt lat="41.8754783" lon="12.93042"><ele>1029.0</ele><time>2026-04-08T15:34:35.818Z</time></trkpt><trkpt lat="41.8756183" lon="12.9304467"><ele>1029.0</ele><time>2026-04-08T15:34:36.819Z</time></trkpt><trkpt lat="41.8757617" lon="12.9304917"><ele>1029.0</ele><time>2026-04-08T15:34:37.818Z</time></trkpt><trkpt lat="41.8759083" lon="12.93055"><ele>1029.0</ele><time>2026-04-08T15:34:38.819Z</time></trkpt><trkpt lat="41.87606" lon="12.9306083"><ele>1026.0</ele><time>2026-04-08T15:34:39.819Z</time></trkpt><trkpt lat="41.8762067" lon="12.9306617"><ele>1023.0</ele><time>2026-04-08T15:34:40.818Z</time></trkpt><trkpt lat="41.8763583" lon="12.9307033"><ele>1020.0</ele><time>2026-04-08T15:34:41.822Z</time></trkpt><trkpt lat="41.8765183" lon="12.93073"><ele>1020.0</ele><time>2026-04-08T15:34:42.821Z</time></trkpt><trkpt lat="41.87669" lon="12.93074"><ele>1020.0</ele><time>2026-04-08T15:34:43.82Z</time></trkpt><trkpt lat="41.8768767" lon="12.9307317"><ele>1020.0</ele><time>2026-04-08T15:34:44.822Z</time></trkpt><trkpt lat="41.8770683" lon="12.9307167"><ele>1019.0</ele><time>2026-04-08T15:34:45.821Z</time></trkpt><trkpt lat="41.8772483" lon="12.930695"><ele>1018.0</ele><time>2026-04-08T15:34:46.82Z</time></trkpt><trkpt lat="41.8774117" lon="12.9306717"><ele>1017.0</ele><time>2026-04-08T15:34:47.819Z</time></trkpt><trkpt lat="41.8775517" lon="12.9306433"><ele>1016.25</ele><time>2026-04-08T15:34:48.818Z</time></trkpt><trkpt lat="41.87768" lon="12.9305933"><ele>1015.5</ele><time>2026-04-08T15:34:49.817Z</time></trkpt><trkpt lat="41.8777967" lon="12.9305117"><ele>1014.75</ele><time>2026-04-08T15:34:50.821Z</time></trkpt><trkpt lat="41.8779" lon="12.9303967"><ele>1014.0</ele><time>2026-04-08T15:34:51.818Z</time></trkpt><trkpt lat="41.878" lon="12.9302433"><ele>1014.0</ele><time>2026-04-08T15:34:52.817Z</time></trkpt><trkpt lat="41.878105" lon="12.930065"><ele>1014.0</ele><time>2026-04-08T15:34:53.819Z</time></trkpt><trkpt lat="41.8782133" lon="12.9298917"><ele>1014.0</ele><time>2026-04-08T15:34:54.82Z</time></trkpt><trkpt lat="41.8783183" lon="12.92972"><ele>1015.0</ele><time>2026-04-08T15:34:55.822Z</time></trkpt><trkpt lat="41.8784267" lon="12.9295467"><ele>1016.0</ele><time>2026-04-08T15:34:56.821Z</time></trkpt><trkpt lat="41.87854" lon="12.929375"><ele>1017.0</ele><time>2026-04-08T15:34:57.821Z</time></trkpt><trkpt lat="41.8786483" lon="12.929225"><ele>1018.5</ele><time>2026-04-08T15:34:58.819Z</time></trkpt><trkpt lat="41.8787567" lon="12.9291167"><ele>1020.0</ele><time>2026-04-08T15:34:59.819Z</time></trkpt><trkpt lat="41.8788717" lon="12.92904"><ele>1021.5</ele><time>2026-04-08T15:35:00.819Z</time></trkpt><trkpt lat="41.8790033" lon="12.928995"><ele>1023.0</ele><time>2026-04-08T15:35:01.821Z</time></trkpt><trkpt lat="41.8791483" lon="12.928975"><ele>1024.0</ele><time>2026-04-08T15:35:02.819Z</time></trkpt><trkpt lat="41.8793083" lon="12.9289633"><ele>1025.0</ele><time>2026-04-08T15:35:03.819Z</time></trkpt><trkpt lat="41.8794817" lon="12.928955"><ele>1026.0</ele><time>2026-04-08T15:35:04.819Z</time></trkpt><trkpt lat="41.8796567" lon="12.9289467"><ele>1026.0</ele><time>2026-04-08T15:35:05.819Z</time></trkpt><trkpt lat="41.8798317" lon="12.9289433"><ele>1026.0</ele><time>2026-04-08T15:35:06.82Z</time></trkpt><trkpt lat="41.88001" lon="12.9289367"><ele>1026.0</ele><time>2026-04-08T15:35:07.821Z</time></trkpt><trkpt lat="41.8801933" lon="12.92893"><ele>1029.0</ele><time>2026-04-08T15:35:08.821Z</time></trkpt><trkpt lat="41.8803817" lon="12.9289217"><ele>1032.0</ele><time>2026-04-08T15:35:09.822Z</time></trkpt><trkpt lat="41.880565" lon="12.9289167"><ele>1035.0</ele><time>2026-04-08T15:35:10.821Z</time></trkpt><trkpt lat="41.88074" lon="12.9289117"><ele>1035.0</ele><time>2026-04-08T15:35:11.822Z</time></trkpt><trkpt lat="41.8809017" lon="12.928905"><ele>1035.0</ele><time>2026-04-08T15:35:12.821Z</time></trkpt><trkpt lat="41.8810517" lon="12.9288983"><ele>1035.0</ele><time>2026-04-08T15:35:13.822Z</time></trkpt><trkpt lat="41.881195" lon="12.9288933"><ele>1034.5</ele><time>2026-04-08T15:35:14.822Z</time></trkpt><trkpt lat="41.881335" lon="12.92889"><ele>1034.0</ele><time>2026-04-08T15:35:15.822Z</time></trkpt><trkpt lat="41.881475" lon="12.9288867"><ele>1033.5</ele><time>2026-04-08T15:35:16.822Z</time></trkpt><trkpt lat="41.881615" lon="12.9288883"><ele>1033.0</ele><time>2026-04-08T15:35:17.819Z</time></trkpt><trkpt lat="41.88175" lon="12.92888"><ele>1035.25</ele><time>2026-04-08T15:35:18.82Z</time></trkpt><trkpt lat="41.8818783" lon="12.92887"><ele>1037.5</ele><time>2026-04-08T15:35:19.82Z</time></trkpt><trkpt lat="41.8819967" lon="12.9288483"><ele>1039.75</ele><time>2026-04-08T15:35:20.822Z</time></trkpt><trkpt lat="41.8821033" lon="12.928805"><ele>1042.0</ele><time>2026-04-08T15:35:21.821Z</time></trkpt><trkpt lat="41.882195" lon="12.9287333"><ele>1042.0</ele><time>2026-04-08T15:35:22.819Z</time></trkpt><trkpt lat="41.882265" lon="12.9286367"><ele>1042.0</ele><time>2026-04-08T15:35:23.821Z</time></trkpt><trkpt lat="41.8823183" lon="12.9285217"><ele>1042.0</ele><time>2026-04-08T15:35:24.822Z</time></trkpt><trkpt lat="41.8823483" lon="12.9284033"><ele>1042.0</ele><time>2026-04-08T15:35:25.822Z</time></trkpt><trkpt lat="41.8823617" lon="12.9282883"><ele>1042.0</ele><time>2026-04-08T15:35:26.822Z</time></trkpt><trkpt lat="41.8823683" lon="12.9281783"><ele>1041.0</ele><time>2026-04-08T15:35:27.822Z</time></trkpt><trkpt lat="41.8823767" lon="12.9280717"><ele>1040.0</ele><time>2026-04-08T15:35:28.819Z</time></trkpt><trkpt lat="41.8823933" lon="12.9279667"><ele>1039.0</ele><time>2026-04-08T15:35:29.819Z</time></trkpt><trkpt lat="41.8824217" lon="12.9278633"><ele>1038.0</ele><time>2026-04-08T15:35:30.819Z</time></trkpt><trkpt lat="41.882465" lon="12.9277717"><ele>1037.0</ele><time>2026-04-08T15:35:31.819Z</time></trkpt><trkpt lat="41.8825233" lon="12.9276967"><ele>1036.0</ele><time>2026-04-08T15:35:32.82Z</time></trkpt><trkpt lat="41.8825917" lon="12.9276367"><ele>1040.2</ele><time>2026-04-08T15:35:33.819Z</time></trkpt><trkpt lat="41.8826683" lon="12.9275917"><ele>1044.3999999999999</ele><time>2026-04-08T15:35:34.819Z</time></trkpt><trkpt lat="41.8827517" lon="12.9275717"><ele>1048.6</ele><time>2026-04-08T15:35:35.819Z</time></trkpt><trkpt lat="41.882845" lon="12.9275717"><ele>1052.8</ele><time>2026-04-08T15:35:36.819Z</time></trkpt><trkpt lat="41.8829517" lon="12.9275867"><ele>1057.0</ele><time>2026-04-08T15:35:37.818Z</time></trkpt><trkpt lat="41.883075" lon="12.927615"><ele>1057.0</ele><time>2026-04-08T15:35:38.821Z</time></trkpt><trkpt lat="41.8832017" lon="12.927655"><ele>1057.0</ele><time>2026-04-08T15:35:39.822Z</time></trkpt><trkpt lat="41.8833283" lon="12.9277"><ele>1057.0</ele><time>2026-04-08T15:35:40.822Z</time></trkpt><trkpt lat="41.8834617" lon="12.927745"><ele>1057.0</ele><time>2026-04-08T15:35:41.822Z</time></trkpt><trkpt lat="41.8836033" lon="12.9277883"><ele>1057.3333333333333</ele><time>2026-04-08T15:35:42.822Z</time></trkpt><trkpt lat="41.8837583" lon="12.92783"><ele>1057.6666666666667</ele><time>2026-04-08T15:35:43.822Z</time></trkpt><trkpt lat="41.883925" lon="12.9278717"><ele>1058.0</ele><time>2026-04-08T15:35:44.821Z</time></trkpt><trkpt lat="41.8840917" lon="12.92792"><ele>1058.0</ele><time>2026-04-08T15:35:45.821Z</time></trkpt><trkpt lat="41.884245" lon="12.9279583"><ele>1058.0</ele><time>2026-04-08T15:35:46.822Z</time></trkpt><trkpt lat="41.88439" lon="12.9279883"><ele>1058.0</ele><time>2026-04-08T15:35:47.822Z</time></trkpt><trkpt lat="41.8845283" lon="12.9279917"><ele>1058.0</ele><time>2026-04-08T15:35:48.821Z</time></trkpt><trkpt lat="41.8846667" lon="12.927955"><ele>1059.5</ele><time>2026-04-08T15:35:49.822Z</time></trkpt><trkpt lat="41.8848017" lon="12.927865"><ele>1061.0</ele><time>2026-04-08T15:35:50.822Z</time></trkpt><trkpt lat="41.8849267" lon="12.9277583"><ele>1062.5</ele><time>2026-04-08T15:35:51.822Z</time></trkpt><trkpt lat="41.88505" lon="12.92767"><ele>1064.0</ele><time>2026-04-08T15:35:52.822Z</time></trkpt><trkpt lat="41.8851733" lon="12.9276183"><ele>1065.0</ele><time>2026-04-08T15:35:53.822Z</time></trkpt><trkpt lat="41.8853033" lon="12.9276067"><ele>1066.0</ele><time>2026-04-08T15:35:54.822Z</time></trkpt><trkpt lat="41.885445" lon="12.92762"><ele>1067.0</ele><time>2026-04-08T15:35:55.821Z</time></trkpt><trkpt lat="41.8855983" lon="12.9276383"><ele>1068.0</ele><time>2026-04-08T15:35:56.822Z</time></trkpt><trkpt lat="41.8857633" lon="12.927635"><ele>1064.6666666666667</ele><time>2026-04-08T15:35:57.822Z</time></trkpt><trkpt lat="41.8859317" lon="12.9276183"><ele>1061.3333333333335</ele><time>2026-04-08T15:35:58.822Z</time></trkpt><trkpt lat="41.8860917" lon="12.9276017"><ele>1058.0</ele><time>2026-04-08T15:35:59.822Z</time></trkpt><trkpt lat="41.886245" lon="12.927605"><ele>1058.0</ele><time>2026-04-08T15:36:00.822Z</time></trkpt><trkpt lat="41.8864" lon="12.9276333"><ele>1058.0</ele><time>2026-04-08T15:36:01.821Z</time></trkpt><trkpt lat="41.8865633" lon="12.927675"><ele>1058.0</ele><time>2026-04-08T15:36:02.822Z</time></trkpt><trkpt lat="41.8867317" lon="12.927725"><ele>1053.6666666666667</ele><time>2026-04-08T15:36:03.822Z</time></trkpt><trkpt lat="41.8869017" lon="12.927775"><ele>1049.3333333333333</ele><time>2026-04-08T15:36:04.819Z</time></trkpt><trkpt lat="41.8870667" lon="12.9278317"><ele>1045.0</ele><time>2026-04-08T15:36:05.821Z</time></trkpt><trkpt lat="41.8872167" lon="12.9278967"><ele>1045.0</ele><time>2026-04-08T15:36:06.822Z</time></trkpt><trkpt lat="41.88736" lon="12.9279883"><ele>1045.0</ele><time>2026-04-08T15:36:07.821Z</time></trkpt><trkpt lat="41.8875083" lon="12.9280983"><ele>1045.0</ele><time>2026-04-08T15:36:08.822Z</time></trkpt><trkpt lat="41.88766" lon="12.928215"><ele>1047.3333333333333</ele><time>2026-04-08T15:36:09.822Z</time></trkpt><trkpt lat="41.88782" lon="12.928335"><ele>1049.6666666666667</ele><time>2026-04-08T15:36:10.821Z</time></trkpt><trkpt lat="41.8879817" lon="12.9284567"><ele>1052.0</ele><time>2026-04-08T15:36:11.821Z</time></trkpt><trkpt lat="41.8881467" lon="12.9285833"><ele>1052.0</ele><time>2026-04-08T15:36:12.822Z</time></trkpt><trkpt lat="41.8883067" lon="12.928705"><ele>1052.0</ele><time>2026-04-08T15:36:13.822Z</time></trkpt><trkpt lat="41.88846" lon="12.92882"><ele>1052.0</ele><time>2026-04-08T15:36:14.821Z</time></trkpt><trkpt lat="41.8886067" lon="12.928925"><ele>1055.3333333333335</ele><time>2026-04-08T15:36:15.822Z</time></trkpt><trkpt lat="41.8887417" lon="12.929025"><ele>1058.6666666666667</ele><time>2026-04-08T15:36:16.821Z</time></trkpt><trkpt lat="41.8888683" lon="12.9291333"><ele>1062.0</ele><time>2026-04-08T15:36:17.822Z</time></trkpt><trkpt lat="41.88899" lon="12.9292633"><ele>1062.0</ele><time>2026-04-08T15:36:18.822Z</time></trkpt><trkpt lat="41.8891067" lon="12.9294083"><ele>1062.0</ele><time>2026-04-08T15:36:19.823Z</time></trkpt><trkpt lat="41.8892183" lon="12.9295383"><ele>1062.0</ele><time>2026-04-08T15:36:20.822Z</time></trkpt><trkpt lat="41.8893317" lon="12.92963"><ele>1062.0</ele><time>2026-04-08T15:36:21.821Z</time></trkpt><trkpt lat="41.889455" lon="12.929675"><ele>1060.0</ele><time>2026-04-08T15:36:22.822Z</time></trkpt><trkpt lat="41.8895917" lon="12.9296983"><ele>1058.0</ele><time>2026-04-08T15:36:23.821Z</time></trkpt><trkpt lat="41.889735" lon="12.92972"><ele>1056.0</ele><time>2026-04-08T15:36:24.822Z</time></trkpt><trkpt lat="41.889885" lon="12.92974"><ele>1054.0</ele><time>2026-04-08T15:36:25.821Z</time></trkpt><trkpt lat="41.8900333" lon="12.9297467"><ele>1058.3333333333333</ele><time>2026-04-08T15:36:26.822Z</time></trkpt><trkpt lat="41.8901833" lon="12.9297217"><ele>1062.6666666666667</ele><time>2026-04-08T15:36:27.823Z</time></trkpt><trkpt lat="41.8903367" lon="12.9296583"><ele>1067.0</ele><time>2026-04-08T15:36:28.822Z</time></trkpt><trkpt lat="41.890495" lon="12.929575"><ele>1067.0</ele><time>2026-04-08T15:36:29.821Z</time></trkpt><trkpt lat="41.8906583" lon="12.9294767"><ele>1067.0</ele><time>2026-04-08T15:36:30.823Z</time></trkpt><trkpt lat="41.890835" lon="12.9293733"><ele>1067.0</ele><time>2026-04-08T15:36:31.821Z</time></trkpt><trkpt lat="41.891015" lon="12.92927"><ele>1060.6666666666667</ele><time>2026-04-08T15:36:32.821Z</time></trkpt><trkpt lat="41.8911867" lon="12.9291683"><ele>1054.3333333333333</ele><time>2026-04-08T15:36:33.822Z</time></trkpt><trkpt lat="41.891345" lon="12.9290733"><ele>1048.0</ele><time>2026-04-08T15:36:34.821Z</time></trkpt><trkpt lat="41.8914983" lon="12.9289917"><ele>1048.0</ele><time>2026-04-08T15:36:35.822Z</time></trkpt><trkpt lat="41.891645" lon="12.9289333"><ele>1048.0</ele><time>2026-04-08T15:36:36.818Z</time></trkpt><trkpt lat="41.891795" lon="12.9289"><ele>1048.0</ele><time>2026-04-08T15:36:37.82Z</time></trkpt><trkpt lat="41.8919433" lon="12.9288883"><ele>1046.5</ele><time>2026-04-08T15:36:38.821Z</time></trkpt><trkpt lat="41.892085" lon="12.9289033"><ele>1045.0</ele><time>2026-04-08T15:36:39.823Z</time></trkpt><trkpt lat="41.8922217" lon="12.9289433"><ele>1043.5</ele><time>2026-04-08T15:36:40.822Z</time></trkpt><trkpt lat="41.89236" lon="12.92902"><ele>1042.0</ele><time>2026-04-08T15:36:41.822Z</time></trkpt><trkpt lat="41.892505" lon="12.9291117"><ele>1044.6666666666665</ele><time>2026-04-08T15:36:42.823Z</time></trkpt><trkpt lat="41.892655" lon="12.929205"><ele>1047.3333333333333</ele><time>2026-04-08T15:36:43.821Z</time></trkpt><trkpt lat="41.892805" lon="12.9293017"><ele>1050.0</ele><time>2026-04-08T15:36:44.822Z</time></trkpt><trkpt lat="41.89295" lon="12.9293967"><ele>1050.0</ele><time>2026-04-08T15:36:45.823Z</time></trkpt><trkpt lat="41.8930883" lon="12.9294867"><ele>1050.0</ele><time>2026-04-08T15:36:46.821Z</time></trkpt><trkpt lat="41.89322" lon="12.9295617"><ele>1050.0</ele><time>2026-04-08T15:36:47.819Z</time></trkpt><trkpt lat="41.89335" lon="12.9296083"><ele>1050.0</ele><time>2026-04-08T15:36:48.82Z</time></trkpt><trkpt lat="41.89348" lon="12.929625"><ele>1052.0</ele><time>2026-04-08T15:36:49.82Z</time></trkpt><trkpt lat="41.8936183" lon="12.9296017"><ele>1054.0</ele><time>2026-04-08T15:36:50.82Z</time></trkpt><trkpt lat="41.8937633" lon="12.9295533"><ele>1056.0</ele><time>2026-04-08T15:36:51.818Z</time></trkpt><trkpt lat="41.893915" lon="12.9295083"><ele>1058.0</ele><time>2026-04-08T15:36:52.819Z</time></trkpt><trkpt lat="41.89407" lon="12.9294717"><ele>1058.0</ele><time>2026-04-08T15:36:53.821Z</time></trkpt><trkpt lat="41.8942283" lon="12.9294633"><ele>1058.0</ele><time>2026-04-08T15:36:54.822Z</time></trkpt><trkpt lat="41.8943817" lon="12.929455"><ele>1058.0</ele><time>2026-04-08T15:36:55.82Z</time></trkpt><trkpt lat="41.8945467" lon="12.9294717"><ele>1055.6666666666667</ele><time>2026-04-08T15:36:56.822Z</time></trkpt><trkpt lat="41.8947217" lon="12.9295133"><ele>1053.3333333333333</ele><time>2026-04-08T15:36:57.821Z</time></trkpt><trkpt lat="41.8949033" lon="12.9295717"><ele>1051.0</ele><time>2026-04-08T15:36:58.822Z</time></trkpt><trkpt lat="41.895095" lon="12.9296333"><ele>1050.3333333333333</ele><time>2026-04-08T15:36:59.819Z</time></trkpt><trkpt lat="41.8952883" lon="12.92968"><ele>1049.6666666666667</ele><time>2026-04-08T15:37:00.821Z</time></trkpt><trkpt lat="41.8954917" lon="12.929715"><ele>1049.0</ele><time>2026-04-08T15:37:01.821Z</time></trkpt><trkpt lat="41.8956983" lon="12.929725"><ele>1049.0</ele><time>2026-04-08T15:37:02.823Z</time></trkpt><trkpt lat="41.8959033" lon="12.9297283"><ele>1049.0</ele><time>2026-04-08T15:37:03.822Z</time></trkpt><trkpt lat="41.896095" lon="12.9297333"><ele>1049.0</ele><time>2026-04-08T15:37:04.822Z</time></trkpt><trkpt lat="41.8962633" lon="12.92974"><ele>1050.25</ele><time>2026-04-08T15:37:05.822Z</time></trkpt><trkpt lat="41.8964133" lon="12.9297583"><ele>1051.5</ele><time>2026-04-08T15:37:06.822Z</time></trkpt><trkpt lat="41.89654" lon="12.9298083"><ele>1052.75</ele><time>2026-04-08T15:37:07.818Z</time></trkpt><trkpt lat="41.8966517" lon="12.929905"><ele>1054.0</ele><time>2026-04-08T15:37:08.819Z</time></trkpt><trkpt lat="41.89675" lon="12.9300433"><ele>1054.3333333333333</ele><time>2026-04-08T15:37:09.818Z</time></trkpt><trkpt lat="41.8968483" lon="12.9301983"><ele>1054.6666666666667</ele><time>2026-04-08T15:37:10.819Z</time></trkpt><trkpt lat="41.89696" lon="12.930345"><ele>1055.0</ele><time>2026-04-08T15:37:11.822Z</time></trkpt><trkpt lat="41.89708" lon="12.93049"><ele>1055.0</ele><time>2026-04-08T15:37:12.822Z</time></trkpt><trkpt lat="41.89721" lon="12.9306383"><ele>1055.0</ele><time>2026-04-08T15:37:13.822Z</time></trkpt><trkpt lat="41.897345" lon="12.9307783"><ele>1055.0</ele><time>2026-04-08T15:37:14.823Z</time></trkpt><trkpt lat="41.8974817" lon="12.9309117"><ele>1056.6666666666667</ele><time>2026-04-08T15:37:15.823Z</time></trkpt><trkpt lat="41.8976233" lon="12.93103"><ele>1058.3333333333333</ele><time>2026-04-08T15:37:16.822Z</time></trkpt><trkpt lat="41.8977717" lon="12.9311317"><ele>1060.0</ele><time>2026-04-08T15:37:17.82Z</time></trkpt><trkpt lat="41.89793" lon="12.9312183"><ele>1060.0</ele><time>2026-04-08T15:37:18.818Z</time></trkpt><trkpt lat="41.89809" lon="12.931295"><ele>1060.0</ele><time>2026-04-08T15:37:19.819Z</time></trkpt><trkpt lat="41.8982433" lon="12.9313583"><ele>1060.0</ele><time>2026-04-08T15:37:20.818Z</time></trkpt><trkpt lat="41.89838" lon="12.9314133"><ele>1063.8</ele><time>2026-04-08T15:37:21.819Z</time></trkpt><trkpt lat="41.8984967" lon="12.93147"><ele>1067.6</ele><time>2026-04-08T15:37:22.819Z</time></trkpt><trkpt lat="41.8985883" lon="12.9315417"><ele>1071.4</ele><time>2026-04-08T15:37:23.82Z</time></trkpt><trkpt lat="41.8986517" lon="12.931635"><ele>1075.2</ele><time>2026-04-08T15:37:24.819Z</time></trkpt><trkpt lat="41.8986867" lon="12.9317533"><ele>1079.0</ele><time>2026-04-08T15:37:25.82Z</time></trkpt><trkpt lat="41.8986867" lon="12.9318917"><ele>1081.75</ele><time>2026-04-08T15:37:26.822Z</time></trkpt><trkpt lat="41.8986583" lon="12.9320333"><ele>1084.5</ele><time>2026-04-08T15:37:27.822Z</time></trkpt><trkpt lat="41.8986183" lon="12.9321817"><ele>1087.25</ele><time>2026-04-08T15:37:28.818Z</time></trkpt><trkpt lat="41.8985717" lon="12.93234"><ele>1090.0</ele><time>2026-04-08T15:37:29.821Z</time></trkpt><trkpt lat="41.8985267" lon="12.932505"><ele>1088.75</ele><time>2026-04-08T15:37:30.818Z</time></trkpt><trkpt lat="41.8985017" lon="12.9326733"><ele>1087.5</ele><time>2026-04-08T15:37:31.82Z</time></trkpt><trkpt lat="41.8985" lon="12.9328367"><ele>1086.25</ele><time>2026-04-08T15:37:32.818Z</time></trkpt><trkpt lat="41.8985283" lon="12.9329967"><ele>1085.0</ele><time>2026-04-08T15:37:33.819Z</time></trkpt><trkpt lat="41.898585" lon="12.9331517"><ele>1085.0</ele><time>2026-04-08T15:37:34.818Z</time></trkpt><trkpt lat="41.8986567" lon="12.9333117"><ele>1085.0</ele><time>2026-04-08T15:37:35.82Z</time></trkpt><trkpt lat="41.898735" lon="12.9334833"><ele>1085.0</ele><time>2026-04-08T15:37:36.819Z</time></trkpt><trkpt lat="41.8988133" lon="12.9336483"><ele>1085.0</ele><time>2026-04-08T15:37:37.818Z</time></trkpt><trkpt lat="41.8988983" lon="12.9337933"><ele>1082.25</ele><time>2026-04-08T15:37:38.82Z</time></trkpt><trkpt lat="41.898995" lon="12.9339167"><ele>1079.5</ele><time>2026-04-08T15:37:39.819Z</time></trkpt><trkpt lat="41.8991033" lon="12.9340117"><ele>1076.75</ele><time>2026-04-08T15:37:40.819Z</time></trkpt><trkpt lat="41.8992183" lon="12.9340783"><ele>1074.0</ele><time>2026-04-08T15:37:41.822Z</time></trkpt><trkpt lat="41.8993467" lon="12.934115"><ele>1073.5</ele><time>2026-04-08T15:37:42.822Z</time></trkpt><trkpt lat="41.8994883" lon="12.9341183"><ele>1073.0</ele><time>2026-04-08T15:37:43.822Z</time></trkpt><trkpt lat="41.899635" lon="12.93409"><ele>1072.5</ele><time>2026-04-08T15:37:44.822Z</time></trkpt><trkpt lat="41.8997817" lon="12.9340483"><ele>1072.0</ele><time>2026-04-08T15:37:45.821Z</time></trkpt><trkpt lat="41.899925" lon="12.933995"><ele>1072.0</ele><time>2026-04-08T15:37:46.819Z</time></trkpt><trkpt lat="41.9000583" lon="12.9339433"><ele>1072.0</ele><time>2026-04-08T15:37:47.822Z</time></trkpt><trkpt lat="41.90018" lon="12.93388"><ele>1072.0</ele><time>2026-04-08T15:37:48.821Z</time></trkpt><trkpt lat="41.90029" lon="12.93379"><ele>1072.0</ele><time>2026-04-08T15:37:49.822Z</time></trkpt><trkpt lat="41.9003983" lon="12.9336733"><ele>1072.0</ele><time>2026-04-08T15:37:50.821Z</time></trkpt><trkpt lat="41.900505" lon="12.9335317"><ele>1072.0</ele><time>2026-04-08T15:37:51.821Z</time></trkpt><trkpt lat="41.900625" lon="12.9333817"><ele>1072.0</ele><time>2026-04-08T15:37:52.821Z</time></trkpt><trkpt lat="41.9007467" lon="12.933245"><ele>1070.6666666666665</ele><time>2026-04-08T15:37:53.822Z</time></trkpt><trkpt lat="41.9008717" lon="12.93313"><ele>1069.3333333333333</ele><time>2026-04-08T15:37:54.822Z</time></trkpt><trkpt lat="41.9010067" lon="12.9330367"><ele>1068.0</ele><time>2026-04-08T15:37:55.822Z</time></trkpt><trkpt lat="41.901155" lon="12.932965"><ele>1068.0</ele><time>2026-04-08T15:37:56.826Z</time></trkpt><trkpt lat="41.90131" lon="12.9329183"><ele>1068.0</ele><time>2026-04-08T15:37:57.822Z</time></trkpt><trkpt lat="41.9014617" lon="12.932885"><ele>1068.0</ele><time>2026-04-08T15:37:58.818Z</time></trkpt><trkpt lat="41.9016067" lon="12.9328633"><ele>1068.0</ele><time>2026-04-08T15:37:59.819Z</time></trkpt><trkpt lat="41.9017483" lon="12.932865"><ele>1068.0</ele><time>2026-04-08T15:38:00.818Z</time></trkpt><trkpt lat="41.9018767" lon="12.9329"><ele>1068.0</ele><time>2026-04-08T15:38:01.819Z</time></trkpt><trkpt lat="41.9019967" lon="12.9329633"><ele>1068.0</ele><time>2026-04-08T15:38:02.824Z</time></trkpt><trkpt lat="41.9021017" lon="12.9330517"><ele>1065.75</ele><time>2026-04-08T15:38:03.82Z</time></trkpt><trkpt lat="41.9022" lon="12.9331483"><ele>1063.5</ele><time>2026-04-08T15:38:04.82Z</time></trkpt><trkpt lat="41.902305" lon="12.933235"><ele>1061.25</ele><time>2026-04-08T15:38:05.821Z</time></trkpt><trkpt lat="41.9024267" lon="12.9333067"><ele>1059.0</ele><time>2026-04-08T15:38:06.82Z</time></trkpt><trkpt lat="41.902565" lon="12.9333717"><ele>1055.25</ele><time>2026-04-08T15:38:07.823Z</time></trkpt><trkpt lat="41.9027117" lon="12.9334367"><ele>1051.5</ele><time>2026-04-08T15:38:08.825Z</time></trkpt><trkpt lat="41.902855" lon="12.9334983"><ele>1047.75</ele><time>2026-04-08T15:38:09.822Z</time></trkpt><trkpt lat="41.9029867" lon="12.93356"><ele>1044.0</ele><time>2026-04-08T15:38:10.822Z</time></trkpt><trkpt lat="41.9031067" lon="12.93361"><ele>1044.0</ele><time>2026-04-08T15:38:11.821Z</time></trkpt><trkpt lat="41.9032133" lon="12.9336433"><ele>1044.0</ele><time>2026-04-08T15:38:12.822Z</time></trkpt><trkpt lat="41.90331" lon="12.933645"><ele>1044.0</ele><time>2026-04-08T15:38:13.818Z</time></trkpt><trkpt lat="41.9033933" lon="12.9336167"><ele>1044.0</ele><time>2026-04-08T15:38:14.821Z</time></trkpt><trkpt lat="41.90347" lon="12.9335517"><ele>1044.0</ele><time>2026-04-08T15:38:15.822Z</time></trkpt><trkpt lat="41.903525" lon="12.9334517"><ele>1039.0</ele><time>2026-04-08T15:38:16.821Z</time></trkpt><trkpt lat="41.903555" lon="12.9332983"><ele>1034.0</ele><time>2026-04-08T15:38:17.822Z</time></trkpt><trkpt lat="41.9035583" lon="12.9331133"><ele>1029.0</ele><time>2026-04-08T15:38:18.821Z</time></trkpt><trkpt lat="41.903555" lon="12.9329417"><ele>1024.0</ele><time>2026-04-08T15:38:19.821Z</time></trkpt><trkpt lat="41.9035317" lon="12.9327833"><ele>1024.0</ele><time>2026-04-08T15:38:20.823Z</time></trkpt><trkpt lat="41.9034767" lon="12.93265"><ele>1024.0</ele><time>2026-04-08T15:38:21.822Z</time></trkpt><trkpt lat="41.9033883" lon="12.9325467"><ele>1024.0</ele><time>2026-04-08T15:38:22.823Z</time></trkpt><trkpt lat="41.90328" lon="12.93248"><ele>1024.0</ele><time>2026-04-08T15:38:23.822Z</time></trkpt><trkpt lat="41.9031617" lon="12.9324317"><ele>1029.5</ele><time>2026-04-08T15:38:24.822Z</time></trkpt><trkpt lat="41.9030567" lon="12.9323567"><ele>1035.0</ele><time>2026-04-08T15:38:25.822Z</time></trkpt><trkpt lat="41.9029783" lon="12.9322517"><ele>1040.5</ele><time>2026-04-08T15:38:26.822Z</time></trkpt><trkpt lat="41.9029317" lon="12.93212"><ele>1046.0</ele><time>2026-04-08T15:38:27.821Z</time></trkpt><trkpt lat="41.9029317" lon="12.931955"><ele>1046.0</ele><time>2026-04-08T15:38:28.819Z</time></trkpt><trkpt lat="41.902955" lon="12.9317683"><ele>1046.0</ele><time>2026-04-08T15:38:29.824Z</time></trkpt><trkpt lat="41.9029767" lon="12.9315667"><ele>1046.0</ele><time>2026-04-08T15:38:30.821Z</time></trkpt><trkpt lat="41.90299" lon="12.931365"><ele>1046.0</ele><time>2026-04-08T15:38:31.821Z</time></trkpt><trkpt lat="41.9030033" lon="12.9311817"><ele>1044.0</ele><time>2026-04-08T15:38:32.822Z</time></trkpt><trkpt lat="41.903025" lon="12.9310117"><ele>1042.0</ele><time>2026-04-08T15:38:33.822Z</time></trkpt><trkpt lat="41.9030733" lon="12.9308633"><ele>1040.0</ele><time>2026-04-08T15:38:34.818Z</time></trkpt><trkpt lat="41.9031567" lon="12.9307383"><ele>1038.0</ele><time>2026-04-08T15:38:35.82Z</time></trkpt><trkpt lat="41.9032633" lon="12.9306467"><ele>1037.0</ele><time>2026-04-08T15:38:36.821Z</time></trkpt><trkpt lat="41.9033917" lon="12.930605"><ele>1036.0</ele><time>2026-04-08T15:38:37.822Z</time></trkpt><trkpt lat="41.90353" lon="12.9306083"><ele>1035.0</ele><time>2026-04-08T15:38:38.818Z</time></trkpt><trkpt lat="41.9036733" lon="12.9306383"><ele>1034.0</ele><time>2026-04-08T15:38:39.817Z</time></trkpt><trkpt lat="41.9038217" lon="12.9306733"><ele>1033.25</ele><time>2026-04-08T15:38:40.822Z</time></trkpt><trkpt lat="41.9039717" lon="12.9307"><ele>1032.5</ele><time>2026-04-08T15:38:41.819Z</time></trkpt><trkpt lat="41.90412" lon="12.930725"><ele>1031.75</ele><time>2026-04-08T15:38:42.822Z</time></trkpt><trkpt lat="41.9042667" lon="12.93074"><ele>1031.0</ele><time>2026-04-08T15:38:43.822Z</time></trkpt><trkpt lat="41.9044117" lon="12.930735"><ele>1029.0</ele><time>2026-04-08T15:38:44.821Z</time></trkpt><trkpt lat="41.90456" lon="12.9307067"><ele>1027.0</ele><time>2026-04-08T15:38:45.821Z</time></trkpt><trkpt lat="41.9047133" lon="12.9306567"><ele>1025.0</ele><time>2026-04-08T15:38:46.821Z</time></trkpt><trkpt lat="41.9048667" lon="12.9305967"><ele>1025.0</ele><time>2026-04-08T15:38:47.822Z</time></trkpt><trkpt lat="41.9050267" lon="12.9305467"><ele>1025.0</ele><time>2026-04-08T15:38:48.822Z</time></trkpt><trkpt lat="41.90518" lon="12.9304917"><ele>1025.0</ele><time>2026-04-08T15:38:49.822Z</time></trkpt><trkpt lat="41.9053283" lon="12.930435"><ele>1025.5</ele><time>2026-04-08T15:38:50.823Z</time></trkpt><trkpt lat="41.9054667" lon="12.93038"><ele>1026.0</ele><time>2026-04-08T15:38:51.822Z</time></trkpt><trkpt lat="41.9056" lon="12.93032"><ele>1026.5</ele><time>2026-04-08T15:38:52.822Z</time></trkpt><trkpt lat="41.905735" lon="12.9302633"><ele>1027.0</ele><time>2026-04-08T15:38:53.821Z</time></trkpt><trkpt lat="41.905875" lon="12.9302083"><ele>1027.0</ele><time>2026-04-08T15:38:54.82Z</time></trkpt><trkpt lat="41.9060183" lon="12.9301533"><ele>1027.0</ele><time>2026-04-08T15:38:55.822Z</time></trkpt><trkpt lat="41.90616" lon="12.9300967"><ele>1027.0</ele><time>2026-04-08T15:38:56.822Z</time></trkpt><trkpt lat="41.9063033" lon="12.9300417"><ele>1027.0</ele><time>2026-04-08T15:38:57.821Z</time></trkpt><trkpt lat="41.9064417" lon="12.9299933"><ele>1027.25</ele><time>2026-04-08T15:38:58.821Z</time></trkpt><trkpt lat="41.9065767" lon="12.9299483"><ele>1027.5</ele><time>2026-04-08T15:38:59.821Z</time></trkpt><trkpt lat="41.906715" lon="12.9298917"><ele>1027.75</ele><time>2026-04-08T15:39:00.823Z</time></trkpt><trkpt lat="41.9068683" lon="12.9298317"><ele>1028.0</ele><time>2026-04-08T15:39:01.822Z</time></trkpt><trkpt lat="41.9070417" lon="12.9297767"><ele>1026.0</ele><time>2026-04-08T15:39:02.822Z</time></trkpt><trkpt lat="41.9072183" lon="12.92972"><ele>1024.0</ele><time>2026-04-08T15:39:03.822Z</time></trkpt><trkpt lat="41.9073867" lon="12.9296633"><ele>1022.0</ele><time>2026-04-08T15:39:04.821Z</time></trkpt><trkpt lat="41.9075417" lon="12.9295967"><ele>1025.0</ele><time>2026-04-08T15:39:05.821Z</time></trkpt><trkpt lat="41.9076767" lon="12.9295033"><ele>1028.0</ele><time>2026-04-08T15:39:06.822Z</time></trkpt><trkpt lat="41.9077883" lon="12.9293867"><ele>1031.0</ele><time>2026-04-08T15:39:07.822Z</time></trkpt><trkpt lat="41.90788" lon="12.9292433"><ele>1034.0</ele><time>2026-04-08T15:39:08.821Z</time></trkpt><trkpt lat="41.9079583" lon="12.9290917"><ele>1034.0</ele><time>2026-04-08T15:39:09.822Z</time></trkpt><trkpt lat="41.9080417" lon="12.928965"><ele>1034.0</ele><time>2026-04-08T15:39:10.821Z</time></trkpt><trkpt lat="41.9081517" lon="12.9288683"><ele>1034.0</ele><time>2026-04-08T15:39:11.821Z</time></trkpt><trkpt lat="41.908285" lon="12.9287967"><ele>1034.0</ele><time>2026-04-08T15:39:12.821Z</time></trkpt><trkpt lat="41.9084233" lon="12.9287267"><ele>1037.5</ele><time>2026-04-08T15:39:13.822Z</time></trkpt><trkpt lat="41.9085317" lon="12.928635"><ele>1041.0</ele><time>2026-04-08T15:39:14.822Z</time></trkpt><trkpt lat="41.908605" lon="12.9285083"><ele>1044.5</ele><time>2026-04-08T15:39:15.821Z</time></trkpt><trkpt lat="41.9086517" lon="12.9283733"><ele>1048.0</ele><time>2026-04-08T15:39:16.822Z</time></trkpt><trkpt lat="41.9086933" lon="12.9282583"><ele>1048.0</ele><time>2026-04-08T15:39:17.822Z</time></trkpt><trkpt lat="41.90875" lon="12.9281833"><ele>1048.0</ele><time>2026-04-08T15:39:18.818Z</time></trkpt><trkpt lat="41.90881" lon="12.9281333"><ele>1048.0</ele><time>2026-04-08T15:39:19.819Z</time></trkpt><trkpt lat="41.9088767" lon="12.9281267"><ele>1048.0</ele><time>2026-04-08T15:39:20.82Z</time></trkpt><trkpt lat="41.9089333" lon="12.9281817"><ele>1048.0</ele><time>2026-04-08T15:39:21.819Z</time></trkpt><trkpt lat="41.9089283" lon="12.92836"><ele>1048.0</ele><time>2026-04-08T15:39:22.82Z</time></trkpt><trkpt lat="41.9089117" lon="12.92849"><ele>1049.5</ele><time>2026-04-08T15:39:23.819Z</time></trkpt><trkpt lat="41.9088667" lon="12.92863"><ele>1051.0</ele><time>2026-04-08T15:39:24.818Z</time></trkpt><trkpt lat="41.9088033" lon="12.9287917"><ele>1052.5</ele><time>2026-04-08T15:39:25.82Z</time></trkpt><trkpt lat="41.9087467" lon="12.928965"><ele>1054.0</ele><time>2026-04-08T15:39:26.821Z</time></trkpt><trkpt lat="41.9087017" lon="12.92914"><ele>1056.0</ele><time>2026-04-08T15:39:27.82Z</time></trkpt><trkpt lat="41.90867" lon="12.9293233"><ele>1058.0</ele><time>2026-04-08T15:39:28.82Z</time></trkpt><trkpt lat="41.9086517" lon="12.92952"><ele>1060.0</ele><time>2026-04-08T15:39:29.821Z</time></trkpt><trkpt lat="41.9086467" lon="12.9297267"><ele>1062.0</ele><time>2026-04-08T15:39:30.822Z</time></trkpt><trkpt lat="41.9086567" lon="12.9299417"><ele>1064.6666666666667</ele><time>2026-04-08T15:39:31.822Z</time></trkpt><trkpt lat="41.90867" lon="12.9301583"><ele>1067.3333333333335</ele><time>2026-04-08T15:39:32.821Z</time></trkpt><trkpt lat="41.9086683" lon="12.9303667"><ele>1070.0</ele><time>2026-04-08T15:39:33.822Z</time></trkpt><trkpt lat="41.9086483" lon="12.930555"><ele>1070.0</ele><time>2026-04-08T15:39:34.821Z</time></trkpt><trkpt lat="41.908625" lon="12.9307083"><ele>1070.0</ele><time>2026-04-08T15:39:35.821Z</time></trkpt><trkpt lat="41.90862" lon="12.93083"><ele>1070.0</ele><time>2026-04-08T15:39:36.821Z</time></trkpt><trkpt lat="41.908625" lon="12.930935"><ele>1070.0</ele><time>2026-04-08T15:39:37.822Z</time></trkpt><trkpt lat="41.9086567" lon="12.93101"><ele>1070.0</ele><time>2026-04-08T15:39:38.821Z</time></trkpt><trkpt lat="41.9087233" lon="12.931045"><ele>1070.0</ele><time>2026-04-08T15:39:39.818Z</time></trkpt><trkpt lat="41.9088033" lon="12.9310417"><ele>1070.0</ele><time>2026-04-08T15:39:40.821Z</time></trkpt><trkpt lat="41.9088783" lon="12.9309717"><ele>1070.0</ele><time>2026-04-08T15:39:41.819Z</time></trkpt><trkpt lat="41.9089133" lon="12.9307983"><ele>1070.0</ele><time>2026-04-08T15:39:42.821Z</time></trkpt><trkpt lat="41.9089383" lon="12.9305967"><ele>1070.0</ele><time>2026-04-08T15:39:43.82Z</time></trkpt><trkpt lat="41.9089667" lon="12.9303917"><ele>1070.0</ele><time>2026-04-08T15:39:44.819Z</time></trkpt><trkpt lat="41.90901" lon="12.9302217"><ele>1070.0</ele><time>2026-04-08T15:39:45.822Z</time></trkpt><trkpt lat="41.9090717" lon="12.930055"><ele>1070.0</ele><time>2026-04-08T15:39:46.823Z</time></trkpt><trkpt lat="41.9091417" lon="12.92989"><ele>1070.0</ele><time>2026-04-08T15:39:47.822Z</time></trkpt><trkpt lat="41.90921" lon="12.9297167"><ele>1074.6666666666667</ele><time>2026-04-08T15:39:48.817Z</time></trkpt><trkpt lat="41.90928" lon="12.9295383"><ele>1079.3333333333333</ele><time>2026-04-08T15:39:49.818Z</time></trkpt><trkpt lat="41.909355" lon="12.92935"><ele>1084.0</ele><time>2026-04-08T15:39:50.819Z</time></trkpt><trkpt lat="41.9094367" lon="12.9291517"><ele>1084.0</ele><time>2026-04-08T15:39:51.817Z</time></trkpt><trkpt lat="41.909525" lon="12.9289367"><ele>1084.0</ele><time>2026-04-08T15:39:52.819Z</time></trkpt><trkpt lat="41.9096183" lon="12.9287067"><ele>1084.0</ele><time>2026-04-08T15:39:53.818Z</time></trkpt><trkpt lat="41.909715" lon="12.9284733"><ele>1081.3333333333333</ele><time>2026-04-08T15:39:54.818Z</time></trkpt><trkpt lat="41.9098117" lon="12.9282483"><ele>1078.6666666666667</ele><time>2026-04-08T15:39:55.819Z</time></trkpt><trkpt lat="41.9099217" lon="12.9280367"><ele>1076.0</ele><time>2026-04-08T15:39:56.819Z</time></trkpt><trkpt lat="41.9100483" lon="12.9278283"><ele>1083.6666666666667</ele><time>2026-04-08T15:39:57.818Z</time></trkpt><trkpt lat="41.9101783" lon="12.92761"><ele>1091.3333333333333</ele><time>2026-04-08T15:39:58.819Z</time></trkpt><trkpt lat="41.9103017" lon="12.9273717"><ele>1099.0</ele><time>2026-04-08T15:39:59.821Z</time></trkpt><trkpt lat="41.9104083" lon="12.92713"><ele>1099.0</ele><time>2026-04-08T15:40:00.822Z</time></trkpt><trkpt lat="41.910505" lon="12.9269133"><ele>1099.0</ele><time>2026-04-08T15:40:01.822Z</time></trkpt><trkpt lat="41.9106" lon="12.9267217"><ele>1099.0</ele><time>2026-04-08T15:40:02.821Z</time></trkpt><trkpt lat="41.9107117" lon="12.92655"><ele>1094.6666666666665</ele><time>2026-04-08T15:40:03.822Z</time></trkpt><trkpt lat="41.9108433" lon="12.926385"><ele>1090.3333333333333</ele><time>2026-04-08T15:40:04.821Z</time></trkpt><trkpt lat="41.9109783" lon="12.9262133"><ele>1086.0</ele><time>2026-04-08T15:40:05.822Z</time></trkpt><trkpt lat="41.9111067" lon="12.9260283"><ele>1091.3333333333333</ele><time>2026-04-08T15:40:06.821Z</time></trkpt><trkpt lat="41.9112267" lon="12.9258133"><ele>1096.6666666666665</ele><time>2026-04-08T15:40:07.823Z</time></trkpt><trkpt lat="41.9113533" lon="12.9255883"><ele>1102.0</ele><time>2026-04-08T15:40:08.821Z</time></trkpt><trkpt lat="41.91148" lon="12.92537"><ele>1102.0</ele><time>2026-04-08T15:40:09.822Z</time></trkpt><trkpt lat="41.9116033" lon="12.9251717"><ele>1102.0</ele><time>2026-04-08T15:40:10.821Z</time></trkpt><trkpt lat="41.9117217" lon="12.924985"><ele>1102.0</ele><time>2026-04-08T15:40:11.821Z</time></trkpt><trkpt lat="41.9118367" lon="12.9248167"><ele>1106.0</ele><time>2026-04-08T15:40:12.822Z</time></trkpt><trkpt lat="41.9119383" lon="12.92467"><ele>1110.0</ele><time>2026-04-08T15:40:13.822Z</time></trkpt><trkpt lat="41.9120217" lon="12.9245267"><ele>1114.0</ele><time>2026-04-08T15:40:14.821Z</time></trkpt><trkpt lat="41.9120767" lon="12.9243767"><ele>1118.0</ele><time>2026-04-08T15:40:15.822Z</time></trkpt><trkpt lat="41.912115" lon="12.924245"><ele>1118.0</ele><time>2026-04-08T15:40:16.822Z</time></trkpt><trkpt lat="41.9121533" lon="12.92414"><ele>1118.0</ele><time>2026-04-08T15:40:17.822Z</time></trkpt><trkpt lat="41.9122" lon="12.9240617"><ele>1118.0</ele><time>2026-04-08T15:40:18.819Z</time></trkpt><trkpt lat="41.9123033" lon="12.9239933"><ele>1118.0</ele><time>2026-04-08T15:40:20.818Z</time></trkpt><trkpt lat="41.9123117" lon="12.92414"><ele>1118.0</ele><time>2026-04-08T15:40:21.819Z</time></trkpt><trkpt lat="41.9123067" lon="12.9242533"><ele>1118.0</ele><time>2026-04-08T15:40:22.818Z</time></trkpt><trkpt lat="41.912275" lon="12.924375"><ele>1118.0</ele><time>2026-04-08T15:40:23.819Z</time></trkpt><trkpt lat="41.9122317" lon="12.924505"><ele>1118.0</ele><time>2026-04-08T15:40:24.819Z</time></trkpt><trkpt lat="41.9121617" lon="12.9246583"><ele>1118.0</ele><time>2026-04-08T15:40:25.818Z</time></trkpt><trkpt lat="41.912085" lon="12.924815"><ele>1118.0</ele><time>2026-04-08T15:40:26.819Z</time></trkpt><trkpt lat="41.9120133" lon="12.924975"><ele>1118.0</ele><time>2026-04-08T15:40:27.818Z</time></trkpt><trkpt lat="41.91195" lon="12.9251367"><ele>1118.0</ele><time>2026-04-08T15:40:28.819Z</time></trkpt><trkpt lat="41.9118917" lon="12.92531"><ele>1118.0</ele><time>2026-04-08T15:40:29.822Z</time></trkpt><trkpt lat="41.9118317" lon="12.92549"><ele>1118.0</ele><time>2026-04-08T15:40:30.824Z</time></trkpt><trkpt lat="41.91177" lon="12.9256833"><ele>1118.0</ele><time>2026-04-08T15:40:31.821Z</time></trkpt><trkpt lat="41.9117" lon="12.9258883"><ele>1118.0</ele><time>2026-04-08T15:40:32.82Z</time></trkpt><trkpt lat="41.9116283" lon="12.926105"><ele>1118.0</ele><time>2026-04-08T15:40:33.822Z</time></trkpt><trkpt lat="41.9115517" lon="12.9263367"><ele>1118.0</ele><time>2026-04-08T15:40:34.822Z</time></trkpt><trkpt lat="41.91148" lon="12.926565"><ele>1118.0</ele><time>2026-04-08T15:40:35.821Z</time></trkpt><trkpt lat="41.91141" lon="12.92677"><ele>1122.6666666666667</ele><time>2026-04-08T15:40:36.818Z</time></trkpt><trkpt lat="41.9113467" lon="12.9269617"><ele>1127.3333333333333</ele><time>2026-04-08T15:40:37.822Z</time></trkpt><trkpt lat="41.9113" lon="12.927155"><ele>1132.0</ele><time>2026-04-08T15:40:38.821Z</time></trkpt><trkpt lat="41.9112633" lon="12.927355"><ele>1137.3333333333333</ele><time>2026-04-08T15:40:39.821Z</time></trkpt><trkpt lat="41.9112333" lon="12.9275683"><ele>1142.6666666666667</ele><time>2026-04-08T15:40:40.821Z</time></trkpt><trkpt lat="41.9111983" lon="12.92777"><ele>1148.0</ele><time>2026-04-08T15:40:41.822Z</time></trkpt><trkpt lat="41.911145" lon="12.9279383"><ele>1148.0</ele><time>2026-04-08T15:40:42.821Z</time></trkpt><trkpt lat="41.911085" lon="12.92808"><ele>1148.0</ele><time>2026-04-08T15:40:43.821Z</time></trkpt><trkpt lat="41.9110333" lon="12.9282017"><ele>1148.0</ele><time>2026-04-08T15:40:44.818Z</time></trkpt><trkpt lat="41.9110033" lon="12.928315"><ele>1148.0</ele><time>2026-04-08T15:40:45.821Z</time></trkpt><trkpt lat="41.9109917" lon="12.9284233"><ele>1148.0</ele><time>2026-04-08T15:40:46.821Z</time></trkpt><trkpt lat="41.9110117" lon="12.9285183"><ele>1148.0</ele><time>2026-04-08T15:40:47.823Z</time></trkpt><trkpt lat="41.9110683" lon="12.9285783"><ele>1148.0</ele><time>2026-04-08T15:40:48.817Z</time></trkpt><trkpt lat="41.91115" lon="12.9285883"><ele>1148.0</ele><time>2026-04-08T15:40:49.819Z</time></trkpt><trkpt lat="41.9112433" lon="12.9285383"><ele>1148.0</ele><time>2026-04-08T15:40:50.819Z</time></trkpt><trkpt lat="41.9113117" lon="12.92844"><ele>1148.0</ele><time>2026-04-08T15:40:51.818Z</time></trkpt><trkpt lat="41.9113567" lon="12.928205"><ele>1148.0</ele><time>2026-04-08T15:40:52.818Z</time></trkpt><trkpt lat="41.911405" lon="12.9280183"><ele>1148.0</ele><time>2026-04-08T15:40:53.819Z</time></trkpt><trkpt lat="41.9114667" lon="12.9278183"><ele>1148.0</ele><time>2026-04-08T15:40:54.819Z</time></trkpt><trkpt lat="41.9115317" lon="12.9276167"><ele>1142.6666666666667</ele><time>2026-04-08T15:40:55.82Z</time></trkpt><trkpt lat="41.9116017" lon="12.927435"><ele>1137.3333333333333</ele><time>2026-04-08T15:40:56.819Z</time></trkpt><trkpt lat="41.9116733" lon="12.9272583"><ele>1132.0</ele><time>2026-04-08T15:40:57.818Z</time></trkpt><trkpt lat="41.9117517" lon="12.9270783"><ele>1138.0</ele><time>2026-04-08T15:40:58.819Z</time></trkpt><trkpt lat="41.9118383" lon="12.9268983"><ele>1144.0</ele><time>2026-04-08T15:40:59.822Z</time></trkpt><trkpt lat="41.9119317" lon="12.926715"><ele>1150.0</ele><time>2026-04-08T15:41:00.822Z</time></trkpt><trkpt lat="41.9120317" lon="12.9265383"><ele>1150.0</ele><time>2026-04-08T15:41:01.822Z</time></trkpt><trkpt lat="41.9121367" lon="12.9263617"><ele>1150.0</ele><time>2026-04-08T15:41:02.82Z</time></trkpt><trkpt lat="41.9122433" lon="12.9261867"><ele>1150.0</ele><time>2026-04-08T15:41:03.822Z</time></trkpt><trkpt lat="41.9123467" lon="12.92602"><ele>1148.25</ele><time>2026-04-08T15:41:04.821Z</time></trkpt><trkpt lat="41.9124417" lon="12.9258717"><ele>1146.5</ele><time>2026-04-08T15:41:05.821Z</time></trkpt><trkpt lat="41.912525" lon="12.9257417"><ele>1144.75</ele><time>2026-04-08T15:41:06.821Z</time></trkpt><trkpt lat="41.9126033" lon="12.925625"><ele>1143.0</ele><time>2026-04-08T15:41:07.822Z</time></trkpt><trkpt lat="41.9126833" lon="12.925535"><ele>1143.0</ele><time>2026-04-08T15:41:08.82Z</time></trkpt><trkpt lat="41.912775" lon="12.925465"><ele>1143.0</ele><time>2026-04-08T15:41:09.821Z</time></trkpt><trkpt lat="41.9128767" lon="12.925415"><ele>1143.0</ele><time>2026-04-08T15:41:10.82Z</time></trkpt><trkpt lat="41.9129783" lon="12.9253917"><ele>1143.0</ele><time>2026-04-08T15:41:11.832Z</time></trkpt><trkpt lat="41.9130767" lon="12.9254"><ele>1143.0</ele><time>2026-04-08T15:41:12.822Z</time></trkpt><trkpt lat="41.9131733" lon="12.925445"><ele>1143.0</ele><time>2026-04-08T15:41:13.821Z</time></trkpt><trkpt lat="41.9132633" lon="12.92552"><ele>1143.0</ele><time>2026-04-08T15:41:14.822Z</time></trkpt><trkpt lat="41.9133483" lon="12.925605"><ele>1143.0</ele><time>2026-04-08T15:41:15.822Z</time></trkpt><trkpt lat="41.9134283" lon="12.9256967"><ele>1143.0</ele><time>2026-04-08T15:41:16.821Z</time></trkpt><trkpt lat="41.9135083" lon="12.9257867"><ele>1143.0</ele><time>2026-04-08T15:41:17.819Z</time></trkpt><trkpt lat="41.9135883" lon="12.9258783"><ele>1145.0</ele><time>2026-04-08T15:41:18.82Z</time></trkpt><trkpt lat="41.9136683" lon="12.9259717"><ele>1147.0</ele><time>2026-04-08T15:41:19.82Z</time></trkpt><trkpt lat="41.91375" lon="12.9260667"><ele>1149.0</ele><time>2026-04-08T15:41:20.819Z</time></trkpt><trkpt lat="41.913835" lon="12.9261617"><ele>1151.0</ele><time>2026-04-08T15:41:21.819Z</time></trkpt><trkpt lat="41.91392" lon="12.92626"><ele>1153.0</ele><time>2026-04-08T15:41:22.82Z</time></trkpt><trkpt lat="41.9140017" lon="12.9263667"><ele>1153.0</ele><time>2026-04-08T15:41:23.821Z</time></trkpt><trkpt lat="41.9140833" lon="12.92648"><ele>1153.0</ele><time>2026-04-08T15:41:24.824Z</time></trkpt><trkpt lat="41.9141617" lon="12.926595"><ele>1153.0</ele><time>2026-04-08T15:41:25.821Z</time></trkpt><trkpt lat="41.914235" lon="12.926715"><ele>1153.0</ele><time>2026-04-08T15:41:26.823Z</time></trkpt><trkpt lat="41.9143017" lon="12.92684"><ele>1150.25</ele><time>2026-04-08T15:41:27.822Z</time></trkpt><trkpt lat="41.9143783" lon="12.9269617"><ele>1147.5</ele><time>2026-04-08T15:41:28.82Z</time></trkpt><trkpt lat="41.914455" lon="12.9270867"><ele>1144.75</ele><time>2026-04-08T15:41:29.819Z</time></trkpt><trkpt lat="41.9145167" lon="12.92722"><ele>1142.0</ele><time>2026-04-08T15:41:30.819Z</time></trkpt><trkpt lat="41.9145683" lon="12.92736"><ele>1142.0</ele><time>2026-04-08T15:41:31.821Z</time></trkpt><trkpt lat="41.9146217" lon="12.9274967"><ele>1142.0</ele><time>2026-04-08T15:41:32.819Z</time></trkpt><trkpt lat="41.9146733" lon="12.9276383"><ele>1142.0</ele><time>2026-04-08T15:41:33.819Z</time></trkpt><trkpt lat="41.9147133" lon="12.9277867"><ele>1142.0</ele><time>2026-04-08T15:41:34.821Z</time></trkpt><trkpt lat="41.9147517" lon="12.9279333"><ele>1143.6666666666667</ele><time>2026-04-08T15:41:35.819Z</time></trkpt><trkpt lat="41.9147833" lon="12.9280767"><ele>1145.3333333333335</ele><time>2026-04-08T15:41:36.824Z</time></trkpt><trkpt lat="41.914805" lon="12.928205"><ele>1147.0</ele><time>2026-04-08T15:41:37.822Z</time></trkpt><trkpt lat="41.914825" lon="12.9283167"><ele>1148.6666666666667</ele><time>2026-04-08T15:41:38.821Z</time></trkpt><trkpt lat="41.9148333" lon="12.9284017"><ele>1150.3333333333333</ele><time>2026-04-08T15:41:39.822Z</time></trkpt><trkpt lat="41.9148333" lon="12.9285233"><ele>1152.0</ele><time>2026-04-08T15:41:41.821Z</time></trkpt><trkpt lat="41.9148117" lon="12.928625"><ele>1152.0</ele><time>2026-04-08T15:41:44.822Z</time></trkpt><trkpt lat="41.91479" lon="12.928705"><ele>1152.0</ele><time>2026-04-08T15:41:46.82Z</time></trkpt><trkpt lat="41.914745" lon="12.928795"><ele>1152.0</ele><time>2026-04-08T15:41:48.818Z</time></trkpt><trkpt lat="41.9146817" lon="12.92887"><ele>1152.0</ele><time>2026-04-08T15:41:50.82Z</time></trkpt><trkpt lat="41.9146183" lon="12.928945"><ele>1152.0</ele><time>2026-04-08T15:41:52.819Z</time></trkpt><trkpt lat="41.91454" lon="12.9290133"><ele>1152.0</ele><time>2026-04-08T15:41:54.823Z</time></trkpt><trkpt lat="41.914485" lon="12.9290567"><ele>1152.0</ele><time>2026-04-08T15:41:56.825Z</time></trkpt><trkpt lat="41.91447" lon="12.929145"><ele>1152.0</ele><time>2026-04-08T15:42:00.817Z</time></trkpt><trkpt lat="41.91454" lon="12.9291433"><ele>1152.0</ele><time>2026-04-08T15:42:35.822Z</time></trkpt><trkpt lat="41.914515" lon="12.92906"><ele>1152.0</ele><time>2026-04-08T15:42:39.821Z</time></trkpt><trkpt lat="41.9144517" lon="12.9290683"><ele>1152.0</ele><time>2026-04-08T15:42:41.821Z</time></trkpt><trkpt lat="41.9143483" lon="12.92906"><ele>1152.0</ele><time>2026-04-08T15:42:43.821Z</time></trkpt><trkpt lat="41.9142233" lon="12.92904"><ele>1153.857142857143</ele><time>2026-04-08T15:42:45.821Z</time></trkpt><trkpt lat="41.9141583" lon="12.9290383"><ele>1155.7142857142858</ele><time>2026-04-08T15:42:46.821Z</time></trkpt><trkpt lat="41.914095" lon="12.92904"><ele>1157.5714285714284</ele><time>2026-04-08T15:42:47.821Z</time></trkpt><trkpt lat="41.9140317" lon="12.9290467"><ele>1159.4285714285716</ele><time>2026-04-08T15:42:48.821Z</time></trkpt><trkpt lat="41.9139667" lon="12.9290583"><ele>1161.2857142857142</ele><time>2026-04-08T15:42:49.821Z</time></trkpt><trkpt lat="41.9139" lon="12.9290783"><ele>1163.142857142857</ele><time>2026-04-08T15:42:50.82Z</time></trkpt><trkpt lat="41.9138333" lon="12.9291"><ele>1165.0</ele><time>2026-04-08T15:42:51.82Z</time></trkpt><trkpt lat="41.913765" lon="12.929125"><ele>1165.0</ele><time>2026-04-08T15:42:52.82Z</time></trkpt><trkpt lat="41.913695" lon="12.929145"><ele>1165.0</ele><time>2026-04-08T15:42:53.822Z</time></trkpt><trkpt lat="41.9136233" lon="12.92917"><ele>1165.0</ele><time>2026-04-08T15:42:54.821Z</time></trkpt><trkpt lat="41.9135533" lon="12.9292117"><ele>1165.0</ele><time>2026-04-08T15:42:55.82Z</time></trkpt><trkpt lat="41.9134883" lon="12.929275"><ele>1165.0</ele><time>2026-04-08T15:42:56.828Z</time></trkpt><trkpt lat="41.9134333" lon="12.92936"><ele>1165.0</ele><time>2026-04-08T15:42:57.821Z</time></trkpt><trkpt lat="41.9133967" lon="12.9294567"><ele>1166.0</ele><time>2026-04-08T15:42:58.82Z</time></trkpt><trkpt lat="41.9133883" lon="12.929565"><ele>1167.0</ele><time>2026-04-08T15:42:59.818Z</time></trkpt><trkpt lat="41.9134117" lon="12.92968"><ele>1168.0</ele><time>2026-04-08T15:43:00.819Z</time></trkpt><trkpt lat="41.9134167" lon="12.9297883"><ele>1169.0</ele><time>2026-04-08T15:43:01.819Z</time></trkpt><trkpt lat="41.9134017" lon="12.929895"><ele>1170.0</ele><time>2026-04-08T15:43:02.821Z</time></trkpt><trkpt lat="41.9133683" lon="12.9299917"><ele>1171.0</ele><time>2026-04-08T15:43:03.817Z</time></trkpt><trkpt lat="41.9133183" lon="12.9300717"><ele>1168.1666666666665</ele><time>2026-04-08T15:43:04.818Z</time></trkpt><trkpt lat="41.9132517" lon="12.9301417"><ele>1165.3333333333333</ele><time>2026-04-08T15:43:05.821Z</time></trkpt><trkpt lat="41.9131767" lon="12.9301933"><ele>1162.5</ele><time>2026-04-08T15:43:06.818Z</time></trkpt><trkpt lat="41.9130967" lon="12.930235"><ele>1159.6666666666667</ele><time>2026-04-08T15:43:07.818Z</time></trkpt><trkpt lat="41.9130133" lon="12.9302783"><ele>1156.8333333333335</ele><time>2026-04-08T15:43:08.817Z</time></trkpt><trkpt lat="41.91293" lon="12.9303167"><ele>1154.0</ele><time>2026-04-08T15:43:09.818Z</time></trkpt><trkpt lat="41.9128433" lon="12.9303533"><ele>1154.0</ele><time>2026-04-08T15:43:10.818Z</time></trkpt><trkpt lat="41.9127567" lon="12.930395"><ele>1154.0</ele><time>2026-04-08T15:43:11.82Z</time></trkpt><trkpt lat="41.91267" lon="12.9304383"><ele>1154.0</ele><time>2026-04-08T15:43:12.82Z</time></trkpt><trkpt lat="41.9125833" lon="12.9304767"><ele>1154.0</ele><time>2026-04-08T15:43:13.821Z</time></trkpt><trkpt lat="41.9125017" lon="12.93051"><ele>1154.0</ele><time>2026-04-08T15:43:14.821Z</time></trkpt><trkpt lat="41.9124333" lon="12.9305417"><ele>1154.0</ele><time>2026-04-08T15:43:15.822Z</time></trkpt><trkpt lat="41.912365" lon="12.9305617"><ele>1157.0</ele><time>2026-04-08T15:43:16.82Z</time></trkpt><trkpt lat="41.9122717" lon="12.9305283"><ele>1160.0</ele><time>2026-04-08T15:43:18.821Z</time></trkpt><trkpt lat="41.9122483" lon="12.930425"><ele>1163.0</ele><time>2026-04-08T15:43:21.82Z</time></trkpt><trkpt lat="41.9122433" lon="12.9303317"><ele>1166.0</ele><time>2026-04-08T15:43:25.818Z</time></trkpt><trkpt lat="41.9122233" lon="12.9304367"><ele>1169.0</ele><time>2026-04-08T15:43:32.821Z</time></trkpt><trkpt lat="41.91218" lon="12.9305033"><ele>1172.0</ele><time>2026-04-08T15:43:35.82Z</time></trkpt><trkpt lat="41.9121033" lon="12.9305183"><ele>1171.9999999999998</ele><time>2026-04-08T15:43:38.82Z</time></trkpt><trkpt lat="41.91204" lon="12.9305517"><ele>1172.0</ele><time>2026-04-08T15:43:42.821Z</time></trkpt><trkpt lat="41.9120533" lon="12.9306383"><ele>1172.0</ele><time>2026-04-08T15:43:47.818Z</time></trkpt><trkpt lat="41.91212" lon="12.9306433"><ele>1172.0</ele><time>2026-04-08T15:43:50.821Z</time></trkpt><trkpt lat="41.9121483" lon="12.9305617"><ele>1172.0</ele><time>2026-04-08T15:47:39.822Z</time></trkpt><trkpt lat="41.9121933" lon="12.930475"><ele>1171.9999999999998</ele><time>2026-04-08T15:47:42.822Z</time></trkpt><trkpt lat="41.9122317" lon="12.93039"><ele>1172.0</ele><time>2026-04-08T15:47:45.822Z</time></trkpt><trkpt lat="41.9122483" lon="12.9302717"><ele>1172.0</ele><time>2026-04-08T15:47:48.818Z</time></trkpt><trkpt lat="41.912305" lon="12.93017"><ele>1172.0</ele><time>2026-04-08T15:47:51.819Z</time></trkpt><trkpt lat="41.9123633" lon="12.9301317"><ele>1172.0</ele><time>2026-04-08T15:47:53.82Z</time></trkpt><trkpt lat="41.9124417" lon="12.9301267"><ele>1172.0</ele><time>2026-04-08T15:47:57.818Z</time></trkpt><trkpt lat="41.9125067" lon="12.9301067"><ele>1172.0</ele><time>2026-04-08T15:47:59.822Z</time></trkpt><trkpt lat="41.9125867" lon="12.93008"><ele>1172.0</ele><time>2026-04-08T15:48:01.819Z</time></trkpt><trkpt lat="41.9126583" lon="12.9300717"><ele>1171.8333333333335</ele><time>2026-04-08T15:48:03.822Z</time></trkpt><trkpt lat="41.9127283" lon="12.9300433"><ele>1171.6666666666667</ele><time>2026-04-08T15:48:05.822Z</time></trkpt><trkpt lat="41.91282" lon="12.92999"><ele>1171.5</ele><time>2026-04-08T15:48:08.822Z</time></trkpt><trkpt lat="41.9128733" lon="12.9299367"><ele>1171.3333333333333</ele><time>2026-04-08T15:48:10.821Z</time></trkpt><trkpt lat="41.9129267" lon="12.9298717"><ele>1171.1666666666665</ele><time>2026-04-08T15:48:13.822Z</time></trkpt><trkpt lat="41.9129033" lon="12.929775"><ele>1171.0</ele><time>2026-04-08T15:48:18.821Z</time></trkpt><trkpt lat="41.912855" lon="12.9296717"><ele>1171.0</ele><time>2026-04-08T15:48:22.821Z</time></trkpt><trkpt lat="41.9128233" lon="12.92958"><ele>1171.0</ele><time>2026-04-08T15:48:24.821Z</time></trkpt><trkpt lat="41.9127933" lon="12.9294617"><ele>1171.0</ele><time>2026-04-08T15:48:26.821Z</time></trkpt><trkpt lat="41.9128" lon="12.9293167"><ele>1171.0</ele><time>2026-04-08T15:48:28.822Z</time></trkpt><trkpt lat="41.9128217" lon="12.929235"><ele>1171.0</ele><time>2026-04-08T15:48:29.821Z</time></trkpt><trkpt lat="41.9128667" lon="12.9291567"><ele>1171.0</ele><time>2026-04-08T15:48:30.823Z</time></trkpt><trkpt lat="41.912915" lon="12.929085"><ele>1173.8333333333333</ele><time>2026-04-08T15:48:31.822Z</time></trkpt><trkpt lat="41.9129617" lon="12.9290217"><ele>1176.6666666666665</ele><time>2026-04-08T15:48:32.821Z</time></trkpt><trkpt lat="41.913005" lon="12.92896"><ele>1179.5</ele><time>2026-04-08T15:48:33.822Z</time></trkpt><trkpt lat="41.913055" lon="12.9289083"><ele>1182.3333333333333</ele><time>2026-04-08T15:48:34.822Z</time></trkpt><trkpt lat="41.913135" lon="12.9288"><ele>1185.1666666666667</ele><time>2026-04-08T15:48:36.822Z</time></trkpt><trkpt lat="41.9131867" lon="12.9286783"><ele>1188.0</ele><time>2026-04-08T15:48:38.822Z</time></trkpt><trkpt lat="41.9131733" lon="12.9285617"><ele>1188.0</ele><time>2026-04-08T15:48:40.822Z</time></trkpt><trkpt lat="41.9131183" lon="12.9285083"><ele>1188.0</ele><time>2026-04-08T15:48:42.822Z</time></trkpt><trkpt lat="41.9130517" lon="12.9285167"><ele>1188.0</ele><time>2026-04-08T15:48:44.818Z</time></trkpt><trkpt lat="41.9130167" lon="12.928595"><ele>1188.0</ele><time>2026-04-08T15:48:46.819Z</time></trkpt><trkpt lat="41.913035" lon="12.928715"><ele>1188.0</ele><time>2026-04-08T15:48:48.821Z</time></trkpt><trkpt lat="41.9130433" lon="12.9288367"><ele>1188.0</ele><time>2026-04-08T15:48:50.822Z</time></trkpt><trkpt lat="41.913005" lon="12.928955"><ele>1188.0</ele><time>2026-04-08T15:48:52.82Z</time></trkpt><trkpt lat="41.9129617" lon="12.9290167"><ele>1188.0</ele><time>2026-04-08T15:48:53.82Z</time></trkpt><trkpt lat="41.912905" lon="12.9290883"><ele>1188.0</ele><time>2026-04-08T15:48:54.823Z</time></trkpt><trkpt lat="41.91285" lon="12.9291617"><ele>1188.0</ele><time>2026-04-08T15:48:55.822Z</time></trkpt><trkpt lat="41.9128083" lon="12.9292517"><ele>1188.0</ele><time>2026-04-08T15:48:56.822Z</time></trkpt><trkpt lat="41.9127817" lon="12.9293567"><ele>1188.0</ele><time>2026-04-08T15:48:57.822Z</time></trkpt><trkpt lat="41.9127783" lon="12.9294683"><ele>1185.5714285714287</ele><time>2026-04-08T15:48:58.822Z</time></trkpt><trkpt lat="41.9128033" lon="12.929575"><ele>1183.1428571428573</ele><time>2026-04-08T15:48:59.822Z</time></trkpt><trkpt lat="41.9128367" lon="12.9296733"><ele>1180.7142857142858</ele><time>2026-04-08T15:49:00.822Z</time></trkpt><trkpt lat="41.91285" lon="12.9297617"><ele>1178.2857142857142</ele><time>2026-04-08T15:49:01.822Z</time></trkpt><trkpt lat="41.912855" lon="12.92985"><ele>1175.8571428571427</ele><time>2026-04-08T15:49:02.822Z</time></trkpt><trkpt lat="41.912835" lon="12.9299367"><ele>1173.4285714285713</ele><time>2026-04-08T15:49:03.822Z</time></trkpt><trkpt lat="41.9128017" lon="12.9300117"><ele>1171.0</ele><time>2026-04-08T15:49:04.822Z</time></trkpt><trkpt lat="41.9127333" lon="12.9300683"><ele>1171.1666666666665</ele><time>2026-04-08T15:49:05.822Z</time></trkpt><trkpt lat="41.91266" lon="12.93011"><ele>1171.3333333333333</ele><time>2026-04-08T15:49:06.822Z</time></trkpt><trkpt lat="41.912565" lon="12.93013"><ele>1171.5</ele><time>2026-04-08T15:49:07.824Z</time></trkpt><trkpt lat="41.9124683" lon="12.93015"><ele>1171.6666666666667</ele><time>2026-04-08T15:49:08.821Z</time></trkpt><trkpt lat="41.912385" lon="12.9301683"><ele>1171.8333333333335</ele><time>2026-04-08T15:49:09.819Z</time></trkpt><trkpt lat="41.9123117" lon="12.93019"><ele>1172.0</ele><time>2026-04-08T15:49:10.821Z</time></trkpt><trkpt lat="41.9122467" lon="12.9302217"><ele>1172.0</ele><time>2026-04-08T15:49:11.819Z</time></trkpt><trkpt lat="41.9122017" lon="12.9303617"><ele>1172.0</ele><time>2026-04-08T15:49:13.822Z</time></trkpt><trkpt lat="41.912235" lon="12.9305233"><ele>1172.0</ele><time>2026-04-08T15:49:15.822Z</time></trkpt><trkpt lat="41.91228" lon="12.9305833"><ele>1172.0</ele><time>2026-04-08T15:49:16.822Z</time></trkpt><trkpt lat="41.9123617" lon="12.93061"><ele>1172.0</ele><time>2026-04-08T15:49:17.819Z</time></trkpt><trkpt lat="41.9124683" lon="12.9305933"><ele>1167.5</ele><time>2026-04-08T15:49:18.82Z</time></trkpt><trkpt lat="41.912585" lon="12.93053"><ele>1163.0</ele><time>2026-04-08T15:49:19.82Z</time></trkpt><trkpt lat="41.9126917" lon="12.930465"><ele>1158.5</ele><time>2026-04-08T15:49:20.82Z</time></trkpt><trkpt lat="41.9127917" lon="12.93041"><ele>1154.0</ele><time>2026-04-08T15:49:21.82Z</time></trkpt><trkpt lat="41.91289" lon="12.9303617"><ele>1154.0</ele><time>2026-04-08T15:49:22.821Z</time></trkpt><trkpt lat="41.9129933" lon="12.9303117"><ele>1154.0</ele><time>2026-04-08T15:49:23.821Z</time></trkpt><trkpt lat="41.9130933" lon="12.9302567"><ele>1154.0</ele><time>2026-04-08T15:49:24.823Z</time></trkpt><trkpt lat="41.9131883" lon="12.93019"><ele>1154.0</ele><time>2026-04-08T15:49:25.823Z</time></trkpt><trkpt lat="41.9132767" lon="12.9301183"><ele>1154.0</ele><time>2026-04-08T15:49:26.822Z</time></trkpt><trkpt lat="41.9133583" lon="12.9300333"><ele>1152.6666666666667</ele><time>2026-04-08T15:49:27.822Z</time></trkpt><trkpt lat="41.9134183" lon="12.929935"><ele>1151.3333333333335</ele><time>2026-04-08T15:49:28.821Z</time></trkpt><trkpt lat="41.91345" lon="12.9298233"><ele>1150.0</ele><time>2026-04-08T15:49:29.821Z</time></trkpt><trkpt lat="41.9134633" lon="12.9297067"><ele>1148.6666666666667</ele><time>2026-04-08T15:49:30.823Z</time></trkpt><trkpt lat="41.9134533" lon="12.92959"><ele>1147.3333333333333</ele><time>2026-04-08T15:49:31.822Z</time></trkpt><trkpt lat="41.913455" lon="12.9294783"><ele>1146.0</ele><time>2026-04-08T15:49:32.822Z</time></trkpt><trkpt lat="41.9134733" lon="12.9293683"><ele>1146.0</ele><time>2026-04-08T15:49:33.822Z</time></trkpt><trkpt lat="41.91351" lon="12.929265"><ele>1146.0</ele><time>2026-04-08T15:49:34.822Z</time></trkpt><trkpt lat="41.91358" lon="12.9291833"><ele>1146.0</ele><time>2026-04-08T15:49:35.821Z</time></trkpt><trkpt lat="41.9136733" lon="12.929125"><ele>1146.0</ele><time>2026-04-08T15:49:36.821Z</time></trkpt><trkpt lat="41.91378" lon="12.929095"><ele>1146.0</ele><time>2026-04-08T15:49:37.823Z</time></trkpt><trkpt lat="41.9138817" lon="12.9290683"><ele>1147.2</ele><time>2026-04-08T15:49:38.819Z</time></trkpt><trkpt lat="41.91398" lon="12.9290517"><ele>1148.3999999999999</ele><time>2026-04-08T15:49:39.821Z</time></trkpt><trkpt lat="41.9140767" lon="12.9290467"><ele>1149.6</ele><time>2026-04-08T15:49:40.82Z</time></trkpt><trkpt lat="41.914175" lon="12.92906"><ele>1150.8</ele><time>2026-04-08T15:49:41.821Z</time></trkpt><trkpt lat="41.91427" lon="12.929075"><ele>1152.0</ele><time>2026-04-08T15:49:42.818Z</time></trkpt><trkpt lat="41.914355" lon="12.9290833"><ele>1152.0</ele><time>2026-04-08T15:49:43.821Z</time></trkpt><trkpt lat="41.914435" lon="12.929075"><ele>1152.0</ele><time>2026-04-08T15:49:44.822Z</time></trkpt><trkpt lat="41.9145133" lon="12.929045"><ele>1152.0</ele><time>2026-04-08T15:49:45.821Z</time></trkpt><trkpt lat="41.9145833" lon="12.928995"><ele>1152.0</ele><time>2026-04-08T15:49:46.823Z</time></trkpt><trkpt lat="41.9146417" lon="12.9289267"><ele>1152.0</ele><time>2026-04-08T15:49:47.822Z</time></trkpt><trkpt lat="41.91469" lon="12.928845"><ele>1152.0</ele><time>2026-04-08T15:49:48.822Z</time></trkpt><trkpt lat="41.9147383" lon="12.928755"><ele>1152.0</ele><time>2026-04-08T15:49:49.821Z</time></trkpt><trkpt lat="41.914775" lon="12.9286583"><ele>1152.0</ele><time>2026-04-08T15:49:50.822Z</time></trkpt><trkpt lat="41.9147933" lon="12.9285583"><ele>1152.0</ele><time>2026-04-08T15:49:51.821Z</time></trkpt><trkpt lat="41.9147983" lon="12.9284617"><ele>1152.0</ele><time>2026-04-08T15:49:52.821Z</time></trkpt><trkpt lat="41.9147983" lon="12.92837"><ele>1152.0</ele><time>2026-04-08T15:49:53.822Z</time></trkpt><trkpt lat="41.9147883" lon="12.9282733"><ele>1152.0</ele><time>2026-04-08T15:49:54.823Z</time></trkpt><trkpt lat="41.9147733" lon="12.9281683"><ele>1152.4</ele><time>2026-04-08T15:49:55.823Z</time></trkpt><trkpt lat="41.9147567" lon="12.9280567"><ele>1152.8000000000002</ele><time>2026-04-08T15:49:56.821Z</time></trkpt><trkpt lat="41.9147317" lon="12.92794"><ele>1153.2</ele><time>2026-04-08T15:49:57.826Z</time></trkpt><trkpt lat="41.9147067" lon="12.9278183"><ele>1153.6000000000001</ele><time>2026-04-08T15:49:58.821Z</time></trkpt><trkpt lat="41.9146783" lon="12.9277"><ele>1154.0</ele><time>2026-04-08T15:49:59.822Z</time></trkpt><trkpt lat="41.9146433" lon="12.92758"><ele>1151.6000000000001</ele><time>2026-04-08T15:50:00.818Z</time></trkpt><trkpt lat="41.9145983" lon="12.9274583"><ele>1149.2</ele><time>2026-04-08T15:50:01.822Z</time></trkpt><trkpt lat="41.9145483" lon="12.9273317"><ele>1146.8000000000002</ele><time>2026-04-08T15:50:02.822Z</time></trkpt><trkpt lat="41.9144983" lon="12.9272"><ele>1144.4</ele><time>2026-04-08T15:50:03.822Z</time></trkpt><trkpt lat="41.9144433" lon="12.9270717"><ele>1142.0</ele><time>2026-04-08T15:50:04.822Z</time></trkpt><trkpt lat="41.9143833" lon="12.9269583"><ele>1142.0</ele><time>2026-04-08T15:50:05.822Z</time></trkpt><trkpt lat="41.9143167" lon="12.9268517"><ele>1142.0</ele><time>2026-04-08T15:50:06.822Z</time></trkpt><trkpt lat="41.9142517" lon="12.9267533"><ele>1142.0</ele><time>2026-04-08T15:50:07.821Z</time></trkpt><trkpt lat="41.9141933" lon="12.9266583"><ele>1142.0</ele><time>2026-04-08T15:50:08.822Z</time></trkpt><trkpt lat="41.9141483" lon="12.926575"><ele>1142.0</ele><time>2026-04-08T15:50:09.818Z</time></trkpt><trkpt lat="41.9140833" lon="12.9264517"><ele>1143.8333333333335</ele><time>2026-04-08T15:50:11.822Z</time></trkpt><trkpt lat="41.9140267" lon="12.9263633"><ele>1145.6666666666667</ele><time>2026-04-08T15:50:13.821Z</time></trkpt><trkpt lat="41.913965" lon="12.926295"><ele>1147.5</ele><time>2026-04-08T15:50:15.822Z</time></trkpt><trkpt lat="41.9139183" lon="12.9262367"><ele>1149.3333333333333</ele><time>2026-04-08T15:50:18.822Z</time></trkpt><trkpt lat="41.9138683" lon="12.926175"><ele>1151.1666666666665</ele><time>2026-04-08T15:50:20.821Z</time></trkpt><trkpt lat="41.9138033" lon="12.9261"><ele>1153.0</ele><time>2026-04-08T15:50:22.819Z</time></trkpt><trkpt lat="41.9137267" lon="12.9260267"><ele>1153.0</ele><time>2026-04-08T15:50:24.822Z</time></trkpt><trkpt lat="41.913655" lon="12.9259567"><ele>1153.0</ele><time>2026-04-08T15:50:26.822Z</time></trkpt><trkpt lat="41.9135967" lon="12.925895"><ele>1153.0</ele><time>2026-04-08T15:50:28.822Z</time></trkpt><trkpt lat="41.9135417" lon="12.9258167"><ele>1153.0</ele><time>2026-04-08T15:50:31.824Z</time></trkpt><trkpt lat="41.9134833" lon="12.925755"><ele>1153.0</ele><time>2026-04-08T15:50:34.821Z</time></trkpt><trkpt lat="41.9134283" lon="12.9256917"><ele>1153.0</ele><time>2026-04-08T15:50:37.822Z</time></trkpt><trkpt lat="41.9133667" lon="12.92562"><ele>1151.3333333333333</ele><time>2026-04-08T15:50:40.823Z</time></trkpt><trkpt lat="41.9132967" lon="12.9255383"><ele>1149.6666666666665</ele><time>2026-04-08T15:50:43.822Z</time></trkpt><trkpt lat="41.913255" lon="12.9254717"><ele>1148.0</ele><time>2026-04-08T15:54:45.822Z</time></trkpt><trkpt lat="41.913175" lon="12.9254217"><ele>1146.3333333333333</ele><time>2026-04-08T15:54:47.818Z</time></trkpt><trkpt lat="41.9130533" lon="12.9253717"><ele>1144.6666666666667</ele><time>2026-04-08T15:54:49.82Z</time></trkpt><trkpt lat="41.91298" lon="12.925365"><ele>1143.0</ele><time>2026-04-08T15:54:50.821Z</time></trkpt><trkpt lat="41.912905" lon="12.925375"><ele>1143.0</ele><time>2026-04-08T15:54:51.821Z</time></trkpt><trkpt lat="41.9128233" lon="12.92541"><ele>1143.0</ele><time>2026-04-08T15:54:52.821Z</time></trkpt><trkpt lat="41.9127367" lon="12.92546"><ele>1143.0</ele><time>2026-04-08T15:54:53.821Z</time></trkpt><trkpt lat="41.9126483" lon="12.9255467"><ele>1143.0</ele><time>2026-04-08T15:54:54.821Z</time></trkpt><trkpt lat="41.9125717" lon="12.9256483"><ele>1143.0</ele><time>2026-04-08T15:54:55.821Z</time></trkpt><trkpt lat="41.9124983" lon="12.92576"><ele>1144.75</ele><time>2026-04-08T15:54:56.821Z</time></trkpt><trkpt lat="41.9124233" lon="12.9258817"><ele>1146.5</ele><time>2026-04-08T15:54:57.822Z</time></trkpt><trkpt lat="41.912345" lon="12.926015"><ele>1148.25</ele><time>2026-04-08T15:54:58.822Z</time></trkpt><trkpt lat="41.9122617" lon="12.926155"><ele>1150.0</ele><time>2026-04-08T15:54:59.821Z</time></trkpt><trkpt lat="41.912175" lon="12.9262967"><ele>1150.0</ele><time>2026-04-08T15:55:00.821Z</time></trkpt><trkpt lat="41.9120917" lon="12.9264417"><ele>1150.0</ele><time>2026-04-08T15:55:01.821Z</time></trkpt><trkpt lat="41.9119983" lon="12.9265883"><ele>1150.0</ele><time>2026-04-08T15:55:02.823Z</time></trkpt><trkpt lat="41.911905" lon="12.9267433"><ele>1150.0</ele><time>2026-04-08T15:55:03.822Z</time></trkpt><trkpt lat="41.9118183" lon="12.926915"><ele>1144.0</ele><time>2026-04-08T15:55:04.82Z</time></trkpt><trkpt lat="41.9117383" lon="12.927095"><ele>1138.0</ele><time>2026-04-08T15:55:05.821Z</time></trkpt><trkpt lat="41.91166" lon="12.9272733"><ele>1132.0</ele><time>2026-04-08T15:55:06.822Z</time></trkpt><trkpt lat="41.9115933" lon="12.927455"><ele>1136.0</ele><time>2026-04-08T15:55:07.822Z</time></trkpt><trkpt lat="41.91153" lon="12.927635"><ele>1140.0</ele><time>2026-04-08T15:55:08.821Z</time></trkpt><trkpt lat="41.91147" lon="12.9278117"><ele>1144.0</ele><time>2026-04-08T15:55:09.822Z</time></trkpt><trkpt lat="41.9114233" lon="12.9279917"><ele>1148.0</ele><time>2026-04-08T15:55:10.822Z</time></trkpt><trkpt lat="41.9113783" lon="12.9281583"><ele>1148.0</ele><time>2026-04-08T15:55:11.821Z</time></trkpt><trkpt lat="41.9113383" lon="12.9283"><ele>1148.0</ele><time>2026-04-08T15:55:12.822Z</time></trkpt><trkpt lat="41.9112933" lon="12.9284067"><ele>1148.0</ele><time>2026-04-08T15:55:13.826Z</time></trkpt><trkpt lat="41.9112417" lon="12.92849"><ele>1148.0</ele><time>2026-04-08T15:55:14.822Z</time></trkpt><trkpt lat="41.9111883" lon="12.9285467"><ele>1148.0</ele><time>2026-04-08T15:55:15.821Z</time></trkpt><trkpt lat="41.9111283" lon="12.928575"><ele>1148.0</ele><time>2026-04-08T15:55:16.821Z</time></trkpt><trkpt lat="41.9110233" lon="12.9284983"><ele>1148.0</ele><time>2026-04-08T15:55:18.821Z</time></trkpt><trkpt lat="41.911025" lon="12.92837"><ele>1148.0</ele><time>2026-04-08T15:55:19.822Z</time></trkpt><trkpt lat="41.911045" lon="12.9282433"><ele>1148.0</ele><time>2026-04-08T15:55:20.821Z</time></trkpt><trkpt lat="41.9110783" lon="12.9281033"><ele>1148.0</ele><time>2026-04-08T15:55:21.821Z</time></trkpt><trkpt lat="41.9111233" lon="12.9279683"><ele>1148.0</ele><time>2026-04-08T15:55:22.822Z</time></trkpt><trkpt lat="41.9111617" lon="12.9278233"><ele>1148.0</ele><time>2026-04-08T15:55:23.822Z</time></trkpt><trkpt lat="41.9111867" lon="12.9276583"><ele>1148.0</ele><time>2026-04-08T15:55:24.821Z</time></trkpt><trkpt lat="41.91121" lon="12.9274867"><ele>1148.0</ele><time>2026-04-08T15:55:25.821Z</time></trkpt><trkpt lat="41.911225" lon="12.9273017"><ele>1148.0</ele><time>2026-04-08T15:55:26.82Z</time></trkpt><trkpt lat="41.9112633" lon="12.9271233"><ele>1142.6666666666667</ele><time>2026-04-08T15:55:27.82Z</time></trkpt><trkpt lat="41.911315" lon="12.926945"><ele>1137.3333333333333</ele><time>2026-04-08T15:55:28.821Z</time></trkpt><trkpt lat="41.9113817" lon="12.92676"><ele>1132.0</ele><time>2026-04-08T15:55:29.82Z</time></trkpt><trkpt lat="41.9114567" lon="12.9265633"><ele>1127.3333333333333</ele><time>2026-04-08T15:55:30.822Z</time></trkpt><trkpt lat="41.911535" lon="12.926355"><ele>1122.6666666666667</ele><time>2026-04-08T15:55:31.822Z</time></trkpt><trkpt lat="41.9116117" lon="12.9261383"><ele>1118.0</ele><time>2026-04-08T15:55:32.821Z</time></trkpt><trkpt lat="41.9116833" lon="12.92592"><ele>1123.0</ele><time>2026-04-08T15:55:33.82Z</time></trkpt><trkpt lat="41.9117517" lon="12.9257067"><ele>1128.0</ele><time>2026-04-08T15:55:34.82Z</time></trkpt><trkpt lat="41.9118133" lon="12.9255"><ele>1133.0</ele><time>2026-04-08T15:55:35.822Z</time></trkpt><trkpt lat="41.9118767" lon="12.925305"><ele>1133.0</ele><time>2026-04-08T15:55:36.822Z</time></trkpt><trkpt lat="41.9119417" lon="12.925115"><ele>1133.0</ele><time>2026-04-08T15:55:37.82Z</time></trkpt><trkpt lat="41.91201" lon="12.92494"><ele>1133.0</ele><time>2026-04-08T15:55:38.821Z</time></trkpt><trkpt lat="41.91208" lon="12.9247833"><ele>1133.0</ele><time>2026-04-08T15:55:39.822Z</time></trkpt><trkpt lat="41.91215" lon="12.9246483"><ele>1130.5</ele><time>2026-04-08T15:55:40.822Z</time></trkpt><trkpt lat="41.912215" lon="12.9245333"><ele>1128.0</ele><time>2026-04-08T15:55:41.823Z</time></trkpt><trkpt lat="41.9122683" lon="12.924425"><ele>1125.5</ele><time>2026-04-08T15:55:42.822Z</time></trkpt><trkpt lat="41.9123083" lon="12.924325"><ele>1123.0</ele><time>2026-04-08T15:55:43.821Z</time></trkpt><trkpt lat="41.91233" lon="12.9242267"><ele>1120.5</ele><time>2026-04-08T15:55:44.821Z</time></trkpt><trkpt lat="41.9123317" lon="12.9241317"><ele>1118.0</ele><time>2026-04-08T15:55:45.82Z</time></trkpt><trkpt lat="41.91232" lon="12.9240433"><ele>1118.0</ele><time>2026-04-08T15:55:46.822Z</time></trkpt><trkpt lat="41.9122167" lon="12.9239967"><ele>1118.0</ele><time>2026-04-08T15:55:48.821Z</time></trkpt><trkpt lat="41.9121233" lon="12.9241133"><ele>1118.0</ele><time>2026-04-08T15:55:49.822Z</time></trkpt><trkpt lat="41.9120483" lon="12.92421"><ele>1118.0</ele><time>2026-04-08T15:55:50.818Z</time></trkpt><trkpt lat="41.912" lon="12.924385"><ele>1118.0</ele><time>2026-04-08T15:55:51.821Z</time></trkpt><trkpt lat="41.9119483" lon="12.92455"><ele>1118.0</ele><time>2026-04-08T15:55:52.821Z</time></trkpt><trkpt lat="41.91186" lon="12.924705"><ele>1118.0</ele><time>2026-04-08T15:55:53.822Z</time></trkpt><trkpt lat="41.9117533" lon="12.924865"><ele>1118.0</ele><time>2026-04-08T15:55:54.822Z</time></trkpt><trkpt lat="41.9116367" lon="12.925035"><ele>1112.6666666666667</ele><time>2026-04-08T15:55:55.822Z</time></trkpt><trkpt lat="41.91153" lon="12.9252117"><ele>1107.3333333333333</ele><time>2026-04-08T15:55:56.82Z</time></trkpt><trkpt lat="41.911425" lon="12.925395"><ele>1102.0</ele><time>2026-04-08T15:55:57.821Z</time></trkpt><trkpt lat="41.9113167" lon="12.9255917"><ele>1102.0</ele><time>2026-04-08T15:55:58.822Z</time></trkpt><trkpt lat="41.9112083" lon="12.9257883"><ele>1102.0</ele><time>2026-04-08T15:55:59.822Z</time></trkpt><trkpt lat="41.9111017" lon="12.9259733"><ele>1102.0</ele><time>2026-04-08T15:56:00.821Z</time></trkpt><trkpt lat="41.91099" lon="12.9261417"><ele>1096.6666666666665</ele><time>2026-04-08T15:56:01.822Z</time></trkpt><trkpt lat="41.91087" lon="12.92629"><ele>1091.3333333333333</ele><time>2026-04-08T15:56:02.821Z</time></trkpt><trkpt lat="41.9107517" lon="12.9264267"><ele>1086.0</ele><time>2026-04-08T15:56:03.821Z</time></trkpt><trkpt lat="41.9106433" lon="12.92657"><ele>1090.3333333333333</ele><time>2026-04-08T15:56:04.818Z</time></trkpt><trkpt lat="41.9105517" lon="12.926735"><ele>1094.6666666666665</ele><time>2026-04-08T15:56:05.818Z</time></trkpt><trkpt lat="41.9104633" lon="12.9269117"><ele>1099.0</ele><time>2026-04-08T15:56:06.821Z</time></trkpt><trkpt lat="41.91038" lon="12.927105"><ele>1099.0</ele><time>2026-04-08T15:56:07.821Z</time></trkpt><trkpt lat="41.9103017" lon="12.92729"><ele>1099.0</ele><time>2026-04-08T15:56:08.829Z</time></trkpt><trkpt lat="41.9102217" lon="12.927465"><ele>1099.0</ele><time>2026-04-08T15:56:09.821Z</time></trkpt><trkpt lat="41.91012" lon="12.9276367"><ele>1091.3333333333333</ele><time>2026-04-08T15:56:10.823Z</time></trkpt><trkpt lat="41.9100067" lon="12.9278117"><ele>1083.6666666666667</ele><time>2026-04-08T15:56:11.821Z</time></trkpt><trkpt lat="41.9098983" lon="12.927995"><ele>1076.0</ele><time>2026-04-08T15:56:12.821Z</time></trkpt><trkpt lat="41.9098" lon="12.9281983"><ele>1078.6666666666667</ele><time>2026-04-08T15:56:13.82Z</time></trkpt><trkpt lat="41.9097033" lon="12.9284167"><ele>1081.3333333333333</ele><time>2026-04-08T15:56:14.822Z</time></trkpt><trkpt lat="41.9096067" lon="12.9286517"><ele>1084.0</ele><time>2026-04-08T15:56:15.822Z</time></trkpt><trkpt lat="41.9095033" lon="12.9289033"><ele>1084.0</ele><time>2026-04-08T15:56:16.822Z</time></trkpt><trkpt lat="41.9093883" lon="12.92917"><ele>1084.0</ele><time>2026-04-08T15:56:17.82Z</time></trkpt><trkpt lat="41.9092767" lon="12.929425"><ele>1076.6666666666665</ele><time>2026-04-08T15:56:18.821Z</time></trkpt><trkpt lat="41.9091783" lon="12.9296583"><ele>1069.3333333333333</ele><time>2026-04-08T15:56:19.822Z</time></trkpt><trkpt lat="41.9090933" lon="12.929865"><ele>1062.0</ele><time>2026-04-08T15:56:20.822Z</time></trkpt><trkpt lat="41.9090233" lon="12.9300517"><ele>1064.0</ele><time>2026-04-08T15:56:21.821Z</time></trkpt><trkpt lat="41.90897" lon="12.930225"><ele>1066.0</ele><time>2026-04-08T15:56:22.822Z</time></trkpt><trkpt lat="41.9089267" lon="12.9303917"><ele>1068.0</ele><time>2026-04-08T15:56:23.821Z</time></trkpt><trkpt lat="41.9088967" lon="12.9305533"><ele>1070.0</ele><time>2026-04-08T15:56:24.82Z</time></trkpt><trkpt lat="41.9088733" lon="12.930705"><ele>1070.0</ele><time>2026-04-08T15:56:25.821Z</time></trkpt><trkpt lat="41.9088517" lon="12.9308333"><ele>1070.0</ele><time>2026-04-08T15:56:26.822Z</time></trkpt><trkpt lat="41.9088233" lon="12.93093"><ele>1070.0</ele><time>2026-04-08T15:56:27.822Z</time></trkpt><trkpt lat="41.90874" lon="12.9310183"><ele>1070.0</ele><time>2026-04-08T15:56:29.82Z</time></trkpt><trkpt lat="41.9086333" lon="12.9308817"><ele>1070.0</ele><time>2026-04-08T15:56:31.821Z</time></trkpt><trkpt lat="41.9086217" lon="12.9307967"><ele>1070.0</ele><time>2026-04-08T15:56:32.82Z</time></trkpt><trkpt lat="41.9086717" lon="12.9306167"><ele>1070.0</ele><time>2026-04-08T15:56:33.821Z</time></trkpt><trkpt lat="41.9086983" lon="12.9304467"><ele>1070.0</ele><time>2026-04-08T15:56:34.818Z</time></trkpt><trkpt lat="41.9087" lon="12.93028"><ele>1070.0</ele><time>2026-04-08T15:56:35.821Z</time></trkpt><trkpt lat="41.9086883" lon="12.9301067"><ele>1068.0</ele><time>2026-04-08T15:56:36.82Z</time></trkpt><trkpt lat="41.9086733" lon="12.9299183"><ele>1066.0</ele><time>2026-04-08T15:56:37.821Z</time></trkpt><trkpt lat="41.908665" lon="12.929735"><ele>1064.0</ele><time>2026-04-08T15:56:38.821Z</time></trkpt><trkpt lat="41.90867" lon="12.9295467"><ele>1062.0</ele><time>2026-04-08T15:56:39.82Z</time></trkpt><trkpt lat="41.908685" lon="12.92935"><ele>1060.0</ele><time>2026-04-08T15:56:40.82Z</time></trkpt><trkpt lat="41.9087167" lon="12.9291617"><ele>1058.0</ele><time>2026-04-08T15:56:41.821Z</time></trkpt><trkpt lat="41.908765" lon="12.92899"><ele>1056.0</ele><time>2026-04-08T15:56:42.821Z</time></trkpt><trkpt lat="41.908825" lon="12.9288283"><ele>1054.0</ele><time>2026-04-08T15:56:43.822Z</time></trkpt><trkpt lat="41.90888" lon="12.928675"><ele>1054.0</ele><time>2026-04-08T15:56:44.821Z</time></trkpt><trkpt lat="41.9089233" lon="12.92854"><ele>1054.0</ele><time>2026-04-08T15:56:45.821Z</time></trkpt><trkpt lat="41.90896" lon="12.9284267"><ele>1054.0</ele><time>2026-04-08T15:56:46.821Z</time></trkpt><trkpt lat="41.9089867" lon="12.928315"><ele>1054.0</ele><time>2026-04-08T15:56:47.821Z</time></trkpt><trkpt lat="41.9089917" lon="12.9282083"><ele>1054.0</ele><time>2026-04-08T15:56:48.822Z</time></trkpt><trkpt lat="41.90894" lon="12.9281467"><ele>1054.0</ele><time>2026-04-08T15:56:49.821Z</time></trkpt><trkpt lat="41.9088833" lon="12.9281017"><ele>1054.0</ele><time>2026-04-08T15:56:50.818Z</time></trkpt><trkpt lat="41.9087983" lon="12.9281117"><ele>1054.0</ele><time>2026-04-08T15:56:51.822Z</time></trkpt><trkpt lat="41.9086783" lon="12.9282283"><ele>1054.0</ele><time>2026-04-08T15:56:52.817Z</time></trkpt><trkpt lat="41.9086067" lon="12.9283583"><ele>1054.0</ele><time>2026-04-08T15:56:53.817Z</time></trkpt><trkpt lat="41.9085517" lon="12.9285117"><ele>1054.0</ele><time>2026-04-08T15:56:54.821Z</time></trkpt><trkpt lat="41.9084833" lon="12.9286167"><ele>1054.0</ele><time>2026-04-08T15:56:55.822Z</time></trkpt><trkpt lat="41.908395" lon="12.9287"><ele>1054.0</ele><time>2026-04-08T15:56:56.821Z</time></trkpt><trkpt lat="41.908285" lon="12.9287683"><ele>1054.0</ele><time>2026-04-08T15:56:57.821Z</time></trkpt><trkpt lat="41.9081717" lon="12.9288383"><ele>1049.5</ele><time>2026-04-08T15:56:58.821Z</time></trkpt><trkpt lat="41.9080633" lon="12.92893"><ele>1045.0</ele><time>2026-04-08T15:56:59.82Z</time></trkpt><trkpt lat="41.90797" lon="12.9290583"><ele>1040.5</ele><time>2026-04-08T15:57:00.822Z</time></trkpt><trkpt lat="41.90789" lon="12.9292"><ele>1036.0</ele><time>2026-04-08T15:57:01.82Z</time></trkpt><trkpt lat="41.9078167" lon="12.9293433"><ele>1036.0</ele><time>2026-04-08T15:57:02.821Z</time></trkpt><trkpt lat="41.90773" lon="12.92947"><ele>1036.0</ele><time>2026-04-08T15:57:03.821Z</time></trkpt><trkpt lat="41.9076133" lon="12.929565"><ele>1036.0</ele><time>2026-04-08T15:57:04.82Z</time></trkpt><trkpt lat="41.90748" lon="12.92964"><ele>1036.0</ele><time>2026-04-08T15:57:05.82Z</time></trkpt><trkpt lat="41.9073317" lon="12.9297017"><ele>1031.3333333333333</ele><time>2026-04-08T15:57:06.82Z</time></trkpt><trkpt lat="41.9071717" lon="12.9297533"><ele>1026.6666666666667</ele><time>2026-04-08T15:57:07.821Z</time></trkpt><trkpt lat="41.9070083" lon="12.9298067"><ele>1022.0</ele><time>2026-04-08T15:57:08.821Z</time></trkpt><trkpt lat="41.9068483" lon="12.9298633"><ele>1024.0</ele><time>2026-04-08T15:57:09.822Z</time></trkpt><trkpt lat="41.9066867" lon="12.929925"><ele>1026.0</ele><time>2026-04-08T15:57:10.818Z</time></trkpt><trkpt lat="41.9065167" lon="12.9299867"><ele>1028.0</ele><time>2026-04-08T15:57:11.821Z</time></trkpt><trkpt lat="41.9063433" lon="12.93005"><ele>1027.6666666666667</ele><time>2026-04-08T15:57:12.822Z</time></trkpt><trkpt lat="41.9061683" lon="12.9301067"><ele>1027.3333333333333</ele><time>2026-04-08T15:57:13.82Z</time></trkpt><trkpt lat="41.905995" lon="12.9301683"><ele>1027.0</ele><time>2026-04-08T15:57:14.82Z</time></trkpt><trkpt lat="41.9058233" lon="12.9302333"><ele>1027.0</ele><time>2026-04-08T15:57:15.821Z</time></trkpt><trkpt lat="41.9056467" lon="12.9303017"><ele>1027.0</ele><time>2026-04-08T15:57:16.818Z</time></trkpt><trkpt lat="41.9054683" lon="12.9303717"><ele>1027.0</ele><time>2026-04-08T15:57:17.818Z</time></trkpt><trkpt lat="41.9052883" lon="12.9304367"><ele>1027.0</ele><time>2026-04-08T15:57:18.821Z</time></trkpt><trkpt lat="41.9051017" lon="12.930505"><ele>1027.0</ele><time>2026-04-08T15:57:19.826Z</time></trkpt><trkpt lat="41.9049233" lon="12.93057"><ele>1027.0</ele><time>2026-04-08T15:57:20.821Z</time></trkpt><trkpt lat="41.9047617" lon="12.930625"><ele>1026.5</ele><time>2026-04-08T15:57:21.821Z</time></trkpt><trkpt lat="41.9046117" lon="12.93067"><ele>1026.0</ele><time>2026-04-08T15:57:22.82Z</time></trkpt><trkpt lat="41.9044683" lon="12.9307"><ele>1025.5</ele><time>2026-04-08T15:57:23.822Z</time></trkpt><trkpt lat="41.9043217" lon="12.93072"><ele>1025.0</ele><time>2026-04-08T15:57:24.822Z</time></trkpt><trkpt lat="41.9041717" lon="12.93072"><ele>1027.0</ele><time>2026-04-08T15:57:25.82Z</time></trkpt><trkpt lat="41.9040183" lon="12.930695"><ele>1029.0</ele><time>2026-04-08T15:57:26.818Z</time></trkpt><trkpt lat="41.9038667" lon="12.93066"><ele>1031.0</ele><time>2026-04-08T15:57:27.82Z</time></trkpt><trkpt lat="41.9037183" lon="12.9306283"><ele>1031.0</ele><time>2026-04-08T15:57:28.82Z</time></trkpt><trkpt lat="41.9035817" lon="12.9306"><ele>1031.0</ele><time>2026-04-08T15:57:29.821Z</time></trkpt><trkpt lat="41.9034567" lon="12.93058"><ele>1031.0</ele><time>2026-04-08T15:57:30.821Z</time></trkpt><trkpt lat="41.9033433" lon="12.9305917"><ele>1031.0</ele><time>2026-04-08T15:57:31.821Z</time></trkpt><trkpt lat="41.903235" lon="12.9306383"><ele>1031.75</ele><time>2026-04-08T15:57:32.821Z</time></trkpt><trkpt lat="41.90313" lon="12.9307183"><ele>1032.5</ele><time>2026-04-08T15:57:33.821Z</time></trkpt><trkpt lat="41.903045" lon="12.9308383"><ele>1033.25</ele><time>2026-04-08T15:57:34.821Z</time></trkpt><trkpt lat="41.9029833" lon="12.9309967"><ele>1034.0</ele><time>2026-04-08T15:57:35.821Z</time></trkpt><trkpt lat="41.9029683" lon="12.9311983"><ele>1035.3333333333335</ele><time>2026-04-08T15:57:36.822Z</time></trkpt><trkpt lat="41.9029483" lon="12.9314167"><ele>1036.6666666666667</ele><time>2026-04-08T15:57:37.821Z</time></trkpt><trkpt lat="41.902935" lon="12.9316367"><ele>1038.0</ele><time>2026-04-08T15:57:38.822Z</time></trkpt><trkpt lat="41.90292" lon="12.931835"><ele>1040.0</ele><time>2026-04-08T15:57:39.82Z</time></trkpt><trkpt lat="41.9029167" lon="12.93201"><ele>1042.0</ele><time>2026-04-08T15:57:40.82Z</time></trkpt><trkpt lat="41.9029217" lon="12.9321567"><ele>1044.0</ele><time>2026-04-08T15:57:41.82Z</time></trkpt><trkpt lat="41.9029667" lon="12.932295"><ele>1046.0</ele><time>2026-04-08T15:57:42.821Z</time></trkpt><trkpt lat="41.9030517" lon="12.9324117"><ele>1046.0</ele><time>2026-04-08T15:57:43.821Z</time></trkpt><trkpt lat="41.9031717" lon="12.9324983"><ele>1046.0</ele><time>2026-04-08T15:57:44.826Z</time></trkpt><trkpt lat="41.9032917" lon="12.932555"><ele>1046.0</ele><time>2026-04-08T15:57:45.821Z</time></trkpt><trkpt lat="41.9034017" lon="12.93261"><ele>1046.0</ele><time>2026-04-08T15:57:46.821Z</time></trkpt><trkpt lat="41.9034683" lon="12.9327033"><ele>1041.6</ele><time>2026-04-08T15:57:47.818Z</time></trkpt><trkpt lat="41.90351" lon="12.9328233"><ele>1037.1999999999998</ele><time>2026-04-08T15:57:48.818Z</time></trkpt><trkpt lat="41.90352" lon="12.932965"><ele>1032.8000000000002</ele><time>2026-04-08T15:57:49.818Z</time></trkpt><trkpt lat="41.90351" lon="12.93313"><ele>1028.4</ele><time>2026-04-08T15:57:50.819Z</time></trkpt><trkpt lat="41.9034967" lon="12.9332867"><ele>1024.0</ele><time>2026-04-08T15:57:51.817Z</time></trkpt><trkpt lat="41.9034783" lon="12.93342"><ele>1022.9999999999999</ele><time>2026-04-08T15:57:52.818Z</time></trkpt><trkpt lat="41.9034383" lon="12.9335267"><ele>1022.0</ele><time>2026-04-08T15:57:53.818Z</time></trkpt><trkpt lat="41.9033967" lon="12.9336167"><ele>1021.0</ele><time>2026-04-08T15:57:54.821Z</time></trkpt><trkpt lat="41.9033367" lon="12.93368"><ele>1020.0</ele><time>2026-04-08T15:57:55.821Z</time></trkpt><trkpt lat="41.90325" lon="12.9336967"><ele>1018.9999999999999</ele><time>2026-04-08T15:57:56.821Z</time></trkpt><trkpt lat="41.9031467" lon="12.9336683"><ele>1018.0</ele><time>2026-04-08T15:57:57.82Z</time></trkpt><trkpt lat="41.9030167" lon="12.9335967"><ele>1024.5</ele><time>2026-04-08T15:57:58.822Z</time></trkpt><trkpt lat="41.902885" lon="12.9335317"><ele>1031.0</ele><time>2026-04-08T15:57:59.823Z</time></trkpt><trkpt lat="41.9027417" lon="12.93346"><ele>1037.5</ele><time>2026-04-08T15:58:00.821Z</time></trkpt><trkpt lat="41.9026017" lon="12.9333967"><ele>1044.0</ele><time>2026-04-08T15:58:01.821Z</time></trkpt><trkpt lat="41.90247" lon="12.9333333"><ele>1047.75</ele><time>2026-04-08T15:58:02.821Z</time></trkpt><trkpt lat="41.902345" lon="12.9332683"><ele>1051.5</ele><time>2026-04-08T15:58:03.821Z</time></trkpt><trkpt lat="41.9022283" lon="12.9331783"><ele>1055.25</ele><time>2026-04-08T15:58:04.82Z</time></trkpt><trkpt lat="41.90212" lon="12.9330783"><ele>1059.0</ele><time>2026-04-08T15:58:05.82Z</time></trkpt><trkpt lat="41.9020217" lon="12.9329817"><ele>1059.0</ele><time>2026-04-08T15:58:06.822Z</time></trkpt><trkpt lat="41.9019233" lon="12.93291"><ele>1059.0</ele><time>2026-04-08T15:58:07.821Z</time></trkpt><trkpt lat="41.9018117" lon="12.932855"><ele>1059.0</ele><time>2026-04-08T15:58:08.821Z</time></trkpt><trkpt lat="41.9016767" lon="12.93283"><ele>1059.0</ele><time>2026-04-08T15:58:09.821Z</time></trkpt><trkpt lat="41.90153" lon="12.9328433"><ele>1061.25</ele><time>2026-04-08T15:58:10.823Z</time></trkpt><trkpt lat="41.9013817" lon="12.9328733"><ele>1063.5</ele><time>2026-04-08T15:58:11.821Z</time></trkpt><trkpt lat="41.9012367" lon="12.93292"><ele>1065.75</ele><time>2026-04-08T15:58:12.822Z</time></trkpt><trkpt lat="41.901095" lon="12.9329717"><ele>1068.0</ele><time>2026-04-08T15:58:13.821Z</time></trkpt><trkpt lat="41.9009617" lon="12.9330383"><ele>1069.0</ele><time>2026-04-08T15:58:14.82Z</time></trkpt><trkpt lat="41.90083" lon="12.933135"><ele>1070.0</ele><time>2026-04-08T15:58:15.822Z</time></trkpt><trkpt lat="41.90071" lon="12.9332483"><ele>1071.0</ele><time>2026-04-08T15:58:16.822Z</time></trkpt><trkpt lat="41.900595" lon="12.9333733"><ele>1072.0</ele><time>2026-04-08T15:58:17.819Z</time></trkpt><trkpt lat="41.90048" lon="12.9335017"><ele>1072.0</ele><time>2026-04-08T15:58:18.82Z</time></trkpt><trkpt lat="41.90037" lon="12.9336317"><ele>1072.0</ele><time>2026-04-08T15:58:19.819Z</time></trkpt><trkpt lat="41.90026" lon="12.9337483"><ele>1072.0</ele><time>2026-04-08T15:58:20.82Z</time></trkpt><trkpt lat="41.9001467" lon="12.9338433"><ele>1072.0</ele><time>2026-04-08T15:58:21.819Z</time></trkpt><trkpt lat="41.9000183" lon="12.9339167"><ele>1072.0</ele><time>2026-04-08T15:58:22.819Z</time></trkpt><trkpt lat="41.8998717" lon="12.9339733"><ele>1072.0</ele><time>2026-04-08T15:58:23.82Z</time></trkpt><trkpt lat="41.8997233" lon="12.934025"><ele>1072.0</ele><time>2026-04-08T15:58:24.821Z</time></trkpt><trkpt lat="41.8995817" lon="12.9340633"><ele>1072.0</ele><time>2026-04-08T15:58:25.821Z</time></trkpt><trkpt lat="41.8994467" lon="12.9340817"><ele>1072.0</ele><time>2026-04-08T15:58:26.822Z</time></trkpt><trkpt lat="41.8993233" lon="12.93408"><ele>1072.0</ele><time>2026-04-08T15:58:27.818Z</time></trkpt><trkpt lat="41.8992067" lon="12.934055"><ele>1072.0</ele><time>2026-04-08T15:58:28.822Z</time></trkpt><trkpt lat="41.8991017" lon="12.933995"><ele>1072.5</ele><time>2026-04-08T15:58:29.821Z</time></trkpt><trkpt lat="41.8990033" lon="12.9339017"><ele>1073.0</ele><time>2026-04-08T15:58:30.822Z</time></trkpt><trkpt lat="41.898905" lon="12.9337833"><ele>1073.5</ele><time>2026-04-08T15:58:31.82Z</time></trkpt><trkpt lat="41.8988183" lon="12.933635"><ele>1074.0</ele><time>2026-04-08T15:58:32.821Z</time></trkpt><trkpt lat="41.8987383" lon="12.9334683"><ele>1076.75</ele><time>2026-04-08T15:58:33.822Z</time></trkpt><trkpt lat="41.8986667" lon="12.9332983"><ele>1079.5</ele><time>2026-04-08T15:58:34.822Z</time></trkpt><trkpt lat="41.8985983" lon="12.9331383"><ele>1082.25</ele><time>2026-04-08T15:58:35.821Z</time></trkpt><trkpt lat="41.8985417" lon="12.9329833"><ele>1085.0</ele><time>2026-04-08T15:58:36.821Z</time></trkpt><trkpt lat="41.8985083" lon="12.9328317"><ele>1085.0</ele><time>2026-04-08T15:58:37.822Z</time></trkpt><trkpt lat="41.8985083" lon="12.9326733"><ele>1085.0</ele><time>2026-04-08T15:58:38.822Z</time></trkpt><trkpt lat="41.8985433" lon="12.9324917"><ele>1085.0</ele><time>2026-04-08T15:58:39.821Z</time></trkpt><trkpt lat="41.8985967" lon="12.9323"><ele>1085.0</ele><time>2026-04-08T15:58:40.822Z</time></trkpt><trkpt lat="41.898645" lon="12.9321233"><ele>1086.25</ele><time>2026-04-08T15:58:41.822Z</time></trkpt><trkpt lat="41.89868" lon="12.93196"><ele>1087.5</ele><time>2026-04-08T15:58:42.822Z</time></trkpt><trkpt lat="41.898695" lon="12.9318067"><ele>1088.75</ele><time>2026-04-08T15:58:43.822Z</time></trkpt><trkpt lat="41.898675" lon="12.9316667"><ele>1090.0</ele><time>2026-04-08T15:58:44.822Z</time></trkpt><trkpt lat="41.898625" lon="12.9315383"><ele>1087.25</ele><time>2026-04-08T15:58:45.822Z</time></trkpt><trkpt lat="41.898545" lon="12.9314417"><ele>1084.5</ele><time>2026-04-08T15:58:46.822Z</time></trkpt><trkpt lat="41.89842" lon="12.9313783"><ele>1081.75</ele><time>2026-04-08T15:58:47.819Z</time></trkpt><trkpt lat="41.8982733" lon="12.9313167"><ele>1079.0</ele><time>2026-04-08T15:58:48.819Z</time></trkpt><trkpt lat="41.8981267" lon="12.931255"><ele>1072.6666666666667</ele><time>2026-04-08T15:58:49.82Z</time></trkpt><trkpt lat="41.8979767" lon="12.9311917"><ele>1066.3333333333333</ele><time>2026-04-08T15:58:50.82Z</time></trkpt><trkpt lat="41.8978233" lon="12.9311117"><ele>1060.0</ele><time>2026-04-08T15:58:51.82Z</time></trkpt><trkpt lat="41.8976717" lon="12.9310233"><ele>1058.3333333333333</ele><time>2026-04-08T15:58:52.819Z</time></trkpt><trkpt lat="41.8975183" lon="12.930915"><ele>1056.6666666666667</ele><time>2026-04-08T15:58:53.819Z</time></trkpt><trkpt lat="41.8973633" lon="12.9307833"><ele>1055.0</ele><time>2026-04-08T15:58:54.822Z</time></trkpt><trkpt lat="41.89721" lon="12.93063"><ele>1055.0</ele><time>2026-04-08T15:58:55.821Z</time></trkpt><trkpt lat="41.89706" lon="12.930465"><ele>1055.0</ele><time>2026-04-08T15:58:56.821Z</time></trkpt><trkpt lat="41.8969233" lon="12.9302967"><ele>1055.0</ele><time>2026-04-08T15:58:57.822Z</time></trkpt><trkpt lat="41.8968" lon="12.9301317"><ele>1054.75</ele><time>2026-04-08T15:58:58.819Z</time></trkpt><trkpt lat="41.8966933" lon="12.9299817"><ele>1054.5</ele><time>2026-04-08T15:58:59.822Z</time></trkpt><trkpt lat="41.8965867" lon="12.929865"><ele>1054.25</ele><time>2026-04-08T15:59:00.821Z</time></trkpt><trkpt lat="41.8964667" lon="12.9297767"><ele>1054.0</ele><time>2026-04-08T15:59:01.821Z</time></trkpt><trkpt lat="41.8963233" lon="12.929735"><ele>1054.0</ele><time>2026-04-08T15:59:02.822Z</time></trkpt><trkpt lat="41.8961567" lon="12.9297317"><ele>1054.0</ele><time>2026-04-08T15:59:03.821Z</time></trkpt><trkpt lat="41.8959783" lon="12.9297267"><ele>1054.0</ele><time>2026-04-08T15:59:04.821Z</time></trkpt><trkpt lat="41.8957933" lon="12.9297267"><ele>1052.3333333333333</ele><time>2026-04-08T15:59:05.822Z</time></trkpt><trkpt lat="41.8956083" lon="12.92972"><ele>1050.6666666666667</ele><time>2026-04-08T15:59:06.822Z</time></trkpt><trkpt lat="41.8954267" lon="12.9297"><ele>1049.0</ele><time>2026-04-08T15:59:07.822Z</time></trkpt><trkpt lat="41.8952483" lon="12.9296683"><ele>1049.6666666666667</ele><time>2026-04-08T15:59:08.821Z</time></trkpt><trkpt lat="41.8950733" lon="12.9296233"><ele>1050.3333333333333</ele><time>2026-04-08T15:59:09.819Z</time></trkpt><trkpt lat="41.8948983" lon="12.9295683"><ele>1051.0</ele><time>2026-04-08T15:59:10.822Z</time></trkpt><trkpt lat="41.8947267" lon="12.929515"><ele>1051.0</ele><time>2026-04-08T15:59:11.822Z</time></trkpt><trkpt lat="41.8945683" lon="12.9294683"><ele>1051.0</ele><time>2026-04-08T15:59:12.821Z</time></trkpt><trkpt lat="41.8944067" lon="12.9294417"><ele>1051.0</ele><time>2026-04-08T15:59:13.822Z</time></trkpt><trkpt lat="41.89424" lon="12.9294317"><ele>1053.3333333333333</ele><time>2026-04-08T15:59:14.822Z</time></trkpt><trkpt lat="41.8940767" lon="12.9294417"><ele>1055.6666666666667</ele><time>2026-04-08T15:59:15.822Z</time></trkpt><trkpt lat="41.8939133" lon="12.9294733"><ele>1058.0</ele><time>2026-04-08T15:59:16.822Z</time></trkpt><trkpt lat="41.8937567" lon="12.9295167"><ele>1058.0</ele><time>2026-04-08T15:59:17.819Z</time></trkpt><trkpt lat="41.8936117" lon="12.92956"><ele>1058.0</ele><time>2026-04-08T15:59:18.818Z</time></trkpt><trkpt lat="41.8934783" lon="12.92959"><ele>1058.0</ele><time>2026-04-08T15:59:19.819Z</time></trkpt><trkpt lat="41.8933567" lon="12.92959"><ele>1058.0</ele><time>2026-04-08T15:59:20.819Z</time></trkpt><trkpt lat="41.89324" lon="12.9295583"><ele>1056.0</ele><time>2026-04-08T15:59:21.818Z</time></trkpt><trkpt lat="41.893115" lon="12.9294933"><ele>1054.0</ele><time>2026-04-08T15:59:22.818Z</time></trkpt><trkpt lat="41.8929767" lon="12.9294117"><ele>1052.0</ele><time>2026-04-08T15:59:23.819Z</time></trkpt><trkpt lat="41.8928317" lon="12.9293117"><ele>1050.0</ele><time>2026-04-08T15:59:24.822Z</time></trkpt><trkpt lat="41.89269" lon="12.9292183"><ele>1048.0</ele><time>2026-04-08T15:59:25.821Z</time></trkpt><trkpt lat="41.8925533" lon="12.9291367"><ele>1046.0</ele><time>2026-04-08T15:59:26.822Z</time></trkpt><trkpt lat="41.8924333" lon="12.9290567"><ele>1044.0</ele><time>2026-04-08T15:59:27.822Z</time></trkpt><trkpt lat="41.89232" lon="12.9289833"><ele>1042.0</ele><time>2026-04-08T15:59:28.821Z</time></trkpt><trkpt lat="41.892205" lon="12.9289267"><ele>1042.0</ele><time>2026-04-08T15:59:29.822Z</time></trkpt><trkpt lat="41.89208" lon="12.9289"><ele>1042.0</ele><time>2026-04-08T15:59:30.821Z</time></trkpt><trkpt lat="41.8919417" lon="12.9288867"><ele>1042.0</ele><time>2026-04-08T15:59:31.821Z</time></trkpt><trkpt lat="41.8918067" lon="12.9288833"><ele>1042.0</ele><time>2026-04-08T15:59:32.821Z</time></trkpt><trkpt lat="41.89167" lon="12.9289067"><ele>1044.0</ele><time>2026-04-08T15:59:33.822Z</time></trkpt><trkpt lat="41.891525" lon="12.928955"><ele>1046.0</ele><time>2026-04-08T15:59:34.822Z</time></trkpt><trkpt lat="41.8913817" lon="12.929025"><ele>1048.0</ele><time>2026-04-08T15:59:35.821Z</time></trkpt><trkpt lat="41.8912383" lon="12.9291067"><ele>1048.0</ele><time>2026-04-08T15:59:36.817Z</time></trkpt><trkpt lat="41.8910933" lon="12.9291917"><ele>1048.0</ele><time>2026-04-08T15:59:37.818Z</time></trkpt><trkpt lat="41.890945" lon="12.9292783"><ele>1048.0</ele><time>2026-04-08T15:59:38.819Z</time></trkpt><trkpt lat="41.8908017" lon="12.929365"><ele>1052.75</ele><time>2026-04-08T15:59:39.818Z</time></trkpt><trkpt lat="41.8906667" lon="12.9294483"><ele>1057.5</ele><time>2026-04-08T15:59:40.819Z</time></trkpt><trkpt lat="41.8905367" lon="12.9295267"><ele>1062.25</ele><time>2026-04-08T15:59:41.821Z</time></trkpt><trkpt lat="41.8904033" lon="12.9295983"><ele>1067.0</ele><time>2026-04-08T15:59:42.821Z</time></trkpt><trkpt lat="41.8902717" lon="12.92966"><ele>1067.0</ele><time>2026-04-08T15:59:43.822Z</time></trkpt><trkpt lat="41.890135" lon="12.929705"><ele>1067.0</ele><time>2026-04-08T15:59:44.822Z</time></trkpt><trkpt lat="41.8899917" lon="12.9297267"><ele>1067.0</ele><time>2026-04-08T15:59:45.822Z</time></trkpt><trkpt lat="41.88984" lon="12.9297217"><ele>1067.0</ele><time>2026-04-08T15:59:46.821Z</time></trkpt><trkpt lat="41.8896883" lon="12.9297017"><ele>1065.75</ele><time>2026-04-08T15:59:47.821Z</time></trkpt><trkpt lat="41.8895467" lon="12.9296767"><ele>1064.5</ele><time>2026-04-08T15:59:48.822Z</time></trkpt><trkpt lat="41.88941" lon="12.929655"><ele>1063.25</ele><time>2026-04-08T15:59:49.822Z</time></trkpt><trkpt lat="41.8892883" lon="12.9296033"><ele>1062.0</ele><time>2026-04-08T15:59:50.822Z</time></trkpt><trkpt lat="41.8891833" lon="12.9295183"><ele>1062.0</ele><time>2026-04-08T15:59:51.822Z</time></trkpt><trkpt lat="41.8890833" lon="12.9293917"><ele>1062.0</ele><time>2026-04-08T15:59:52.822Z</time></trkpt><trkpt lat="41.888975" lon="12.9292567"><ele>1062.0</ele><time>2026-04-08T15:59:53.822Z</time></trkpt><trkpt lat="41.8888467" lon="12.929125"><ele>1062.0</ele><time>2026-04-08T15:59:54.822Z</time></trkpt><trkpt lat="41.8886933" lon="12.9289967"><ele>1058.6666666666667</ele><time>2026-04-08T15:59:55.822Z</time></trkpt><trkpt lat="41.8885317" lon="12.9288767"><ele>1055.3333333333335</ele><time>2026-04-08T15:59:56.821Z</time></trkpt><trkpt lat="41.88837" lon="12.9287583"><ele>1052.0</ele><time>2026-04-08T15:59:57.822Z</time></trkpt><trkpt lat="41.88821" lon="12.9286367"><ele>1052.0</ele><time>2026-04-08T15:59:58.818Z</time></trkpt><trkpt lat="41.8880583" lon="12.928515"><ele>1052.0</ele><time>2026-04-08T15:59:59.819Z</time></trkpt><trkpt lat="41.8879133" lon="12.9284017"><ele>1052.0</ele><time>2026-04-08T16:00:00.819Z</time></trkpt><trkpt lat="41.887775" lon="12.9282933"><ele>1049.6666666666667</ele><time>2026-04-08T16:00:01.818Z</time></trkpt><trkpt lat="41.8876383" lon="12.928185"><ele>1047.3333333333333</ele><time>2026-04-08T16:00:02.818Z</time></trkpt><trkpt lat="41.8875067" lon="12.9280817"><ele>1045.0</ele><time>2026-04-08T16:00:03.819Z</time></trkpt><trkpt lat="41.8873717" lon="12.9279867"><ele>1045.0</ele><time>2026-04-08T16:00:04.818Z</time></trkpt><trkpt lat="41.887235" lon="12.9279033"><ele>1045.0</ele><time>2026-04-08T16:00:05.82Z</time></trkpt><trkpt lat="41.8870867" lon="12.9278367"><ele>1045.0</ele><time>2026-04-08T16:00:06.818Z</time></trkpt><trkpt lat="41.88693" lon="12.9277783"><ele>1045.0</ele><time>2026-04-08T16:00:07.819Z</time></trkpt><trkpt lat="41.8867717" lon="12.92772"><ele>1045.0</ele><time>2026-04-08T16:00:08.818Z</time></trkpt><trkpt lat="41.8866133" lon="12.9276667"><ele>1045.0</ele><time>2026-04-08T16:00:09.818Z</time></trkpt><trkpt lat="41.8864583" lon="12.92762"><ele>1049.3333333333333</ele><time>2026-04-08T16:00:10.819Z</time></trkpt><trkpt lat="41.8863167" lon="12.9275833"><ele>1053.6666666666667</ele><time>2026-04-08T16:00:11.823Z</time></trkpt><trkpt lat="41.886165" lon="12.9275733"><ele>1058.0</ele><time>2026-04-08T16:00:12.822Z</time></trkpt><trkpt lat="41.886" lon="12.9275883"><ele>1061.3333333333335</ele><time>2026-04-08T16:00:13.821Z</time></trkpt><trkpt lat="41.885825" lon="12.9276083"><ele>1064.6666666666667</ele><time>2026-04-08T16:00:14.822Z</time></trkpt><trkpt lat="41.8856467" lon="12.9276117"><ele>1068.0</ele><time>2026-04-08T16:00:15.822Z</time></trkpt><trkpt lat="41.8854683" lon="12.9276"><ele>1068.0</ele><time>2026-04-08T16:00:16.824Z</time></trkpt><trkpt lat="41.8853033" lon="12.9275883"><ele>1068.0</ele><time>2026-04-08T16:00:17.822Z</time></trkpt><trkpt lat="41.8851517" lon="12.9275967"><ele>1068.0</ele><time>2026-04-08T16:00:18.823Z</time></trkpt><trkpt lat="41.88501" lon="12.9276517"><ele>1067.0</ele><time>2026-04-08T16:00:19.822Z</time></trkpt><trkpt lat="41.8848817" lon="12.9277517"><ele>1066.0</ele><time>2026-04-08T16:00:20.825Z</time></trkpt><trkpt lat="41.884755" lon="12.9278567"><ele>1065.0</ele><time>2026-04-08T16:00:21.822Z</time></trkpt><trkpt lat="41.8846333" lon="12.92792"><ele>1064.0</ele><time>2026-04-08T16:00:22.822Z</time></trkpt><trkpt lat="41.8845067" lon="12.927945"><ele>1064.0</ele><time>2026-04-08T16:00:23.822Z</time></trkpt><trkpt lat="41.8843983" lon="12.9279417"><ele>1064.0</ele><time>2026-04-08T16:00:24.822Z</time></trkpt><trkpt lat="41.8843183" lon="12.9279117"><ele>1064.0</ele><time>2026-04-08T16:00:25.822Z</time></trkpt><trkpt lat="41.8842533" lon="12.9278817"><ele>1064.0</ele><time>2026-04-08T16:00:26.819Z</time></trkpt><trkpt lat="41.8841883" lon="12.9278333"><ele>1064.0</ele><time>2026-04-08T16:00:28.818Z</time></trkpt><trkpt lat="41.8841233" lon="12.92784"><ele>1064.0</ele><time>2026-04-08T16:01:25.822Z</time></trkpt><trkpt lat="41.8840267" lon="12.9278733"><ele>1062.8</ele><time>2026-04-08T16:01:28.822Z</time></trkpt><trkpt lat="41.8838933" lon="12.927845"><ele>1061.6000000000001</ele><time>2026-04-08T16:01:30.821Z</time></trkpt><trkpt lat="41.8838133" lon="12.9278217"><ele>1060.4</ele><time>2026-04-08T16:01:31.822Z</time></trkpt><trkpt lat="41.883725" lon="12.9278017"><ele>1059.2</ele><time>2026-04-08T16:01:32.822Z</time></trkpt><trkpt lat="41.8836217" lon="12.92778"><ele>1058.0</ele><time>2026-04-08T16:01:33.821Z</time></trkpt><trkpt lat="41.883515" lon="12.927755"><ele>1057.75</ele><time>2026-04-08T16:01:34.822Z</time></trkpt><trkpt lat="41.883405" lon="12.927725"><ele>1057.5</ele><time>2026-04-08T16:01:35.822Z</time></trkpt><trkpt lat="41.8832983" lon="12.9276917"><ele>1057.25</ele><time>2026-04-08T16:01:36.824Z</time></trkpt><trkpt lat="41.883175" lon="12.9276517"><ele>1057.0</ele><time>2026-04-08T16:01:37.823Z</time></trkpt><trkpt lat="41.8830467" lon="12.9276067"><ele>1057.0</ele><time>2026-04-08T16:01:38.821Z</time></trkpt><trkpt lat="41.8829267" lon="12.9275667"><ele>1057.0</ele><time>2026-04-08T16:01:39.822Z</time></trkpt><trkpt lat="41.8828117" lon="12.92754"><ele>1057.0</ele><time>2026-04-08T16:01:40.822Z</time></trkpt><trkpt lat="41.882695" lon="12.9275417"><ele>1057.0</ele><time>2026-04-08T16:01:41.819Z</time></trkpt><trkpt lat="41.8825867" lon="12.9275767"><ele>1051.75</ele><time>2026-04-08T16:01:42.822Z</time></trkpt><trkpt lat="41.882495" lon="12.927655"><ele>1046.5</ele><time>2026-04-08T16:01:43.821Z</time></trkpt><trkpt lat="41.8824267" lon="12.9277667"><ele>1041.25</ele><time>2026-04-08T16:01:44.819Z</time></trkpt><trkpt lat="41.8823783" lon="12.92791"><ele>1036.0</ele><time>2026-04-08T16:01:45.822Z</time></trkpt><trkpt lat="41.8823583" lon="12.9280783"><ele>1036.0</ele><time>2026-04-08T16:01:46.822Z</time></trkpt><trkpt lat="41.882335" lon="12.9282483"><ele>1036.0</ele><time>2026-04-08T16:01:47.822Z</time></trkpt><trkpt lat="41.88231" lon="12.92841"><ele>1036.0</ele><time>2026-04-08T16:01:48.824Z</time></trkpt><trkpt lat="41.88227" lon="12.9285483"><ele>1036.0</ele><time>2026-04-08T16:01:49.822Z</time></trkpt><trkpt lat="41.8822067" lon="12.928665"><ele>1035.25</ele><time>2026-04-08T16:01:50.822Z</time></trkpt><trkpt lat="41.8821217" lon="12.9287583"><ele>1034.5</ele><time>2026-04-08T16:01:51.822Z</time></trkpt><trkpt lat="41.88201" lon="12.9288217"><ele>1033.75</ele><time>2026-04-08T16:01:52.822Z</time></trkpt><trkpt lat="41.88188" lon="12.9288467"><ele>1033.0</ele><time>2026-04-08T16:01:53.822Z</time></trkpt><trkpt lat="41.881725" lon="12.9288417"><ele>1033.0</ele><time>2026-04-08T16:01:54.822Z</time></trkpt><trkpt lat="41.8815617" lon="12.9288433"><ele>1033.0</ele><time>2026-04-08T16:01:55.821Z</time></trkpt><trkpt lat="41.8814" lon="12.92885"><ele>1033.0</ele><time>2026-04-08T16:01:56.823Z</time></trkpt><trkpt lat="41.8812267" lon="12.928565"><ele>1033.0</ele><time>2026-04-08T16:01:58.448Z</time></trkpt><trkpt lat="41.880955" lon="12.9287067"><ele>1033.0</ele><time>2026-04-08T16:01:59.819Z</time></trkpt><trkpt lat="41.8807467" lon="12.9287417"><ele>1033.6666666666665</ele><time>2026-04-08T16:02:00.817Z</time></trkpt><trkpt lat="41.8805467" lon="12.928795"><ele>1034.3333333333333</ele><time>2026-04-08T16:02:01.818Z</time></trkpt><trkpt lat="41.8803667" lon="12.9288433"><ele>1035.0</ele><time>2026-04-08T16:02:02.818Z</time></trkpt><trkpt lat="41.880195" lon="12.92888"><ele>1032.0</ele><time>2026-04-08T16:02:03.818Z</time></trkpt><trkpt lat="41.8800333" lon="12.9289017"><ele>1029.0</ele><time>2026-04-08T16:02:04.818Z</time></trkpt><trkpt lat="41.8798683" lon="12.928915"><ele>1026.0</ele><time>2026-04-08T16:02:05.818Z</time></trkpt><trkpt lat="41.8797033" lon="12.928925"><ele>1026.0</ele><time>2026-04-08T16:02:06.82Z</time></trkpt><trkpt lat="41.8795383" lon="12.92893"><ele>1026.0</ele><time>2026-04-08T16:02:07.819Z</time></trkpt><trkpt lat="41.8793783" lon="12.9289367"><ele>1026.0</ele><time>2026-04-08T16:02:08.819Z</time></trkpt><trkpt lat="41.8792233" lon="12.9289467"><ele>1025.25</ele><time>2026-04-08T16:02:09.818Z</time></trkpt><trkpt lat="41.8790783" lon="12.928955"><ele>1024.5</ele><time>2026-04-08T16:02:10.818Z</time></trkpt><trkpt lat="41.8789417" lon="12.9289717"><ele>1023.75</ele><time>2026-04-08T16:02:11.819Z</time></trkpt><trkpt lat="41.878815" lon="12.92902"><ele>1023.0</ele><time>2026-04-08T16:02:12.819Z</time></trkpt><trkpt lat="41.8787" lon="12.9291133"><ele>1021.0</ele><time>2026-04-08T16:02:13.819Z</time></trkpt><trkpt lat="41.878595" lon="12.92924"><ele>1019.0</ele><time>2026-04-08T16:02:14.819Z</time></trkpt><trkpt lat="41.8784933" lon="12.9293933"><ele>1017.0</ele><time>2026-04-08T16:02:15.819Z</time></trkpt><trkpt lat="41.8783967" lon="12.9295583"><ele>1017.0</ele><time>2026-04-08T16:02:16.818Z</time></trkpt><trkpt lat="41.8782983" lon="12.92972"><ele>1017.0</ele><time>2026-04-08T16:02:17.819Z</time></trkpt><trkpt lat="41.8782017" lon="12.9298767"><ele>1017.0</ele><time>2026-04-08T16:02:18.819Z</time></trkpt><trkpt lat="41.8781083" lon="12.9300283"><ele>1016.25</ele><time>2026-04-08T16:02:19.819Z</time></trkpt><trkpt lat="41.878015" lon="12.9301767"><ele>1015.5</ele><time>2026-04-08T16:02:20.819Z</time></trkpt><trkpt lat="41.877925" lon="12.93032"><ele>1014.75</ele><time>2026-04-08T16:02:21.818Z</time></trkpt><trkpt lat="41.8778367" lon="12.9304483"><ele>1014.0</ele><time>2026-04-08T16:02:22.817Z</time></trkpt><trkpt lat="41.8777433" lon="12.930555"><ele>1014.0</ele><time>2026-04-08T16:02:23.819Z</time></trkpt><trkpt lat="41.8776433" lon="12.9306183"><ele>1014.0000000000001</ele><time>2026-04-08T16:02:24.819Z</time></trkpt><trkpt lat="41.8775417" lon="12.9306533"><ele>1014.0000000000001</ele><time>2026-04-08T16:02:25.819Z</time></trkpt><trkpt lat="41.8774383" lon="12.93067"><ele>1014.0</ele><time>2026-04-08T16:02:26.822Z</time></trkpt><trkpt lat="41.8773333" lon="12.9306783"><ele>1014.0</ele><time>2026-04-08T16:02:27.818Z</time></trkpt><trkpt lat="41.8772233" lon="12.9306867"><ele>1014.75</ele><time>2026-04-08T16:02:28.819Z</time></trkpt><trkpt lat="41.877105" lon="12.9307017"><ele>1015.5</ele><time>2026-04-08T16:02:29.818Z</time></trkpt><trkpt lat="41.87698" lon="12.9307167"><ele>1016.25</ele><time>2026-04-08T16:02:30.818Z</time></trkpt><trkpt lat="41.87685" lon="12.9307267"><ele>1017.0</ele><time>2026-04-08T16:02:31.819Z</time></trkpt><trkpt lat="41.8767167" lon="12.9307317"><ele>1017.75</ele><time>2026-04-08T16:02:32.817Z</time></trkpt><trkpt lat="41.8765817" lon="12.9307283"><ele>1018.5</ele><time>2026-04-08T16:02:33.818Z</time></trkpt><trkpt lat="41.8764517" lon="12.9307133"><ele>1019.25</ele><time>2026-04-08T16:02:34.818Z</time></trkpt><trkpt lat="41.8763183" lon="12.93068"><ele>1020.0</ele><time>2026-04-08T16:02:35.819Z</time></trkpt><trkpt lat="41.8761833" lon="12.9306367"><ele>1020.0</ele><time>2026-04-08T16:02:36.817Z</time></trkpt><trkpt lat="41.8760583" lon="12.9305867"><ele>1020.0</ele><time>2026-04-08T16:02:37.82Z</time></trkpt><trkpt lat="41.8759367" lon="12.930535"><ele>1020.0</ele><time>2026-04-08T16:02:38.819Z</time></trkpt><trkpt lat="41.8758167" lon="12.9304883"><ele>1020.0</ele><time>2026-04-08T16:02:39.817Z</time></trkpt><trkpt lat="41.87569" lon="12.9304417"><ele>1022.25</ele><time>2026-04-08T16:02:40.817Z</time></trkpt><trkpt lat="41.875565" lon="12.9304067"><ele>1024.5</ele><time>2026-04-08T16:02:41.819Z</time></trkpt><trkpt lat="41.8754417" lon="12.930395"><ele>1026.75</ele><time>2026-04-08T16:02:42.819Z</time></trkpt><trkpt lat="41.8753267" lon="12.9304"><ele>1029.0</ele><time>2026-04-08T16:02:43.819Z</time></trkpt><trkpt lat="41.8752133" lon="12.930415"><ele>1029.0</ele><time>2026-04-08T16:02:44.819Z</time></trkpt><trkpt lat="41.8751067" lon="12.9304317"><ele>1029.0</ele><time>2026-04-08T16:02:45.819Z</time></trkpt><trkpt lat="41.87501" lon="12.930445"><ele>1029.0</ele><time>2026-04-08T16:02:46.819Z</time></trkpt><trkpt lat="41.8749183" lon="12.9304567"><ele>1029.0</ele><time>2026-04-08T16:02:47.819Z</time></trkpt><trkpt lat="41.8748283" lon="12.9304667"><ele>1029.0</ele><time>2026-04-08T16:02:48.818Z</time></trkpt><trkpt lat="41.8747433" lon="12.9304817"><ele>1029.0</ele><time>2026-04-08T16:02:49.818Z</time></trkpt><trkpt lat="41.8746567" lon="12.9305"><ele>1029.0</ele><time>2026-04-08T16:02:50.818Z</time></trkpt><trkpt lat="41.8745717" lon="12.9305133"><ele>1029.0</ele><time>2026-04-08T16:02:51.818Z</time></trkpt><trkpt lat="41.8744933" lon="12.9305283"><ele>1029.0</ele><time>2026-04-08T16:02:52.818Z</time></trkpt><trkpt lat="41.8744217" lon="12.9305483"><ele>1029.0</ele><time>2026-04-08T16:02:53.819Z</time></trkpt><trkpt lat="41.874355" lon="12.9305633"><ele>1029.0</ele><time>2026-04-08T16:02:54.819Z</time></trkpt><trkpt lat="41.8742917" lon="12.930575"><ele>1028.4285714285713</ele><time>2026-04-08T16:02:55.819Z</time></trkpt><trkpt lat="41.8742283" lon="12.9305867"><ele>1027.857142857143</ele><time>2026-04-08T16:02:56.819Z</time></trkpt><trkpt lat="41.874165" lon="12.9306"><ele>1027.2857142857142</ele><time>2026-04-08T16:02:57.819Z</time></trkpt><trkpt lat="41.8740983" lon="12.9306167"><ele>1026.7142857142858</ele><time>2026-04-08T16:02:58.819Z</time></trkpt><trkpt lat="41.87403" lon="12.9306317"><ele>1026.142857142857</ele><time>2026-04-08T16:02:59.818Z</time></trkpt><trkpt lat="41.8739617" lon="12.93065"><ele>1025.5714285714284</ele><time>2026-04-08T16:03:00.818Z</time></trkpt><trkpt lat="41.8738883" lon="12.9306667"><ele>1025.0</ele><time>2026-04-08T16:03:01.82Z</time></trkpt><trkpt lat="41.8738083" lon="12.9306917"><ele>1025.0</ele><time>2026-04-08T16:03:02.819Z</time></trkpt><trkpt lat="41.8737267" lon="12.9307117"><ele>1025.0</ele><time>2026-04-08T16:03:03.822Z</time></trkpt><trkpt lat="41.8736433" lon="12.9307283"><ele>1025.0</ele><time>2026-04-08T16:03:04.818Z</time></trkpt><trkpt lat="41.87356" lon="12.9307467"><ele>1025.0</ele><time>2026-04-08T16:03:05.821Z</time></trkpt><trkpt lat="41.873475" lon="12.930765"><ele>1025.0</ele><time>2026-04-08T16:03:06.82Z</time></trkpt><trkpt lat="41.8733883" lon="12.9307833"><ele>1025.0</ele><time>2026-04-08T16:03:07.821Z</time></trkpt><trkpt lat="41.8733067" lon="12.930795"><ele>1024.5714285714284</ele><time>2026-04-08T16:03:08.822Z</time></trkpt><trkpt lat="41.8732233" lon="12.9308083"><ele>1024.142857142857</ele><time>2026-04-08T16:03:09.821Z</time></trkpt><trkpt lat="41.8731467" lon="12.930815"><ele>1023.7142857142857</ele><time>2026-04-08T16:03:10.822Z</time></trkpt><trkpt lat="41.87307" lon="12.9308267"><ele>1023.2857142857142</ele><time>2026-04-08T16:03:11.822Z</time></trkpt><trkpt lat="41.8729983" lon="12.9308367"><ele>1022.8571428571429</ele><time>2026-04-08T16:03:12.818Z</time></trkpt><trkpt lat="41.8729283" lon="12.930845"><ele>1022.4285714285714</ele><time>2026-04-08T16:03:13.822Z</time></trkpt><trkpt lat="41.8728633" lon="12.9308483"><ele>1022.0</ele><time>2026-04-08T16:03:14.821Z</time></trkpt><trkpt lat="41.8727467" lon="12.93086"><ele>1022.0</ele><time>2026-04-08T16:03:16.821Z</time></trkpt><trkpt lat="41.8726467" lon="12.9308817"><ele>1022.0</ele><time>2026-04-08T16:03:18.818Z</time></trkpt><trkpt lat="41.8725467" lon="12.9309133"><ele>1022.0</ele><time>2026-04-08T16:03:20.819Z</time></trkpt><trkpt lat="41.8724367" lon="12.9309417"><ele>1022.0</ele><time>2026-04-08T16:03:22.819Z</time></trkpt><trkpt lat="41.8723183" lon="12.9309633"><ele>1022.0</ele><time>2026-04-08T16:03:24.819Z</time></trkpt><trkpt lat="41.8722067" lon="12.93098"><ele>1022.3333333333334</ele><time>2026-04-08T16:03:26.818Z</time></trkpt><trkpt lat="41.8721133" lon="12.9309883"><ele>1022.6666666666667</ele><time>2026-04-08T16:03:28.818Z</time></trkpt><trkpt lat="41.872045" lon="12.9309833"><ele>1023.0</ele><time>2026-04-08T16:03:30.822Z</time></trkpt><trkpt lat="41.8719533" lon="12.9309633"><ele>1023.3333333333333</ele><time>2026-04-08T16:03:33.821Z</time></trkpt><trkpt lat="41.871865" lon="12.9309883"><ele>1023.6666666666666</ele><time>2026-04-08T16:03:36.821Z</time></trkpt><trkpt lat="41.87177" lon="12.9310417"><ele>1024.0</ele><time>2026-04-08T16:03:39.818Z</time></trkpt><trkpt lat="41.87168" lon="12.9310933"><ele>1023.9999999999999</ele><time>2026-04-08T16:03:41.821Z</time></trkpt><trkpt lat="41.8716183" lon="12.9311317"><ele>1024.0</ele><time>2026-04-08T16:03:42.821Z</time></trkpt><trkpt lat="41.87155" lon="12.9311717"><ele>1024.0</ele><time>2026-04-08T16:03:43.82Z</time></trkpt><trkpt lat="41.8714833" lon="12.9312167"><ele>1024.0</ele><time>2026-04-08T16:03:44.82Z</time></trkpt><trkpt lat="41.8714067" lon="12.9312667"><ele>1023.9999999999999</ele><time>2026-04-08T16:03:45.821Z</time></trkpt><trkpt lat="41.8713267" lon="12.9313217"><ele>1024.0</ele><time>2026-04-08T16:03:46.821Z</time></trkpt><trkpt lat="41.8712433" lon="12.931385"><ele>1024.0</ele><time>2026-04-08T16:03:47.823Z</time></trkpt><trkpt lat="41.8711633" lon="12.9314517"><ele>1024.0</ele><time>2026-04-08T16:03:48.818Z</time></trkpt><trkpt lat="41.8710867" lon="12.9315283"><ele>1024.0</ele><time>2026-04-08T16:03:49.821Z</time></trkpt><trkpt lat="41.8710133" lon="12.931615"><ele>1024.0</ele><time>2026-04-08T16:03:50.827Z</time></trkpt><trkpt lat="41.87094" lon="12.93171"><ele>1024.0</ele><time>2026-04-08T16:03:51.82Z</time></trkpt><trkpt lat="41.8708733" lon="12.93182"><ele>1021.4000000000001</ele><time>2026-04-08T16:03:52.821Z</time></trkpt><trkpt lat="41.870805" lon="12.93193"><ele>1018.8000000000001</ele><time>2026-04-08T16:03:53.82Z</time></trkpt><trkpt lat="41.870735" lon="12.93204"><ele>1016.1999999999999</ele><time>2026-04-08T16:03:54.82Z</time></trkpt><trkpt lat="41.8706683" lon="12.9321517"><ele>1013.5999999999999</ele><time>2026-04-08T16:03:55.821Z</time></trkpt><trkpt lat="41.8706017" lon="12.93227"><ele>1011.0</ele><time>2026-04-08T16:03:56.82Z</time></trkpt><trkpt lat="41.8705333" lon="12.932385"><ele>1011.0</ele><time>2026-04-08T16:03:57.821Z</time></trkpt><trkpt lat="41.870465" lon="12.9324967"><ele>1010.9999999999999</ele><time>2026-04-08T16:03:58.822Z</time></trkpt><trkpt lat="41.8704017" lon="12.932605"><ele>1010.9999999999999</ele><time>2026-04-08T16:03:59.822Z</time></trkpt><trkpt lat="41.8703483" lon="12.93272"><ele>1011.0</ele><time>2026-04-08T16:04:00.821Z</time></trkpt><trkpt lat="41.8703017" lon="12.93284"><ele>1011.0</ele><time>2026-04-08T16:04:01.822Z</time></trkpt><trkpt lat="41.8702617" lon="12.93296"><ele>1011.1999999999999</ele><time>2026-04-08T16:04:02.821Z</time></trkpt><trkpt lat="41.870235" lon="12.933085"><ele>1011.3999999999999</ele><time>2026-04-08T16:04:03.822Z</time></trkpt><trkpt lat="41.87023" lon="12.93321"><ele>1011.6</ele><time>2026-04-08T16:04:04.822Z</time></trkpt><trkpt lat="41.87025" lon="12.9333333"><ele>1011.8</ele><time>2026-04-08T16:04:05.822Z</time></trkpt><trkpt lat="41.8702733" lon="12.9334517"><ele>1012.0</ele><time>2026-04-08T16:04:06.822Z</time></trkpt><trkpt lat="41.8702983" lon="12.9335733"><ele>1011.9999999999999</ele><time>2026-04-08T16:04:07.822Z</time></trkpt><trkpt lat="41.8703133" lon="12.9336917"><ele>1012.0</ele><time>2026-04-08T16:04:08.821Z</time></trkpt><trkpt lat="41.8703033" lon="12.93381"><ele>1012.0</ele><time>2026-04-08T16:04:09.822Z</time></trkpt><trkpt lat="41.87027" lon="12.9339233"><ele>1012.0</ele><time>2026-04-08T16:04:10.821Z</time></trkpt><trkpt lat="41.8702133" lon="12.9340133"><ele>1011.9999999999999</ele><time>2026-04-08T16:04:11.821Z</time></trkpt><trkpt lat="41.8701483" lon="12.9340883"><ele>1012.0</ele><time>2026-04-08T16:04:12.822Z</time></trkpt><trkpt lat="41.8700867" lon="12.9341633"><ele>1005.3333333333333</ele><time>2026-04-08T16:04:13.821Z</time></trkpt><trkpt lat="41.870035" lon="12.934245"><ele>998.6666666666666</ele><time>2026-04-08T16:04:14.817Z</time></trkpt><trkpt lat="41.869995" lon="12.9343317"><ele>992.0</ele><time>2026-04-08T16:04:15.822Z</time></trkpt><trkpt lat="41.8699733" lon="12.9344333"><ele>985.3333333333333</ele><time>2026-04-08T16:04:16.818Z</time></trkpt><trkpt lat="41.86997" lon="12.934545"><ele>978.6666666666666</ele><time>2026-04-08T16:04:17.819Z</time></trkpt><trkpt lat="41.86997" lon="12.9346533"><ele>972.0</ele><time>2026-04-08T16:04:18.819Z</time></trkpt><trkpt lat="41.869975" lon="12.934765"><ele>972.0</ele><time>2026-04-08T16:04:19.819Z</time></trkpt><trkpt lat="41.8699867" lon="12.9348733"><ele>972.0</ele><time>2026-04-08T16:04:20.819Z</time></trkpt><trkpt lat="41.8700117" lon="12.934975"><ele>972.0</ele><time>2026-04-08T16:04:21.819Z</time></trkpt><trkpt lat="41.87005" lon="12.9350683"><ele>972.0</ele><time>2026-04-08T16:04:22.817Z</time></trkpt><trkpt lat="41.8700967" lon="12.9351533"><ele>972.0</ele><time>2026-04-08T16:04:23.819Z</time></trkpt><trkpt lat="41.8701483" lon="12.93523"><ele>972.0</ele><time>2026-04-08T16:04:24.819Z</time></trkpt><trkpt lat="41.870205" lon="12.9353033"><ele>976.1666666666666</ele><time>2026-04-08T16:04:25.818Z</time></trkpt><trkpt lat="41.8702567" lon="12.9353833"><ele>980.3333333333333</ele><time>2026-04-08T16:04:26.819Z</time></trkpt><trkpt lat="41.870295" lon="12.9354683"><ele>984.5</ele><time>2026-04-08T16:04:27.819Z</time></trkpt><trkpt lat="41.8703133" lon="12.935565"><ele>988.6666666666666</ele><time>2026-04-08T16:04:28.818Z</time></trkpt><trkpt lat="41.8703183" lon="12.935665"><ele>992.8333333333333</ele><time>2026-04-08T16:04:29.819Z</time></trkpt><trkpt lat="41.8703067" lon="12.935765"><ele>997.0</ele><time>2026-04-08T16:04:30.822Z</time></trkpt><trkpt lat="41.870285" lon="12.935865"><ele>996.4999999999999</ele><time>2026-04-08T16:04:31.822Z</time></trkpt><trkpt lat="41.8702617" lon="12.9359617"><ele>996.0</ele><time>2026-04-08T16:04:32.819Z</time></trkpt><trkpt lat="41.87023" lon="12.9360633"><ele>995.5</ele><time>2026-04-08T16:04:33.822Z</time></trkpt><trkpt lat="41.8702033" lon="12.9361683"><ele>995.0</ele><time>2026-04-08T16:04:34.818Z</time></trkpt><trkpt lat="41.8701767" lon="12.93628"><ele>994.4999999999999</ele><time>2026-04-08T16:04:35.821Z</time></trkpt><trkpt lat="41.870155" lon="12.936395"><ele>994.0</ele><time>2026-04-08T16:04:36.821Z</time></trkpt><trkpt lat="41.8701417" lon="12.9365133"><ele>993.9999999999999</ele><time>2026-04-08T16:04:37.82Z</time></trkpt><trkpt lat="41.8701483" lon="12.9366317"><ele>994.0</ele><time>2026-04-08T16:04:38.82Z</time></trkpt><trkpt lat="41.8701683" lon="12.9367483"><ele>994.0</ele><time>2026-04-08T16:04:39.82Z</time></trkpt><trkpt lat="41.8701883" lon="12.9368617"><ele>994.0</ele><time>2026-04-08T16:04:40.821Z</time></trkpt><trkpt lat="41.8702083" lon="12.9369717"><ele>993.9999999999999</ele><time>2026-04-08T16:04:41.821Z</time></trkpt><trkpt lat="41.8702267" lon="12.9370767"><ele>994.0</ele><time>2026-04-08T16:04:42.822Z</time></trkpt><trkpt lat="41.8702433" lon="12.93718"><ele>992.8333333333333</ele><time>2026-04-08T16:04:43.82Z</time></trkpt><trkpt lat="41.870265" lon="12.9372817"><ele>991.6666666666666</ele><time>2026-04-08T16:04:44.821Z</time></trkpt><trkpt lat="41.8702883" lon="12.9373833"><ele>990.5</ele><time>2026-04-08T16:04:45.822Z</time></trkpt><trkpt lat="41.8703017" lon="12.9374817"><ele>989.3333333333333</ele><time>2026-04-08T16:04:46.822Z</time></trkpt><trkpt lat="41.8703183" lon="12.9375767"><ele>988.1666666666666</ele><time>2026-04-08T16:04:47.819Z</time></trkpt><trkpt lat="41.870335" lon="12.937675"><ele>987.0</ele><time>2026-04-08T16:04:48.819Z</time></trkpt><trkpt lat="41.8703533" lon="12.93777"><ele>984.4000000000001</ele><time>2026-04-08T16:04:49.818Z</time></trkpt><trkpt lat="41.87037" lon="12.9378583"><ele>981.8000000000001</ele><time>2026-04-08T16:04:50.819Z</time></trkpt><trkpt lat="41.87039" lon="12.9379433"><ele>979.2</ele><time>2026-04-08T16:04:51.818Z</time></trkpt><trkpt lat="41.870405" lon="12.9380283"><ele>976.6</ele><time>2026-04-08T16:04:52.817Z</time></trkpt><trkpt lat="41.8704283" lon="12.9381933"><ele>974.0</ele><time>2026-04-08T16:04:54.819Z</time></trkpt><trkpt lat="41.8704533" lon="12.9383617"><ele>971.6666666666667</ele><time>2026-04-08T16:04:56.819Z</time></trkpt><trkpt lat="41.870465" lon="12.938445"><ele>969.3333333333334</ele><time>2026-04-08T16:04:57.819Z</time></trkpt><trkpt lat="41.8704833" lon="12.9386"><ele>967.0</ele><time>2026-04-08T16:04:59.819Z</time></trkpt><trkpt lat="41.870485" lon="12.938755"><ele>964.6666666666667</ele><time>2026-04-08T16:05:01.823Z</time></trkpt><trkpt lat="41.87047" lon="12.9388383"><ele>962.3333333333334</ele><time>2026-04-08T16:05:02.822Z</time></trkpt><trkpt lat="41.8704417" lon="12.9389267"><ele>960.0</ele><time>2026-04-08T16:05:03.819Z</time></trkpt><trkpt lat="41.8704033" lon="12.939015"><ele>960.0</ele><time>2026-04-08T16:05:04.818Z</time></trkpt><trkpt lat="41.8703417" lon="12.9390983"><ele>960.0</ele><time>2026-04-08T16:05:05.822Z</time></trkpt><trkpt lat="41.8702617" lon="12.9391667"><ele>960.0</ele><time>2026-04-08T16:05:06.822Z</time></trkpt><trkpt lat="41.8701667" lon="12.9392133"><ele>960.0</ele><time>2026-04-08T16:05:07.821Z</time></trkpt><trkpt lat="41.87006" lon="12.9392317"><ele>960.0</ele><time>2026-04-08T16:05:08.821Z</time></trkpt><trkpt lat="41.8699467" lon="12.9392133"><ele>957.25</ele><time>2026-04-08T16:05:09.82Z</time></trkpt><trkpt lat="41.8698233" lon="12.9391433"><ele>954.5</ele><time>2026-04-08T16:05:10.821Z</time></trkpt><trkpt lat="41.869695" lon="12.939055"><ele>951.75</ele><time>2026-04-08T16:05:11.821Z</time></trkpt><trkpt lat="41.8695683" lon="12.938955"><ele>949.0</ele><time>2026-04-08T16:05:12.822Z</time></trkpt><trkpt lat="41.8694433" lon="12.93886"><ele>949.0</ele><time>2026-04-08T16:05:13.822Z</time></trkpt><trkpt lat="41.8693117" lon="12.93877"><ele>949.0</ele><time>2026-04-08T16:05:14.821Z</time></trkpt><trkpt lat="41.8691783" lon="12.938675"><ele>949.0</ele><time>2026-04-08T16:05:15.817Z</time></trkpt><trkpt lat="41.869055" lon="12.9385833"><ele>949.0</ele><time>2026-04-08T16:05:16.821Z</time></trkpt><trkpt lat="41.86894" lon="12.9384933"><ele>948.0</ele><time>2026-04-08T16:05:17.818Z</time></trkpt><trkpt lat="41.8688283" lon="12.9384183"><ele>947.0</ele><time>2026-04-08T16:05:18.817Z</time></trkpt><trkpt lat="41.86871" lon="12.938375"><ele>946.0</ele><time>2026-04-08T16:05:19.818Z</time></trkpt><trkpt lat="41.8685917" lon="12.9383733"><ele>945.0</ele><time>2026-04-08T16:05:20.818Z</time></trkpt><trkpt lat="41.86848" lon="12.9384117"><ele>944.8</ele><time>2026-04-08T16:05:21.818Z</time></trkpt><trkpt lat="41.86838" lon="12.9384933"><ele>944.6</ele><time>2026-04-08T16:05:22.819Z</time></trkpt><trkpt lat="41.86831" lon="12.93859"><ele>944.4000000000001</ele><time>2026-04-08T16:05:23.817Z</time></trkpt><trkpt lat="41.86827" lon="12.938715"><ele>944.2</ele><time>2026-04-08T16:05:24.822Z</time></trkpt><trkpt lat="41.8682633" lon="12.9388483"><ele>944.0</ele><time>2026-04-08T16:05:25.82Z</time></trkpt><trkpt lat="41.8682717" lon="12.9389833"><ele>944.0</ele><time>2026-04-08T16:05:26.82Z</time></trkpt><trkpt lat="41.8682683" lon="12.93912"><ele>944.0000000000001</ele><time>2026-04-08T16:05:27.821Z</time></trkpt><trkpt lat="41.8682417" lon="12.93926"><ele>944.0000000000001</ele><time>2026-04-08T16:05:28.818Z</time></trkpt><trkpt lat="41.8682167" lon="12.9394"><ele>944.0</ele><time>2026-04-08T16:05:29.817Z</time></trkpt><trkpt lat="41.8681983" lon="12.9395383"><ele>944.0</ele><time>2026-04-08T16:05:30.819Z</time></trkpt><trkpt lat="41.8681917" lon="12.9396767"><ele>944.2</ele><time>2026-04-08T16:05:31.822Z</time></trkpt><trkpt lat="41.86821" lon="12.9398083"><ele>944.4000000000001</ele><time>2026-04-08T16:05:32.822Z</time></trkpt><trkpt lat="41.8682333" lon="12.9399367"><ele>944.6</ele><time>2026-04-08T16:05:33.822Z</time></trkpt><trkpt lat="41.8682483" lon="12.9400633"><ele>944.8</ele><time>2026-04-08T16:05:34.82Z</time></trkpt><trkpt lat="41.8682583" lon="12.94019"><ele>945.0</ele><time>2026-04-08T16:05:35.821Z</time></trkpt><trkpt lat="41.86825" lon="12.9403117"><ele>946.6</ele><time>2026-04-08T16:05:36.82Z</time></trkpt><trkpt lat="41.868225" lon="12.9404283"><ele>948.2</ele><time>2026-04-08T16:05:37.818Z</time></trkpt><trkpt lat="41.86817" lon="12.9405467"><ele>949.8</ele><time>2026-04-08T16:05:38.819Z</time></trkpt><trkpt lat="41.868095" lon="12.9406717"><ele>951.4</ele><time>2026-04-08T16:05:39.819Z</time></trkpt><trkpt lat="41.8680167" lon="12.9408"><ele>953.0</ele><time>2026-04-08T16:05:40.819Z</time></trkpt><trkpt lat="41.867945" lon="12.94093"><ele>954.0</ele><time>2026-04-08T16:05:41.819Z</time></trkpt><trkpt lat="41.8678833" lon="12.9410583"><ele>955.0</ele><time>2026-04-08T16:05:42.819Z</time></trkpt><trkpt lat="41.8678467" lon="12.941195"><ele>956.0</ele><time>2026-04-08T16:05:43.819Z</time></trkpt><trkpt lat="41.8678183" lon="12.9413333"><ele>957.0</ele><time>2026-04-08T16:05:44.821Z</time></trkpt><trkpt lat="41.8678017" lon="12.9414767"><ele>958.0</ele><time>2026-04-08T16:05:45.818Z</time></trkpt><trkpt lat="41.8677867" lon="12.9416233"><ele>956.4</ele><time>2026-04-08T16:05:46.821Z</time></trkpt><trkpt lat="41.8677567" lon="12.9417667"><ele>954.8</ele><time>2026-04-08T16:05:47.818Z</time></trkpt><trkpt lat="41.8677183" lon="12.941895"><ele>953.2</ele><time>2026-04-08T16:05:48.818Z</time></trkpt><trkpt lat="41.8676567" lon="12.942005"><ele>951.6</ele><time>2026-04-08T16:05:49.818Z</time></trkpt><trkpt lat="41.8675733" lon="12.9421067"><ele>950.0</ele><time>2026-04-08T16:05:50.818Z</time></trkpt><trkpt lat="41.8674833" lon="12.9422083"><ele>951.5</ele><time>2026-04-08T16:05:51.818Z</time></trkpt><trkpt lat="41.8673867" lon="12.942315"><ele>953.0</ele><time>2026-04-08T16:05:52.818Z</time></trkpt><trkpt lat="41.8672883" lon="12.9424333"><ele>954.5</ele><time>2026-04-08T16:05:53.819Z</time></trkpt><trkpt lat="41.8671917" lon="12.94255"><ele>956.0</ele><time>2026-04-08T16:05:54.821Z</time></trkpt><trkpt lat="41.8670933" lon="12.9426567"><ele>956.0</ele><time>2026-04-08T16:05:55.82Z</time></trkpt><trkpt lat="41.8669967" lon="12.9427617"><ele>956.0</ele><time>2026-04-08T16:05:56.819Z</time></trkpt><trkpt lat="41.8669017" lon="12.942865"><ele>956.0</ele><time>2026-04-08T16:05:57.822Z</time></trkpt><trkpt lat="41.8668067" lon="12.94297"><ele>956.0</ele><time>2026-04-08T16:05:58.818Z</time></trkpt><trkpt lat="41.8667133" lon="12.9430717"><ele>955.0</ele><time>2026-04-08T16:05:59.817Z</time></trkpt><trkpt lat="41.86662" lon="12.9431767"><ele>954.0</ele><time>2026-04-08T16:06:00.822Z</time></trkpt><trkpt lat="41.8665283" lon="12.9432783"><ele>953.0</ele><time>2026-04-08T16:06:01.821Z</time></trkpt><trkpt lat="41.866435" lon="12.9433733"><ele>952.0</ele><time>2026-04-08T16:06:02.818Z</time></trkpt><trkpt lat="41.866335" lon="12.9434517"><ele>952.0</ele><time>2026-04-08T16:06:03.818Z</time></trkpt><trkpt lat="41.86624" lon="12.943525"><ele>952.0</ele><time>2026-04-08T16:06:04.822Z</time></trkpt><trkpt lat="41.866145" lon="12.9435917"><ele>952.0</ele><time>2026-04-08T16:06:05.822Z</time></trkpt><trkpt lat="41.8660483" lon="12.94366"><ele>952.0</ele><time>2026-04-08T16:06:06.818Z</time></trkpt><trkpt lat="41.8659567" lon="12.9437283"><ele>952.0</ele><time>2026-04-08T16:06:07.817Z</time></trkpt><trkpt lat="41.8658667" lon="12.9437917"><ele>947.2</ele><time>2026-04-08T16:06:08.818Z</time></trkpt><trkpt lat="41.8657817" lon="12.943855"><ele>942.4000000000001</ele><time>2026-04-08T16:06:09.818Z</time></trkpt><trkpt lat="41.8656967" lon="12.94392"><ele>937.5999999999999</ele><time>2026-04-08T16:06:10.82Z</time></trkpt><trkpt lat="41.86562" lon="12.9439883"><ele>932.8</ele><time>2026-04-08T16:06:11.819Z</time></trkpt><trkpt lat="41.8655467" lon="12.9440717"><ele>928.0</ele><time>2026-04-08T16:06:12.818Z</time></trkpt><trkpt lat="41.8654833" lon="12.9441667"><ele>930.8</ele><time>2026-04-08T16:06:13.818Z</time></trkpt><trkpt lat="41.8654367" lon="12.9442733"><ele>933.5999999999999</ele><time>2026-04-08T16:06:14.819Z</time></trkpt><trkpt lat="41.8653983" lon="12.9443833"><ele>936.4000000000001</ele><time>2026-04-08T16:06:15.818Z</time></trkpt><trkpt lat="41.8653633" lon="12.9444983"><ele>939.2</ele><time>2026-04-08T16:06:16.817Z</time></trkpt><trkpt lat="41.8653283" lon="12.94462"><ele>942.0</ele><time>2026-04-08T16:06:17.821Z</time></trkpt><trkpt lat="41.86528" lon="12.9447367"><ele>942.0</ele><time>2026-04-08T16:06:18.818Z</time></trkpt><trkpt lat="41.8652283" lon="12.944845"><ele>942.0</ele><time>2026-04-08T16:06:19.819Z</time></trkpt><trkpt lat="41.8651633" lon="12.944945"><ele>942.0</ele><time>2026-04-08T16:06:20.818Z</time></trkpt><trkpt lat="41.8650883" lon="12.9450383"><ele>942.0</ele><time>2026-04-08T16:06:21.819Z</time></trkpt><trkpt lat="41.8650117" lon="12.945125"><ele>942.0</ele><time>2026-04-08T16:06:22.819Z</time></trkpt><trkpt lat="41.864935" lon="12.9452167"><ele>939.4000000000001</ele><time>2026-04-08T16:06:23.82Z</time></trkpt><trkpt lat="41.8648583" lon="12.9453067"><ele>936.8000000000001</ele><time>2026-04-08T16:06:24.818Z</time></trkpt><trkpt lat="41.8647783" lon="12.945395"><ele>934.2</ele><time>2026-04-08T16:06:25.821Z</time></trkpt><trkpt lat="41.8646983" lon="12.9454867"><ele>931.6</ele><time>2026-04-08T16:06:26.821Z</time></trkpt><trkpt lat="41.8646233" lon="12.9455867"><ele>929.0</ele><time>2026-04-08T16:06:27.822Z</time></trkpt><trkpt lat="41.864555" lon="12.9456933"><ele>929.0</ele><time>2026-04-08T16:06:28.822Z</time></trkpt><trkpt lat="41.8644883" lon="12.945805"><ele>929.0000000000001</ele><time>2026-04-08T16:06:29.821Z</time></trkpt><trkpt lat="41.8644233" lon="12.94592"><ele>929.0000000000001</ele><time>2026-04-08T16:06:30.822Z</time></trkpt><trkpt lat="41.8643567" lon="12.946035"><ele>929.0</ele><time>2026-04-08T16:06:31.818Z</time></trkpt><trkpt lat="41.8642867" lon="12.9461467"><ele>929.0</ele><time>2026-04-08T16:06:32.821Z</time></trkpt><trkpt lat="41.8642183" lon="12.946255"><ele>927.4000000000001</ele><time>2026-04-08T16:06:33.821Z</time></trkpt><trkpt lat="41.8641517" lon="12.9463583"><ele>925.8000000000001</ele><time>2026-04-08T16:06:34.818Z</time></trkpt><trkpt lat="41.8640867" lon="12.94646"><ele>924.1999999999999</ele><time>2026-04-08T16:06:35.819Z</time></trkpt><trkpt lat="41.8640317" lon="12.9465667"><ele>922.5999999999999</ele><time>2026-04-08T16:06:36.817Z</time></trkpt><trkpt lat="41.8639883" lon="12.9466767"><ele>921.0</ele><time>2026-04-08T16:06:37.821Z</time></trkpt><trkpt lat="41.863955" lon="12.946795"><ele>921.0</ele><time>2026-04-08T16:06:38.82Z</time></trkpt><trkpt lat="41.8639383" lon="12.9469167"><ele>921.0</ele><time>2026-04-08T16:06:39.821Z</time></trkpt><trkpt lat="41.8639367" lon="12.9470367"><ele>921.0</ele><time>2026-04-08T16:06:40.822Z</time></trkpt><trkpt lat="41.8639383" lon="12.9471567"><ele>921.0</ele><time>2026-04-08T16:06:41.821Z</time></trkpt><trkpt lat="41.863945" lon="12.9472733"><ele>921.0</ele><time>2026-04-08T16:06:42.818Z</time></trkpt><trkpt lat="41.86395" lon="12.9473817"><ele>921.0</ele><time>2026-04-08T16:06:43.821Z</time></trkpt><trkpt lat="41.86395" lon="12.94748"><ele>920.857142857143</ele><time>2026-04-08T16:06:44.817Z</time></trkpt><trkpt lat="41.8639433" lon="12.9475783"><ele>920.7142857142858</ele><time>2026-04-08T16:06:45.82Z</time></trkpt><trkpt lat="41.8639267" lon="12.9476733"><ele>920.5714285714286</ele><time>2026-04-08T16:06:46.821Z</time></trkpt><trkpt lat="41.86391" lon="12.9477667"><ele>920.4285714285714</ele><time>2026-04-08T16:06:47.819Z</time></trkpt><trkpt lat="41.86389" lon="12.94786"><ele>920.2857142857142</ele><time>2026-04-08T16:06:48.818Z</time></trkpt><trkpt lat="41.8638617" lon="12.9479483"><ele>920.142857142857</ele><time>2026-04-08T16:06:49.818Z</time></trkpt><trkpt lat="41.863825" lon="12.9480317"><ele>919.9999999999999</ele><time>2026-04-08T16:06:50.822Z</time></trkpt><trkpt lat="41.8637833" lon="12.94811"><ele>919.9999999999999</ele><time>2026-04-08T16:06:51.821Z</time></trkpt><trkpt lat="41.8637417" lon="12.9481917"><ele>920.0</ele><time>2026-04-08T16:06:52.818Z</time></trkpt><trkpt lat="41.863695" lon="12.948275"><ele>919.9999999999999</ele><time>2026-04-08T16:06:53.818Z</time></trkpt><trkpt lat="41.8636517" lon="12.9483617"><ele>919.9999999999999</ele><time>2026-04-08T16:06:54.818Z</time></trkpt><trkpt lat="41.86361" lon="12.9484433"><ele>920.0</ele><time>2026-04-08T16:06:55.818Z</time></trkpt><trkpt lat="41.86357" lon="12.948525"><ele>919.9999999999999</ele><time>2026-04-08T16:06:56.818Z</time></trkpt><trkpt lat="41.8635333" lon="12.9486067"><ele>919.9999999999999</ele><time>2026-04-08T16:06:57.82Z</time></trkpt><trkpt lat="41.8635117" lon="12.948695"><ele>918.5714285714284</ele><time>2026-04-08T16:06:58.822Z</time></trkpt><trkpt lat="41.8635" lon="12.9487867"><ele>917.1428571428571</ele><time>2026-04-08T16:06:59.818Z</time></trkpt><trkpt lat="41.8635" lon="12.948885"><ele>915.7142857142857</ele><time>2026-04-08T16:07:00.817Z</time></trkpt><trkpt lat="41.8635033" lon="12.9489867"><ele>914.2857142857142</ele><time>2026-04-08T16:07:01.822Z</time></trkpt><trkpt lat="41.8635" lon="12.9490883"><ele>912.8571428571429</ele><time>2026-04-08T16:07:02.819Z</time></trkpt><trkpt lat="41.8635033" lon="12.949185"><ele>911.4285714285714</ele><time>2026-04-08T16:07:03.818Z</time></trkpt><trkpt lat="41.863505" lon="12.9492717"><ele>910.0</ele><time>2026-04-08T16:07:04.818Z</time></trkpt><trkpt lat="41.86351" lon="12.949425"><ele>907.0</ele><time>2026-04-08T16:07:06.819Z</time></trkpt><trkpt lat="41.8635017" lon="12.9495683"><ele>904.0</ele><time>2026-04-08T16:07:08.82Z</time></trkpt><trkpt lat="41.8634933" lon="12.94972"><ele>901.0</ele><time>2026-04-08T16:07:10.818Z</time></trkpt><trkpt lat="41.8634733" lon="12.9498767"><ele>898.0</ele><time>2026-04-08T16:07:12.819Z</time></trkpt><trkpt lat="41.863455" lon="12.9499583"><ele>895.0</ele><time>2026-04-08T16:07:13.818Z</time></trkpt><trkpt lat="41.8634333" lon="12.9500383"><ele>894.9999999999999</ele><time>2026-04-08T16:07:14.819Z</time></trkpt><trkpt lat="41.863405" lon="12.95012"><ele>895.0</ele><time>2026-04-08T16:07:15.819Z</time></trkpt><trkpt lat="41.863375" lon="12.9501983"><ele>895.0</ele><time>2026-04-08T16:07:16.818Z</time></trkpt><trkpt lat="41.8633467" lon="12.95028"><ele>895.0</ele><time>2026-04-08T16:07:17.821Z</time></trkpt><trkpt lat="41.863315" lon="12.9503583"><ele>894.9999999999999</ele><time>2026-04-08T16:07:18.821Z</time></trkpt><trkpt lat="41.8632617" lon="12.9505"><ele>895.0</ele><time>2026-04-08T16:07:20.821Z</time></trkpt><trkpt lat="41.863235" lon="12.9506467"><ele>894.9999999999999</ele><time>2026-04-08T16:07:22.817Z</time></trkpt><trkpt lat="41.8632233" lon="12.9507817"><ele>895.0</ele><time>2026-04-08T16:07:24.817Z</time></trkpt><trkpt lat="41.8632233" lon="12.95087"><ele>895.0</ele><time>2026-04-08T16:07:26.821Z</time></trkpt><trkpt lat="41.86324" lon="12.9509517"><ele>895.0</ele><time>2026-04-08T16:07:30.821Z</time></trkpt><trkpt lat="41.8631783" lon="12.9509783"><ele>894.9999999999999</ele><time>2026-04-08T16:07:34.819Z</time></trkpt><trkpt lat="41.8631433" lon="12.95089"><ele>895.0</ele><time>2026-04-08T16:07:37.821Z</time></trkpt><trkpt lat="41.8631583" lon="12.9507283"><ele>895.0</ele><time>2026-04-08T16:07:39.821Z</time></trkpt><trkpt lat="41.8631683" lon="12.9506383"><ele>895.0</ele><time>2026-04-08T16:07:40.821Z</time></trkpt><trkpt lat="41.863175" lon="12.9505533"><ele>895.0</ele><time>2026-04-08T16:07:41.82Z</time></trkpt><trkpt lat="41.8631817" lon="12.950465"><ele>895.0</ele><time>2026-04-08T16:07:42.822Z</time></trkpt><trkpt lat="41.863185" lon="12.9503683"><ele>895.0</ele><time>2026-04-08T16:07:43.824Z</time></trkpt><trkpt lat="41.86319" lon="12.9502633"><ele>895.0</ele><time>2026-04-08T16:07:44.821Z</time></trkpt><trkpt lat="41.8631983" lon="12.9501533"><ele>895.0</ele><time>2026-04-08T16:07:45.822Z</time></trkpt><trkpt lat="41.8632017" lon="12.9500433"><ele>895.0</ele><time>2026-04-08T16:07:46.819Z</time></trkpt><trkpt lat="41.8632167" lon="12.949925"><ele>895.0</ele><time>2026-04-08T16:07:47.821Z</time></trkpt><trkpt lat="41.863225" lon="12.9497967"><ele>895.0</ele><time>2026-04-08T16:07:48.821Z</time></trkpt><trkpt lat="41.8632333" lon="12.9496733"><ele>895.0</ele><time>2026-04-08T16:07:49.821Z</time></trkpt><trkpt lat="41.8632333" lon="12.9495433"><ele>895.0</ele><time>2026-04-08T16:07:50.818Z</time></trkpt><trkpt lat="41.8632333" lon="12.9494117"><ele>895.0</ele><time>2026-04-08T16:07:51.821Z</time></trkpt><trkpt lat="41.8632367" lon="12.9492733"><ele>895.0</ele><time>2026-04-08T16:07:52.822Z</time></trkpt><trkpt lat="41.8632383" lon="12.94914"><ele>895.0</ele><time>2026-04-08T16:07:53.821Z</time></trkpt><trkpt lat="41.8632417" lon="12.9489983"><ele>895.0</ele><time>2026-04-08T16:07:54.817Z</time></trkpt><trkpt lat="41.8632483" lon="12.9488583"><ele>895.0</ele><time>2026-04-08T16:07:55.82Z</time></trkpt><trkpt lat="41.8632567" lon="12.9487267"><ele>894.6</ele><time>2026-04-08T16:07:56.823Z</time></trkpt><trkpt lat="41.8632667" lon="12.9485933"><ele>894.2</ele><time>2026-04-08T16:07:57.82Z</time></trkpt><trkpt lat="41.86328" lon="12.9484567"><ele>893.8</ele><time>2026-04-08T16:07:58.822Z</time></trkpt><trkpt lat="41.863305" lon="12.9483217"><ele>893.4</ele><time>2026-04-08T16:07:59.819Z</time></trkpt><trkpt lat="41.8633367" lon="12.9481883"><ele>893.0</ele><time>2026-04-08T16:08:00.821Z</time></trkpt><trkpt lat="41.86337" lon="12.9480617"><ele>892.8</ele><time>2026-04-08T16:08:01.818Z</time></trkpt><trkpt lat="41.863405" lon="12.947935"><ele>892.5999999999999</ele><time>2026-04-08T16:08:02.821Z</time></trkpt><trkpt lat="41.86344" lon="12.94781"><ele>892.4000000000001</ele><time>2026-04-08T16:08:03.818Z</time></trkpt><trkpt lat="41.863475" lon="12.9476833"><ele>892.2</ele><time>2026-04-08T16:08:04.82Z</time></trkpt><trkpt lat="41.8635133" lon="12.9475583"><ele>892.0</ele><time>2026-04-08T16:08:05.817Z</time></trkpt><trkpt lat="41.8635467" lon="12.9474267"><ele>897.8</ele><time>2026-04-08T16:08:06.817Z</time></trkpt><trkpt lat="41.86358" lon="12.9472967"><ele>903.6</ele><time>2026-04-08T16:08:07.819Z</time></trkpt><trkpt lat="41.8636117" lon="12.9471667"><ele>909.3999999999999</ele><time>2026-04-08T16:08:08.817Z</time></trkpt><trkpt lat="41.8636433" lon="12.947035"><ele>915.1999999999999</ele><time>2026-04-08T16:08:09.818Z</time></trkpt><trkpt lat="41.8636783" lon="12.9469067"><ele>921.0</ele><time>2026-04-08T16:08:10.818Z</time></trkpt><trkpt lat="41.8637183" lon="12.9467817"><ele>919.1999999999999</ele><time>2026-04-08T16:08:11.817Z</time></trkpt><trkpt lat="41.863755" lon="12.9466517"><ele>917.3999999999999</ele><time>2026-04-08T16:08:12.822Z</time></trkpt><trkpt lat="41.8637817" lon="12.9465167"><ele>915.6</ele><time>2026-04-08T16:08:13.822Z</time></trkpt><trkpt lat="41.8638083" lon="12.9463883"><ele>913.8</ele><time>2026-04-08T16:08:14.817Z</time></trkpt><trkpt lat="41.8638317" lon="12.946255"><ele>912.0</ele><time>2026-04-08T16:08:15.818Z</time></trkpt><trkpt lat="41.8638667" lon="12.94613"><ele>912.0</ele><time>2026-04-08T16:08:16.821Z</time></trkpt><trkpt lat="41.8639083" lon="12.94602"><ele>912.0</ele><time>2026-04-08T16:08:17.821Z</time></trkpt><trkpt lat="41.86395" lon="12.945915"><ele>912.0</ele><time>2026-04-08T16:08:18.821Z</time></trkpt><trkpt lat="41.8639933" lon="12.9458183"><ele>912.0</ele><time>2026-04-08T16:08:19.821Z</time></trkpt><trkpt lat="41.86403" lon="12.94572"><ele>912.0</ele><time>2026-04-08T16:08:20.821Z</time></trkpt><trkpt lat="41.8640783" lon="12.945625"><ele>912.0</ele><time>2026-04-08T16:08:21.822Z</time></trkpt><trkpt lat="41.8641333" lon="12.94553"><ele>911.6</ele><time>2026-04-08T16:08:22.818Z</time></trkpt><trkpt lat="41.8641967" lon="12.9454317"><ele>911.2</ele><time>2026-04-08T16:08:23.821Z</time></trkpt><trkpt lat="41.864265" lon="12.9453233"><ele>910.8</ele><time>2026-04-08T16:08:24.821Z</time></trkpt><trkpt lat="41.86434" lon="12.94522"><ele>910.4</ele><time>2026-04-08T16:08:25.821Z</time></trkpt><trkpt lat="41.8644117" lon="12.9451133"><ele>910.0</ele><time>2026-04-08T16:08:26.821Z</time></trkpt><trkpt lat="41.8644917" lon="12.9450083"><ele>910.0</ele><time>2026-04-08T16:08:27.82Z</time></trkpt><trkpt lat="41.864575" lon="12.944905"><ele>910.0</ele><time>2026-04-08T16:08:28.82Z</time></trkpt><trkpt lat="41.8646583" lon="12.9448033"><ele>910.0</ele><time>2026-04-08T16:08:29.821Z</time></trkpt><trkpt lat="41.8647483" lon="12.9446967"><ele>910.0</ele><time>2026-04-08T16:08:30.822Z</time></trkpt><trkpt lat="41.8648417" lon="12.944585"><ele>910.0</ele><time>2026-04-08T16:08:31.824Z</time></trkpt><trkpt lat="41.8649317" lon="12.9444617"><ele>910.0</ele><time>2026-04-08T16:08:32.821Z</time></trkpt><trkpt lat="41.8650067" lon="12.944325"><ele>910.0</ele><time>2026-04-08T16:08:33.82Z</time></trkpt><trkpt lat="41.8650683" lon="12.9441817"><ele>910.0</ele><time>2026-04-08T16:08:34.82Z</time></trkpt><trkpt lat="41.86512" lon="12.9440417"><ele>913.6</ele><time>2026-04-08T16:08:35.821Z</time></trkpt><trkpt lat="41.8651617" lon="12.9439033"><ele>917.2</ele><time>2026-04-08T16:08:36.821Z</time></trkpt><trkpt lat="41.865205" lon="12.9437817"><ele>920.8</ele><time>2026-04-08T16:08:37.82Z</time></trkpt><trkpt lat="41.86525" lon="12.9436817"><ele>924.4</ele><time>2026-04-08T16:08:38.821Z</time></trkpt><trkpt lat="41.8652983" lon="12.9435967"><ele>928.0</ele><time>2026-04-08T16:08:39.82Z</time></trkpt><trkpt lat="41.8653517" lon="12.9435267"><ele>928.0</ele><time>2026-04-08T16:08:40.818Z</time></trkpt><trkpt lat="41.8654117" lon="12.9434667"><ele>928.0</ele><time>2026-04-08T16:08:41.821Z</time></trkpt><trkpt lat="41.8654833" lon="12.943415"><ele>928.0</ele><time>2026-04-08T16:08:42.821Z</time></trkpt><trkpt lat="41.86557" lon="12.943365"><ele>928.0</ele><time>2026-04-08T16:08:43.82Z</time></trkpt><trkpt lat="41.865665" lon="12.9433167"><ele>928.0</ele><time>2026-04-08T16:08:44.821Z</time></trkpt><trkpt lat="41.8657583" lon="12.9432633"><ele>928.2</ele><time>2026-04-08T16:08:45.821Z</time></trkpt><trkpt lat="41.865845" lon="12.9432"><ele>928.4</ele><time>2026-04-08T16:08:46.821Z</time></trkpt><trkpt lat="41.865925" lon="12.9431167"><ele>928.6000000000001</ele><time>2026-04-08T16:08:47.821Z</time></trkpt><trkpt lat="41.8659917" lon="12.9430183"><ele>928.8000000000001</ele><time>2026-04-08T16:08:48.822Z</time></trkpt><trkpt lat="41.8660517" lon="12.94291"><ele>929.0</ele><time>2026-04-08T16:08:49.822Z</time></trkpt><trkpt lat="41.8661033" lon="12.9427933"><ele>929.0</ele><time>2026-04-08T16:08:50.823Z</time></trkpt><trkpt lat="41.8661467" lon="12.9426717"><ele>929.0000000000001</ele><time>2026-04-08T16:08:51.821Z</time></trkpt><trkpt lat="41.86618" lon="12.9425467"><ele>929.0000000000001</ele><time>2026-04-08T16:08:52.822Z</time></trkpt><trkpt lat="41.86621" lon="12.9424183"><ele>929.0</ele><time>2026-04-08T16:08:53.821Z</time></trkpt><trkpt lat="41.8662383" lon="12.942295"><ele>929.0</ele><time>2026-04-08T16:08:54.821Z</time></trkpt><trkpt lat="41.8662783" lon="12.942185"><ele>925.5000000000001</ele><time>2026-04-08T16:08:55.822Z</time></trkpt><trkpt lat="41.86632" lon="12.942085"><ele>922.0</ele><time>2026-04-08T16:08:56.821Z</time></trkpt><trkpt lat="41.8663717" lon="12.9420017"><ele>918.5</ele><time>2026-04-08T16:08:57.822Z</time></trkpt><trkpt lat="41.8664283" lon="12.9419317"><ele>915.0</ele><time>2026-04-08T16:08:58.821Z</time></trkpt><trkpt lat="41.8664967" lon="12.94187"><ele>911.5000000000001</ele><time>2026-04-08T16:08:59.822Z</time></trkpt><trkpt lat="41.8665717" lon="12.9418133"><ele>908.0</ele><time>2026-04-08T16:09:00.822Z</time></trkpt><trkpt lat="41.8666433" lon="12.9417533"><ele>910.0000000000001</ele><time>2026-04-08T16:09:01.821Z</time></trkpt><trkpt lat="41.866715" lon="12.9416883"><ele>912.0</ele><time>2026-04-08T16:09:02.822Z</time></trkpt><trkpt lat="41.8667817" lon="12.9416167"><ele>914.0</ele><time>2026-04-08T16:09:03.822Z</time></trkpt><trkpt lat="41.86684" lon="12.941525"><ele>916.0</ele><time>2026-04-08T16:09:04.821Z</time></trkpt><trkpt lat="41.866885" lon="12.9414183"><ele>918.0000000000001</ele><time>2026-04-08T16:09:05.822Z</time></trkpt><trkpt lat="41.8669117" lon="12.9412983"><ele>920.0</ele><time>2026-04-08T16:09:06.822Z</time></trkpt><trkpt lat="41.866925" lon="12.941175"><ele>920.0</ele><time>2026-04-08T16:09:07.822Z</time></trkpt><trkpt lat="41.8669367" lon="12.9410467"><ele>920.0</ele><time>2026-04-08T16:09:08.822Z</time></trkpt><trkpt lat="41.8669517" lon="12.94091"><ele>920.0</ele><time>2026-04-08T16:09:09.824Z</time></trkpt><trkpt lat="41.8669767" lon="12.9407783"><ele>920.0</ele><time>2026-04-08T16:09:10.821Z</time></trkpt><trkpt lat="41.867015" lon="12.9406583"><ele>920.0</ele><time>2026-04-08T16:09:11.821Z</time></trkpt><trkpt lat="41.8670567" lon="12.9405383"><ele>918.4</ele><time>2026-04-08T16:09:12.822Z</time></trkpt><trkpt lat="41.8671067" lon="12.94042"><ele>916.8</ele><time>2026-04-08T16:09:13.822Z</time></trkpt><trkpt lat="41.867155" lon="12.9402983"><ele>915.2</ele><time>2026-04-08T16:09:14.822Z</time></trkpt><trkpt lat="41.8672033" lon="12.9401767"><ele>913.6</ele><time>2026-04-08T16:09:15.822Z</time></trkpt><trkpt lat="41.8672583" lon="12.9400617"><ele>912.0</ele><time>2026-04-08T16:09:16.821Z</time></trkpt><trkpt lat="41.8673133" lon="12.939945"><ele>910.0</ele><time>2026-04-08T16:09:17.821Z</time></trkpt><trkpt lat="41.8673683" lon="12.93983"><ele>908.0</ele><time>2026-04-08T16:09:18.822Z</time></trkpt><trkpt lat="41.867415" lon="12.9397133"><ele>906.0</ele><time>2026-04-08T16:09:19.821Z</time></trkpt><trkpt lat="41.86744" lon="12.9395933"><ele>904.0</ele><time>2026-04-08T16:09:20.822Z</time></trkpt><trkpt lat="41.8674517" lon="12.9394767"><ele>902.0</ele><time>2026-04-08T16:09:21.818Z</time></trkpt><trkpt lat="41.8674433" lon="12.939355"><ele>902.0</ele><time>2026-04-08T16:09:22.822Z</time></trkpt><trkpt lat="41.867415" lon="12.939235"><ele>902.0</ele><time>2026-04-08T16:09:23.822Z</time></trkpt><trkpt lat="41.86738" lon="12.9391067"><ele>902.0</ele><time>2026-04-08T16:09:24.822Z</time></trkpt><trkpt lat="41.8673417" lon="12.9389767"><ele>902.0</ele><time>2026-04-08T16:09:25.822Z</time></trkpt><trkpt lat="41.8673033" lon="12.938845"><ele>902.0</ele><time>2026-04-08T16:09:26.822Z</time></trkpt><trkpt lat="41.8672667" lon="12.9387133"><ele>901.6</ele><time>2026-04-08T16:09:27.823Z</time></trkpt><trkpt lat="41.8672367" lon="12.9385867"><ele>901.2</ele><time>2026-04-08T16:09:28.822Z</time></trkpt><trkpt lat="41.8672167" lon="12.9384617"><ele>900.8</ele><time>2026-04-08T16:09:29.821Z</time></trkpt><trkpt lat="41.8672117" lon="12.938345"><ele>900.4</ele><time>2026-04-08T16:09:30.822Z</time></trkpt><trkpt lat="41.8672133" lon="12.93822"><ele>900.0</ele><time>2026-04-08T16:09:31.822Z</time></trkpt><trkpt lat="41.86722" lon="12.9380883"><ele>899.8</ele><time>2026-04-08T16:09:32.822Z</time></trkpt><trkpt lat="41.86723" lon="12.9379583"><ele>899.6</ele><time>2026-04-08T16:09:33.822Z</time></trkpt><trkpt lat="41.8672417" lon="12.9378267"><ele>899.4000000000001</ele><time>2026-04-08T16:09:34.819Z</time></trkpt><trkpt lat="41.86726" lon="12.9376967"><ele>899.2</ele><time>2026-04-08T16:09:35.822Z</time></trkpt><trkpt lat="41.8672833" lon="12.9375767"><ele>899.0</ele><time>2026-04-08T16:09:36.822Z</time></trkpt><trkpt lat="41.867305" lon="12.937465"><ele>900.5000000000001</ele><time>2026-04-08T16:09:37.822Z</time></trkpt><trkpt lat="41.8673433" lon="12.937365"><ele>902.0</ele><time>2026-04-08T16:09:38.82Z</time></trkpt><trkpt lat="41.8673817" lon="12.9372767"><ele>903.5</ele><time>2026-04-08T16:09:39.822Z</time></trkpt><trkpt lat="41.8674333" lon="12.9372017"><ele>905.0</ele><time>2026-04-08T16:09:40.818Z</time></trkpt><trkpt lat="41.8674933" lon="12.9371417"><ele>906.5000000000001</ele><time>2026-04-08T16:09:41.822Z</time></trkpt><trkpt lat="41.86758" lon="12.9371"><ele>908.0</ele><time>2026-04-08T16:09:42.822Z</time></trkpt><trkpt lat="41.8676733" lon="12.9370667"><ele>908.0000000000001</ele><time>2026-04-08T16:09:43.822Z</time></trkpt><trkpt lat="41.8677633" lon="12.9370383"><ele>908.0</ele><time>2026-04-08T16:09:44.822Z</time></trkpt><trkpt lat="41.8678467" lon="12.9370167"><ele>908.0</ele><time>2026-04-08T16:09:45.822Z</time></trkpt><trkpt lat="41.8679283" lon="12.936995"><ele>908.0</ele><time>2026-04-08T16:09:46.824Z</time></trkpt><trkpt lat="41.868015" lon="12.9369767"><ele>908.0000000000001</ele><time>2026-04-08T16:09:47.82Z</time></trkpt><trkpt lat="41.8681" lon="12.93695"><ele>908.0</ele><time>2026-04-08T16:09:48.819Z</time></trkpt><trkpt lat="41.8681833" lon="12.9369183"><ele>908.0</ele><time>2026-04-08T16:09:49.82Z</time></trkpt><trkpt lat="41.8682683" lon="12.93689"><ele>908.0</ele><time>2026-04-08T16:09:50.821Z</time></trkpt><trkpt lat="41.8683483" lon="12.936845"><ele>908.0</ele><time>2026-04-08T16:09:51.819Z</time></trkpt><trkpt lat="41.8684217" lon="12.9367883"><ele>908.0</ele><time>2026-04-08T16:09:52.818Z</time></trkpt><trkpt lat="41.8684783" lon="12.9366883"><ele>908.0</ele><time>2026-04-08T16:09:53.818Z</time></trkpt><trkpt lat="41.8685133" lon="12.93656"><ele>909.5999999999999</ele><time>2026-04-08T16:09:54.823Z</time></trkpt><trkpt lat="41.868545" lon="12.93644"><ele>911.1999999999999</ele><time>2026-04-08T16:09:55.821Z</time></trkpt><trkpt lat="41.8685567" lon="12.93631"><ele>912.8</ele><time>2026-04-08T16:09:56.823Z</time></trkpt><trkpt lat="41.8685717" lon="12.93619"><ele>914.4</ele><time>2026-04-08T16:09:57.823Z</time></trkpt><trkpt lat="41.8685783" lon="12.9360583"><ele>916.0</ele><time>2026-04-08T16:09:58.822Z</time></trkpt><trkpt lat="41.868575" lon="12.9359183"><ele>916.5</ele><time>2026-04-08T16:09:59.822Z</time></trkpt><trkpt lat="41.8685633" lon="12.9357683"><ele>917.0</ele><time>2026-04-08T16:10:00.821Z</time></trkpt><trkpt lat="41.8685367" lon="12.9356133"><ele>917.5</ele><time>2026-04-08T16:10:01.822Z</time></trkpt><trkpt lat="41.8685033" lon="12.9354617"><ele>918.0</ele><time>2026-04-08T16:10:02.822Z</time></trkpt><trkpt lat="41.8684617" lon="12.93532"><ele>910.8</ele><time>2026-04-08T16:10:03.822Z</time></trkpt><trkpt lat="41.868415" lon="12.935185"><ele>903.5999999999999</ele><time>2026-04-08T16:10:04.822Z</time></trkpt><trkpt lat="41.8683683" lon="12.93504"><ele>896.4000000000001</ele><time>2026-04-08T16:10:05.818Z</time></trkpt><trkpt lat="41.868325" lon="12.934905"><ele>889.2</ele><time>2026-04-08T16:10:06.822Z</time></trkpt><trkpt lat="41.8682883" lon="12.9347667"><ele>882.0</ele><time>2026-04-08T16:10:07.821Z</time></trkpt><trkpt lat="41.8682483" lon="12.9346317"><ele>882.0</ele><time>2026-04-08T16:10:08.822Z</time></trkpt><trkpt lat="41.86821" lon="12.934505"><ele>882.0</ele><time>2026-04-08T16:10:09.822Z</time></trkpt><trkpt lat="41.86817" lon="12.934385"><ele>882.0</ele><time>2026-04-08T16:10:10.822Z</time></trkpt><trkpt lat="41.86813" lon="12.9342767"><ele>882.0</ele><time>2026-04-08T16:10:11.821Z</time></trkpt><trkpt lat="41.8680883" lon="12.934175"><ele>882.0</ele><time>2026-04-08T16:10:12.821Z</time></trkpt><trkpt lat="41.8680417" lon="12.9340833"><ele>884.2</ele><time>2026-04-08T16:10:13.821Z</time></trkpt><trkpt lat="41.8679917" lon="12.9340067"><ele>886.4000000000001</ele><time>2026-04-08T16:10:14.822Z</time></trkpt><trkpt lat="41.86795" lon="12.93393"><ele>888.5999999999999</ele><time>2026-04-08T16:10:15.822Z</time></trkpt><trkpt lat="41.867905" lon="12.9338683"><ele>890.8</ele><time>2026-04-08T16:10:16.821Z</time></trkpt><trkpt lat="41.8677883" lon="12.9338217"><ele>893.0</ele><time>2026-04-08T16:10:18.819Z</time></trkpt><trkpt lat="41.867645" lon="12.933875"><ele>890.1666666666667</ele><time>2026-04-08T16:10:20.819Z</time></trkpt><trkpt lat="41.867565" lon="12.9339217"><ele>887.3333333333334</ele><time>2026-04-08T16:10:21.82Z</time></trkpt><trkpt lat="41.867485" lon="12.9339733"><ele>884.5</ele><time>2026-04-08T16:10:22.819Z</time></trkpt><trkpt lat="41.8674033" lon="12.9339983"><ele>881.6666666666667</ele><time>2026-04-08T16:10:23.818Z</time></trkpt><trkpt lat="41.86732" lon="12.9340067"><ele>878.8333333333334</ele><time>2026-04-08T16:10:24.819Z</time></trkpt><trkpt lat="41.86724" lon="12.9339967"><ele>876.0</ele><time>2026-04-08T16:10:25.822Z</time></trkpt><trkpt lat="41.8671633" lon="12.9339517"><ele>876.0</ele><time>2026-04-08T16:10:26.822Z</time></trkpt><trkpt lat="41.8670933" lon="12.9338783"><ele>876.0</ele><time>2026-04-08T16:10:27.822Z</time></trkpt><trkpt lat="41.8670267" lon="12.9338"><ele>876.0</ele><time>2026-04-08T16:10:28.822Z</time></trkpt><trkpt lat="41.866955" lon="12.9337333"><ele>876.0</ele><time>2026-04-08T16:10:29.822Z</time></trkpt><trkpt lat="41.8668817" lon="12.9336883"><ele>876.0</ele><time>2026-04-08T16:10:30.823Z</time></trkpt><trkpt lat="41.8668033" lon="12.9336833"><ele>876.0</ele><time>2026-04-08T16:10:31.822Z</time></trkpt><trkpt lat="41.8667233" lon="12.9337083"><ele>874.6666666666666</ele><time>2026-04-08T16:10:32.822Z</time></trkpt><trkpt lat="41.8666433" lon="12.9337383"><ele>873.3333333333333</ele><time>2026-04-08T16:10:33.824Z</time></trkpt><trkpt lat="41.866565" lon="12.9337717"><ele>872.0</ele><time>2026-04-08T16:10:34.819Z</time></trkpt><trkpt lat="41.8664833" lon="12.9338083"><ele>870.6666666666666</ele><time>2026-04-08T16:10:35.821Z</time></trkpt><trkpt lat="41.866405" lon="12.9338283"><ele>869.3333333333333</ele><time>2026-04-08T16:10:36.822Z</time></trkpt><trkpt lat="41.8663267" lon="12.9338383"><ele>868.0</ele><time>2026-04-08T16:10:37.819Z</time></trkpt><trkpt lat="41.8662483" lon="12.9338283"><ele>868.0</ele><time>2026-04-08T16:10:38.82Z</time></trkpt><trkpt lat="41.8661667" lon="12.93379"><ele>868.0</ele><time>2026-04-08T16:10:39.82Z</time></trkpt><trkpt lat="41.86609" lon="12.933705"><ele>868.0</ele><time>2026-04-08T16:10:40.822Z</time></trkpt><trkpt lat="41.86602" lon="12.9335883"><ele>868.0</ele><time>2026-04-08T16:10:41.822Z</time></trkpt><trkpt lat="41.8659483" lon="12.9334567"><ele>868.0</ele><time>2026-04-08T16:10:42.822Z</time></trkpt><trkpt lat="41.865885" lon="12.9333183"><ele>870.0</ele><time>2026-04-08T16:10:43.821Z</time></trkpt><trkpt lat="41.8658167" lon="12.933175"><ele>872.0</ele><time>2026-04-08T16:10:44.822Z</time></trkpt><trkpt lat="41.8657433" lon="12.9330367"><ele>874.0</ele><time>2026-04-08T16:10:45.822Z</time></trkpt><trkpt lat="41.8656767" lon="12.9329033"><ele>876.0</ele><time>2026-04-08T16:10:46.822Z</time></trkpt><trkpt lat="41.8656167" lon="12.9327783"><ele>876.0</ele><time>2026-04-08T16:10:47.818Z</time></trkpt><trkpt lat="41.8655667" lon="12.9326567"><ele>875.9999999999999</ele><time>2026-04-08T16:10:48.821Z</time></trkpt><trkpt lat="41.86553" lon="12.932535"><ele>875.9999999999999</ele><time>2026-04-08T16:10:49.823Z</time></trkpt><trkpt lat="41.86551" lon="12.9324167"><ele>876.0</ele><time>2026-04-08T16:10:50.822Z</time></trkpt><trkpt lat="41.8655183" lon="12.9322967"><ele>876.0</ele><time>2026-04-08T16:10:51.821Z</time></trkpt><trkpt lat="41.86554" lon="12.93218"><ele>877.4</ele><time>2026-04-08T16:10:52.821Z</time></trkpt><trkpt lat="41.8655583" lon="12.9320567"><ele>878.8</ele><time>2026-04-08T16:10:53.823Z</time></trkpt><trkpt lat="41.86556" lon="12.9319317"><ele>880.1999999999999</ele><time>2026-04-08T16:10:54.823Z</time></trkpt><trkpt lat="41.865535" lon="12.9318033"><ele>881.5999999999999</ele><time>2026-04-08T16:10:55.822Z</time></trkpt><trkpt lat="41.86549" lon="12.93168"><ele>883.0</ele><time>2026-04-08T16:10:56.821Z</time></trkpt><trkpt lat="41.8654333" lon="12.93158"><ele>881.8333333333333</ele><time>2026-04-08T16:10:57.822Z</time></trkpt><trkpt lat="41.8653717" lon="12.9314983"><ele>880.6666666666666</ele><time>2026-04-08T16:10:58.821Z</time></trkpt><trkpt lat="41.8653083" lon="12.9314267"><ele>879.5</ele><time>2026-04-08T16:10:59.819Z</time></trkpt><trkpt lat="41.86524" lon="12.9313667"><ele>878.3333333333333</ele><time>2026-04-08T16:11:00.822Z</time></trkpt><trkpt lat="41.865155" lon="12.9313233"><ele>877.1666666666666</ele><time>2026-04-08T16:11:01.821Z</time></trkpt><trkpt lat="41.8650583" lon="12.9312883"><ele>876.0</ele><time>2026-04-08T16:11:02.822Z</time></trkpt><trkpt lat="41.8649567" lon="12.931255"><ele>876.0</ele><time>2026-04-08T16:11:03.819Z</time></trkpt><trkpt lat="41.8648517" lon="12.9312283"><ele>875.9999999999999</ele><time>2026-04-08T16:11:04.82Z</time></trkpt><trkpt lat="41.8647417" lon="12.9312083"><ele>875.9999999999999</ele><time>2026-04-08T16:11:05.821Z</time></trkpt><trkpt lat="41.8646283" lon="12.931205"><ele>876.0</ele><time>2026-04-08T16:11:06.822Z</time></trkpt><trkpt lat="41.864525" lon="12.931225"><ele>876.0</ele><time>2026-04-08T16:11:07.822Z</time></trkpt><trkpt lat="41.8644217" lon="12.93126"><ele>876.0</ele><time>2026-04-08T16:11:08.819Z</time></trkpt><trkpt lat="41.8643233" lon="12.9312983"><ele>875.9999999999999</ele><time>2026-04-08T16:11:09.822Z</time></trkpt><trkpt lat="41.8642233" lon="12.9313383"><ele>875.9999999999999</ele><time>2026-04-08T16:11:10.819Z</time></trkpt><trkpt lat="41.8641233" lon="12.931365"><ele>876.0</ele><time>2026-04-08T16:11:11.819Z</time></trkpt><trkpt lat="41.8640267" lon="12.931375"><ele>876.0</ele><time>2026-04-08T16:11:12.822Z</time></trkpt><trkpt lat="41.863925" lon="12.9313567"><ele>875.8</ele><time>2026-04-08T16:11:13.822Z</time></trkpt><trkpt lat="41.86382" lon="12.93132"><ele>875.5999999999999</ele><time>2026-04-08T16:11:14.822Z</time></trkpt><trkpt lat="41.8637133" lon="12.9312967"><ele>875.4</ele><time>2026-04-08T16:11:15.821Z</time></trkpt><trkpt lat="41.8636133" lon="12.9313"><ele>875.2</ele><time>2026-04-08T16:11:16.822Z</time></trkpt><trkpt lat="41.8635133" lon="12.9313317"><ele>875.0</ele><time>2026-04-08T16:11:17.819Z</time></trkpt><trkpt lat="41.8634183" lon="12.93137"><ele>875.0</ele><time>2026-04-08T16:11:18.819Z</time></trkpt><trkpt lat="41.8633267" lon="12.9314083"><ele>875.0</ele><time>2026-04-08T16:11:19.819Z</time></trkpt><trkpt lat="41.8632317" lon="12.9314333"><ele>875.0</ele><time>2026-04-08T16:11:20.819Z</time></trkpt><trkpt lat="41.8631417" lon="12.93144"><ele>875.0</ele><time>2026-04-08T16:11:21.819Z</time></trkpt><trkpt lat="41.8630533" lon="12.9314183"><ele>875.0</ele><time>2026-04-08T16:11:22.819Z</time></trkpt><trkpt lat="41.8629667" lon="12.93138"><ele>875.0</ele><time>2026-04-08T16:11:23.82Z</time></trkpt><trkpt lat="41.8628817" lon="12.9313283"><ele>875.0</ele><time>2026-04-08T16:11:24.822Z</time></trkpt><trkpt lat="41.86281" lon="12.9312583"><ele>875.0</ele><time>2026-04-08T16:11:25.821Z</time></trkpt><trkpt lat="41.8627483" lon="12.931175"><ele>875.0</ele><time>2026-04-08T16:11:26.822Z</time></trkpt><trkpt lat="41.8626933" lon="12.9310783"><ele>875.0</ele><time>2026-04-08T16:11:27.822Z</time></trkpt><trkpt lat="41.8626367" lon="12.930965"><ele>875.4</ele><time>2026-04-08T16:11:28.822Z</time></trkpt><trkpt lat="41.8625817" lon="12.9308517"><ele>875.8</ele><time>2026-04-08T16:11:29.822Z</time></trkpt><trkpt lat="41.862535" lon="12.93073"><ele>876.2</ele><time>2026-04-08T16:11:30.823Z</time></trkpt><trkpt lat="41.8625017" lon="12.9305883"><ele>876.6</ele><time>2026-04-08T16:11:31.825Z</time></trkpt><trkpt lat="41.8624817" lon="12.9304267"><ele>877.0</ele><time>2026-04-08T16:11:32.821Z</time></trkpt><trkpt lat="41.8624667" lon="12.9302533"><ele>877.0</ele><time>2026-04-08T16:11:33.821Z</time></trkpt><trkpt lat="41.8624417" lon="12.93007"><ele>877.0</ele><time>2026-04-08T16:11:34.823Z</time></trkpt><trkpt lat="41.8624217" lon="12.9298817"><ele>877.0</ele><time>2026-04-08T16:11:35.821Z</time></trkpt><trkpt lat="41.8623983" lon="12.9297033"><ele>877.0</ele><time>2026-04-08T16:11:36.822Z</time></trkpt><trkpt lat="41.86238" lon="12.92953"><ele>876.5</ele><time>2026-04-08T16:11:37.821Z</time></trkpt><trkpt lat="41.8623617" lon="12.9293583"><ele>876.0</ele><time>2026-04-08T16:11:38.821Z</time></trkpt><trkpt lat="41.862345" lon="12.9292"><ele>875.5</ele><time>2026-04-08T16:11:39.821Z</time></trkpt><trkpt lat="41.8623317" lon="12.9290483"><ele>875.0</ele><time>2026-04-08T16:11:40.821Z</time></trkpt><trkpt lat="41.862325" lon="12.928895"><ele>874.75</ele><time>2026-04-08T16:11:41.822Z</time></trkpt><trkpt lat="41.8623283" lon="12.92874"><ele>874.5</ele><time>2026-04-08T16:11:42.821Z</time></trkpt><trkpt lat="41.86234" lon="12.92858"><ele>874.25</ele><time>2026-04-08T16:11:43.822Z</time></trkpt><trkpt lat="41.862355" lon="12.9284217"><ele>874.0</ele><time>2026-04-08T16:11:44.822Z</time></trkpt><trkpt lat="41.8623833" lon="12.9282733"><ele>872.5</ele><time>2026-04-08T16:11:45.821Z</time></trkpt><trkpt lat="41.8624217" lon="12.9281267"><ele>871.0</ele><time>2026-04-08T16:11:46.821Z</time></trkpt><trkpt lat="41.862475" lon="12.927975"><ele>869.5</ele><time>2026-04-08T16:11:47.822Z</time></trkpt><trkpt lat="41.8625383" lon="12.927815"><ele>868.0</ele><time>2026-04-08T16:11:48.822Z</time></trkpt><trkpt lat="41.8626033" lon="12.9276617"><ele>869.0</ele><time>2026-04-08T16:11:49.821Z</time></trkpt><trkpt lat="41.8626667" lon="12.9275167"><ele>870.0</ele><time>2026-04-08T16:11:50.822Z</time></trkpt><trkpt lat="41.8627317" lon="12.927375"><ele>871.0</ele><time>2026-04-08T16:11:51.821Z</time></trkpt><trkpt lat="41.8627983" lon="12.92724"><ele>872.0</ele><time>2026-04-08T16:11:52.823Z</time></trkpt><trkpt lat="41.8628767" lon="12.9271167"><ele>872.0</ele><time>2026-04-08T16:11:53.82Z</time></trkpt><trkpt lat="41.8629583" lon="12.927005"><ele>872.0</ele><time>2026-04-08T16:11:54.821Z</time></trkpt><trkpt lat="41.8630417" lon="12.9269017"><ele>872.0</ele><time>2026-04-08T16:11:55.822Z</time></trkpt><trkpt lat="41.8631167" lon="12.9268033"><ele>872.0</ele><time>2026-04-08T16:11:56.823Z</time></trkpt><trkpt lat="41.8631817" lon="12.9267067"><ele>872.0</ele><time>2026-04-08T16:11:57.822Z</time></trkpt><trkpt lat="41.8632217" lon="12.9265983"><ele>870.8</ele><time>2026-04-08T16:11:58.819Z</time></trkpt><trkpt lat="41.8632383" lon="12.9264767"><ele>869.6</ele><time>2026-04-08T16:11:59.819Z</time></trkpt><trkpt lat="41.8632217" lon="12.9263467"><ele>868.3999999999999</ele><time>2026-04-08T16:12:00.819Z</time></trkpt><trkpt lat="41.863175" lon="12.9262217"><ele>867.1999999999999</ele><time>2026-04-08T16:12:01.822Z</time></trkpt><trkpt lat="41.8631167" lon="12.926095"><ele>866.0</ele><time>2026-04-08T16:12:02.821Z</time></trkpt><trkpt lat="41.8630667" lon="12.9259583"><ele>865.5</ele><time>2026-04-08T16:12:03.822Z</time></trkpt><trkpt lat="41.8630283" lon="12.92581"><ele>865.0</ele><time>2026-04-08T16:12:04.821Z</time></trkpt><trkpt lat="41.8630033" lon="12.9256533"><ele>864.5</ele><time>2026-04-08T16:12:05.821Z</time></trkpt><trkpt lat="41.8629833" lon="12.9254967"><ele>864.0</ele><time>2026-04-08T16:12:06.821Z</time></trkpt><trkpt lat="41.86297" lon="12.9253533"><ele>864.0</ele><time>2026-04-08T16:12:07.823Z</time></trkpt><trkpt lat="41.8629633" lon="12.9252217"><ele>864.0000000000001</ele><time>2026-04-08T16:12:08.822Z</time></trkpt><trkpt lat="41.8629733" lon="12.9250983"><ele>864.0000000000001</ele><time>2026-04-08T16:12:09.822Z</time></trkpt><trkpt lat="41.8630033" lon="12.924975"><ele>864.0</ele><time>2026-04-08T16:12:10.822Z</time></trkpt><trkpt lat="41.8630567" lon="12.9248517"><ele>864.0</ele><time>2026-04-08T16:12:11.822Z</time></trkpt><trkpt lat="41.86311" lon="12.9247183"><ele>863.25</ele><time>2026-04-08T16:12:12.822Z</time></trkpt><trkpt lat="41.86315" lon="12.92458"><ele>862.5</ele><time>2026-04-08T16:12:13.822Z</time></trkpt><trkpt lat="41.8631583" lon="12.9244267"><ele>861.75</ele><time>2026-04-08T16:12:14.822Z</time></trkpt><trkpt lat="41.86314" lon="12.924255"><ele>861.0</ele><time>2026-04-08T16:12:15.822Z</time></trkpt><trkpt lat="41.8631117" lon="12.9240783"><ele>860.25</ele><time>2026-04-08T16:12:16.822Z</time></trkpt><trkpt lat="41.8630883" lon="12.9239133"><ele>859.5</ele><time>2026-04-08T16:12:17.821Z</time></trkpt><trkpt lat="41.8630717" lon="12.9237567"><ele>858.75</ele><time>2026-04-08T16:12:18.822Z</time></trkpt><trkpt lat="41.8630617" lon="12.9236017"><ele>858.0</ele><time>2026-04-08T16:12:19.821Z</time></trkpt><trkpt lat="41.8630567" lon="12.923455"><ele>857.4</ele><time>2026-04-08T16:12:20.822Z</time></trkpt><trkpt lat="41.8630533" lon="12.9233167"><ele>856.8</ele><time>2026-04-08T16:12:21.818Z</time></trkpt><trkpt lat="41.8630533" lon="12.92319"><ele>856.2</ele><time>2026-04-08T16:12:22.818Z</time></trkpt><trkpt lat="41.8630633" lon="12.9230683"><ele>855.6</ele><time>2026-04-08T16:12:23.822Z</time></trkpt><trkpt lat="41.8630867" lon="12.922955"><ele>855.0</ele><time>2026-04-08T16:12:24.822Z</time></trkpt><trkpt lat="41.8631233" lon="12.9228433"><ele>855.0</ele><time>2026-04-08T16:12:25.82Z</time></trkpt><trkpt lat="41.8631883" lon="12.9227233"><ele>855.0</ele><time>2026-04-08T16:12:26.822Z</time></trkpt><trkpt lat="41.863265" lon="12.9226033"><ele>855.0</ele><time>2026-04-08T16:12:27.821Z</time></trkpt><trkpt lat="41.8633267" lon="12.9224817"><ele>855.0</ele><time>2026-04-08T16:12:28.822Z</time></trkpt><trkpt lat="41.8633683" lon="12.9223583"><ele>855.0</ele><time>2026-04-08T16:12:29.822Z</time></trkpt><trkpt lat="41.8633633" lon="12.922225"><ele>853.8</ele><time>2026-04-08T16:12:30.822Z</time></trkpt><trkpt lat="41.863345" lon="12.92209"><ele>852.6</ele><time>2026-04-08T16:12:31.822Z</time></trkpt><trkpt lat="41.8633333" lon="12.9219567"><ele>851.4000000000001</ele><time>2026-04-08T16:12:32.822Z</time></trkpt><trkpt lat="41.863345" lon="12.9218083"><ele>850.2</ele><time>2026-04-08T16:12:33.821Z</time></trkpt><trkpt lat="41.8633783" lon="12.92165"><ele>849.0</ele><time>2026-04-08T16:12:34.822Z</time></trkpt><trkpt lat="41.8634117" lon="12.9214817"><ele>847.25</ele><time>2026-04-08T16:12:35.822Z</time></trkpt><trkpt lat="41.863435" lon="12.9213167"><ele>845.5</ele><time>2026-04-08T16:12:36.822Z</time></trkpt><trkpt lat="41.8634467" lon="12.921155"><ele>843.75</ele><time>2026-04-08T16:12:37.822Z</time></trkpt><trkpt lat="41.8634533" lon="12.9210083"><ele>842.0</ele><time>2026-04-08T16:12:38.822Z</time></trkpt><trkpt lat="41.86346" lon="12.9208683"><ele>847.8</ele><time>2026-04-08T16:12:39.822Z</time></trkpt><trkpt lat="41.8634683" lon="12.9207317"><ele>853.6</ele><time>2026-04-08T16:12:40.826Z</time></trkpt><trkpt lat="41.8634883" lon="12.9206"><ele>859.3999999999999</ele><time>2026-04-08T16:12:41.822Z</time></trkpt><trkpt lat="41.8635283" lon="12.9204717"><ele>865.1999999999999</ele><time>2026-04-08T16:12:42.818Z</time></trkpt><trkpt lat="41.8635867" lon="12.9203467"><ele>871.0</ele><time>2026-04-08T16:12:43.821Z</time></trkpt><trkpt lat="41.8636567" lon="12.9202167"><ele>871.0</ele><time>2026-04-08T16:12:44.82Z</time></trkpt><trkpt lat="41.8637383" lon="12.9200867"><ele>871.0</ele><time>2026-04-08T16:12:45.822Z</time></trkpt><trkpt lat="41.8638317" lon="12.9199567"><ele>871.0</ele><time>2026-04-08T16:12:46.822Z</time></trkpt><trkpt lat="41.8639283" lon="12.9198317"><ele>871.0</ele><time>2026-04-08T16:12:47.822Z</time></trkpt><trkpt lat="41.864025" lon="12.9197167"><ele>867.75</ele><time>2026-04-08T16:12:48.821Z</time></trkpt><trkpt lat="41.8641183" lon="12.9196033"><ele>864.5</ele><time>2026-04-08T16:12:49.822Z</time></trkpt><trkpt lat="41.8642167" lon="12.9194933"><ele>861.25</ele><time>2026-04-08T16:12:50.82Z</time></trkpt><trkpt lat="41.86432" lon="12.91938"><ele>858.0</ele><time>2026-04-08T16:12:51.821Z</time></trkpt><trkpt lat="41.86442" lon="12.9192617"><ele>852.0</ele><time>2026-04-08T16:12:52.821Z</time></trkpt><trkpt lat="41.8645167" lon="12.9191483"><ele>846.0</ele><time>2026-04-08T16:12:53.822Z</time></trkpt><trkpt lat="41.8646133" lon="12.9190433"><ele>840.0</ele><time>2026-04-08T16:12:54.818Z</time></trkpt><trkpt lat="41.8647133" lon="12.9189583"><ele>834.0</ele><time>2026-04-08T16:12:55.822Z</time></trkpt><trkpt lat="41.8648133" lon="12.9188983"><ele>834.0</ele><time>2026-04-08T16:12:56.822Z</time></trkpt><trkpt lat="41.8649217" lon="12.91886"><ele>834.0</ele><time>2026-04-08T16:12:57.822Z</time></trkpt><trkpt lat="41.86503" lon="12.9188333"><ele>834.0</ele><time>2026-04-08T16:12:58.82Z</time></trkpt><trkpt lat="41.8651333" lon="12.9188033"><ele>834.0</ele><time>2026-04-08T16:12:59.821Z</time></trkpt><trkpt lat="41.8652267" lon="12.9187533"><ele>834.0</ele><time>2026-04-08T16:13:00.82Z</time></trkpt><trkpt lat="41.865305" lon="12.918675"><ele>835.4000000000001</ele><time>2026-04-08T16:13:01.822Z</time></trkpt><trkpt lat="41.8653617" lon="12.9185633"><ele>836.8</ele><time>2026-04-08T16:13:02.822Z</time></trkpt><trkpt lat="41.8654" lon="12.9184267"><ele>838.2</ele><time>2026-04-08T16:13:03.822Z</time></trkpt><trkpt lat="41.8654367" lon="12.91828"><ele>839.5999999999999</ele><time>2026-04-08T16:13:04.823Z</time></trkpt><trkpt lat="41.8654833" lon="12.9181267"><ele>841.0</ele><time>2026-04-08T16:13:05.822Z</time></trkpt><trkpt lat="41.865545" lon="12.91797"><ele>841.0</ele><time>2026-04-08T16:13:06.822Z</time></trkpt><trkpt lat="41.8656183" lon="12.91782"><ele>841.0</ele><time>2026-04-08T16:13:07.822Z</time></trkpt><trkpt lat="41.8657017" lon="12.91767"><ele>841.0</ele><time>2026-04-08T16:13:08.821Z</time></trkpt><trkpt lat="41.8657917" lon="12.917525"><ele>841.0</ele><time>2026-04-08T16:13:09.821Z</time></trkpt><trkpt lat="41.8658817" lon="12.9173817"><ele>841.75</ele><time>2026-04-08T16:13:10.822Z</time></trkpt><trkpt lat="41.8659733" lon="12.91725"><ele>842.5</ele><time>2026-04-08T16:13:11.822Z</time></trkpt><trkpt lat="41.866065" lon="12.9171233"><ele>843.25</ele><time>2026-04-08T16:13:12.822Z</time></trkpt><trkpt lat="41.866155" lon="12.9170117"><ele>844.0</ele><time>2026-04-08T16:13:13.821Z</time></trkpt><trkpt lat="41.86624" lon="12.9169017"><ele>844.0</ele><time>2026-04-08T16:13:14.82Z</time></trkpt><trkpt lat="41.8663067" lon="12.9167833"><ele>844.0</ele><time>2026-04-08T16:13:15.822Z</time></trkpt><trkpt lat="41.8663517" lon="12.9166517"><ele>844.0</ele><time>2026-04-08T16:13:16.821Z</time></trkpt><trkpt lat="41.8663717" lon="12.9165133"><ele>844.0</ele><time>2026-04-08T16:13:17.819Z</time></trkpt><trkpt lat="41.8663783" lon="12.91638"><ele>844.0</ele><time>2026-04-08T16:13:18.818Z</time></trkpt><trkpt lat="41.866375" lon="12.916245"><ele>841.2</ele><time>2026-04-08T16:13:19.818Z</time></trkpt><trkpt lat="41.866365" lon="12.9161"><ele>838.4000000000001</ele><time>2026-04-08T16:13:20.819Z</time></trkpt><trkpt lat="41.8663617" lon="12.9159633"><ele>835.6</ele><time>2026-04-08T16:13:21.818Z</time></trkpt><trkpt lat="41.86637" lon="12.9158383"><ele>832.8</ele><time>2026-04-08T16:13:22.818Z</time></trkpt><trkpt lat="41.8664017" lon="12.9157333"><ele>830.0</ele><time>2026-04-08T16:13:23.819Z</time></trkpt><trkpt lat="41.8664567" lon="12.9156383"><ele>827.5</ele><time>2026-04-08T16:13:24.823Z</time></trkpt><trkpt lat="41.86655" lon="12.9155567"><ele>825.0</ele><time>2026-04-08T16:13:25.822Z</time></trkpt><trkpt lat="41.8666567" lon="12.9154683"><ele>822.5</ele><time>2026-04-08T16:13:26.821Z</time></trkpt><trkpt lat="41.8667533" lon="12.915355"><ele>820.0</ele><time>2026-04-08T16:13:27.821Z</time></trkpt><trkpt lat="41.8668333" lon="12.91522"><ele>821.0</ele><time>2026-04-08T16:13:28.821Z</time></trkpt><trkpt lat="41.8668933" lon="12.9150733"><ele>822.0</ele><time>2026-04-08T16:13:29.822Z</time></trkpt><trkpt lat="41.8669367" lon="12.9149283"><ele>823.0</ele><time>2026-04-08T16:13:30.822Z</time></trkpt><trkpt lat="41.8669717" lon="12.9147833"><ele>824.0</ele><time>2026-04-08T16:13:31.822Z</time></trkpt><trkpt lat="41.8670033" lon="12.914645"><ele>824.0</ele><time>2026-04-08T16:13:32.818Z</time></trkpt><trkpt lat="41.8670483" lon="12.91452"><ele>824.0</ele><time>2026-04-08T16:13:33.822Z</time></trkpt><trkpt lat="41.8671067" lon="12.914415"><ele>824.0</ele><time>2026-04-08T16:13:34.821Z</time></trkpt><trkpt lat="41.86718" lon="12.9143267"><ele>824.0</ele><time>2026-04-08T16:13:35.822Z</time></trkpt><trkpt lat="41.8672717" lon="12.91424"><ele>824.0</ele><time>2026-04-08T16:13:36.822Z</time></trkpt><trkpt lat="41.8673683" lon="12.91416"><ele>823.0</ele><time>2026-04-08T16:13:37.822Z</time></trkpt><trkpt lat="41.86747" lon="12.9140883"><ele>822.0</ele><time>2026-04-08T16:13:38.821Z</time></trkpt><trkpt lat="41.8675633" lon="12.914015"><ele>821.0</ele><time>2026-04-08T16:13:39.822Z</time></trkpt><trkpt lat="41.86765" lon="12.913935"><ele>820.0</ele><time>2026-04-08T16:13:40.822Z</time></trkpt><trkpt lat="41.867725" lon="12.9138433"><ele>819.0</ele><time>2026-04-08T16:13:41.822Z</time></trkpt><trkpt lat="41.8677883" lon="12.913745"><ele>819.0</ele><time>2026-04-08T16:13:42.822Z</time></trkpt><trkpt lat="41.8678383" lon="12.9136383"><ele>819.0</ele><time>2026-04-08T16:13:43.822Z</time></trkpt><trkpt lat="41.8678667" lon="12.913515"><ele>819.0</ele><time>2026-04-08T16:13:44.818Z</time></trkpt><trkpt lat="41.8678717" lon="12.91338"><ele>819.0</ele><time>2026-04-08T16:13:45.818Z</time></trkpt><trkpt lat="41.8678583" lon="12.9132483"><ele>819.0</ele><time>2026-04-08T16:13:46.822Z</time></trkpt><trkpt lat="41.8678283" lon="12.9131183"><ele>817.0</ele><time>2026-04-08T16:13:47.821Z</time></trkpt><trkpt lat="41.86778" lon="12.913"><ele>815.0</ele><time>2026-04-08T16:13:48.821Z</time></trkpt><trkpt lat="41.8677083" lon="12.9128983"><ele>813.0</ele><time>2026-04-08T16:13:49.822Z</time></trkpt><trkpt lat="41.8676217" lon="12.912825"><ele>811.0</ele><time>2026-04-08T16:13:50.818Z</time></trkpt><trkpt lat="41.86753" lon="12.91277"><ele>809.0</ele><time>2026-04-08T16:13:51.817Z</time></trkpt><trkpt lat="41.86744" lon="12.9127217"><ele>806.0</ele><time>2026-04-08T16:13:52.818Z</time></trkpt><trkpt lat="41.8673483" lon="12.9126733"><ele>803.0</ele><time>2026-04-08T16:13:53.822Z</time></trkpt><trkpt lat="41.8672683" lon="12.9126133"><ele>800.0</ele><time>2026-04-08T16:13:54.822Z</time></trkpt><trkpt lat="41.8672033" lon="12.91252"><ele>797.0</ele><time>2026-04-08T16:13:55.822Z</time></trkpt><trkpt lat="41.8671533" lon="12.9124083"><ele>794.0</ele><time>2026-04-08T16:13:56.822Z</time></trkpt><trkpt lat="41.8671083" lon="12.9122933"><ele>794.0</ele><time>2026-04-08T16:13:57.82Z</time></trkpt><trkpt lat="41.867055" lon="12.9121883"><ele>794.0</ele><time>2026-04-08T16:13:58.821Z</time></trkpt><trkpt lat="41.8669817" lon="12.9120983"><ele>794.0</ele><time>2026-04-08T16:13:59.821Z</time></trkpt><trkpt lat="41.8668883" lon="12.9120283"><ele>794.0</ele><time>2026-04-08T16:14:00.822Z</time></trkpt><trkpt lat="41.8667767" lon="12.9119633"><ele>794.0</ele><time>2026-04-08T16:14:01.822Z</time></trkpt><trkpt lat="41.8666667" lon="12.9118933"><ele>792.5</ele><time>2026-04-08T16:14:02.826Z</time></trkpt><trkpt lat="41.8665517" lon="12.911825"><ele>791.0</ele><time>2026-04-08T16:14:03.819Z</time></trkpt><trkpt lat="41.86644" lon="12.9117617"><ele>789.5</ele><time>2026-04-08T16:14:04.821Z</time></trkpt><trkpt lat="41.866335" lon="12.9116983"><ele>788.0</ele><time>2026-04-08T16:14:05.821Z</time></trkpt><trkpt lat="41.8662367" lon="12.9116317"><ele>788.0</ele><time>2026-04-08T16:14:06.821Z</time></trkpt><trkpt lat="41.86615" lon="12.9115483"><ele>788.0</ele><time>2026-04-08T16:14:07.821Z</time></trkpt><trkpt lat="41.86608" lon="12.9114417"><ele>788.0</ele><time>2026-04-08T16:14:08.821Z</time></trkpt><trkpt lat="41.8660183" lon="12.911315"><ele>788.0</ele><time>2026-04-08T16:14:09.822Z</time></trkpt><trkpt lat="41.8659683" lon="12.9111733"><ele>788.0</ele><time>2026-04-08T16:14:10.822Z</time></trkpt><trkpt lat="41.86592" lon="12.9110283"><ele>785.0</ele><time>2026-04-08T16:14:11.82Z</time></trkpt><trkpt lat="41.8658733" lon="12.91088"><ele>782.0</ele><time>2026-04-08T16:14:12.821Z</time></trkpt><trkpt lat="41.8658367" lon="12.9107367"><ele>779.0</ele><time>2026-04-08T16:14:13.822Z</time></trkpt><trkpt lat="41.8658167" lon="12.91059"><ele>776.0</ele><time>2026-04-08T16:14:14.822Z</time></trkpt><trkpt lat="41.8658067" lon="12.910445"><ele>776.0</ele><time>2026-04-08T16:14:15.82Z</time></trkpt><trkpt lat="41.8657983" lon="12.910305"><ele>776.0</ele><time>2026-04-08T16:14:16.821Z</time></trkpt><trkpt lat="41.8657833" lon="12.9101733"><ele>776.0</ele><time>2026-04-08T16:14:17.822Z</time></trkpt><trkpt lat="41.8657517" lon="12.9100583"><ele>776.0</ele><time>2026-04-08T16:14:18.824Z</time></trkpt><trkpt lat="41.8657" lon="12.9099667"><ele>776.0</ele><time>2026-04-08T16:14:19.823Z</time></trkpt><trkpt lat="41.8656317" lon="12.9098933"><ele>776.5999999999999</ele><time>2026-04-08T16:14:20.82Z</time></trkpt><trkpt lat="41.86555" lon="12.9098517"><ele>777.2</ele><time>2026-04-08T16:14:21.822Z</time></trkpt><trkpt lat="41.8654667" lon="12.9097967"><ele>777.8</ele><time>2026-04-08T16:14:22.831Z</time></trkpt><trkpt lat="41.8653967" lon="12.9097067"><ele>778.4000000000001</ele><time>2026-04-08T16:14:23.822Z</time></trkpt><trkpt lat="41.865335" lon="12.9095917"><ele>779.0</ele><time>2026-04-08T16:14:24.821Z</time></trkpt><trkpt lat="41.8652717" lon="12.9094667"><ele>779.0</ele><time>2026-04-08T16:14:25.822Z</time></trkpt><trkpt lat="41.86521" lon="12.9093333"><ele>779.0</ele><time>2026-04-08T16:14:26.822Z</time></trkpt><trkpt lat="41.865155" lon="12.9091967"><ele>779.0</ele><time>2026-04-08T16:14:27.821Z</time></trkpt><trkpt lat="41.8651067" lon="12.9090667"><ele>779.0</ele><time>2026-04-08T16:14:28.82Z</time></trkpt><trkpt lat="41.8650667" lon="12.908935"><ele>779.0</ele><time>2026-04-08T16:14:29.822Z</time></trkpt><trkpt lat="41.8650367" lon="12.9088033"><ele>779.75</ele><time>2026-04-08T16:14:30.821Z</time></trkpt><trkpt lat="41.8650317" lon="12.9086617"><ele>780.5</ele><time>2026-04-08T16:14:31.819Z</time></trkpt><trkpt lat="41.8650583" lon="12.9085183"><ele>781.25</ele><time>2026-04-08T16:14:32.821Z</time></trkpt><trkpt lat="41.8651" lon="12.9083667"><ele>782.0</ele><time>2026-04-08T16:14:33.821Z</time></trkpt><trkpt lat="41.8651483" lon="12.9082"><ele>782.0</ele><time>2026-04-08T16:14:34.822Z</time></trkpt><trkpt lat="41.8651917" lon="12.90803"><ele>782.0</ele><time>2026-04-08T16:14:35.821Z</time></trkpt><trkpt lat="41.86523" lon="12.90787"><ele>782.0</ele><time>2026-04-08T16:14:36.821Z</time></trkpt><trkpt lat="41.8652683" lon="12.907715"><ele>782.0</ele><time>2026-04-08T16:14:37.821Z</time></trkpt><trkpt lat="41.8653117" lon="12.9075667"><ele>778.8</ele><time>2026-04-08T16:14:38.822Z</time></trkpt><trkpt lat="41.865365" lon="12.9074317"><ele>775.6</ele><time>2026-04-08T16:14:39.82Z</time></trkpt><trkpt lat="41.8654267" lon="12.9073117"><ele>772.4</ele><time>2026-04-08T16:14:40.822Z</time></trkpt><trkpt lat="41.8654967" lon="12.9072133"><ele>769.1999999999999</ele><time>2026-04-08T16:14:41.822Z</time></trkpt><trkpt lat="41.8655567" lon="12.907125"><ele>766.0</ele><time>2026-04-08T16:14:42.822Z</time></trkpt><trkpt lat="41.865605" lon="12.9070383"><ele>766.0</ele><time>2026-04-08T16:14:43.822Z</time></trkpt><trkpt lat="41.8656267" lon="12.90695"><ele>766.0</ele><time>2026-04-08T16:14:44.822Z</time></trkpt><trkpt lat="41.8656017" lon="12.906865"><ele>766.0</ele><time>2026-04-08T16:14:45.822Z</time></trkpt><trkpt lat="41.86555" lon="12.9068033"><ele>766.0</ele><time>2026-04-08T16:14:46.822Z</time></trkpt><trkpt lat="41.865495" lon="12.9067617"><ele>766.0</ele><time>2026-04-08T16:14:47.822Z</time></trkpt><trkpt lat="41.86541" lon="12.9068017"><ele>766.0</ele><time>2026-04-08T16:14:48.822Z</time></trkpt><trkpt lat="41.86532" lon="12.9068767"><ele>766.0</ele><time>2026-04-08T16:14:49.819Z</time></trkpt><trkpt lat="41.8652183" lon="12.9070833"><ele>766.0</ele><time>2026-04-08T16:14:50.828Z</time></trkpt><trkpt lat="41.8651533" lon="12.9072583"><ele>766.0</ele><time>2026-04-08T16:14:51.818Z</time></trkpt><trkpt lat="41.8650817" lon="12.9074367"><ele>762.3333333333334</ele><time>2026-04-08T16:14:52.821Z</time></trkpt><trkpt lat="41.865005" lon="12.90764"><ele>758.6666666666666</ele><time>2026-04-08T16:14:53.82Z</time></trkpt><trkpt lat="41.8649133" lon="12.90787"><ele>755.0</ele><time>2026-04-08T16:14:54.821Z</time></trkpt><trkpt lat="41.86481" lon="12.9081167"><ele>755.0</ele><time>2026-04-08T16:14:55.821Z</time></trkpt><trkpt lat="41.8647117" lon="12.9083367"><ele>755.0</ele><time>2026-04-08T16:14:56.821Z</time></trkpt><trkpt lat="41.86462" lon="12.9085333"><ele>755.0</ele><time>2026-04-08T16:14:57.817Z</time></trkpt><trkpt lat="41.8645417" lon="12.9087017"><ele>756.0</ele><time>2026-04-08T16:14:58.818Z</time></trkpt><trkpt lat="41.86447" lon="12.9088483"><ele>757.0</ele><time>2026-04-08T16:14:59.822Z</time></trkpt><trkpt lat="41.8644033" lon="12.9089717"><ele>758.0</ele><time>2026-04-08T16:15:00.821Z</time></trkpt><trkpt lat="41.8643417" lon="12.909065"><ele>759.0</ele><time>2026-04-08T16:15:01.821Z</time></trkpt><trkpt lat="41.8642833" lon="12.9091367"><ele>760.0</ele><time>2026-04-08T16:15:02.819Z</time></trkpt><trkpt lat="41.8642117" lon="12.9091667"><ele>754.4</ele><time>2026-04-08T16:15:03.822Z</time></trkpt><trkpt lat="41.8641383" lon="12.9091117"><ele>748.8</ele><time>2026-04-08T16:15:04.822Z</time></trkpt><trkpt lat="41.86408" lon="12.90901"><ele>743.2</ele><time>2026-04-08T16:15:05.821Z</time></trkpt><trkpt lat="41.8640483" lon="12.90886"><ele>737.6</ele><time>2026-04-08T16:15:06.822Z</time></trkpt><trkpt lat="41.8640533" lon="12.908695"><ele>732.0</ele><time>2026-04-08T16:15:07.821Z</time></trkpt><trkpt lat="41.864095" lon="12.9085317"><ele>730.75</ele><time>2026-04-08T16:15:08.822Z</time></trkpt><trkpt lat="41.8641767" lon="12.9083783"><ele>729.5</ele><time>2026-04-08T16:15:09.822Z</time></trkpt><trkpt lat="41.864275" lon="12.9082317"><ele>728.25</ele><time>2026-04-08T16:15:10.821Z</time></trkpt><trkpt lat="41.8643667" lon="12.9080767"><ele>727.0</ele><time>2026-04-08T16:15:11.821Z</time></trkpt><trkpt lat="41.8644367" lon="12.9079"><ele>732.3333333333334</ele><time>2026-04-08T16:15:12.821Z</time></trkpt><trkpt lat="41.8644817" lon="12.9076983"><ele>737.6666666666666</ele><time>2026-04-08T16:15:13.822Z</time></trkpt><trkpt lat="41.8644983" lon="12.907465"><ele>743.0</ele><time>2026-04-08T16:15:14.822Z</time></trkpt><trkpt lat="41.8645" lon="12.907225"><ele>743.0</ele><time>2026-04-08T16:15:15.821Z</time></trkpt><trkpt lat="41.864515" lon="12.9069917"><ele>743.0</ele><time>2026-04-08T16:15:16.822Z</time></trkpt><trkpt lat="41.86456" lon="12.9067583"><ele>743.0</ele><time>2026-04-08T16:15:17.822Z</time></trkpt><trkpt lat="41.8646133" lon="12.9065317"><ele>739.3333333333333</ele><time>2026-04-08T16:15:18.818Z</time></trkpt><trkpt lat="41.8646517" lon="12.9063167"><ele>735.6666666666666</ele><time>2026-04-08T16:15:19.82Z</time></trkpt><trkpt lat="41.86466" lon="12.906115"><ele>732.0</ele><time>2026-04-08T16:15:20.819Z</time></trkpt><trkpt lat="41.864635" lon="12.905925"><ele>727.6666666666666</ele><time>2026-04-08T16:15:21.82Z</time></trkpt><trkpt lat="41.8645767" lon="12.905745"><ele>723.3333333333333</ele><time>2026-04-08T16:15:22.818Z</time></trkpt><trkpt lat="41.8644883" lon="12.9055767"><ele>719.0</ele><time>2026-04-08T16:15:23.819Z</time></trkpt><trkpt lat="41.864375" lon="12.9054217"><ele>714.3333333333333</ele><time>2026-04-08T16:15:24.818Z</time></trkpt><trkpt lat="41.8642517" lon="12.9052783"><ele>709.6666666666666</ele><time>2026-04-08T16:15:25.817Z</time></trkpt><trkpt lat="41.8641317" lon="12.9051417"><ele>705.0</ele><time>2026-04-08T16:15:26.817Z</time></trkpt><trkpt lat="41.8640117" lon="12.9050117"><ele>705.0</ele><time>2026-04-08T16:15:27.817Z</time></trkpt><trkpt lat="41.8638967" lon="12.9048867"><ele>705.0</ele><time>2026-04-08T16:15:28.818Z</time></trkpt><trkpt lat="41.8637833" lon="12.9047633"><ele>705.0</ele><time>2026-04-08T16:15:29.82Z</time></trkpt><trkpt lat="41.86367" lon="12.90465"><ele>705.0</ele><time>2026-04-08T16:15:30.821Z</time></trkpt><trkpt lat="41.86356" lon="12.904535"><ele>705.0</ele><time>2026-04-08T16:15:31.82Z</time></trkpt><trkpt lat="41.86345" lon="12.9044117"><ele>705.0</ele><time>2026-04-08T16:15:32.821Z</time></trkpt><trkpt lat="41.8633367" lon="12.90429"><ele>705.0</ele><time>2026-04-08T16:15:33.817Z</time></trkpt><trkpt lat="41.8632267" lon="12.9041683"><ele>705.0</ele><time>2026-04-08T16:15:34.82Z</time></trkpt><trkpt lat="41.8631233" lon="12.9040517"><ele>703.8333333333334</ele><time>2026-04-08T16:15:35.821Z</time></trkpt><trkpt lat="41.8630283" lon="12.9039483"><ele>702.6666666666666</ele><time>2026-04-08T16:15:36.822Z</time></trkpt><trkpt lat="41.8629533" lon="12.9038667"><ele>701.5</ele><time>2026-04-08T16:15:37.819Z</time></trkpt><trkpt lat="41.8628983" lon="12.903805"><ele>700.3333333333333</ele><time>2026-04-08T16:15:38.819Z</time></trkpt><trkpt lat="41.8628467" lon="12.9037317"><ele>699.1666666666666</ele><time>2026-04-08T16:15:40.82Z</time></trkpt><trkpt lat="41.862905" lon="12.9036567"><ele>698.0</ele><time>2026-04-08T16:15:44.823Z</time></trkpt><trkpt lat="41.86301" lon="12.9036283"><ele>697.9999999999999</ele><time>2026-04-08T16:15:46.818Z</time></trkpt><trkpt lat="41.863075" lon="12.90361"><ele>698.0</ele><time>2026-04-08T16:15:47.821Z</time></trkpt><trkpt lat="41.8631417" lon="12.9035883"><ele>698.0</ele><time>2026-04-08T16:15:48.818Z</time></trkpt><trkpt lat="41.8632133" lon="12.9035583"><ele>698.0</ele><time>2026-04-08T16:15:49.817Z</time></trkpt><trkpt lat="41.8632867" lon="12.9035217"><ele>698.0</ele><time>2026-04-08T16:15:50.819Z</time></trkpt><trkpt lat="41.8633583" lon="12.9034817"><ele>697.9999999999999</ele><time>2026-04-08T16:15:51.818Z</time></trkpt><trkpt lat="41.8634367" lon="12.90345"><ele>698.0</ele><time>2026-04-08T16:15:52.818Z</time></trkpt><trkpt lat="41.86352" lon="12.90342"><ele>695.2</ele><time>2026-04-08T16:15:53.819Z</time></trkpt><trkpt lat="41.8636083" lon="12.9033917"><ele>692.4</ele><time>2026-04-08T16:15:54.817Z</time></trkpt><trkpt lat="41.8636967" lon="12.9033633"><ele>689.6</ele><time>2026-04-08T16:15:55.818Z</time></trkpt><trkpt lat="41.8637783" lon="12.9033333"><ele>686.8000000000001</ele><time>2026-04-08T16:15:56.82Z</time></trkpt><trkpt lat="41.8638683" lon="12.9033033"><ele>684.0</ele><time>2026-04-08T16:15:57.818Z</time></trkpt><trkpt lat="41.8639583" lon="12.903275"><ele>684.0</ele><time>2026-04-08T16:15:58.818Z</time></trkpt><trkpt lat="41.8640517" lon="12.90324"><ele>684.0</ele><time>2026-04-08T16:15:59.817Z</time></trkpt><trkpt lat="41.86414" lon="12.9032017"><ele>684.0</ele><time>2026-04-08T16:16:00.821Z</time></trkpt><trkpt lat="41.864235" lon="12.9031533"><ele>684.0</ele><time>2026-04-08T16:16:01.822Z</time></trkpt><trkpt lat="41.8643267" lon="12.903095"><ele>684.0</ele><time>2026-04-08T16:16:02.821Z</time></trkpt><trkpt lat="41.8644167" lon="12.90304"><ele>679.0</ele><time>2026-04-08T16:16:03.818Z</time></trkpt><trkpt lat="41.86451" lon="12.902985"><ele>674.0</ele><time>2026-04-08T16:16:04.817Z</time></trkpt><trkpt lat="41.864605" lon="12.9029417"><ele>669.0</ele><time>2026-04-08T16:16:05.818Z</time></trkpt><trkpt lat="41.8647033" lon="12.9028933"><ele>664.0</ele><time>2026-04-08T16:16:06.818Z</time></trkpt><trkpt lat="41.8648067" lon="12.9028517"><ele>659.0</ele><time>2026-04-08T16:16:07.821Z</time></trkpt><trkpt lat="41.86491" lon="12.9028083"><ele>659.0</ele><time>2026-04-08T16:16:08.818Z</time></trkpt><trkpt lat="41.8650183" lon="12.90276"><ele>659.0</ele><time>2026-04-08T16:16:09.821Z</time></trkpt><trkpt lat="41.8651233" lon="12.9027117"><ele>659.0</ele><time>2026-04-08T16:16:10.821Z</time></trkpt><trkpt lat="41.8652233" lon="12.902665"><ele>659.0</ele><time>2026-04-08T16:16:11.821Z</time></trkpt><trkpt lat="41.865315" lon="12.9026233"><ele>659.0</ele><time>2026-04-08T16:16:12.821Z</time></trkpt><trkpt lat="41.8653983" lon="12.90258"><ele>655.0</ele><time>2026-04-08T16:16:13.823Z</time></trkpt><trkpt lat="41.865465" lon="12.9025383"><ele>651.0</ele><time>2026-04-08T16:16:14.821Z</time></trkpt><trkpt lat="41.865555" lon="12.90244"><ele>647.0</ele><time>2026-04-08T16:16:16.821Z</time></trkpt><trkpt lat="41.86559" lon="12.9022917"><ele>643.0</ele><time>2026-04-08T16:16:18.818Z</time></trkpt><trkpt lat="41.86552" lon="12.9021417"><ele>639.0</ele><time>2026-04-08T16:16:20.819Z</time></trkpt><trkpt lat="41.86547" lon="12.90207"><ele>639.0</ele><time>2026-04-08T16:16:21.818Z</time></trkpt><trkpt lat="41.8654133" lon="12.9019983"><ele>639.0</ele><time>2026-04-08T16:16:22.818Z</time></trkpt><trkpt lat="41.8653517" lon="12.9019233"><ele>639.0</ele><time>2026-04-08T16:16:23.819Z</time></trkpt><trkpt lat="41.8652833" lon="12.9018483"><ele>639.0</ele><time>2026-04-08T16:16:24.818Z</time></trkpt><trkpt lat="41.8652117" lon="12.9017783"><ele>639.0</ele><time>2026-04-08T16:16:25.818Z</time></trkpt><trkpt lat="41.8651367" lon="12.90171"><ele>639.0</ele><time>2026-04-08T16:16:26.818Z</time></trkpt><trkpt lat="41.86506" lon="12.9016433"><ele>640.3333333333334</ele><time>2026-04-08T16:16:27.818Z</time></trkpt><trkpt lat="41.86499" lon="12.901575"><ele>641.6666666666666</ele><time>2026-04-08T16:16:28.818Z</time></trkpt><trkpt lat="41.8649317" lon="12.9015083"><ele>643.0</ele><time>2026-04-08T16:16:29.822Z</time></trkpt><trkpt lat="41.8648867" lon="12.901435"><ele>644.3333333333333</ele><time>2026-04-08T16:16:30.821Z</time></trkpt><trkpt lat="41.8648567" lon="12.90136"><ele>645.6666666666666</ele><time>2026-04-08T16:16:31.822Z</time></trkpt><trkpt lat="41.8648367" lon="12.9011933"><ele>647.0</ele><time>2026-04-08T16:16:33.82Z</time></trkpt><trkpt lat="41.8648433" lon="12.901095"><ele>647.0</ele><time>2026-04-08T16:16:34.821Z</time></trkpt><trkpt lat="41.864865" lon="12.9010017"><ele>647.0</ele><time>2026-04-08T16:16:35.821Z</time></trkpt><trkpt lat="41.864895" lon="12.9009083"><ele>647.0</ele><time>2026-04-08T16:16:36.821Z</time></trkpt><trkpt lat="41.8649383" lon="12.9008217"><ele>647.0</ele><time>2026-04-08T16:16:37.82Z</time></trkpt><trkpt lat="41.8649917" lon="12.900735"><ele>647.0</ele><time>2026-04-08T16:16:38.821Z</time></trkpt><trkpt lat="41.8650617" lon="12.9006567"><ele>647.0</ele><time>2026-04-08T16:16:39.82Z</time></trkpt><trkpt lat="41.8651367" lon="12.9005817"><ele>639.6</ele><time>2026-04-08T16:16:40.82Z</time></trkpt><trkpt lat="41.8652117" lon="12.9005117"><ele>632.2</ele><time>2026-04-08T16:16:41.818Z</time></trkpt><trkpt lat="41.8652917" lon="12.9004317"><ele>624.8</ele><time>2026-04-08T16:16:42.82Z</time></trkpt><trkpt lat="41.86537" lon="12.9003517"><ele>617.4</ele><time>2026-04-08T16:16:43.818Z</time></trkpt><trkpt lat="41.86545" lon="12.90027"><ele>610.0</ele><time>2026-04-08T16:16:44.818Z</time></trkpt><trkpt lat="41.8655283" lon="12.9001867"><ele>610.0</ele><time>2026-04-08T16:16:45.821Z</time></trkpt><trkpt lat="41.86561" lon="12.9001067"><ele>610.0</ele><time>2026-04-08T16:16:46.818Z</time></trkpt><trkpt lat="41.8656883" lon="12.9000233"><ele>610.0</ele><time>2026-04-08T16:16:47.818Z</time></trkpt><trkpt lat="41.8657633" lon="12.899945"><ele>610.0</ele><time>2026-04-08T16:16:48.817Z</time></trkpt><trkpt lat="41.8658433" lon="12.8998883"><ele>610.0</ele><time>2026-04-08T16:16:49.817Z</time></trkpt><trkpt lat="41.8659217" lon="12.8998467"><ele>607.2</ele><time>2026-04-08T16:16:50.82Z</time></trkpt><trkpt lat="41.8660083" lon="12.8998267"><ele>604.4</ele><time>2026-04-08T16:16:51.818Z</time></trkpt><trkpt lat="41.8661067" lon="12.8998133"><ele>601.6</ele><time>2026-04-08T16:16:52.818Z</time></trkpt><trkpt lat="41.86621" lon="12.8997983"><ele>598.8</ele><time>2026-04-08T16:16:53.818Z</time></trkpt><trkpt lat="41.8663217" lon="12.8997733"><ele>596.0</ele><time>2026-04-08T16:16:54.817Z</time></trkpt><trkpt lat="41.8664333" lon="12.8997483"><ele>596.0</ele><time>2026-04-08T16:16:55.818Z</time></trkpt><trkpt lat="41.86655" lon="12.89972"><ele>596.0</ele><time>2026-04-08T16:16:56.818Z</time></trkpt><trkpt lat="41.8666683" lon="12.899695"><ele>596.0</ele><time>2026-04-08T16:16:57.818Z</time></trkpt><trkpt lat="41.8667867" lon="12.8996817"><ele>596.0</ele><time>2026-04-08T16:16:58.818Z</time></trkpt><trkpt lat="41.8669017" lon="12.899665"><ele>592.25</ele><time>2026-04-08T16:16:59.823Z</time></trkpt><trkpt lat="41.8670233" lon="12.8996517"><ele>588.5</ele><time>2026-04-08T16:17:00.821Z</time></trkpt><trkpt lat="41.8671417" lon="12.89963"><ele>584.75</ele><time>2026-04-08T16:17:01.821Z</time></trkpt><trkpt lat="41.867265" lon="12.8996"><ele>581.0</ele><time>2026-04-08T16:17:02.821Z</time></trkpt><trkpt lat="41.8673883" lon="12.8995683"><ele>581.0</ele><time>2026-04-08T16:17:03.82Z</time></trkpt><trkpt lat="41.8675067" lon="12.8995267"><ele>581.0</ele><time>2026-04-08T16:17:04.821Z</time></trkpt><trkpt lat="41.86763" lon="12.8994867"><ele>581.0</ele><time>2026-04-08T16:17:05.822Z</time></trkpt><trkpt lat="41.867745" lon="12.8994467"><ele>581.0</ele><time>2026-04-08T16:17:06.821Z</time></trkpt><trkpt lat="41.8678567" lon="12.89941"><ele>577.6</ele><time>2026-04-08T16:17:07.817Z</time></trkpt><trkpt lat="41.8679533" lon="12.89937"><ele>574.2</ele><time>2026-04-08T16:17:08.821Z</time></trkpt><trkpt lat="41.8680483" lon="12.8993517"><ele>570.8</ele><time>2026-04-08T16:17:09.818Z</time></trkpt><trkpt lat="41.868145" lon="12.8993383"><ele>567.4</ele><time>2026-04-08T16:17:10.818Z</time></trkpt><trkpt lat="41.8682417" lon="12.8993233"><ele>564.0</ele><time>2026-04-08T16:17:11.82Z</time></trkpt><trkpt lat="41.8683483" lon="12.8993033"><ele>564.0</ele><time>2026-04-08T16:17:12.818Z</time></trkpt><trkpt lat="41.8684517" lon="12.8992717"><ele>564.0</ele><time>2026-04-08T16:17:13.818Z</time></trkpt><trkpt lat="41.8685633" lon="12.8992267"><ele>564.0</ele><time>2026-04-08T16:17:14.82Z</time></trkpt><trkpt lat="41.8686783" lon="12.8991817"><ele>564.0</ele><time>2026-04-08T16:17:15.821Z</time></trkpt><trkpt lat="41.8687983" lon="12.89914"><ele>564.0</ele><time>2026-04-08T16:17:16.82Z</time></trkpt><trkpt lat="41.8689117" lon="12.8990883"><ele>564.0</ele><time>2026-04-08T16:17:17.821Z</time></trkpt><trkpt lat="41.8690233" lon="12.899045"><ele>564.0</ele><time>2026-04-08T16:17:18.817Z</time></trkpt><trkpt lat="41.8691317" lon="12.8990033"><ele>564.0</ele><time>2026-04-08T16:17:19.817Z</time></trkpt><trkpt lat="41.8692417" lon="12.898965"><ele>558.75</ele><time>2026-04-08T16:17:20.817Z</time></trkpt><trkpt lat="41.86935" lon="12.898935"><ele>553.5</ele><time>2026-04-08T16:17:21.818Z</time></trkpt><trkpt lat="41.8694633" lon="12.8989017"><ele>548.25</ele><time>2026-04-08T16:17:22.818Z</time></trkpt><trkpt lat="41.8695767" lon="12.898875"><ele>543.0</ele><time>2026-04-08T16:17:23.818Z</time></trkpt><trkpt lat="41.8696917" lon="12.8988467"><ele>543.0</ele><time>2026-04-08T16:17:24.821Z</time></trkpt><trkpt lat="41.8698033" lon="12.8988183"><ele>543.0</ele><time>2026-04-08T16:17:25.821Z</time></trkpt><trkpt lat="41.8699183" lon="12.8987883"><ele>543.0</ele><time>2026-04-08T16:17:26.821Z</time></trkpt><trkpt lat="41.8700333" lon="12.8987533"><ele>543.0</ele><time>2026-04-08T16:17:27.82Z</time></trkpt><trkpt lat="41.8701417" lon="12.89871"><ele>540.1999999999999</ele><time>2026-04-08T16:17:28.821Z</time></trkpt><trkpt lat="41.87025" lon="12.8986667"><ele>537.4</ele><time>2026-04-08T16:17:29.82Z</time></trkpt><trkpt lat="41.8703483" lon="12.8986333"><ele>534.5999999999999</ele><time>2026-04-08T16:17:30.82Z</time></trkpt><trkpt lat="41.8704367" lon="12.8986017"><ele>531.8</ele><time>2026-04-08T16:17:31.821Z</time></trkpt><trkpt lat="41.8705283" lon="12.8985683"><ele>529.0</ele><time>2026-04-08T16:17:32.821Z</time></trkpt><trkpt lat="41.87062" lon="12.8985283"><ele>529.0</ele><time>2026-04-08T16:17:33.821Z</time></trkpt><trkpt lat="41.8707133" lon="12.898485"><ele>529.0</ele><time>2026-04-08T16:17:34.822Z</time></trkpt><trkpt lat="41.8708033" lon="12.8984467"><ele>529.0</ele><time>2026-04-08T16:17:35.821Z</time></trkpt><trkpt lat="41.8708967" lon="12.8984217"><ele>529.0</ele><time>2026-04-08T16:17:36.821Z</time></trkpt><trkpt lat="41.87098" lon="12.89842"><ele>529.0</ele><time>2026-04-08T16:17:37.82Z</time></trkpt><trkpt lat="41.8710533" lon="12.8984333"><ele>529.0</ele><time>2026-04-08T16:17:38.828Z</time></trkpt><trkpt lat="41.8711183" lon="12.8984617"><ele>527.1428571428571</ele><time>2026-04-08T16:17:39.82Z</time></trkpt><trkpt lat="41.8711783" lon="12.8985017"><ele>525.2857142857142</ele><time>2026-04-08T16:17:40.821Z</time></trkpt><trkpt lat="41.87124" lon="12.8985367"><ele>523.4285714285713</ele><time>2026-04-08T16:17:41.821Z</time></trkpt><trkpt lat="41.87131" lon="12.8985683"><ele>521.5714285714286</ele><time>2026-04-08T16:17:42.821Z</time></trkpt><trkpt lat="41.8713833" lon="12.89859"><ele>519.7142857142857</ele><time>2026-04-08T16:17:43.821Z</time></trkpt><trkpt lat="41.8714617" lon="12.89861"><ele>517.8571428571428</ele><time>2026-04-08T16:17:44.82Z</time></trkpt><trkpt lat="41.8715467" lon="12.8986267"><ele>516.0</ele><time>2026-04-08T16:17:45.821Z</time></trkpt><trkpt lat="41.871635" lon="12.89865"><ele>516.0</ele><time>2026-04-08T16:17:46.821Z</time></trkpt><trkpt lat="41.871725" lon="12.8986517"><ele>516.0</ele><time>2026-04-08T16:17:47.819Z</time></trkpt><trkpt lat="41.8718217" lon="12.898645"><ele>516.0</ele><time>2026-04-08T16:17:48.819Z</time></trkpt><trkpt lat="41.8719183" lon="12.8986333"><ele>516.0</ele><time>2026-04-08T16:17:49.818Z</time></trkpt><trkpt lat="41.8720183" lon="12.8986217"><ele>516.0</ele><time>2026-04-08T16:17:50.819Z</time></trkpt><trkpt lat="41.8721183" lon="12.8986017"><ele>513.5</ele><time>2026-04-08T16:17:51.818Z</time></trkpt><trkpt lat="41.8722133" lon="12.898585"><ele>511.0</ele><time>2026-04-08T16:17:52.818Z</time></trkpt><trkpt lat="41.8723017" lon="12.8985667"><ele>508.5</ele><time>2026-04-08T16:17:53.819Z</time></trkpt><trkpt lat="41.8723833" lon="12.8985483"><ele>506.0</ele><time>2026-04-08T16:17:54.821Z</time></trkpt><trkpt lat="41.8724617" lon="12.8985383"><ele>503.5</ele><time>2026-04-08T16:17:55.821Z</time></trkpt><trkpt lat="41.87254" lon="12.8985417"><ele>501.0</ele><time>2026-04-08T16:17:56.821Z</time></trkpt><trkpt lat="41.8726183" lon="12.898555"><ele>498.0</ele><time>2026-04-08T16:17:57.822Z</time></trkpt><trkpt lat="41.8726967" lon="12.8985633"><ele>495.0</ele><time>2026-04-08T16:17:58.821Z</time></trkpt><trkpt lat="41.8727767" lon="12.8985617"><ele>492.0</ele><time>2026-04-08T16:17:59.821Z</time></trkpt><trkpt lat="41.8728583" lon="12.8985533"><ele>489.0</ele><time>2026-04-08T16:18:00.821Z</time></trkpt><trkpt lat="41.8729433" lon="12.89854"><ele>486.0</ele><time>2026-04-08T16:18:01.821Z</time></trkpt><trkpt lat="41.8730283" lon="12.8985333"><ele>483.0</ele><time>2026-04-08T16:18:02.821Z</time></trkpt><trkpt lat="41.8731167" lon="12.8985217"><ele>483.0</ele><time>2026-04-08T16:18:03.82Z</time></trkpt><trkpt lat="41.873205" lon="12.8985017"><ele>483.0</ele><time>2026-04-08T16:18:04.821Z</time></trkpt><trkpt lat="41.873285" lon="12.89847"><ele>483.0</ele><time>2026-04-08T16:18:05.821Z</time></trkpt><trkpt lat="41.8733633" lon="12.8984317"><ele>483.0</ele><time>2026-04-08T16:18:06.822Z</time></trkpt><trkpt lat="41.87345" lon="12.8983933"><ele>483.0</ele><time>2026-04-08T16:18:07.823Z</time></trkpt><trkpt lat="41.8735333" lon="12.8983533"><ele>483.0</ele><time>2026-04-08T16:18:08.821Z</time></trkpt><trkpt lat="41.87362" lon="12.8983183"><ele>483.6666666666667</ele><time>2026-04-08T16:18:09.82Z</time></trkpt><trkpt lat="41.873705" lon="12.8982883"><ele>484.33333333333337</ele><time>2026-04-08T16:18:10.821Z</time></trkpt><trkpt lat="41.87379" lon="12.8982783"><ele>485.0</ele><time>2026-04-08T16:18:11.822Z</time></trkpt><trkpt lat="41.873875" lon="12.8982867"><ele>485.6666666666667</ele><time>2026-04-08T16:18:12.822Z</time></trkpt><trkpt lat="41.8739567" lon="12.8983067"><ele>486.33333333333337</ele><time>2026-04-08T16:18:13.822Z</time></trkpt><trkpt lat="41.8740417" lon="12.8983283"><ele>487.0</ele><time>2026-04-08T16:18:14.822Z</time></trkpt><trkpt lat="41.87413" lon="12.8983367"><ele>487.00000000000006</ele><time>2026-04-08T16:18:15.822Z</time></trkpt><trkpt lat="41.874215" lon="12.8983333"><ele>487.0</ele><time>2026-04-08T16:18:16.822Z</time></trkpt><trkpt lat="41.874295" lon="12.8982967"><ele>487.0</ele><time>2026-04-08T16:18:17.822Z</time></trkpt><trkpt lat="41.8743733" lon="12.89825"><ele>487.0</ele><time>2026-04-08T16:18:18.822Z</time></trkpt><trkpt lat="41.874455" lon="12.898205"><ele>487.00000000000006</ele><time>2026-04-08T16:18:19.822Z</time></trkpt><trkpt lat="41.8745367" lon="12.89816"><ele>487.0</ele><time>2026-04-08T16:18:20.819Z</time></trkpt><trkpt lat="41.8746167" lon="12.8981117"><ele>483.6666666666667</ele><time>2026-04-08T16:18:21.822Z</time></trkpt><trkpt lat="41.874695" lon="12.898065"><ele>480.33333333333337</ele><time>2026-04-08T16:18:22.821Z</time></trkpt><trkpt lat="41.87478" lon="12.898025"><ele>477.0</ele><time>2026-04-08T16:18:23.822Z</time></trkpt><trkpt lat="41.8748583" lon="12.89798"><ele>473.66666666666663</ele><time>2026-04-08T16:18:24.824Z</time></trkpt><trkpt lat="41.8749333" lon="12.89794"><ele>470.3333333333333</ele><time>2026-04-08T16:18:25.822Z</time></trkpt><trkpt lat="41.87501" lon="12.897915"><ele>467.0</ele><time>2026-04-08T16:18:26.823Z</time></trkpt><trkpt lat="41.8750867" lon="12.8979083"><ele>464.8333333333333</ele><time>2026-04-08T16:18:27.821Z</time></trkpt><trkpt lat="41.87516" lon="12.8979217"><ele>462.66666666666663</ele><time>2026-04-08T16:18:28.821Z</time></trkpt><trkpt lat="41.8752267" lon="12.8979233"><ele>460.5</ele><time>2026-04-08T16:18:29.822Z</time></trkpt><trkpt lat="41.87529" lon="12.89792"><ele>458.33333333333337</ele><time>2026-04-08T16:18:30.821Z</time></trkpt><trkpt lat="41.87536" lon="12.8979"><ele>456.1666666666667</ele><time>2026-04-08T16:18:31.822Z</time></trkpt><trkpt lat="41.87544" lon="12.897875"><ele>454.0</ele><time>2026-04-08T16:18:32.823Z</time></trkpt><trkpt lat="41.8755283" lon="12.8978367"><ele>454.0</ele><time>2026-04-08T16:18:33.822Z</time></trkpt><trkpt lat="41.8756233" lon="12.89779"><ele>454.0</ele><time>2026-04-08T16:18:34.822Z</time></trkpt><trkpt lat="41.87572" lon="12.897745"><ele>454.0</ele><time>2026-04-08T16:18:35.822Z</time></trkpt><trkpt lat="41.8758217" lon="12.8977"><ele>454.0</ele><time>2026-04-08T16:18:36.822Z</time></trkpt><trkpt lat="41.875925" lon="12.8976467"><ele>454.0</ele><time>2026-04-08T16:18:37.822Z</time></trkpt><trkpt lat="41.8760267" lon="12.8975717"><ele>453.75</ele><time>2026-04-08T16:18:38.821Z</time></trkpt><trkpt lat="41.876135" lon="12.8974817"><ele>453.5</ele><time>2026-04-08T16:18:39.822Z</time></trkpt><trkpt lat="41.876245" lon="12.8973817"><ele>453.25</ele><time>2026-04-08T16:18:40.822Z</time></trkpt><trkpt lat="41.8763467" lon="12.8972867"><ele>453.0</ele><time>2026-04-08T16:18:41.822Z</time></trkpt><trkpt lat="41.876445" lon="12.8971967"><ele>453.0</ele><time>2026-04-08T16:18:42.821Z</time></trkpt><trkpt lat="41.87654" lon="12.8971133"><ele>452.99999999999994</ele><time>2026-04-08T16:18:43.822Z</time></trkpt><trkpt lat="41.8766283" lon="12.8970367"><ele>452.99999999999994</ele><time>2026-04-08T16:18:44.822Z</time></trkpt><trkpt lat="41.8767117" lon="12.896965"><ele>453.0</ele><time>2026-04-08T16:18:45.822Z</time></trkpt><trkpt lat="41.87679" lon="12.8968967"><ele>453.0</ele><time>2026-04-08T16:18:46.822Z</time></trkpt><trkpt lat="41.876865" lon="12.896835"><ele>453.0</ele><time>2026-04-08T16:18:47.822Z</time></trkpt><trkpt lat="41.8769467" lon="12.8967767"><ele>452.99999999999994</ele><time>2026-04-08T16:18:48.822Z</time></trkpt><trkpt lat="41.8770333" lon="12.8967167"><ele>452.99999999999994</ele><time>2026-04-08T16:18:49.822Z</time></trkpt><trkpt lat="41.8771267" lon="12.896655"><ele>453.0</ele><time>2026-04-08T16:18:50.821Z</time></trkpt><trkpt lat="41.8772333" lon="12.8965983"><ele>453.0</ele><time>2026-04-08T16:18:51.822Z</time></trkpt><trkpt lat="41.8773417" lon="12.89654"><ele>453.0</ele><time>2026-04-08T16:18:52.822Z</time></trkpt><trkpt lat="41.87745" lon="12.8964817"><ele>453.0</ele><time>2026-04-08T16:18:53.822Z</time></trkpt><trkpt lat="41.877555" lon="12.8964183"><ele>453.0</ele><time>2026-04-08T16:18:54.822Z</time></trkpt><trkpt lat="41.877655" lon="12.8963517"><ele>453.0</ele><time>2026-04-08T16:18:55.822Z</time></trkpt><trkpt lat="41.8777517" lon="12.8962867"><ele>450.59999999999997</ele><time>2026-04-08T16:18:56.822Z</time></trkpt><trkpt lat="41.877845" lon="12.8962267"><ele>448.19999999999993</ele><time>2026-04-08T16:18:57.822Z</time></trkpt><trkpt lat="41.8779383" lon="12.8961717"><ele>445.8</ele><time>2026-04-08T16:18:58.818Z</time></trkpt><trkpt lat="41.87803" lon="12.8961233"><ele>443.4</ele><time>2026-04-08T16:18:59.822Z</time></trkpt><trkpt lat="41.8781183" lon="12.8960817"><ele>441.0</ele><time>2026-04-08T16:19:00.822Z</time></trkpt><trkpt lat="41.878205" lon="12.8960467"><ele>441.0</ele><time>2026-04-08T16:19:01.819Z</time></trkpt><trkpt lat="41.87829" lon="12.896015"><ele>441.0</ele><time>2026-04-08T16:19:02.822Z</time></trkpt><trkpt lat="41.87837" lon="12.8959783"><ele>441.0</ele><time>2026-04-08T16:19:03.819Z</time></trkpt><trkpt lat="41.8784417" lon="12.8959417"><ele>441.0</ele><time>2026-04-08T16:19:04.82Z</time></trkpt><trkpt lat="41.8785083" lon="12.8959033"><ele>441.0</ele><time>2026-04-08T16:19:05.821Z</time></trkpt><trkpt lat="41.87857" lon="12.8958667"><ele>441.0</ele><time>2026-04-08T16:19:06.821Z</time></trkpt><trkpt lat="41.8786267" lon="12.8958283"><ele>441.1666666666667</ele><time>2026-04-08T16:19:07.822Z</time></trkpt><trkpt lat="41.878685" lon="12.8957883"><ele>441.33333333333337</ele><time>2026-04-08T16:19:08.824Z</time></trkpt><trkpt lat="41.8787517" lon="12.895745"><ele>441.5</ele><time>2026-04-08T16:19:09.821Z</time></trkpt><trkpt lat="41.8788233" lon="12.8957033"><ele>441.6666666666667</ele><time>2026-04-08T16:19:10.822Z</time></trkpt><trkpt lat="41.8788967" lon="12.8956683"><ele>441.83333333333337</ele><time>2026-04-08T16:19:11.821Z</time></trkpt><trkpt lat="41.8789733" lon="12.89563"><ele>442.0</ele><time>2026-04-08T16:19:12.822Z</time></trkpt><trkpt lat="41.8790567" lon="12.895585"><ele>442.0</ele><time>2026-04-08T16:19:13.822Z</time></trkpt><trkpt lat="41.879145" lon="12.89553"><ele>442.00000000000006</ele><time>2026-04-08T16:19:14.822Z</time></trkpt><trkpt lat="41.8792367" lon="12.8954667"><ele>442.00000000000006</ele><time>2026-04-08T16:19:15.821Z</time></trkpt><trkpt lat="41.8793267" lon="12.8954033"><ele>442.0</ele><time>2026-04-08T16:19:16.819Z</time></trkpt><trkpt lat="41.8794167" lon="12.895345"><ele>442.0</ele><time>2026-04-08T16:19:17.819Z</time></trkpt><trkpt lat="41.879505" lon="12.89529"><ele>442.8</ele><time>2026-04-08T16:19:18.819Z</time></trkpt><trkpt lat="41.8795967" lon="12.8952417"><ele>443.6</ele><time>2026-04-08T16:19:19.822Z</time></trkpt><trkpt lat="41.8796883" lon="12.8951967"><ele>444.40000000000003</ele><time>2026-04-08T16:19:20.823Z</time></trkpt><trkpt lat="41.8797783" lon="12.89515"><ele>445.20000000000005</ele><time>2026-04-08T16:19:21.819Z</time></trkpt><trkpt lat="41.879865" lon="12.8951017"><ele>446.0</ele><time>2026-04-08T16:19:22.822Z</time></trkpt><trkpt lat="41.8799533" lon="12.89506"><ele>446.0</ele><time>2026-04-08T16:19:23.818Z</time></trkpt><trkpt lat="41.8800417" lon="12.895035"><ele>446.0</ele><time>2026-04-08T16:19:24.819Z</time></trkpt><trkpt lat="41.8801317" lon="12.8950217"><ele>446.0</ele><time>2026-04-08T16:19:25.822Z</time></trkpt><trkpt lat="41.8802267" lon="12.895005"><ele>446.0</ele><time>2026-04-08T16:19:26.822Z</time></trkpt><trkpt lat="41.880325" lon="12.8949733"><ele>446.0</ele><time>2026-04-08T16:19:27.817Z</time></trkpt><trkpt lat="41.8804217" lon="12.8949267"><ele>443.20000000000005</ele><time>2026-04-08T16:19:28.818Z</time></trkpt><trkpt lat="41.8805083" lon="12.8948617"><ele>440.40000000000003</ele><time>2026-04-08T16:19:29.819Z</time></trkpt><trkpt lat="41.8805883" lon="12.8947867"><ele>437.6</ele><time>2026-04-08T16:19:30.819Z</time></trkpt><trkpt lat="41.8806683" lon="12.894715"><ele>434.8</ele><time>2026-04-08T16:19:31.819Z</time></trkpt><trkpt lat="41.8807417" lon="12.894645"><ele>432.0</ele><time>2026-04-08T16:19:32.819Z</time></trkpt><trkpt lat="41.88081" lon="12.89458"><ele>432.0</ele><time>2026-04-08T16:19:33.82Z</time></trkpt><trkpt lat="41.880875" lon="12.894525"><ele>432.0</ele><time>2026-04-08T16:19:34.818Z</time></trkpt><trkpt lat="41.8809417" lon="12.8944717"><ele>432.0</ele><time>2026-04-08T16:19:35.82Z</time></trkpt><trkpt lat="41.881025" lon="12.8944133"><ele>432.0</ele><time>2026-04-08T16:19:36.819Z</time></trkpt><trkpt lat="41.8811067" lon="12.8943383"><ele>432.0</ele><time>2026-04-08T16:19:37.819Z</time></trkpt><trkpt lat="41.8811733" lon="12.8942517"><ele>432.0</ele><time>2026-04-08T16:19:38.819Z</time></trkpt><trkpt lat="41.881235" lon="12.8941733"><ele>430.2857142857143</ele><time>2026-04-08T16:19:39.818Z</time></trkpt><trkpt lat="41.8812983" lon="12.8941067"><ele>428.57142857142856</ele><time>2026-04-08T16:19:40.82Z</time></trkpt><trkpt lat="41.8813517" lon="12.89404"><ele>426.8571428571429</ele><time>2026-04-08T16:19:41.819Z</time></trkpt><trkpt lat="41.8814167" lon="12.8939817"><ele>425.1428571428571</ele><time>2026-04-08T16:19:42.818Z</time></trkpt><trkpt lat="41.881475" lon="12.893935"><ele>423.42857142857144</ele><time>2026-04-08T16:19:43.82Z</time></trkpt><trkpt lat="41.8815317" lon="12.8938917"><ele>421.7142857142857</ele><time>2026-04-08T16:19:44.819Z</time></trkpt><trkpt lat="41.8815883" lon="12.8938517"><ele>420.0</ele><time>2026-04-08T16:19:45.819Z</time></trkpt><trkpt lat="41.88165" lon="12.8938067"><ele>420.0</ele><time>2026-04-08T16:19:46.819Z</time></trkpt><trkpt lat="41.8817083" lon="12.893745"><ele>420.0</ele><time>2026-04-08T16:19:47.819Z</time></trkpt><trkpt lat="41.8817683" lon="12.8936717"><ele>420.0</ele><time>2026-04-08T16:19:48.819Z</time></trkpt><trkpt lat="41.8818217" lon="12.8935917"><ele>420.0</ele><time>2026-04-08T16:19:49.819Z</time></trkpt><trkpt lat="41.8818833" lon="12.8935217"><ele>420.0</ele><time>2026-04-08T16:19:50.82Z</time></trkpt><trkpt lat="41.88194" lon="12.8934517"><ele>420.0</ele><time>2026-04-08T16:19:51.82Z</time></trkpt><trkpt lat="41.881995" lon="12.89339"><ele>418.4</ele><time>2026-04-08T16:19:52.822Z</time></trkpt><trkpt lat="41.8821017" lon="12.8933183"><ele>416.8</ele><time>2026-04-08T16:19:54.818Z</time></trkpt><trkpt lat="41.88221" lon="12.8932733"><ele>415.20000000000005</ele><time>2026-04-08T16:19:56.819Z</time></trkpt><trkpt lat="41.8823" lon="12.8932367"><ele>413.6</ele><time>2026-04-08T16:19:58.819Z</time></trkpt><trkpt lat="41.88237" lon="12.8932433"><ele>412.0</ele><time>2026-04-08T16:20:02.819Z</time></trkpt><trkpt lat="41.8824033" lon="12.8933433"><ele>413.83333333333337</ele><time>2026-04-08T16:20:04.819Z</time></trkpt><trkpt lat="41.8824367" lon="12.8934583"><ele>415.6666666666667</ele><time>2026-04-08T16:20:06.818Z</time></trkpt><trkpt lat="41.8824417" lon="12.89356"><ele>417.5</ele><time>2026-04-08T16:20:08.822Z</time></trkpt><trkpt lat="41.8823917" lon="12.89367"><ele>419.33333333333337</ele><time>2026-04-08T16:20:10.818Z</time></trkpt><trkpt lat="41.882345" lon="12.8937317"><ele>421.1666666666667</ele><time>2026-04-08T16:20:11.821Z</time></trkpt><trkpt lat="41.8822983" lon="12.8937983"><ele>423.0</ele><time>2026-04-08T16:20:12.822Z</time></trkpt><trkpt lat="41.8822533" lon="12.893865"><ele>423.0</ele><time>2026-04-08T16:20:13.822Z</time></trkpt><trkpt lat="41.8821783" lon="12.89399"><ele>423.0</ele><time>2026-04-08T16:20:15.821Z</time></trkpt><trkpt lat="41.882115" lon="12.8941033"><ele>423.0</ele><time>2026-04-08T16:20:17.823Z</time></trkpt><trkpt lat="41.8820883" lon="12.8941883"><ele>423.0</ele><time>2026-04-08T16:20:19.821Z</time></trkpt><trkpt lat="41.8821617" lon="12.8942517"><ele>423.0</ele><time>2026-04-08T16:20:22.819Z</time></trkpt><trkpt lat="41.8822417" lon="12.8942433"><ele>423.0</ele><time>2026-04-08T16:20:24.817Z</time></trkpt><trkpt lat="41.8823417" lon="12.8942117"><ele>423.0</ele><time>2026-04-08T16:20:26.819Z</time></trkpt><trkpt lat="41.8824567" lon="12.8942383"><ele>423.0</ele><time>2026-04-08T16:20:28.818Z</time></trkpt><trkpt lat="41.8825317" lon="12.8942583"><ele>423.0</ele><time>2026-04-08T16:20:30.822Z</time></trkpt><trkpt lat="41.88262" lon="12.8942567"><ele>423.0</ele><time>2026-04-08T16:21:54.819Z</time></trkpt><trkpt lat="41.882705" lon="12.8942183"><ele>425.0</ele><time>2026-04-08T16:21:56.822Z</time></trkpt><trkpt lat="41.8827683" lon="12.8942017"><ele>427.0</ele><time>2026-04-08T16:21:57.817Z</time></trkpt><trkpt lat="41.8828333" lon="12.8941917"><ele>429.0</ele><time>2026-04-08T16:21:58.819Z</time></trkpt><trkpt lat="41.8828967" lon="12.894195"><ele>431.0</ele><time>2026-04-08T16:21:59.824Z</time></trkpt><trkpt lat="41.882965" lon="12.8942067"><ele>433.0</ele><time>2026-04-08T16:22:00.822Z</time></trkpt><trkpt lat="41.8830433" lon="12.8942267"><ele>435.0</ele><time>2026-04-08T16:22:01.821Z</time></trkpt><trkpt lat="41.8831183" lon="12.89426"><ele>437.0</ele><time>2026-04-08T16:22:02.821Z</time></trkpt><trkpt lat="41.8831967" lon="12.8943"><ele>440.16666666666663</ele><time>2026-04-08T16:22:03.818Z</time></trkpt><trkpt lat="41.88328" lon="12.8943383"><ele>443.3333333333333</ele><time>2026-04-08T16:22:04.819Z</time></trkpt><trkpt lat="41.8833667" lon="12.8943633"><ele>446.5</ele><time>2026-04-08T16:22:05.818Z</time></trkpt><trkpt lat="41.8834417" lon="12.8943633"><ele>449.66666666666663</ele><time>2026-04-08T16:22:06.818Z</time></trkpt><trkpt lat="41.8835133" lon="12.8943483"><ele>452.8333333333333</ele><time>2026-04-08T16:22:07.821Z</time></trkpt><trkpt lat="41.8835817" lon="12.8943267"><ele>456.0</ele><time>2026-04-08T16:22:08.818Z</time></trkpt><trkpt lat="41.8837017" lon="12.8943017"><ele>455.8</ele><time>2026-04-08T16:22:10.821Z</time></trkpt><trkpt lat="41.8838083" lon="12.894245"><ele>455.6</ele><time>2026-04-08T16:22:12.826Z</time></trkpt><trkpt lat="41.8838933" lon="12.8941567"><ele>455.4</ele><time>2026-04-08T16:22:14.822Z</time></trkpt><trkpt lat="41.8839867" lon="12.8940433"><ele>455.2</ele><time>2026-04-08T16:22:16.82Z</time></trkpt><trkpt lat="41.884045" lon="12.8939917"><ele>455.0</ele><time>2026-04-08T16:22:17.817Z</time></trkpt><trkpt lat="41.8841067" lon="12.8939367"><ele>454.99999999999994</ele><time>2026-04-08T16:22:18.82Z</time></trkpt><trkpt lat="41.8841683" lon="12.8938767"><ele>455.0</ele><time>2026-04-08T16:22:19.819Z</time></trkpt><trkpt lat="41.8842283" lon="12.8938183"><ele>455.0</ele><time>2026-04-08T16:22:20.818Z</time></trkpt><trkpt lat="41.8843133" lon="12.893745"><ele>455.0</ele><time>2026-04-08T16:22:22.818Z</time></trkpt><trkpt lat="41.8844033" lon="12.8937517"><ele>454.99999999999994</ele><time>2026-04-08T16:22:25.82Z</time></trkpt><trkpt lat="41.884495" lon="12.893805"><ele>455.0</ele><time>2026-04-08T16:22:27.821Z</time></trkpt><trkpt lat="41.8845617" lon="12.893815"><ele>454.8</ele><time>2026-04-08T16:22:28.822Z</time></trkpt><trkpt lat="41.8846267" lon="12.893825"><ele>454.6</ele><time>2026-04-08T16:22:29.821Z</time></trkpt><trkpt lat="41.884735" lon="12.893845"><ele>454.4</ele><time>2026-04-08T16:22:31.822Z</time></trkpt><trkpt lat="41.8848417" lon="12.8938867"><ele>454.2</ele><time>2026-04-08T16:22:33.82Z</time></trkpt><trkpt lat="41.8849467" lon="12.89397"><ele>454.0</ele><time>2026-04-08T16:22:35.822Z</time></trkpt><trkpt lat="41.885" lon="12.894025"><ele>454.0</ele><time>2026-04-08T16:22:36.818Z</time></trkpt><trkpt lat="41.8850817" lon="12.8941033"><ele>454.0</ele><time>2026-04-08T16:22:38.822Z</time></trkpt><trkpt lat="41.88514" lon="12.8941733"><ele>454.0</ele><time>2026-04-08T16:24:04.822Z</time></trkpt><trkpt lat="41.885195" lon="12.894245"><ele>454.0</ele><time>2026-04-08T16:24:06.818Z</time></trkpt><trkpt lat="41.8852217" lon="12.8943683"><ele>454.0</ele><time>2026-04-08T16:24:08.822Z</time></trkpt><trkpt lat="41.8852083" lon="12.8945133"><ele>454.50000000000006</ele><time>2026-04-08T16:24:10.821Z</time></trkpt><trkpt lat="41.8852067" lon="12.8946367"><ele>455.0</ele><time>2026-04-08T16:24:12.822Z</time></trkpt><trkpt lat="41.8852467" lon="12.8947067"><ele>455.5</ele><time>2026-04-08T16:24:14.821Z</time></trkpt><trkpt lat="41.88534" lon="12.894655"><ele>456.0</ele><time>2026-04-08T16:24:17.821Z</time></trkpt><trkpt lat="41.885375" lon="12.89457"><ele>456.50000000000006</ele><time>2026-04-08T16:24:18.821Z</time></trkpt><trkpt lat="41.885415" lon="12.89449"><ele>457.0</ele><time>2026-04-08T16:24:19.821Z</time></trkpt><trkpt lat="41.88545" lon="12.894395"><ele>457.0</ele><time>2026-04-08T16:24:20.821Z</time></trkpt><trkpt lat="41.8854883" lon="12.894315"><ele>457.00000000000006</ele><time>2026-04-08T16:24:21.822Z</time></trkpt><trkpt lat="41.8855617" lon="12.894185"><ele>457.00000000000006</ele><time>2026-04-08T16:24:23.822Z</time></trkpt><trkpt lat="41.885665" lon="12.8940733"><ele>457.0</ele><time>2026-04-08T16:24:25.82Z</time></trkpt><trkpt lat="41.8857217" lon="12.8940133"><ele>457.0</ele><time>2026-04-08T16:24:26.821Z</time></trkpt><trkpt lat="41.8857783" lon="12.8939533"><ele>454.0</ele><time>2026-04-08T16:24:27.82Z</time></trkpt><trkpt lat="41.8858317" lon="12.8938917"><ele>451.00000000000006</ele><time>2026-04-08T16:24:28.821Z</time></trkpt><trkpt lat="41.8858833" lon="12.8938317"><ele>448.00000000000006</ele><time>2026-04-08T16:24:29.821Z</time></trkpt><trkpt lat="41.8859883" lon="12.8937783"><ele>445.0</ele><time>2026-04-08T16:24:31.822Z</time></trkpt><trkpt lat="41.8860933" lon="12.89379"><ele>442.0</ele><time>2026-04-08T16:24:33.821Z</time></trkpt><trkpt lat="41.8861933" lon="12.89389"><ele>441.00000000000006</ele><time>2026-04-08T16:24:35.821Z</time></trkpt><trkpt lat="41.8862383" lon="12.89396"><ele>440.0</ele><time>2026-04-08T16:24:36.82Z</time></trkpt><trkpt lat="41.8862867" lon="12.8940417"><ele>439.0</ele><time>2026-04-08T16:24:37.821Z</time></trkpt><trkpt lat="41.8863333" lon="12.8941383"><ele>438.0</ele><time>2026-04-08T16:24:38.822Z</time></trkpt><trkpt lat="41.8863783" lon="12.8942383"><ele>437.00000000000006</ele><time>2026-04-08T16:24:39.82Z</time></trkpt><trkpt lat="41.8864233" lon="12.8943283"><ele>436.0</ele><time>2026-04-08T16:24:40.821Z</time></trkpt><trkpt lat="41.8864767" lon="12.8944017"><ele>436.0</ele><time>2026-04-08T16:24:41.821Z</time></trkpt><trkpt lat="41.8865283" lon="12.8944617"><ele>436.0</ele><time>2026-04-08T16:24:42.821Z</time></trkpt><trkpt lat="41.886635" lon="12.8945417"><ele>436.0</ele><time>2026-04-08T16:24:44.822Z</time></trkpt><trkpt lat="41.8867583" lon="12.89458"><ele>436.0</ele><time>2026-04-08T16:24:46.818Z</time></trkpt><trkpt lat="41.886835" lon="12.8945783"><ele>436.0</ele><time>2026-04-08T16:24:47.822Z</time></trkpt><trkpt lat="41.8869067" lon="12.894605"><ele>435.50000000000006</ele><time>2026-04-08T16:24:48.821Z</time></trkpt><trkpt lat="41.886985" lon="12.8946183"><ele>435.0</ele><time>2026-04-08T16:24:49.82Z</time></trkpt><trkpt lat="41.8870733" lon="12.894625"><ele>434.5</ele><time>2026-04-08T16:24:50.818Z</time></trkpt><trkpt lat="41.8871467" lon="12.8946367"><ele>434.0</ele><time>2026-04-08T16:24:51.817Z</time></trkpt><trkpt lat="41.8872483" lon="12.894645"><ele>433.50000000000006</ele><time>2026-04-08T16:24:53.821Z</time></trkpt><trkpt lat="41.8873117" lon="12.8946617"><ele>433.0</ele><time>2026-04-08T16:24:56.818Z</time></trkpt><trkpt lat="41.8873433" lon="12.8947433"><ele>433.0</ele><time>2026-04-08T16:24:58.821Z</time></trkpt><trkpt lat="41.88734" lon="12.894895"><ele>432.99999999999994</ele><time>2026-04-08T16:25:00.818Z</time></trkpt><trkpt lat="41.8873367" lon="12.8949817"><ele>432.99999999999994</ele><time>2026-04-08T16:25:01.821Z</time></trkpt><trkpt lat="41.8873483" lon="12.895145"><ele>433.0</ele><time>2026-04-08T16:25:03.818Z</time></trkpt><trkpt lat="41.8873967" lon="12.895285"><ele>433.0</ele><time>2026-04-08T16:25:05.819Z</time></trkpt><trkpt lat="41.8874317" lon="12.8954467"><ele>434.1666666666667</ele><time>2026-04-08T16:25:07.824Z</time></trkpt><trkpt lat="41.8874583" lon="12.89554"><ele>435.33333333333337</ele><time>2026-04-08T16:25:08.821Z</time></trkpt><trkpt lat="41.887495" lon="12.8956383"><ele>436.5</ele><time>2026-04-08T16:25:09.821Z</time></trkpt><trkpt lat="41.88755" lon="12.8957333"><ele>437.66666666666663</ele><time>2026-04-08T16:25:10.821Z</time></trkpt><trkpt lat="41.887615" lon="12.8958183"><ele>438.8333333333333</ele><time>2026-04-08T16:25:11.82Z</time></trkpt><trkpt lat="41.887695" lon="12.8958917"><ele>440.0</ele><time>2026-04-08T16:25:12.818Z</time></trkpt><trkpt lat="41.8877733" lon="12.895945"><ele>440.0</ele><time>2026-04-08T16:25:13.821Z</time></trkpt><trkpt lat="41.8878617" lon="12.8959833"><ele>440.0</ele><time>2026-04-08T16:25:14.821Z</time></trkpt><trkpt lat="41.8879533" lon="12.8959933"><ele>440.0</ele><time>2026-04-08T16:25:15.821Z</time></trkpt><trkpt lat="41.888045" lon="12.8959833"><ele>440.0</ele><time>2026-04-08T16:25:16.818Z</time></trkpt><trkpt lat="41.8881383" lon="12.8959517"><ele>440.0</ele><time>2026-04-08T16:25:17.82Z</time></trkpt><trkpt lat="41.8882333" lon="12.895815"><ele>440.0</ele><time>2026-04-08T16:25:18.819Z</time></trkpt><trkpt lat="41.8883067" lon="12.8956917"><ele>440.0</ele><time>2026-04-08T16:25:19.819Z</time></trkpt><trkpt lat="41.88837" lon="12.895575"><ele>440.0</ele><time>2026-04-08T16:25:20.818Z</time></trkpt><trkpt lat="41.8884217" lon="12.8954517"><ele>440.0</ele><time>2026-04-08T16:25:21.818Z</time></trkpt><trkpt lat="41.888475" lon="12.8953267"><ele>440.0</ele><time>2026-04-08T16:25:22.819Z</time></trkpt><trkpt lat="41.8885017" lon="12.8951833"><ele>440.4</ele><time>2026-04-08T16:25:23.819Z</time></trkpt><trkpt lat="41.8885133" lon="12.8950417"><ele>440.8</ele><time>2026-04-08T16:25:24.819Z</time></trkpt><trkpt lat="41.8885217" lon="12.8949"><ele>441.20000000000005</ele><time>2026-04-08T16:25:25.821Z</time></trkpt><trkpt lat="41.888535" lon="12.894755"><ele>441.6</ele><time>2026-04-08T16:25:26.821Z</time></trkpt><trkpt lat="41.8885483" lon="12.894615"><ele>442.0</ele><time>2026-04-08T16:25:27.818Z</time></trkpt><trkpt lat="41.888555" lon="12.8944767"><ele>442.0</ele><time>2026-04-08T16:25:28.82Z</time></trkpt><trkpt lat="41.8885533" lon="12.8943567"><ele>442.00000000000006</ele><time>2026-04-08T16:25:29.823Z</time></trkpt><trkpt lat="41.8885567" lon="12.8942583"><ele>442.00000000000006</ele><time>2026-04-08T16:25:30.821Z</time></trkpt><trkpt lat="41.8886017" lon="12.8941217"><ele>442.0</ele><time>2026-04-08T16:25:32.822Z</time></trkpt><trkpt lat="41.888705" lon="12.8940733"><ele>442.0</ele><time>2026-04-08T16:25:34.821Z</time></trkpt><trkpt lat="41.8887733" lon="12.894055"><ele>440.50000000000006</ele><time>2026-04-08T16:25:35.821Z</time></trkpt><trkpt lat="41.88885" lon="12.89403"><ele>439.0</ele><time>2026-04-08T16:25:36.821Z</time></trkpt><trkpt lat="41.8889233" lon="12.893965"><ele>437.5</ele><time>2026-04-08T16:25:37.82Z</time></trkpt><trkpt lat="41.888975" lon="12.8938717"><ele>436.0</ele><time>2026-04-08T16:25:38.821Z</time></trkpt><trkpt lat="41.8890067" lon="12.8937633"><ele>434.50000000000006</ele><time>2026-04-08T16:25:39.822Z</time></trkpt><trkpt lat="41.8890167" lon="12.8936367"><ele>433.0</ele><time>2026-04-08T16:25:40.82Z</time></trkpt><trkpt lat="41.8890183" lon="12.8934917"><ele>431.25</ele><time>2026-04-08T16:25:41.821Z</time></trkpt><trkpt lat="41.8890233" lon="12.8933417"><ele>429.5</ele><time>2026-04-08T16:25:42.821Z</time></trkpt><trkpt lat="41.889035" lon="12.8931767"><ele>427.75</ele><time>2026-04-08T16:25:43.821Z</time></trkpt><trkpt lat="41.8890483" lon="12.893005"><ele>426.0</ele><time>2026-04-08T16:25:44.821Z</time></trkpt><trkpt lat="41.88905" lon="12.8928267"><ele>426.0</ele><time>2026-04-08T16:25:45.818Z</time></trkpt><trkpt lat="41.88905" lon="12.8926583"><ele>426.0</ele><time>2026-04-08T16:25:46.823Z</time></trkpt><trkpt lat="41.889055" lon="12.8924967"><ele>426.0</ele><time>2026-04-08T16:25:47.818Z</time></trkpt><trkpt lat="41.8890567" lon="12.892335"><ele>426.0</ele><time>2026-04-08T16:25:48.819Z</time></trkpt><trkpt lat="41.8890617" lon="12.8921717"><ele>425.0</ele><time>2026-04-08T16:25:49.819Z</time></trkpt><trkpt lat="41.88907" lon="12.8920033"><ele>424.0</ele><time>2026-04-08T16:25:50.821Z</time></trkpt><trkpt lat="41.8890883" lon="12.8918333"><ele>423.0</ele><time>2026-04-08T16:25:51.821Z</time></trkpt><trkpt lat="41.8891233" lon="12.8916583"><ele>422.0</ele><time>2026-04-08T16:25:52.821Z</time></trkpt><trkpt lat="41.8891683" lon="12.8914817"><ele>420.0</ele><time>2026-04-08T16:25:53.821Z</time></trkpt><trkpt lat="41.889225" lon="12.8913017"><ele>418.0</ele><time>2026-04-08T16:25:54.82Z</time></trkpt><trkpt lat="41.88927" lon="12.8911117"><ele>416.0</ele><time>2026-04-08T16:25:55.822Z</time></trkpt><trkpt lat="41.8892983" lon="12.89092"><ele>414.0</ele><time>2026-04-08T16:25:56.818Z</time></trkpt><trkpt lat="41.8893183" lon="12.890735"><ele>417.0</ele><time>2026-04-08T16:25:57.818Z</time></trkpt><trkpt lat="41.8893317" lon="12.8905567"><ele>420.0</ele><time>2026-04-08T16:25:58.818Z</time></trkpt><trkpt lat="41.8893417" lon="12.8903933"><ele>423.0</ele><time>2026-04-08T16:25:59.821Z</time></trkpt><trkpt lat="41.8893417" lon="12.8902233"><ele>426.0</ele><time>2026-04-08T16:26:00.821Z</time></trkpt><trkpt lat="41.8893383" lon="12.8900583"><ele>426.0</ele><time>2026-04-08T16:26:01.82Z</time></trkpt><trkpt lat="41.8893317" lon="12.8898933"><ele>426.0</ele><time>2026-04-08T16:26:02.818Z</time></trkpt><trkpt lat="41.8893183" lon="12.8897267"><ele>426.0</ele><time>2026-04-08T16:26:03.821Z</time></trkpt><trkpt lat="41.889295" lon="12.8895683"><ele>426.0</ele><time>2026-04-08T16:26:04.821Z</time></trkpt><trkpt lat="41.889265" lon="12.8894233"><ele>422.20000000000005</ele><time>2026-04-08T16:26:05.821Z</time></trkpt><trkpt lat="41.889225" lon="12.8892817"><ele>418.40000000000003</ele><time>2026-04-08T16:26:06.821Z</time></trkpt><trkpt lat="41.8891817" lon="12.889145"><ele>414.6</ele><time>2026-04-08T16:26:07.821Z</time></trkpt><trkpt lat="41.8891417" lon="12.889005"><ele>410.8</ele><time>2026-04-08T16:26:08.821Z</time></trkpt><trkpt lat="41.8891017" lon="12.888865"><ele>407.0</ele><time>2026-04-08T16:26:09.821Z</time></trkpt><trkpt lat="41.889055" lon="12.8887167"><ele>407.0</ele><time>2026-04-08T16:26:10.821Z</time></trkpt><trkpt lat="41.8890033" lon="12.8885667"><ele>407.0</ele><time>2026-04-08T16:26:11.818Z</time></trkpt><trkpt lat="41.8889617" lon="12.8884067"><ele>407.0</ele><time>2026-04-08T16:26:12.82Z</time></trkpt><trkpt lat="41.8889317" lon="12.888245"><ele>407.0</ele><time>2026-04-08T16:26:13.82Z</time></trkpt><trkpt lat="41.8889133" lon="12.8880817"><ele>407.5</ele><time>2026-04-08T16:26:14.824Z</time></trkpt><trkpt lat="41.8889167" lon="12.887915"><ele>408.0</ele><time>2026-04-08T16:26:15.822Z</time></trkpt><trkpt lat="41.88893" lon="12.8877467"><ele>408.5</ele><time>2026-04-08T16:26:16.821Z</time></trkpt><trkpt lat="41.8889467" lon="12.8875717"><ele>409.0</ele><time>2026-04-08T16:26:17.821Z</time></trkpt><trkpt lat="41.888965" lon="12.887395"><ele>407.25</ele><time>2026-04-08T16:26:18.821Z</time></trkpt><trkpt lat="41.8889867" lon="12.8872133"><ele>405.5</ele><time>2026-04-08T16:26:19.818Z</time></trkpt><trkpt lat="41.889005" lon="12.8870217"><ele>403.75</ele><time>2026-04-08T16:26:20.821Z</time></trkpt><trkpt lat="41.8890267" lon="12.8868317"><ele>402.0</ele><time>2026-04-08T16:26:21.82Z</time></trkpt><trkpt lat="41.88905" lon="12.8866517"><ele>399.5</ele><time>2026-04-08T16:26:22.82Z</time></trkpt><trkpt lat="41.8890733" lon="12.8864833"><ele>397.0</ele><time>2026-04-08T16:26:23.822Z</time></trkpt><trkpt lat="41.8891083" lon="12.886315"><ele>394.5</ele><time>2026-04-08T16:26:24.817Z</time></trkpt><trkpt lat="41.8891533" lon="12.886145"><ele>392.0</ele><time>2026-04-08T16:26:25.818Z</time></trkpt><trkpt lat="41.8892033" lon="12.8859717"><ele>391.75</ele><time>2026-04-08T16:26:26.818Z</time></trkpt><trkpt lat="41.88926" lon="12.885805"><ele>391.5</ele><time>2026-04-08T16:26:27.818Z</time></trkpt><trkpt lat="41.889325" lon="12.8856333"><ele>391.25</ele><time>2026-04-08T16:26:28.818Z</time></trkpt><trkpt lat="41.8894033" lon="12.88548"><ele>391.0</ele><time>2026-04-08T16:26:29.819Z</time></trkpt><trkpt lat="41.8894783" lon="12.8853217"><ele>391.0</ele><time>2026-04-08T16:26:30.818Z</time></trkpt><trkpt lat="41.8895517" lon="12.8851583"><ele>391.0</ele><time>2026-04-08T16:26:31.817Z</time></trkpt><trkpt lat="41.8896167" lon="12.8849917"><ele>391.0</ele><time>2026-04-08T16:26:32.818Z</time></trkpt><trkpt lat="41.88968" lon="12.8848283"><ele>391.0</ele><time>2026-04-08T16:26:33.818Z</time></trkpt><trkpt lat="41.8897417" lon="12.8846583"><ele>388.75</ele><time>2026-04-08T16:26:34.818Z</time></trkpt><trkpt lat="41.8898117" lon="12.88449"><ele>386.5</ele><time>2026-04-08T16:26:35.818Z</time></trkpt><trkpt lat="41.8898917" lon="12.8843317"><ele>384.25</ele><time>2026-04-08T16:26:36.818Z</time></trkpt><trkpt lat="41.8899583" lon="12.88415"><ele>382.0</ele><time>2026-04-08T16:26:37.817Z</time></trkpt><trkpt lat="41.890015" lon="12.8839533"><ele>384.25</ele><time>2026-04-08T16:26:38.817Z</time></trkpt><trkpt lat="41.8900617" lon="12.8837567"><ele>386.5</ele><time>2026-04-08T16:26:39.817Z</time></trkpt><trkpt lat="41.8900967" lon="12.8835683"><ele>388.75</ele><time>2026-04-08T16:26:40.818Z</time></trkpt><trkpt lat="41.89012" lon="12.8833917"><ele>391.0</ele><time>2026-04-08T16:26:41.817Z</time></trkpt><trkpt lat="41.8901333" lon="12.883225"><ele>391.5</ele><time>2026-04-08T16:26:42.818Z</time></trkpt><trkpt lat="41.8901433" lon="12.8830617"><ele>392.0</ele><time>2026-04-08T16:26:43.818Z</time></trkpt><trkpt lat="41.8901433" lon="12.8828917"><ele>392.5</ele><time>2026-04-08T16:26:44.822Z</time></trkpt><trkpt lat="41.8901417" lon="12.882725"><ele>393.0</ele><time>2026-04-08T16:26:45.82Z</time></trkpt><trkpt lat="41.8901317" lon="12.88256"><ele>393.0</ele><time>2026-04-08T16:26:46.821Z</time></trkpt><trkpt lat="41.8901283" lon="12.882405"><ele>393.0</ele><time>2026-04-08T16:26:47.82Z</time></trkpt><trkpt lat="41.890135" lon="12.882265"><ele>393.0</ele><time>2026-04-08T16:26:48.821Z</time></trkpt><trkpt lat="41.8901533" lon="12.8821233"><ele>393.0</ele><time>2026-04-08T16:26:49.821Z</time></trkpt><trkpt lat="41.8901767" lon="12.8819783"><ele>393.0</ele><time>2026-04-08T16:26:50.82Z</time></trkpt><trkpt lat="41.89021" lon="12.881835"><ele>390.0</ele><time>2026-04-08T16:26:51.823Z</time></trkpt><trkpt lat="41.8902483" lon="12.881695"><ele>387.0</ele><time>2026-04-08T16:26:52.821Z</time></trkpt><trkpt lat="41.8903067" lon="12.8815683"><ele>384.0</ele><time>2026-04-08T16:26:53.822Z</time></trkpt><trkpt lat="41.890375" lon="12.8814617"><ele>381.0</ele><time>2026-04-08T16:26:54.817Z</time></trkpt><trkpt lat="41.89046" lon="12.8813667"><ele>378.0</ele><time>2026-04-08T16:26:55.818Z</time></trkpt><trkpt lat="41.890545" lon="12.8812867"><ele>378.0</ele><time>2026-04-08T16:26:56.821Z</time></trkpt><trkpt lat="41.8906117" lon="12.8812"><ele>378.0</ele><time>2026-04-08T16:26:57.821Z</time></trkpt><trkpt lat="41.89065" lon="12.8810967"><ele>378.0</ele><time>2026-04-08T16:26:58.821Z</time></trkpt><trkpt lat="41.89067" lon="12.8809867"><ele>378.0</ele><time>2026-04-08T16:26:59.817Z</time></trkpt><trkpt lat="41.89066" lon="12.88087"><ele>378.0</ele><time>2026-04-08T16:27:00.82Z</time></trkpt><trkpt lat="41.8906333" lon="12.8807567"><ele>378.0</ele><time>2026-04-08T16:27:01.82Z</time></trkpt><trkpt lat="41.89057" lon="12.8806583"><ele>377.0</ele><time>2026-04-08T16:27:02.822Z</time></trkpt><trkpt lat="41.8904583" lon="12.88056"><ele>376.0</ele><time>2026-04-08T16:27:03.818Z</time></trkpt><trkpt lat="41.890305" lon="12.8804983"><ele>375.0</ele><time>2026-04-08T16:27:04.819Z</time></trkpt><trkpt lat="41.8901717" lon="12.8804333"><ele>374.0</ele><time>2026-04-08T16:27:05.818Z</time></trkpt><trkpt lat="41.8900617" lon="12.8803583"><ele>374.2</ele><time>2026-04-08T16:27:06.821Z</time></trkpt><trkpt lat="41.8899667" lon="12.880275"><ele>374.4</ele><time>2026-04-08T16:27:07.821Z</time></trkpt><trkpt lat="41.8898867" lon="12.8801783"><ele>374.6</ele><time>2026-04-08T16:27:08.821Z</time></trkpt><trkpt lat="41.8898183" lon="12.8800667"><ele>374.8</ele><time>2026-04-08T16:27:09.821Z</time></trkpt><trkpt lat="41.88976" lon="12.8799367"><ele>375.0</ele><time>2026-04-08T16:27:10.821Z</time></trkpt><trkpt lat="41.8897117" lon="12.87979"><ele>375.0</ele><time>2026-04-08T16:27:11.821Z</time></trkpt><trkpt lat="41.8896633" lon="12.8796333"><ele>375.0</ele><time>2026-04-08T16:27:12.821Z</time></trkpt><trkpt lat="41.8896267" lon="12.8794517"><ele>375.0</ele><time>2026-04-08T16:27:13.821Z</time></trkpt><trkpt lat="41.8895867" lon="12.879265"><ele>375.0</ele><time>2026-04-08T16:27:14.82Z</time></trkpt><trkpt lat="41.889555" lon="12.8790833"><ele>378.5</ele><time>2026-04-08T16:27:15.821Z</time></trkpt><trkpt lat="41.889535" lon="12.8788983"><ele>382.0</ele><time>2026-04-08T16:27:16.821Z</time></trkpt><trkpt lat="41.8895267" lon="12.8787133"><ele>385.5</ele><time>2026-04-08T16:27:17.821Z</time></trkpt><trkpt lat="41.88953" lon="12.8785217"><ele>389.0</ele><time>2026-04-08T16:27:18.822Z</time></trkpt><trkpt lat="41.8895367" lon="12.878315"><ele>390.25</ele><time>2026-04-08T16:27:19.821Z</time></trkpt><trkpt lat="41.8895467" lon="12.878115"><ele>391.5</ele><time>2026-04-08T16:27:20.818Z</time></trkpt><trkpt lat="41.889555" lon="12.8779183"><ele>392.75</ele><time>2026-04-08T16:27:21.817Z</time></trkpt><trkpt lat="41.8895667" lon="12.87773"><ele>394.0</ele><time>2026-04-08T16:27:22.819Z</time></trkpt><trkpt lat="41.8895783" lon="12.8775383"><ele>394.0</ele><time>2026-04-08T16:27:23.819Z</time></trkpt><trkpt lat="41.8896017" lon="12.8773567"><ele>394.0</ele><time>2026-04-08T16:27:24.819Z</time></trkpt><trkpt lat="41.88964" lon="12.877175"><ele>394.0</ele><time>2026-04-08T16:27:25.821Z</time></trkpt><trkpt lat="41.88968" lon="12.877005"><ele>394.0</ele><time>2026-04-08T16:27:26.821Z</time></trkpt><trkpt lat="41.8897133" lon="12.876835"><ele>392.75</ele><time>2026-04-08T16:27:27.817Z</time></trkpt><trkpt lat="41.8897317" lon="12.8766667"><ele>391.5</ele><time>2026-04-08T16:27:28.82Z</time></trkpt><trkpt lat="41.8897467" lon="12.8764933"><ele>390.25</ele><time>2026-04-08T16:27:29.821Z</time></trkpt><trkpt lat="41.8897467" lon="12.87633"><ele>389.0</ele><time>2026-04-08T16:27:30.821Z</time></trkpt><trkpt lat="41.8897467" lon="12.8761833"><ele>388.99999999999994</ele><time>2026-04-08T16:27:31.818Z</time></trkpt><trkpt lat="41.889745" lon="12.8760667"><ele>389.0</ele><time>2026-04-08T16:27:32.822Z</time></trkpt><trkpt lat="41.8897433" lon="12.875965"><ele>389.0</ele><time>2026-04-08T16:27:33.82Z</time></trkpt><trkpt lat="41.88975" lon="12.87585"><ele>389.0</ele><time>2026-04-08T16:27:35.821Z</time></trkpt><trkpt lat="41.8897367" lon="12.8757133"><ele>388.99999999999994</ele><time>2026-04-08T16:28:00.821Z</time></trkpt><trkpt lat="41.88973" lon="12.87562"><ele>389.0</ele><time>2026-04-08T16:28:01.82Z</time></trkpt><trkpt lat="41.8897283" lon="12.8755233"><ele>389.2</ele><time>2026-04-08T16:28:02.821Z</time></trkpt><trkpt lat="41.8897267" lon="12.8754267"><ele>389.4</ele><time>2026-04-08T16:28:03.821Z</time></trkpt><trkpt lat="41.8897233" lon="12.8753183"><ele>389.6</ele><time>2026-04-08T16:28:04.82Z</time></trkpt><trkpt lat="41.8897133" lon="12.87519"><ele>389.8</ele><time>2026-04-08T16:28:05.821Z</time></trkpt><trkpt lat="41.8897083" lon="12.8750467"><ele>390.0</ele><time>2026-04-08T16:28:06.821Z</time></trkpt><trkpt lat="41.8897017" lon="12.8748967"><ele>390.25</ele><time>2026-04-08T16:28:07.82Z</time></trkpt><trkpt lat="41.889695" lon="12.87474"><ele>390.5</ele><time>2026-04-08T16:28:08.821Z</time></trkpt><trkpt lat="41.88968" lon="12.8745717"><ele>390.75</ele><time>2026-04-08T16:28:09.821Z</time></trkpt><trkpt lat="41.8896617" lon="12.8743867"><ele>391.0</ele><time>2026-04-08T16:28:10.821Z</time></trkpt><trkpt lat="41.8896433" lon="12.8742"><ele>391.0</ele><time>2026-04-08T16:28:11.821Z</time></trkpt><trkpt lat="41.8896183" lon="12.8740133"><ele>391.0</ele><time>2026-04-08T16:28:12.82Z</time></trkpt><trkpt lat="41.8895833" lon="12.8738283"><ele>391.0</ele><time>2026-04-08T16:28:13.821Z</time></trkpt><trkpt lat="41.889535" lon="12.873655"><ele>391.0</ele><time>2026-04-08T16:28:14.82Z</time></trkpt><trkpt lat="41.8894633" lon="12.8735"><ele>393.0</ele><time>2026-04-08T16:28:15.821Z</time></trkpt><trkpt lat="41.8893667" lon="12.8733717"><ele>395.0</ele><time>2026-04-08T16:28:16.821Z</time></trkpt><trkpt lat="41.889245" lon="12.8732733"><ele>397.0</ele><time>2026-04-08T16:28:17.821Z</time></trkpt><trkpt lat="41.8891217" lon="12.8731817"><ele>399.0</ele><time>2026-04-08T16:28:18.817Z</time></trkpt><trkpt lat="41.8890117" lon="12.8730917"><ele>397.0</ele><time>2026-04-08T16:28:19.819Z</time></trkpt><trkpt lat="41.8889167" lon="12.8729967"><ele>395.0</ele><time>2026-04-08T16:28:20.82Z</time></trkpt><trkpt lat="41.8888433" lon="12.8728883"><ele>393.0</ele><time>2026-04-08T16:28:21.818Z</time></trkpt><trkpt lat="41.8887867" lon="12.8727583"><ele>391.0</ele><time>2026-04-08T16:28:22.818Z</time></trkpt><trkpt lat="41.8887483" lon="12.8726033"><ele>391.0</ele><time>2026-04-08T16:28:23.817Z</time></trkpt><trkpt lat="41.88872" lon="12.8724267"><ele>391.0</ele><time>2026-04-08T16:28:24.817Z</time></trkpt><trkpt lat="41.88869" lon="12.872235"><ele>391.0</ele><time>2026-04-08T16:28:25.818Z</time></trkpt><trkpt lat="41.8886517" lon="12.8720333"><ele>391.0</ele><time>2026-04-08T16:28:26.819Z</time></trkpt><trkpt lat="41.8885967" lon="12.8718317"><ele>392.6666666666667</ele><time>2026-04-08T16:28:27.818Z</time></trkpt><trkpt lat="41.8885417" lon="12.8716317"><ele>394.33333333333337</ele><time>2026-04-08T16:28:28.819Z</time></trkpt><trkpt lat="41.8884967" lon="12.8714217"><ele>396.0</ele><time>2026-04-08T16:28:29.821Z</time></trkpt><trkpt lat="41.888445" lon="12.87121"><ele>390.3333333333333</ele><time>2026-04-08T16:28:30.821Z</time></trkpt><trkpt lat="41.8883683" lon="12.871005"><ele>384.66666666666663</ele><time>2026-04-08T16:28:31.818Z</time></trkpt><trkpt lat="41.8882833" lon="12.8708083"><ele>379.0</ele><time>2026-04-08T16:28:32.82Z</time></trkpt><trkpt lat="41.888195" lon="12.870625"><ele>379.0</ele><time>2026-04-08T16:28:33.821Z</time></trkpt><trkpt lat="41.88811" lon="12.8704333"><ele>379.0</ele><time>2026-04-08T16:28:34.821Z</time></trkpt><trkpt lat="41.8880167" lon="12.8702433"><ele>379.0</ele><time>2026-04-08T16:28:35.82Z</time></trkpt><trkpt lat="41.8879267" lon="12.8700583"><ele>382.66666666666663</ele><time>2026-04-08T16:28:36.822Z</time></trkpt><trkpt lat="41.8878383" lon="12.8698667"><ele>386.3333333333333</ele><time>2026-04-08T16:28:37.821Z</time></trkpt><trkpt lat="41.88773" lon="12.86968"><ele>390.0</ele><time>2026-04-08T16:28:38.822Z</time></trkpt><trkpt lat="41.887615" lon="12.8694983"><ele>385.3333333333333</ele><time>2026-04-08T16:28:39.82Z</time></trkpt><trkpt lat="41.8875033" lon="12.8693283"><ele>380.66666666666663</ele><time>2026-04-08T16:28:40.821Z</time></trkpt><trkpt lat="41.8873917" lon="12.86916"><ele>376.0</ele><time>2026-04-08T16:28:41.821Z</time></trkpt><trkpt lat="41.8872767" lon="12.8689867"><ele>376.0</ele><time>2026-04-08T16:28:42.821Z</time></trkpt><trkpt lat="41.8871417" lon="12.8688217"><ele>376.0</ele><time>2026-04-08T16:28:43.821Z</time></trkpt><trkpt lat="41.88701" lon="12.8686683"><ele>376.0</ele><time>2026-04-08T16:28:44.821Z</time></trkpt><trkpt lat="41.8868867" lon="12.8685233"><ele>377.66666666666663</ele><time>2026-04-08T16:28:45.821Z</time></trkpt><trkpt lat="41.8867717" lon="12.8683667"><ele>379.3333333333333</ele><time>2026-04-08T16:28:46.821Z</time></trkpt><trkpt lat="41.8866667" lon="12.8681983"><ele>381.0</ele><time>2026-04-08T16:28:47.819Z</time></trkpt><trkpt lat="41.8865633" lon="12.8680217"><ele>380.0</ele><time>2026-04-08T16:28:48.819Z</time></trkpt><trkpt lat="41.8864433" lon="12.8678533"><ele>379.0</ele><time>2026-04-08T16:28:49.819Z</time></trkpt><trkpt lat="41.8863167" lon="12.8676867"><ele>378.0</ele><time>2026-04-08T16:28:50.819Z</time></trkpt><trkpt lat="41.8861933" lon="12.8675283"><ele>378.0</ele><time>2026-04-08T16:28:51.818Z</time></trkpt><trkpt lat="41.8860633" lon="12.8673817"><ele>378.0</ele><time>2026-04-08T16:28:52.819Z</time></trkpt><trkpt lat="41.8859267" lon="12.867255"><ele>378.0</ele><time>2026-04-08T16:28:53.819Z</time></trkpt><trkpt lat="41.88579" lon="12.8671517"><ele>376.6666666666667</ele><time>2026-04-08T16:28:54.819Z</time></trkpt><trkpt lat="41.8856633" lon="12.8670433"><ele>375.33333333333337</ele><time>2026-04-08T16:28:55.818Z</time></trkpt><trkpt lat="41.8855467" lon="12.8669067"><ele>374.0</ele><time>2026-04-08T16:28:56.818Z</time></trkpt><trkpt lat="41.88543" lon="12.8667533"><ele>374.0</ele><time>2026-04-08T16:28:57.819Z</time></trkpt><trkpt lat="41.8853117" lon="12.8665933"><ele>374.0</ele><time>2026-04-08T16:28:58.818Z</time></trkpt><trkpt lat="41.88519" lon="12.8664567"><ele>374.0</ele><time>2026-04-08T16:28:59.821Z</time></trkpt><trkpt lat="41.8850483" lon="12.866345"><ele>368.0</ele><time>2026-04-08T16:29:00.822Z</time></trkpt><trkpt lat="41.8849033" lon="12.8662433"><ele>362.0</ele><time>2026-04-08T16:29:01.822Z</time></trkpt><trkpt lat="41.8847683" lon="12.866125"><ele>356.0</ele><time>2026-04-08T16:29:02.822Z</time></trkpt><trkpt lat="41.8846367" lon="12.8659967"><ele>355.33333333333337</ele><time>2026-04-08T16:29:03.822Z</time></trkpt><trkpt lat="41.8845167" lon="12.865855"><ele>354.6666666666667</ele><time>2026-04-08T16:29:04.822Z</time></trkpt><trkpt lat="41.8843933" lon="12.8657233"><ele>354.0</ele><time>2026-04-08T16:29:05.822Z</time></trkpt><trkpt lat="41.8842583" lon="12.8656133"><ele>354.0</ele><time>2026-04-08T16:29:06.821Z</time></trkpt><trkpt lat="41.8841183" lon="12.8655117"><ele>354.0</ele><time>2026-04-08T16:29:07.822Z</time></trkpt><trkpt lat="41.8839733" lon="12.86541"><ele>354.0</ele><time>2026-04-08T16:29:08.819Z</time></trkpt><trkpt lat="41.8838283" lon="12.865305"><ele>354.0</ele><time>2026-04-08T16:29:09.822Z</time></trkpt><trkpt lat="41.8836833" lon="12.8652"><ele>354.0</ele><time>2026-04-08T16:29:10.822Z</time></trkpt><trkpt lat="41.8835517" lon="12.8650917"><ele>354.0</ele><time>2026-04-08T16:29:11.822Z</time></trkpt><trkpt lat="41.8834367" lon="12.8649917"><ele>353.0</ele><time>2026-04-08T16:29:12.822Z</time></trkpt><trkpt lat="41.8833433" lon="12.864895"><ele>352.0</ele><time>2026-04-08T16:29:13.822Z</time></trkpt><trkpt lat="41.8832733" lon="12.86479"><ele>351.0</ele><time>2026-04-08T16:29:14.826Z</time></trkpt><trkpt lat="41.8832217" lon="12.8646667"><ele>350.0</ele><time>2026-04-08T16:29:15.822Z</time></trkpt><trkpt lat="41.8831783" lon="12.8645233"><ele>349.0</ele><time>2026-04-08T16:29:16.822Z</time></trkpt><trkpt lat="41.88313" lon="12.8643867"><ele>351.25</ele><time>2026-04-08T16:29:17.818Z</time></trkpt><trkpt lat="41.8830733" lon="12.8642567"><ele>353.5</ele><time>2026-04-08T16:29:18.82Z</time></trkpt><trkpt lat="41.8830017" lon="12.8641367"><ele>355.75</ele><time>2026-04-08T16:29:19.82Z</time></trkpt><trkpt lat="41.8829133" lon="12.8640433"><ele>358.0</ele><time>2026-04-08T16:29:20.82Z</time></trkpt><trkpt lat="41.8828117" lon="12.8639767"><ele>358.0</ele><time>2026-04-08T16:29:21.82Z</time></trkpt><trkpt lat="41.882695" lon="12.8639367"><ele>358.0</ele><time>2026-04-08T16:29:22.821Z</time></trkpt><trkpt lat="41.8825683" lon="12.86391"><ele>358.0</ele><time>2026-04-08T16:29:23.819Z</time></trkpt><trkpt lat="41.882445" lon="12.8638783"><ele>358.0</ele><time>2026-04-08T16:29:24.821Z</time></trkpt><trkpt lat="41.88233" lon="12.86382"><ele>357.25</ele><time>2026-04-08T16:29:25.821Z</time></trkpt><trkpt lat="41.882225" lon="12.8637333"><ele>356.5</ele><time>2026-04-08T16:29:26.822Z</time></trkpt><trkpt lat="41.882135" lon="12.8636233"><ele>355.75</ele><time>2026-04-08T16:29:27.821Z</time></trkpt><trkpt lat="41.882055" lon="12.8635067"><ele>355.0</ele><time>2026-04-08T16:29:28.822Z</time></trkpt><trkpt lat="41.8819933" lon="12.8633733"><ele>355.0</ele><time>2026-04-08T16:29:29.821Z</time></trkpt><trkpt lat="41.88195" lon="12.8632167"><ele>355.0</ele><time>2026-04-08T16:29:30.822Z</time></trkpt><trkpt lat="41.88193" lon="12.8630533"><ele>355.0</ele><time>2026-04-08T16:29:31.822Z</time></trkpt><trkpt lat="41.8819267" lon="12.86289"><ele>355.0</ele><time>2026-04-08T16:29:32.819Z</time></trkpt><trkpt lat="41.8819433" lon="12.8627233"><ele>354.5</ele><time>2026-04-08T16:29:33.819Z</time></trkpt><trkpt lat="41.881985" lon="12.862565"><ele>354.0</ele><time>2026-04-08T16:29:34.819Z</time></trkpt><trkpt lat="41.8820433" lon="12.8624083"><ele>353.5</ele><time>2026-04-08T16:29:35.822Z</time></trkpt><trkpt lat="41.8821067" lon="12.86226"><ele>353.0</ele><time>2026-04-08T16:29:36.818Z</time></trkpt><trkpt lat="41.88216" lon="12.862115"><ele>353.0</ele><time>2026-04-08T16:29:37.821Z</time></trkpt><trkpt lat="41.8821867" lon="12.8619733"><ele>353.0</ele><time>2026-04-08T16:29:38.822Z</time></trkpt><trkpt lat="41.8821817" lon="12.861835"><ele>353.0</ele><time>2026-04-08T16:29:39.822Z</time></trkpt><trkpt lat="41.8821367" lon="12.8617033"><ele>353.0</ele><time>2026-04-08T16:29:40.821Z</time></trkpt><trkpt lat="41.8820467" lon="12.86158"><ele>353.0</ele><time>2026-04-08T16:29:41.823Z</time></trkpt><trkpt lat="41.881925" lon="12.861475"><ele>352.5</ele><time>2026-04-08T16:29:42.822Z</time></trkpt><trkpt lat="41.8817883" lon="12.8613883"><ele>352.0</ele><time>2026-04-08T16:29:43.822Z</time></trkpt><trkpt lat="41.881655" lon="12.8613"><ele>351.5</ele><time>2026-04-08T16:29:44.822Z</time></trkpt><trkpt lat="41.88153" lon="12.86122"><ele>351.0</ele><time>2026-04-08T16:29:45.821Z</time></trkpt><trkpt lat="41.881425" lon="12.8611533"><ele>349.0</ele><time>2026-04-08T16:29:46.821Z</time></trkpt><trkpt lat="41.8813533" lon="12.8610767"><ele>347.0</ele><time>2026-04-08T16:29:47.819Z</time></trkpt><trkpt lat="41.8813" lon="12.8609933"><ele>345.0</ele><time>2026-04-08T16:29:48.819Z</time></trkpt><trkpt lat="41.881265" lon="12.86089"><ele>343.0</ele><time>2026-04-08T16:29:49.819Z</time></trkpt><trkpt lat="41.8812433" lon="12.86076"><ele>341.0</ele><time>2026-04-08T16:29:50.818Z</time></trkpt><trkpt lat="41.88124" lon="12.8605733"><ele>341.0</ele><time>2026-04-08T16:29:51.818Z</time></trkpt><trkpt lat="41.881235" lon="12.8603683"><ele>341.0</ele><time>2026-04-08T16:29:52.818Z</time></trkpt><trkpt lat="41.881225" lon="12.8601717"><ele>341.0</ele><time>2026-04-08T16:29:53.82Z</time></trkpt><trkpt lat="41.8812067" lon="12.8599917"><ele>341.0</ele><time>2026-04-08T16:29:54.822Z</time></trkpt><trkpt lat="41.8811883" lon="12.8598117"><ele>342.0</ele><time>2026-04-08T16:29:55.822Z</time></trkpt><trkpt lat="41.8811667" lon="12.859635"><ele>343.0</ele><time>2026-04-08T16:29:56.822Z</time></trkpt><trkpt lat="41.8811183" lon="12.8594917"><ele>344.0</ele><time>2026-04-08T16:29:57.821Z</time></trkpt><trkpt lat="41.881045" lon="12.8593583"><ele>345.0</ele><time>2026-04-08T16:29:58.819Z</time></trkpt><trkpt lat="41.880955" lon="12.85923"><ele>338.5</ele><time>2026-04-08T16:29:59.819Z</time></trkpt><trkpt lat="41.8808383" lon="12.8591133"><ele>332.0</ele><time>2026-04-08T16:30:00.818Z</time></trkpt><trkpt lat="41.8807217" lon="12.8589983"><ele>325.5</ele><time>2026-04-08T16:30:01.818Z</time></trkpt><trkpt lat="41.8806" lon="12.85888"><ele>319.0</ele><time>2026-04-08T16:30:02.818Z</time></trkpt><trkpt lat="41.880475" lon="12.8587567"><ele>319.0</ele><time>2026-04-08T16:30:03.819Z</time></trkpt><trkpt lat="41.88035" lon="12.858625"><ele>319.0</ele><time>2026-04-08T16:30:04.819Z</time></trkpt><trkpt lat="41.8802167" lon="12.858485"><ele>319.0</ele><time>2026-04-08T16:30:05.82Z</time></trkpt><trkpt lat="41.880085" lon="12.8583417"><ele>315.0</ele><time>2026-04-08T16:30:06.819Z</time></trkpt><trkpt lat="41.879955" lon="12.8582083"><ele>311.0</ele><time>2026-04-08T16:30:07.818Z</time></trkpt><trkpt lat="41.8798283" lon="12.8580783"><ele>307.0</ele><time>2026-04-08T16:30:08.818Z</time></trkpt><trkpt lat="41.8797083" lon="12.8579583"><ele>307.0</ele><time>2026-04-08T16:30:09.819Z</time></trkpt><trkpt lat="41.8796" lon="12.8578483"><ele>307.0</ele><time>2026-04-08T16:30:10.818Z</time></trkpt><trkpt lat="41.87951" lon="12.8577417"><ele>307.0</ele><time>2026-04-08T16:30:11.821Z</time></trkpt><trkpt lat="41.8794467" lon="12.8576333"><ele>307.0</ele><time>2026-04-08T16:30:12.821Z</time></trkpt><trkpt lat="41.8794033" lon="12.8575117"><ele>306.6</ele><time>2026-04-08T16:30:13.819Z</time></trkpt><trkpt lat="41.8793833" lon="12.8573833"><ele>306.2</ele><time>2026-04-08T16:30:14.822Z</time></trkpt><trkpt lat="41.8793817" lon="12.8572467"><ele>305.8</ele><time>2026-04-08T16:30:15.822Z</time></trkpt><trkpt lat="41.8793883" lon="12.8571033"><ele>305.4</ele><time>2026-04-08T16:30:16.819Z</time></trkpt><trkpt lat="41.8794067" lon="12.856955"><ele>305.0</ele><time>2026-04-08T16:30:17.819Z</time></trkpt><trkpt lat="41.8794267" lon="12.8567983"><ele>304.6</ele><time>2026-04-08T16:30:18.823Z</time></trkpt><trkpt lat="41.8794483" lon="12.8566383"><ele>304.2</ele><time>2026-04-08T16:30:19.824Z</time></trkpt><trkpt lat="41.87946" lon="12.856485"><ele>303.8</ele><time>2026-04-08T16:30:20.822Z</time></trkpt><trkpt lat="41.8794733" lon="12.8563517"><ele>303.4</ele><time>2026-04-08T16:30:21.822Z</time></trkpt><trkpt lat="41.8794867" lon="12.8562217"><ele>303.0</ele><time>2026-04-08T16:30:22.821Z</time></trkpt><trkpt lat="41.8794983" lon="12.8560967"><ele>303.0</ele><time>2026-04-08T16:30:23.822Z</time></trkpt><trkpt lat="41.879505" lon="12.85598"><ele>303.0</ele><time>2026-04-08T16:30:24.822Z</time></trkpt><trkpt lat="41.8795083" lon="12.85587"><ele>303.0</ele><time>2026-04-08T16:30:25.822Z</time></trkpt><trkpt lat="41.8794967" lon="12.8557733"><ele>303.0</ele><time>2026-04-08T16:30:26.822Z</time></trkpt><trkpt lat="41.8794517" lon="12.855705"><ele>303.0</ele><time>2026-04-08T16:30:27.821Z</time></trkpt><trkpt lat="41.8793883" lon="12.85565"><ele>303.0</ele><time>2026-04-08T16:30:28.819Z</time></trkpt><trkpt lat="41.879305" lon="12.8556033"><ele>302.75</ele><time>2026-04-08T16:30:29.82Z</time></trkpt><trkpt lat="41.8791967" lon="12.855565"><ele>302.5</ele><time>2026-04-08T16:30:30.821Z</time></trkpt><trkpt lat="41.8790833" lon="12.8555283"><ele>302.25</ele><time>2026-04-08T16:30:31.818Z</time></trkpt><trkpt lat="41.8789733" lon="12.8554883"><ele>302.0</ele><time>2026-04-08T16:30:32.819Z</time></trkpt><trkpt lat="41.8788633" lon="12.85544"><ele>302.0</ele><time>2026-04-08T16:30:33.819Z</time></trkpt><trkpt lat="41.8787417" lon="12.8553883"><ele>302.0</ele><time>2026-04-08T16:30:34.822Z</time></trkpt><trkpt lat="41.8786167" lon="12.8553317"><ele>302.0</ele><time>2026-04-08T16:30:35.818Z</time></trkpt><trkpt lat="41.8784883" lon="12.8552633"><ele>302.0</ele><time>2026-04-08T16:30:36.819Z</time></trkpt><trkpt lat="41.8783517" lon="12.855195"><ele>303.33333333333337</ele><time>2026-04-08T16:30:37.819Z</time></trkpt><trkpt lat="41.8782033" lon="12.855135"><ele>304.6666666666667</ele><time>2026-04-08T16:30:38.819Z</time></trkpt><trkpt lat="41.8780617" lon="12.8550683"><ele>306.0</ele><time>2026-04-08T16:30:39.819Z</time></trkpt><trkpt lat="41.877925" lon="12.855"><ele>306.0</ele><time>2026-04-08T16:30:40.82Z</time></trkpt><trkpt lat="41.8777983" lon="12.8549383"><ele>306.0</ele><time>2026-04-08T16:30:41.819Z</time></trkpt><trkpt lat="41.8776867" lon="12.8548767"><ele>306.0</ele><time>2026-04-08T16:30:42.819Z</time></trkpt><trkpt lat="41.87759" lon="12.8548183"><ele>306.0</ele><time>2026-04-08T16:30:43.819Z</time></trkpt><trkpt lat="41.87752" lon="12.85474"><ele>307.2</ele><time>2026-04-08T16:30:44.825Z</time></trkpt><trkpt lat="41.8774717" lon="12.85465"><ele>308.40000000000003</ele><time>2026-04-08T16:30:45.82Z</time></trkpt><trkpt lat="41.8774417" lon="12.8545267"><ele>309.6</ele><time>2026-04-08T16:30:46.821Z</time></trkpt><trkpt lat="41.877425" lon="12.854385"><ele>310.8</ele><time>2026-04-08T16:30:47.823Z</time></trkpt><trkpt lat="41.8774133" lon="12.8542333"><ele>312.0</ele><time>2026-04-08T16:30:48.821Z</time></trkpt><trkpt lat="41.877395" lon="12.8540717"><ele>312.0</ele><time>2026-04-08T16:30:49.822Z</time></trkpt><trkpt lat="41.8773867" lon="12.85391"><ele>312.0</ele><time>2026-04-08T16:30:50.822Z</time></trkpt><trkpt lat="41.87737" lon="12.8537533"><ele>312.0</ele><time>2026-04-08T16:30:51.821Z</time></trkpt><trkpt lat="41.877345" lon="12.853615"><ele>312.0</ele><time>2026-04-08T16:30:52.822Z</time></trkpt><trkpt lat="41.8773033" lon="12.8534983"><ele>312.0</ele><time>2026-04-08T16:30:53.82Z</time></trkpt><trkpt lat="41.8772433" lon="12.853395"><ele>310.5</ele><time>2026-04-08T16:30:54.822Z</time></trkpt><trkpt lat="41.877155" lon="12.8533167"><ele>309.0</ele><time>2026-04-08T16:30:55.821Z</time></trkpt><trkpt lat="41.8770667" lon="12.8532617"><ele>307.5</ele><time>2026-04-08T16:30:56.819Z</time></trkpt><trkpt lat="41.876945" lon="12.8532633"><ele>306.0</ele><time>2026-04-08T16:30:57.817Z</time></trkpt><trkpt lat="41.8768233" lon="12.8533117"><ele>309.6666666666667</ele><time>2026-04-08T16:30:58.819Z</time></trkpt><trkpt lat="41.87669" lon="12.8534117"><ele>313.33333333333337</ele><time>2026-04-08T16:30:59.82Z</time></trkpt><trkpt lat="41.8765533" lon="12.8535133"><ele>317.0</ele><time>2026-04-08T16:31:00.819Z</time></trkpt><trkpt lat="41.8764233" lon="12.8536367"><ele>319.5</ele><time>2026-04-08T16:31:01.82Z</time></trkpt><trkpt lat="41.87631" lon="12.85375"><ele>322.0</ele><time>2026-04-08T16:31:02.821Z</time></trkpt><trkpt lat="41.8761983" lon="12.85386"><ele>324.5</ele><time>2026-04-08T16:31:03.818Z</time></trkpt><trkpt lat="41.8760917" lon="12.8539433"><ele>327.0</ele><time>2026-04-08T16:31:04.819Z</time></trkpt><trkpt lat="41.875985" lon="12.853995"><ele>326.40000000000003</ele><time>2026-04-08T16:31:05.819Z</time></trkpt><trkpt lat="41.8758767" lon="12.8540167"><ele>325.8</ele><time>2026-04-08T16:31:06.819Z</time></trkpt><trkpt lat="41.8757667" lon="12.8540033"><ele>325.2</ele><time>2026-04-08T16:31:07.82Z</time></trkpt><trkpt lat="41.8756583" lon="12.853965"><ele>324.6</ele><time>2026-04-08T16:31:08.819Z</time></trkpt><trkpt lat="41.8755567" lon="12.8539167"><ele>324.0</ele><time>2026-04-08T16:31:09.818Z</time></trkpt><trkpt lat="41.875455" lon="12.8538567"><ele>324.0</ele><time>2026-04-08T16:31:10.819Z</time></trkpt><trkpt lat="41.8753483" lon="12.8537883"><ele>324.0</ele><time>2026-04-08T16:31:11.821Z</time></trkpt><trkpt lat="41.8752283" lon="12.8537083"><ele>324.0</ele><time>2026-04-08T16:31:12.821Z</time></trkpt><trkpt lat="41.8750983" lon="12.853625"><ele>324.0</ele><time>2026-04-08T16:31:13.818Z</time></trkpt><trkpt lat="41.8749617" lon="12.853535"><ele>323.3333333333333</ele><time>2026-04-08T16:31:14.822Z</time></trkpt><trkpt lat="41.8748283" lon="12.85344"><ele>322.66666666666663</ele><time>2026-04-08T16:31:15.822Z</time></trkpt><trkpt lat="41.8746867" lon="12.85335"><ele>322.0</ele><time>2026-04-08T16:31:16.822Z</time></trkpt><trkpt lat="41.87454" lon="12.8532583"><ele>322.0</ele><time>2026-04-08T16:31:17.82Z</time></trkpt><trkpt lat="41.8743867" lon="12.85316"><ele>322.0</ele><time>2026-04-08T16:31:18.822Z</time></trkpt><trkpt lat="41.8742317" lon="12.853055"><ele>322.0</ele><time>2026-04-08T16:31:19.821Z</time></trkpt><trkpt lat="41.8740917" lon="12.85296"><ele>321.5</ele><time>2026-04-08T16:31:20.822Z</time></trkpt><trkpt lat="41.8739617" lon="12.8528717"><ele>321.0</ele><time>2026-04-08T16:31:21.821Z</time></trkpt><trkpt lat="41.8738433" lon="12.8527867"><ele>320.5</ele><time>2026-04-08T16:31:22.822Z</time></trkpt><trkpt lat="41.87373" lon="12.8527067"><ele>320.0</ele><time>2026-04-08T16:31:23.822Z</time></trkpt><trkpt lat="41.87362" lon="12.8526183"><ele>319.75</ele><time>2026-04-08T16:31:24.821Z</time></trkpt><trkpt lat="41.8735117" lon="12.8525117"><ele>319.5</ele><time>2026-04-08T16:31:25.822Z</time></trkpt><trkpt lat="41.873415" lon="12.8523883"><ele>319.25</ele><time>2026-04-08T16:31:26.821Z</time></trkpt><trkpt lat="41.8733283" lon="12.8522667"><ele>319.0</ele><time>2026-04-08T16:31:27.822Z</time></trkpt><trkpt lat="41.8732617" lon="12.8521367"><ele>318.75</ele><time>2026-04-08T16:31:28.82Z</time></trkpt><trkpt lat="41.87322" lon="12.852"><ele>318.5</ele><time>2026-04-08T16:31:29.819Z</time></trkpt><trkpt lat="41.8731967" lon="12.8518567"><ele>318.25</ele><time>2026-04-08T16:31:30.818Z</time></trkpt><trkpt lat="41.8731933" lon="12.8517"><ele>318.0</ele><time>2026-04-08T16:31:31.821Z</time></trkpt><trkpt lat="41.8732017" lon="12.85153"><ele>318.0</ele><time>2026-04-08T16:31:32.818Z</time></trkpt><trkpt lat="41.8732217" lon="12.851355"><ele>318.0</ele><time>2026-04-08T16:31:33.818Z</time></trkpt><trkpt lat="41.8732483" lon="12.851185"><ele>318.0</ele><time>2026-04-08T16:31:34.819Z</time></trkpt><trkpt lat="41.873275" lon="12.85102"><ele>318.0</ele><time>2026-04-08T16:31:35.82Z</time></trkpt><trkpt lat="41.8733033" lon="12.8508517"><ele>317.25</ele><time>2026-04-08T16:31:36.818Z</time></trkpt><trkpt lat="41.8733283" lon="12.8506733"><ele>316.5</ele><time>2026-04-08T16:31:37.819Z</time></trkpt><trkpt lat="41.8733667" lon="12.8505033"><ele>315.75</ele><time>2026-04-08T16:31:38.82Z</time></trkpt><trkpt lat="41.87342" lon="12.8503333"><ele>315.0</ele><time>2026-04-08T16:31:39.818Z</time></trkpt><trkpt lat="41.8734817" lon="12.8501583"><ele>317.75</ele><time>2026-04-08T16:31:40.819Z</time></trkpt><trkpt lat="41.8735467" lon="12.8499817"><ele>320.5</ele><time>2026-04-08T16:31:41.822Z</time></trkpt><trkpt lat="41.8736133" lon="12.8498183"><ele>323.25</ele><time>2026-04-08T16:31:42.822Z</time></trkpt><trkpt lat="41.8736733" lon="12.84967"><ele>326.0</ele><time>2026-04-08T16:31:43.822Z</time></trkpt><trkpt lat="41.87373" lon="12.849525"><ele>326.0</ele><time>2026-04-08T16:31:44.822Z</time></trkpt><trkpt lat="41.8737733" lon="12.8493783"><ele>326.0</ele><time>2026-04-08T16:31:45.822Z</time></trkpt><trkpt lat="41.8737967" lon="12.8492233"><ele>326.0</ele><time>2026-04-08T16:31:46.822Z</time></trkpt><trkpt lat="41.8737933" lon="12.8490533"><ele>326.0</ele><time>2026-04-08T16:31:47.821Z</time></trkpt><trkpt lat="41.8737717" lon="12.8488717"><ele>325.5</ele><time>2026-04-08T16:31:48.822Z</time></trkpt><trkpt lat="41.87375" lon="12.84868"><ele>325.0</ele><time>2026-04-08T16:31:49.822Z</time></trkpt><trkpt lat="41.873725" lon="12.8484817"><ele>324.5</ele><time>2026-04-08T16:31:50.821Z</time></trkpt><trkpt lat="41.8737017" lon="12.8482883"><ele>324.0</ele><time>2026-04-08T16:31:51.822Z</time></trkpt><trkpt lat="41.8736717" lon="12.84809"><ele>324.0</ele><time>2026-04-08T16:31:52.821Z</time></trkpt><trkpt lat="41.8736433" lon="12.8478967"><ele>324.0</ele><time>2026-04-08T16:31:53.822Z</time></trkpt><trkpt lat="41.8736217" lon="12.8477133"><ele>324.0</ele><time>2026-04-08T16:31:54.822Z</time></trkpt><trkpt lat="41.8736133" lon="12.8475417"><ele>324.0</ele><time>2026-04-08T16:31:55.822Z</time></trkpt><trkpt lat="41.8736267" lon="12.8473817"><ele>323.0</ele><time>2026-04-08T16:31:56.822Z</time></trkpt><trkpt lat="41.87366" lon="12.8472233"><ele>322.0</ele><time>2026-04-08T16:31:57.822Z</time></trkpt><trkpt lat="41.8737017" lon="12.847065"><ele>321.0</ele><time>2026-04-08T16:31:58.819Z</time></trkpt><trkpt lat="41.87374" lon="12.8469167"><ele>320.0</ele><time>2026-04-08T16:31:59.817Z</time></trkpt><trkpt lat="41.8737583" lon="12.8467833"><ele>319.4</ele><time>2026-04-08T16:32:00.818Z</time></trkpt><trkpt lat="41.873745" lon="12.846655"><ele>318.8</ele><time>2026-04-08T16:32:01.819Z</time></trkpt><trkpt lat="41.873705" lon="12.8465367"><ele>318.2</ele><time>2026-04-08T16:32:02.819Z</time></trkpt><trkpt lat="41.8736383" lon="12.846435"><ele>317.6</ele><time>2026-04-08T16:32:03.818Z</time></trkpt><trkpt lat="41.87354" lon="12.8463583"><ele>317.0</ele><time>2026-04-08T16:32:04.818Z</time></trkpt><trkpt lat="41.8734217" lon="12.846285"><ele>314.0</ele><time>2026-04-08T16:32:05.819Z</time></trkpt><trkpt lat="41.8733067" lon="12.8462067"><ele>311.0</ele><time>2026-04-08T16:32:06.817Z</time></trkpt><trkpt lat="41.8732017" lon="12.8461233"><ele>308.0</ele><time>2026-04-08T16:32:07.819Z</time></trkpt><trkpt lat="41.873115" lon="12.8460317"><ele>305.0</ele><time>2026-04-08T16:32:08.818Z</time></trkpt><trkpt lat="41.87305" lon="12.8459317"><ele>305.0</ele><time>2026-04-08T16:32:09.817Z</time></trkpt><trkpt lat="41.8730183" lon="12.84582"><ele>305.0</ele><time>2026-04-08T16:32:10.819Z</time></trkpt><trkpt lat="41.873025" lon="12.8457083"><ele>305.0</ele><time>2026-04-08T16:32:11.819Z</time></trkpt><trkpt lat="41.87306" lon="12.8456033"><ele>305.0</ele><time>2026-04-08T16:32:12.818Z</time></trkpt><trkpt lat="41.873115" lon="12.8454883"><ele>305.0</ele><time>2026-04-08T16:32:13.819Z</time></trkpt><trkpt lat="41.873185" lon="12.8453683"><ele>305.0</ele><time>2026-04-08T16:32:14.819Z</time></trkpt><trkpt lat="41.87327" lon="12.8452483"><ele>305.0</ele><time>2026-04-08T16:32:15.822Z</time></trkpt><trkpt lat="41.873375" lon="12.845145"><ele>305.0</ele><time>2026-04-08T16:32:16.821Z</time></trkpt><trkpt lat="41.873485" lon="12.845055"><ele>305.0</ele><time>2026-04-08T16:32:17.821Z</time></trkpt><trkpt lat="41.8735983" lon="12.8449917"><ele>304.75</ele><time>2026-04-08T16:32:18.821Z</time></trkpt><trkpt lat="41.87372" lon="12.8449567"><ele>304.5</ele><time>2026-04-08T16:32:19.821Z</time></trkpt><trkpt lat="41.8738367" lon="12.8449417"><ele>304.25</ele><time>2026-04-08T16:32:20.822Z</time></trkpt><trkpt lat="41.87395" lon="12.8449317"><ele>304.0</ele><time>2026-04-08T16:32:21.821Z</time></trkpt><trkpt lat="41.8740567" lon="12.8448917"><ele>304.0</ele><time>2026-04-08T16:32:22.822Z</time></trkpt><trkpt lat="41.8741533" lon="12.8448183"><ele>304.0</ele><time>2026-04-08T16:32:23.822Z</time></trkpt><trkpt lat="41.8742333" lon="12.8446983"><ele>304.0</ele><time>2026-04-08T16:32:24.822Z</time></trkpt><trkpt lat="41.8742967" lon="12.84453"><ele>304.0</ele><time>2026-04-08T16:32:25.822Z</time></trkpt><trkpt lat="41.8743417" lon="12.84434"><ele>304.75</ele><time>2026-04-08T16:32:26.822Z</time></trkpt><trkpt lat="41.8743817" lon="12.8441533"><ele>305.5</ele><time>2026-04-08T16:32:27.822Z</time></trkpt><trkpt lat="41.8744267" lon="12.8439667"><ele>306.25</ele><time>2026-04-08T16:32:28.819Z</time></trkpt><trkpt lat="41.8744783" lon="12.84377"><ele>307.0</ele><time>2026-04-08T16:32:29.818Z</time></trkpt><trkpt lat="41.8745383" lon="12.8435733"><ele>305.25</ele><time>2026-04-08T16:32:30.817Z</time></trkpt><trkpt lat="41.8746033" lon="12.8433867"><ele>303.5</ele><time>2026-04-08T16:32:31.818Z</time></trkpt><trkpt lat="41.874675" lon="12.8432133"><ele>301.75</ele><time>2026-04-08T16:32:32.818Z</time></trkpt><trkpt lat="41.87476" lon="12.8430517"><ele>300.0</ele><time>2026-04-08T16:32:33.817Z</time></trkpt><trkpt lat="41.8748533" lon="12.8428983"><ele>300.0</ele><time>2026-04-08T16:32:34.818Z</time></trkpt><trkpt lat="41.8749567" lon="12.842745"><ele>300.0</ele><time>2026-04-08T16:32:35.82Z</time></trkpt><trkpt lat="41.8750667" lon="12.84259"><ele>300.0</ele><time>2026-04-08T16:32:36.82Z</time></trkpt><trkpt lat="41.8751817" lon="12.8424383"><ele>299.6666666666667</ele><time>2026-04-08T16:32:37.82Z</time></trkpt><trkpt lat="41.8752967" lon="12.8422983"><ele>299.33333333333337</ele><time>2026-04-08T16:32:38.819Z</time></trkpt><trkpt lat="41.8754117" lon="12.8421567"><ele>299.0</ele><time>2026-04-08T16:32:39.819Z</time></trkpt><trkpt lat="41.875525" lon="12.8420067"><ele>299.0</ele><time>2026-04-08T16:32:40.817Z</time></trkpt><trkpt lat="41.875635" lon="12.8418483"><ele>299.0</ele><time>2026-04-08T16:32:41.822Z</time></trkpt><trkpt lat="41.8757383" lon="12.8416917"><ele>299.0</ele><time>2026-04-08T16:32:42.822Z</time></trkpt><trkpt lat="41.8758383" lon="12.84153"><ele>298.33333333333337</ele><time>2026-04-08T16:32:43.821Z</time></trkpt><trkpt lat="41.875925" lon="12.8413483"><ele>297.6666666666667</ele><time>2026-04-08T16:32:44.822Z</time></trkpt><trkpt lat="41.8760067" lon="12.8411533"><ele>297.0</ele><time>2026-04-08T16:32:45.82Z</time></trkpt><trkpt lat="41.8760883" lon="12.8409483"><ele>295.0</ele><time>2026-04-08T16:32:46.821Z</time></trkpt><trkpt lat="41.8761783" lon="12.84075"><ele>293.0</ele><time>2026-04-08T16:32:47.821Z</time></trkpt><trkpt lat="41.8762667" lon="12.8405633"><ele>291.0</ele><time>2026-04-08T16:32:48.821Z</time></trkpt><trkpt lat="41.8763467" lon="12.8403783"><ele>291.0</ele><time>2026-04-08T16:32:49.821Z</time></trkpt><trkpt lat="41.8764267" lon="12.840195"><ele>291.0</ele><time>2026-04-08T16:32:50.823Z</time></trkpt><trkpt lat="41.876505" lon="12.8400117"><ele>291.0</ele><time>2026-04-08T16:32:51.822Z</time></trkpt><trkpt lat="41.8765883" lon="12.83982"><ele>286.6666666666667</ele><time>2026-04-08T16:32:52.821Z</time></trkpt><trkpt lat="41.8766767" lon="12.8396233"><ele>282.33333333333337</ele><time>2026-04-08T16:32:53.821Z</time></trkpt><trkpt lat="41.8767717" lon="12.83943"><ele>278.0</ele><time>2026-04-08T16:32:54.822Z</time></trkpt><trkpt lat="41.8768683" lon="12.8392367"><ele>273.6666666666667</ele><time>2026-04-08T16:32:55.82Z</time></trkpt><trkpt lat="41.8769617" lon="12.839045"><ele>269.3333333333333</ele><time>2026-04-08T16:32:56.822Z</time></trkpt><trkpt lat="41.877055" lon="12.8388533"><ele>265.0</ele><time>2026-04-08T16:32:57.821Z</time></trkpt><trkpt lat="41.8771483" lon="12.83867"><ele>265.0</ele><time>2026-04-08T16:32:58.817Z</time></trkpt><trkpt lat="41.8772383" lon="12.8384867"><ele>265.0</ele><time>2026-04-08T16:32:59.82Z</time></trkpt><trkpt lat="41.8773283" lon="12.838305"><ele>265.0</ele><time>2026-04-08T16:33:00.819Z</time></trkpt><trkpt lat="41.877415" lon="12.83813"><ele>264.75</ele><time>2026-04-08T16:33:01.82Z</time></trkpt><trkpt lat="41.8775033" lon="12.8379633"><ele>264.5</ele><time>2026-04-08T16:33:02.819Z</time></trkpt><trkpt lat="41.8775933" lon="12.8378033"><ele>264.25</ele><time>2026-04-08T16:33:03.818Z</time></trkpt><trkpt lat="41.8776833" lon="12.8376483"><ele>264.0</ele><time>2026-04-08T16:33:04.818Z</time></trkpt><trkpt lat="41.87777" lon="12.8374967"><ele>262.8</ele><time>2026-04-08T16:33:05.819Z</time></trkpt><trkpt lat="41.8778483" lon="12.8373517"><ele>261.59999999999997</ele><time>2026-04-08T16:33:06.819Z</time></trkpt><trkpt lat="41.8779133" lon="12.8372233"><ele>260.4</ele><time>2026-04-08T16:33:07.819Z</time></trkpt><trkpt lat="41.8779583" lon="12.837115"><ele>259.2</ele><time>2026-04-08T16:33:08.819Z</time></trkpt><trkpt lat="41.8779817" lon="12.8370067"><ele>258.0</ele><time>2026-04-08T16:33:09.818Z</time></trkpt><trkpt lat="41.877965" lon="12.8369"><ele>258.0</ele><time>2026-04-08T16:33:10.819Z</time></trkpt><trkpt lat="41.8779217" lon="12.8368083"><ele>258.0</ele><time>2026-04-08T16:33:11.822Z</time></trkpt><trkpt lat="41.87786" lon="12.8367383"><ele>258.0</ele><time>2026-04-08T16:33:12.82Z</time></trkpt><trkpt lat="41.8777983" lon="12.836685"><ele>258.0</ele><time>2026-04-08T16:33:13.822Z</time></trkpt><trkpt lat="41.87771" lon="12.8367217"><ele>258.0</ele><time>2026-04-08T16:33:14.822Z</time></trkpt><trkpt lat="41.877645" lon="12.8368383"><ele>258.0</ele><time>2026-04-08T16:33:15.817Z</time></trkpt><trkpt lat="41.87756" lon="12.83699"><ele>257.75</ele><time>2026-04-08T16:33:16.818Z</time></trkpt><trkpt lat="41.8774767" lon="12.8371383"><ele>257.5</ele><time>2026-04-08T16:33:17.818Z</time></trkpt><trkpt lat="41.877415" lon="12.8372767"><ele>257.25</ele><time>2026-04-08T16:33:18.821Z</time></trkpt><trkpt lat="41.87736" lon="12.8374317"><ele>257.0</ele><time>2026-04-08T16:33:19.82Z</time></trkpt><trkpt lat="41.877315" lon="12.837555"><ele>257.6666666666667</ele><time>2026-04-08T16:33:20.821Z</time></trkpt><trkpt lat="41.877265" lon="12.83767"><ele>258.33333333333337</ele><time>2026-04-08T16:33:21.822Z</time></trkpt><trkpt lat="41.8772017" lon="12.8377617"><ele>259.0</ele><time>2026-04-08T16:33:22.819Z</time></trkpt><trkpt lat="41.87714" lon="12.8378267"><ele>259.6666666666667</ele><time>2026-04-08T16:33:23.822Z</time></trkpt><trkpt lat="41.8770617" lon="12.8378483"><ele>260.3333333333333</ele><time>2026-04-08T16:33:24.817Z</time></trkpt><trkpt lat="41.8769783" lon="12.8378367"><ele>261.0</ele><time>2026-04-08T16:33:25.821Z</time></trkpt><trkpt lat="41.8768883" lon="12.8377683"><ele>260.0</ele><time>2026-04-08T16:33:26.822Z</time></trkpt><trkpt lat="41.8768333" lon="12.8376267"><ele>259.0</ele><time>2026-04-08T16:33:27.822Z</time></trkpt><trkpt lat="41.876805" lon="12.83749"><ele>258.0</ele><time>2026-04-08T16:33:28.822Z</time></trkpt><trkpt lat="41.8767967" lon="12.8373117"><ele>257.0</ele><time>2026-04-08T16:33:29.821Z</time></trkpt><trkpt lat="41.876815" lon="12.8371333"><ele>257.0</ele><time>2026-04-08T16:33:30.821Z</time></trkpt><trkpt lat="41.8768333" lon="12.83695"><ele>257.0</ele><time>2026-04-08T16:33:31.821Z</time></trkpt><trkpt lat="41.87686" lon="12.8367717"><ele>257.0</ele><time>2026-04-08T16:33:32.818Z</time></trkpt><trkpt lat="41.8768717" lon="12.836595"><ele>257.0</ele><time>2026-04-08T16:33:33.822Z</time></trkpt><trkpt lat="41.8768767" lon="12.8364117"><ele>257.0</ele><time>2026-04-08T16:33:34.819Z</time></trkpt><trkpt lat="41.8768883" lon="12.836225"><ele>257.0</ele><time>2026-04-08T16:33:35.821Z</time></trkpt><trkpt lat="41.8769067" lon="12.8360483"><ele>257.0</ele><time>2026-04-08T16:33:36.821Z</time></trkpt><trkpt lat="41.87692" lon="12.835885"><ele>257.0</ele><time>2026-04-08T16:33:37.821Z</time></trkpt><trkpt lat="41.8769517" lon="12.8357383"><ele>257.0</ele><time>2026-04-08T16:33:38.822Z</time></trkpt><trkpt lat="41.877" lon="12.8356017"><ele>257.0</ele><time>2026-04-08T16:33:39.82Z</time></trkpt><trkpt lat="41.877065" lon="12.8354733"><ele>257.0</ele><time>2026-04-08T16:33:40.819Z</time></trkpt><trkpt lat="41.8771567" lon="12.835345"><ele>257.0</ele><time>2026-04-08T16:33:41.819Z</time></trkpt><trkpt lat="41.8772583" lon="12.8352167"><ele>256.33333333333337</ele><time>2026-04-08T16:33:42.818Z</time></trkpt><trkpt lat="41.8773683" lon="12.835085"><ele>255.66666666666669</ele><time>2026-04-08T16:33:43.819Z</time></trkpt><trkpt lat="41.8774967" lon="12.8349417"><ele>255.0</ele><time>2026-04-08T16:33:44.819Z</time></trkpt><trkpt lat="41.87763" lon="12.8347883"><ele>255.0</ele><time>2026-04-08T16:33:45.818Z</time></trkpt><trkpt lat="41.8777533" lon="12.8346283"><ele>255.0</ele><time>2026-04-08T16:33:46.818Z</time></trkpt><trkpt lat="41.8778767" lon="12.834465"><ele>255.0</ele><time>2026-04-08T16:33:47.819Z</time></trkpt><trkpt lat="41.8780117" lon="12.8343117"><ele>259.5</ele><time>2026-04-08T16:33:48.818Z</time></trkpt><trkpt lat="41.8781367" lon="12.834185"><ele>264.0</ele><time>2026-04-08T16:33:49.82Z</time></trkpt><trkpt lat="41.878245" lon="12.8340783"><ele>268.5</ele><time>2026-04-08T16:33:50.819Z</time></trkpt><trkpt lat="41.8783267" lon="12.8339817"><ele>273.0</ele><time>2026-04-08T16:33:51.819Z</time></trkpt><trkpt lat="41.8784017" lon="12.8338883"><ele>273.3333333333333</ele><time>2026-04-08T16:33:52.818Z</time></trkpt><trkpt lat="41.8784633" lon="12.8337783"><ele>273.6666666666667</ele><time>2026-04-08T16:33:53.817Z</time></trkpt><trkpt lat="41.8784933" lon="12.83367"><ele>274.0</ele><time>2026-04-08T16:33:54.818Z</time></trkpt><trkpt lat="41.8785067" lon="12.8335567"><ele>274.33333333333337</ele><time>2026-04-08T16:33:55.817Z</time></trkpt><trkpt lat="41.8785083" lon="12.8334583"><ele>274.6666666666667</ele><time>2026-04-08T16:33:56.819Z</time></trkpt><trkpt lat="41.8784917" lon="12.8333683"><ele>275.0</ele><time>2026-04-08T16:33:57.821Z</time></trkpt><trkpt lat="41.8783833" lon="12.8333217"><ele>274.0</ele><time>2026-04-08T16:33:59.819Z</time></trkpt><trkpt lat="41.878195" lon="12.83349"><ele>273.0</ele><time>2026-04-08T16:34:00.819Z</time></trkpt><trkpt lat="41.8779883" lon="12.8337367"><ele>273.0</ele><time>2026-04-08T16:34:01.818Z</time></trkpt><trkpt lat="41.8778367" lon="12.8339433"><ele>273.0</ele><time>2026-04-08T16:34:02.818Z</time></trkpt><trkpt lat="41.8777" lon="12.834125"><ele>273.0</ele><time>2026-04-08T16:34:03.819Z</time></trkpt><trkpt lat="41.8775817" lon="12.8342783"><ele>273.5</ele><time>2026-04-08T16:34:04.82Z</time></trkpt><trkpt lat="41.8774783" lon="12.8344017"><ele>274.0</ele><time>2026-04-08T16:34:05.818Z</time></trkpt><trkpt lat="41.87738" lon="12.8345017"><ele>274.5</ele><time>2026-04-08T16:34:06.821Z</time></trkpt><trkpt lat="41.877275" lon="12.8345783"><ele>275.0</ele><time>2026-04-08T16:34:07.821Z</time></trkpt><trkpt lat="41.8771633" lon="12.8346267"><ele>275.0</ele><time>2026-04-08T16:34:08.821Z</time></trkpt><trkpt lat="41.8770517" lon="12.834655"><ele>275.0</ele><time>2026-04-08T16:34:09.818Z</time></trkpt><trkpt lat="41.8769383" lon="12.83465"><ele>275.0</ele><time>2026-04-08T16:34:10.819Z</time></trkpt><trkpt lat="41.8768267" lon="12.834605"><ele>275.0</ele><time>2026-04-08T16:34:11.821Z</time></trkpt><trkpt lat="41.876725" lon="12.8345267"><ele>277.0</ele><time>2026-04-08T16:34:12.822Z</time></trkpt><trkpt lat="41.8766417" lon="12.8344183"><ele>279.0</ele><time>2026-04-08T16:34:13.822Z</time></trkpt><trkpt lat="41.876575" lon="12.8342983"><ele>281.0</ele><time>2026-04-08T16:34:14.822Z</time></trkpt><trkpt lat="41.8765367" lon="12.8341633"><ele>283.0</ele><time>2026-04-08T16:34:15.822Z</time></trkpt><trkpt lat="41.8765217" lon="12.8340083"><ele>283.0</ele><time>2026-04-08T16:34:16.822Z</time></trkpt><trkpt lat="41.8765083" lon="12.83385"><ele>283.0</ele><time>2026-04-08T16:34:17.819Z</time></trkpt><trkpt lat="41.8764983" lon="12.8336817"><ele>283.0</ele><time>2026-04-08T16:34:18.819Z</time></trkpt><trkpt lat="41.8764883" lon="12.8335017"><ele>283.0</ele><time>2026-04-08T16:34:19.82Z</time></trkpt><trkpt lat="41.8764783" lon="12.8333217"><ele>283.0</ele><time>2026-04-08T16:34:20.819Z</time></trkpt><trkpt lat="41.8764667" lon="12.833145"><ele>283.0</ele><time>2026-04-08T16:34:21.819Z</time></trkpt><trkpt lat="41.8764567" lon="12.8329733"><ele>283.0</ele><time>2026-04-08T16:34:22.819Z</time></trkpt><trkpt lat="41.876445" lon="12.8327983"><ele>283.0</ele><time>2026-04-08T16:34:23.821Z</time></trkpt><trkpt lat="41.8764317" lon="12.8326217"><ele>282.5</ele><time>2026-04-08T16:34:24.821Z</time></trkpt><trkpt lat="41.8764167" lon="12.83244"><ele>282.0</ele><time>2026-04-08T16:34:25.82Z</time></trkpt><trkpt lat="41.8764017" lon="12.8322533"><ele>281.5</ele><time>2026-04-08T16:34:26.822Z</time></trkpt><trkpt lat="41.8763883" lon="12.8320633"><ele>281.0</ele><time>2026-04-08T16:34:27.821Z</time></trkpt><trkpt lat="41.876375" lon="12.8318717"><ele>280.0</ele><time>2026-04-08T16:34:28.819Z</time></trkpt><trkpt lat="41.8763633" lon="12.8316833"><ele>279.0</ele><time>2026-04-08T16:34:29.819Z</time></trkpt><trkpt lat="41.87635" lon="12.8315067"><ele>278.0</ele><time>2026-04-08T16:34:30.818Z</time></trkpt><trkpt lat="41.8763383" lon="12.83133"><ele>277.0</ele><time>2026-04-08T16:34:31.818Z</time></trkpt><trkpt lat="41.876325" lon="12.8311517"><ele>276.25</ele><time>2026-04-08T16:34:32.818Z</time></trkpt><trkpt lat="41.87631" lon="12.83097"><ele>275.5</ele><time>2026-04-08T16:34:33.818Z</time></trkpt><trkpt lat="41.8762917" lon="12.8307867"><ele>274.75</ele><time>2026-04-08T16:34:34.818Z</time></trkpt><trkpt lat="41.8762783" lon="12.8305933"><ele>274.0</ele><time>2026-04-08T16:34:35.819Z</time></trkpt><trkpt lat="41.8762717" lon="12.8303883"><ele>274.0</ele><time>2026-04-08T16:34:36.818Z</time></trkpt><trkpt lat="41.8762717" lon="12.8301717"><ele>274.0</ele><time>2026-04-08T16:34:37.819Z</time></trkpt><trkpt lat="41.8762833" lon="12.8299467"><ele>274.0</ele><time>2026-04-08T16:34:38.822Z</time></trkpt><trkpt lat="41.8763033" lon="12.829715"><ele>273.3333333333333</ele><time>2026-04-08T16:34:39.817Z</time></trkpt><trkpt lat="41.8763283" lon="12.8294817"><ele>272.6666666666667</ele><time>2026-04-08T16:34:40.818Z</time></trkpt><trkpt lat="41.8763533" lon="12.8292517"><ele>272.0</ele><time>2026-04-08T16:34:41.823Z</time></trkpt><trkpt lat="41.8763783" lon="12.829025"><ele>271.33333333333337</ele><time>2026-04-08T16:34:42.823Z</time></trkpt><trkpt lat="41.876405" lon="12.8288"><ele>270.6666666666667</ele><time>2026-04-08T16:34:43.822Z</time></trkpt><trkpt lat="41.8764333" lon="12.8285683"><ele>270.0</ele><time>2026-04-08T16:34:44.822Z</time></trkpt><trkpt lat="41.876465" lon="12.8283283"><ele>270.0</ele><time>2026-04-08T16:34:45.822Z</time></trkpt><trkpt lat="41.8764933" lon="12.8280833"><ele>270.0</ele><time>2026-04-08T16:34:46.821Z</time></trkpt><trkpt lat="41.8765167" lon="12.8278467"><ele>270.0</ele><time>2026-04-08T16:34:47.818Z</time></trkpt><trkpt lat="41.87654" lon="12.8276233"><ele>269.6666666666667</ele><time>2026-04-08T16:34:48.818Z</time></trkpt><trkpt lat="41.8765617" lon="12.82741"><ele>269.33333333333337</ele><time>2026-04-08T16:34:49.817Z</time></trkpt><trkpt lat="41.8765783" lon="12.8272017"><ele>269.0</ele><time>2026-04-08T16:34:50.817Z</time></trkpt><trkpt lat="41.8765883" lon="12.8269933"><ele>269.0</ele><time>2026-04-08T16:34:51.818Z</time></trkpt><trkpt lat="41.8765867" lon="12.8267817"><ele>269.0</ele><time>2026-04-08T16:34:52.817Z</time></trkpt><trkpt lat="41.8765733" lon="12.8265683"><ele>269.0</ele><time>2026-04-08T16:34:53.821Z</time></trkpt><trkpt lat="41.87655" lon="12.8263517"><ele>269.0</ele><time>2026-04-08T16:34:54.82Z</time></trkpt><trkpt lat="41.8765267" lon="12.82614"><ele>269.0</ele><time>2026-04-08T16:34:55.824Z</time></trkpt><trkpt lat="41.8765" lon="12.82594"><ele>269.0</ele><time>2026-04-08T16:34:56.82Z</time></trkpt><trkpt lat="41.8764583" lon="12.8257617"><ele>268.25</ele><time>2026-04-08T16:34:57.819Z</time></trkpt><trkpt lat="41.8764017" lon="12.825605"><ele>267.5</ele><time>2026-04-08T16:34:58.819Z</time></trkpt><trkpt lat="41.8763267" lon="12.8254617"><ele>266.75</ele><time>2026-04-08T16:34:59.818Z</time></trkpt><trkpt lat="41.8762333" lon="12.82534"><ele>266.0</ele><time>2026-04-08T16:35:00.818Z</time></trkpt><trkpt lat="41.8761367" lon="12.8252267"><ele>266.0</ele><time>2026-04-08T16:35:01.818Z</time></trkpt><trkpt lat="41.8760367" lon="12.8251267"><ele>266.0</ele><time>2026-04-08T16:35:02.818Z</time></trkpt><trkpt lat="41.875935" lon="12.8250533"><ele>266.0</ele><time>2026-04-08T16:35:03.821Z</time></trkpt><trkpt lat="41.8758267" lon="12.82501"><ele>266.0</ele><time>2026-04-08T16:35:04.82Z</time></trkpt><trkpt lat="41.8757133" lon="12.8249933"><ele>266.0</ele><time>2026-04-08T16:35:05.819Z</time></trkpt><trkpt lat="41.8755933" lon="12.8250067"><ele>266.0</ele><time>2026-04-08T16:35:06.818Z</time></trkpt><trkpt lat="41.8754667" lon="12.825065"><ele>266.0</ele><time>2026-04-08T16:35:07.818Z</time></trkpt><trkpt lat="41.8753467" lon="12.8251517"><ele>266.0</ele><time>2026-04-08T16:35:08.823Z</time></trkpt><trkpt lat="41.87523" lon="12.8252383"><ele>266.5</ele><time>2026-04-08T16:35:09.818Z</time></trkpt><trkpt lat="41.8751267" lon="12.825305"><ele>267.0</ele><time>2026-04-08T16:35:10.818Z</time></trkpt><trkpt lat="41.87503" lon="12.8253333"><ele>267.5</ele><time>2026-04-08T16:35:11.82Z</time></trkpt><trkpt lat="41.8749483" lon="12.8253167"><ele>268.0</ele><time>2026-04-08T16:35:12.818Z</time></trkpt><trkpt lat="41.8748783" lon="12.825265"><ele>268.5</ele><time>2026-04-08T16:35:13.822Z</time></trkpt><trkpt lat="41.874855" lon="12.8251767"><ele>269.0</ele><time>2026-04-08T16:35:14.822Z</time></trkpt><trkpt lat="41.8748567" lon="12.8250733"><ele>268.4</ele><time>2026-04-08T16:35:15.821Z</time></trkpt><trkpt lat="41.874895" lon="12.82497"><ele>267.79999999999995</ele><time>2026-04-08T16:35:16.821Z</time></trkpt><trkpt lat="41.8749583" lon="12.8248617"><ele>267.20000000000005</ele><time>2026-04-08T16:35:17.818Z</time></trkpt><trkpt lat="41.8750483" lon="12.8247367"><ele>266.6</ele><time>2026-04-08T16:35:18.818Z</time></trkpt><trkpt lat="41.8751333" lon="12.8246067"><ele>266.0</ele><time>2026-04-08T16:35:19.819Z</time></trkpt><trkpt lat="41.875225" lon="12.8244767"><ele>266.0</ele><time>2026-04-08T16:35:20.817Z</time></trkpt><trkpt lat="41.8753033" lon="12.8243383"><ele>266.0</ele><time>2026-04-08T16:35:21.817Z</time></trkpt><trkpt lat="41.875375" lon="12.82419"><ele>266.0</ele><time>2026-04-08T16:35:22.818Z</time></trkpt><trkpt lat="41.8754467" lon="12.8240367"><ele>266.0</ele><time>2026-04-08T16:35:23.819Z</time></trkpt><trkpt lat="41.8755167" lon="12.8238717"><ele>264.5</ele><time>2026-04-08T16:35:24.822Z</time></trkpt><trkpt lat="41.87558" lon="12.8237117"><ele>263.0</ele><time>2026-04-08T16:35:25.821Z</time></trkpt><trkpt lat="41.87563" lon="12.823555"><ele>261.5</ele><time>2026-04-08T16:35:26.823Z</time></trkpt><trkpt lat="41.8756667" lon="12.8233917"><ele>260.0</ele><time>2026-04-08T16:35:27.821Z</time></trkpt><trkpt lat="41.875695" lon="12.8232167"><ele>258.5</ele><time>2026-04-08T16:35:28.818Z</time></trkpt><trkpt lat="41.87572" lon="12.82303"><ele>257.0</ele><time>2026-04-08T16:35:29.818Z</time></trkpt><trkpt lat="41.8757417" lon="12.822845"><ele>255.5</ele><time>2026-04-08T16:35:30.818Z</time></trkpt><trkpt lat="41.8757667" lon="12.8226683"><ele>254.0</ele><time>2026-04-08T16:35:31.821Z</time></trkpt><trkpt lat="41.8757983" lon="12.8225017"><ele>254.25</ele><time>2026-04-08T16:35:32.822Z</time></trkpt><trkpt lat="41.8758333" lon="12.8223383"><ele>254.5</ele><time>2026-04-08T16:35:33.82Z</time></trkpt><trkpt lat="41.87587" lon="12.822175"><ele>254.75</ele><time>2026-04-08T16:35:34.818Z</time></trkpt><trkpt lat="41.87591" lon="12.8220067"><ele>255.0</ele><time>2026-04-08T16:35:35.819Z</time></trkpt><trkpt lat="41.8759483" lon="12.8218367"><ele>254.25</ele><time>2026-04-08T16:35:36.819Z</time></trkpt><trkpt lat="41.875985" lon="12.8216667"><ele>253.5</ele><time>2026-04-08T16:35:37.819Z</time></trkpt><trkpt lat="41.87602" lon="12.8214983"><ele>252.75</ele><time>2026-04-08T16:35:38.82Z</time></trkpt><trkpt lat="41.8760533" lon="12.82133"><ele>252.0</ele><time>2026-04-08T16:35:39.82Z</time></trkpt><trkpt lat="41.8760867" lon="12.8211683"><ele>252.0</ele><time>2026-04-08T16:35:40.821Z</time></trkpt><trkpt lat="41.8761133" lon="12.8210133"><ele>252.0</ele><time>2026-04-08T16:35:41.822Z</time></trkpt><trkpt lat="41.87613" lon="12.82086"><ele>252.0</ele><time>2026-04-08T16:35:42.821Z</time></trkpt><trkpt lat="41.8761383" lon="12.8207083"><ele>252.0</ele><time>2026-04-08T16:35:43.821Z</time></trkpt><trkpt lat="41.8761467" lon="12.8205617"><ele>251.39999999999998</ele><time>2026-04-08T16:35:44.822Z</time></trkpt><trkpt lat="41.876155" lon="12.8204217"><ele>250.79999999999998</ele><time>2026-04-08T16:35:45.818Z</time></trkpt><trkpt lat="41.8761667" lon="12.820285"><ele>250.2</ele><time>2026-04-08T16:35:46.821Z</time></trkpt><trkpt lat="41.876185" lon="12.820155"><ele>249.6</ele><time>2026-04-08T16:35:47.821Z</time></trkpt><trkpt lat="41.8762183" lon="12.8200333"><ele>249.0</ele><time>2026-04-08T16:35:48.82Z</time></trkpt><trkpt lat="41.8762667" lon="12.8199217"><ele>248.39999999999998</ele><time>2026-04-08T16:35:49.82Z</time></trkpt><trkpt lat="41.876325" lon="12.819805"><ele>247.79999999999998</ele><time>2026-04-08T16:35:50.822Z</time></trkpt><trkpt lat="41.8763833" lon="12.8196883"><ele>247.20000000000002</ele><time>2026-04-08T16:35:51.82Z</time></trkpt><trkpt lat="41.8764367" lon="12.8195717"><ele>246.60000000000002</ele><time>2026-04-08T16:35:52.821Z</time></trkpt><trkpt lat="41.8764833" lon="12.81946"><ele>246.0</ele><time>2026-04-08T16:35:53.82Z</time></trkpt><trkpt lat="41.8765117" lon="12.81935"><ele>245.0</ele><time>2026-04-08T16:35:54.821Z</time></trkpt><trkpt lat="41.8765217" lon="12.819235"><ele>244.00000000000003</ele><time>2026-04-08T16:35:55.821Z</time></trkpt><trkpt lat="41.8765017" lon="12.8191217"><ele>243.00000000000003</ele><time>2026-04-08T16:35:56.822Z</time></trkpt><trkpt lat="41.87645" lon="12.819035"><ele>242.0</ele><time>2026-04-08T16:35:57.821Z</time></trkpt><trkpt lat="41.876375" lon="12.818955"><ele>241.0</ele><time>2026-04-08T16:35:58.818Z</time></trkpt><trkpt lat="41.8762533" lon="12.8188883"><ele>241.0</ele><time>2026-04-08T16:35:59.818Z</time></trkpt><trkpt lat="41.8761267" lon="12.8188183"><ele>241.0</ele><time>2026-04-08T16:36:00.817Z</time></trkpt><trkpt lat="41.8760083" lon="12.818745"><ele>241.0</ele><time>2026-04-08T16:36:01.817Z</time></trkpt><trkpt lat="41.8758967" lon="12.8186783"><ele>241.0</ele><time>2026-04-08T16:36:02.821Z</time></trkpt><trkpt lat="41.8758033" lon="12.818615"><ele>239.99999999999997</ele><time>2026-04-08T16:36:03.821Z</time></trkpt><trkpt lat="41.8757217" lon="12.8185567"><ele>239.0</ele><time>2026-04-08T16:36:04.821Z</time></trkpt><trkpt lat="41.8756467" lon="12.8184983"><ele>238.0</ele><time>2026-04-08T16:36:05.818Z</time></trkpt><trkpt lat="41.87557" lon="12.8184467"><ele>237.0</ele><time>2026-04-08T16:36:06.822Z</time></trkpt><trkpt lat="41.8754933" lon="12.8183983"><ele>235.99999999999997</ele><time>2026-04-08T16:36:07.821Z</time></trkpt><trkpt lat="41.8754117" lon="12.8183667"><ele>235.0</ele><time>2026-04-08T16:36:08.822Z</time></trkpt><trkpt lat="41.875325" lon="12.8183667"><ele>234.6</ele><time>2026-04-08T16:36:09.824Z</time></trkpt><trkpt lat="41.87524" lon="12.8183717"><ele>234.2</ele><time>2026-04-08T16:36:10.822Z</time></trkpt><trkpt lat="41.8751417" lon="12.818405"><ele>233.8</ele><time>2026-04-08T16:36:11.821Z</time></trkpt><trkpt lat="41.87505" lon="12.81843"><ele>233.4</ele><time>2026-04-08T16:36:12.821Z</time></trkpt><trkpt lat="41.874955" lon="12.81846"><ele>233.0</ele><time>2026-04-08T16:36:13.821Z</time></trkpt><trkpt lat="41.8748567" lon="12.81848"><ele>233.2</ele><time>2026-04-08T16:36:14.821Z</time></trkpt><trkpt lat="41.8747583" lon="12.8184883"><ele>233.4</ele><time>2026-04-08T16:36:15.821Z</time></trkpt><trkpt lat="41.87466" lon="12.8184733"><ele>233.59999999999997</ele><time>2026-04-08T16:36:16.821Z</time></trkpt><trkpt lat="41.8745667" lon="12.8184467"><ele>233.79999999999998</ele><time>2026-04-08T16:36:17.822Z</time></trkpt><trkpt lat="41.87448" lon="12.8184183"><ele>234.0</ele><time>2026-04-08T16:36:18.822Z</time></trkpt><trkpt lat="41.8743933" lon="12.8183983"><ele>234.33333333333334</ele><time>2026-04-08T16:36:19.822Z</time></trkpt><trkpt lat="41.8743067" lon="12.81839"><ele>234.66666666666669</ele><time>2026-04-08T16:36:20.82Z</time></trkpt><trkpt lat="41.8742233" lon="12.81841"><ele>235.0</ele><time>2026-04-08T16:36:21.821Z</time></trkpt><trkpt lat="41.8741433" lon="12.8184517"><ele>235.33333333333334</ele><time>2026-04-08T16:36:22.821Z</time></trkpt><trkpt lat="41.8740683" lon="12.8185133"><ele>235.66666666666669</ele><time>2026-04-08T16:36:23.821Z</time></trkpt><trkpt lat="41.873995" lon="12.8185867"><ele>236.0</ele><time>2026-04-08T16:36:24.821Z</time></trkpt><trkpt lat="41.8739217" lon="12.81865"><ele>236.00000000000003</ele><time>2026-04-08T16:36:25.82Z</time></trkpt><trkpt lat="41.8738483" lon="12.8186967"><ele>236.0</ele><time>2026-04-08T16:36:26.821Z</time></trkpt><trkpt lat="41.8737717" lon="12.8187283"><ele>236.0</ele><time>2026-04-08T16:36:27.822Z</time></trkpt><trkpt lat="41.8736917" lon="12.8187367"><ele>236.0</ele><time>2026-04-08T16:36:28.821Z</time></trkpt><trkpt lat="41.8736233" lon="12.8187217"><ele>236.00000000000003</ele><time>2026-04-08T16:36:29.818Z</time></trkpt><trkpt lat="41.8735567" lon="12.818685"><ele>236.0</ele><time>2026-04-08T16:36:30.819Z</time></trkpt><trkpt lat="41.873495" lon="12.8186217"><ele>234.83333333333334</ele><time>2026-04-08T16:36:31.82Z</time></trkpt><trkpt lat="41.8734383" lon="12.81855"><ele>233.66666666666669</ele><time>2026-04-08T16:36:32.822Z</time></trkpt><trkpt lat="41.8733967" lon="12.8184667"><ele>232.5</ele><time>2026-04-08T16:36:33.821Z</time></trkpt><trkpt lat="41.87335" lon="12.818345"><ele>231.33333333333331</ele><time>2026-04-08T16:36:35.821Z</time></trkpt><trkpt lat="41.87336" lon="12.8182283"><ele>230.16666666666666</ele><time>2026-04-08T16:36:38.82Z</time></trkpt><trkpt lat="41.8734" lon="12.818125"><ele>229.0</ele><time>2026-04-08T16:36:40.821Z</time></trkpt><trkpt lat="41.8734783" lon="12.8179767"><ele>226.79999999999998</ele><time>2026-04-08T16:36:42.82Z</time></trkpt><trkpt lat="41.8735233" lon="12.8178917"><ele>224.59999999999997</ele><time>2026-04-08T16:36:43.82Z</time></trkpt><trkpt lat="41.87358" lon="12.8177967"><ele>222.4</ele><time>2026-04-08T16:36:44.821Z</time></trkpt><trkpt lat="41.8736467" lon="12.8176967"><ele>220.2</ele><time>2026-04-08T16:36:45.82Z</time></trkpt><trkpt lat="41.8737083" lon="12.8175917"><ele>218.0</ele><time>2026-04-08T16:36:46.822Z</time></trkpt><trkpt lat="41.8737633" lon="12.817485"><ele>216.8</ele><time>2026-04-08T16:36:47.821Z</time></trkpt><trkpt lat="41.8737967" lon="12.8173617"><ele>215.60000000000002</ele><time>2026-04-08T16:36:48.82Z</time></trkpt><trkpt lat="41.8738033" lon="12.8172333"><ele>214.39999999999998</ele><time>2026-04-08T16:36:49.82Z</time></trkpt><trkpt lat="41.873775" lon="12.817115"><ele>213.2</ele><time>2026-04-08T16:36:50.825Z</time></trkpt><trkpt lat="41.873715" lon="12.8170183"><ele>212.0</ele><time>2026-04-08T16:36:51.821Z</time></trkpt><trkpt lat="41.8736317" lon="12.8169433"><ele>212.0</ele><time>2026-04-08T16:36:52.821Z</time></trkpt><trkpt lat="41.87353" lon="12.8168933"><ele>212.0</ele><time>2026-04-08T16:36:53.818Z</time></trkpt><trkpt lat="41.8734183" lon="12.81686"><ele>212.0</ele><time>2026-04-08T16:36:54.818Z</time></trkpt><trkpt lat="41.873305" lon="12.816835"><ele>212.0</ele><time>2026-04-08T16:36:55.822Z</time></trkpt><trkpt lat="41.873185" lon="12.8168217"><ele>211.0</ele><time>2026-04-08T16:36:56.82Z</time></trkpt><trkpt lat="41.8730667" lon="12.81681"><ele>210.0</ele><time>2026-04-08T16:36:57.818Z</time></trkpt><trkpt lat="41.8729567" lon="12.816805"><ele>209.0</ele><time>2026-04-08T16:36:58.818Z</time></trkpt><trkpt lat="41.872855" lon="12.816805"><ele>208.0</ele><time>2026-04-08T16:36:59.819Z</time></trkpt><trkpt lat="41.8727567" lon="12.816825"><ele>207.0</ele><time>2026-04-08T16:37:00.817Z</time></trkpt><trkpt lat="41.8726617" lon="12.816865"><ele>211.6</ele><time>2026-04-08T16:37:01.821Z</time></trkpt><trkpt lat="41.87257" lon="12.816915"><ele>216.2</ele><time>2026-04-08T16:37:02.821Z</time></trkpt><trkpt lat="41.8724833" lon="12.8169683"><ele>220.8</ele><time>2026-04-08T16:37:03.818Z</time></trkpt><trkpt lat="41.8723967" lon="12.81701"><ele>225.4</ele><time>2026-04-08T16:37:04.818Z</time></trkpt><trkpt lat="41.8723133" lon="12.8170517"><ele>230.0</ele><time>2026-04-08T16:37:05.818Z</time></trkpt><trkpt lat="41.8722233" lon="12.8170933"><ele>230.0</ele><time>2026-04-08T16:37:06.817Z</time></trkpt><trkpt lat="41.87213" lon="12.8171317"><ele>230.0</ele><time>2026-04-08T16:37:07.817Z</time></trkpt><trkpt lat="41.8720333" lon="12.8171717"><ele>230.0</ele><time>2026-04-08T16:37:08.82Z</time></trkpt><trkpt lat="41.87194" lon="12.817205"><ele>230.0</ele><time>2026-04-08T16:37:09.821Z</time></trkpt><trkpt lat="41.87186" lon="12.817235"><ele>230.0</ele><time>2026-04-08T16:37:10.818Z</time></trkpt><trkpt lat="41.8717767" lon="12.8172667"><ele>226.50000000000003</ele><time>2026-04-08T16:37:12.82Z</time></trkpt><trkpt lat="41.8716933" lon="12.817265"><ele>223.0</ele><time>2026-04-08T16:37:16.821Z</time></trkpt><trkpt lat="41.871635" lon="12.817175"><ele>219.5</ele><time>2026-04-08T16:37:18.818Z</time></trkpt><trkpt lat="41.8715533" lon="12.8170367"><ele>216.0</ele><time>2026-04-08T16:37:20.819Z</time></trkpt><trkpt lat="41.8715117" lon="12.816965"><ele>212.50000000000003</ele><time>2026-04-08T16:37:21.817Z</time></trkpt><trkpt lat="41.8714667" lon="12.8168967"><ele>209.0</ele><time>2026-04-08T16:37:22.818Z</time></trkpt><trkpt lat="41.8714133" lon="12.816835"><ele>209.0</ele><time>2026-04-08T16:37:23.819Z</time></trkpt><trkpt lat="41.8713433" lon="12.81679"><ele>209.0</ele><time>2026-04-08T16:37:24.821Z</time></trkpt><trkpt lat="41.8712633" lon="12.8167833"><ele>209.0</ele><time>2026-04-08T16:37:25.82Z</time></trkpt><trkpt lat="41.8711717" lon="12.8168267"><ele>209.0</ele><time>2026-04-08T16:37:26.818Z</time></trkpt><trkpt lat="41.871085" lon="12.816875"><ele>209.0</ele><time>2026-04-08T16:37:27.818Z</time></trkpt><trkpt lat="41.8709883" lon="12.8169917"><ele>209.0</ele><time>2026-04-08T16:37:28.819Z</time></trkpt><trkpt lat="41.8709517" lon="12.8171867"><ele>209.0</ele><time>2026-04-08T16:37:29.818Z</time></trkpt><trkpt lat="41.8709517" lon="12.817415"><ele>209.0</ele><time>2026-04-08T16:37:30.819Z</time></trkpt><trkpt lat="41.8709467" lon="12.81764"><ele>211.5</ele><time>2026-04-08T16:37:31.819Z</time></trkpt><trkpt lat="41.8709233" lon="12.8178383"><ele>214.0</ele><time>2026-04-08T16:37:32.82Z</time></trkpt><trkpt lat="41.8709033" lon="12.8180067"><ele>216.5</ele><time>2026-04-08T16:37:33.818Z</time></trkpt><trkpt lat="41.8708817" lon="12.8181533"><ele>219.0</ele><time>2026-04-08T16:37:34.819Z</time></trkpt><trkpt lat="41.8708567" lon="12.81829"><ele>219.0</ele><time>2026-04-08T16:37:35.819Z</time></trkpt><trkpt lat="41.8708183" lon="12.8183983"><ele>219.0</ele><time>2026-04-08T16:37:36.82Z</time></trkpt><trkpt lat="41.8707767" lon="12.818485"><ele>219.0</ele><time>2026-04-08T16:37:37.818Z</time></trkpt><trkpt lat="41.870715" lon="12.8185283"><ele>219.0</ele><time>2026-04-08T16:37:38.818Z</time></trkpt><trkpt lat="41.87065" lon="12.8185283"><ele>219.0</ele><time>2026-04-08T16:37:39.817Z</time></trkpt><trkpt lat="41.87059" lon="12.8184667"><ele>219.0</ele><time>2026-04-08T16:37:40.821Z</time></trkpt><trkpt lat="41.8705367" lon="12.8183717"><ele>219.0</ele><time>2026-04-08T16:37:41.822Z</time></trkpt><trkpt lat="41.8704983" lon="12.8182967"><ele>219.0</ele><time>2026-04-08T16:37:42.817Z</time></trkpt><trkpt lat="41.8704733" lon="12.8181867"><ele>219.0</ele><time>2026-04-08T16:37:43.82Z</time></trkpt><trkpt lat="41.870465" lon="12.8180183"><ele>219.0</ele><time>2026-04-08T16:37:44.819Z</time></trkpt><trkpt lat="41.8705017" lon="12.8177883"><ele>221.0</ele><time>2026-04-08T16:37:45.819Z</time></trkpt><trkpt lat="41.870605" lon="12.8174983"><ele>223.0</ele><time>2026-04-08T16:37:46.818Z</time></trkpt><trkpt lat="41.8706983" lon="12.81727"><ele>225.0</ele><time>2026-04-08T16:37:47.819Z</time></trkpt><trkpt lat="41.8707783" lon="12.8170467"><ele>225.0</ele><time>2026-04-08T16:37:48.818Z</time></trkpt><trkpt lat="41.87088" lon="12.81685"><ele>225.0</ele><time>2026-04-08T16:37:49.821Z</time></trkpt><trkpt lat="41.870945" lon="12.8166867"><ele>225.0</ele><time>2026-04-08T16:37:50.821Z</time></trkpt><trkpt lat="41.8710117" lon="12.8165617"><ele>225.0</ele><time>2026-04-08T16:37:51.82Z</time></trkpt><trkpt lat="41.8710567" lon="12.8164783"><ele>225.8</ele><time>2026-04-08T16:37:52.821Z</time></trkpt><trkpt lat="41.871125" lon="12.81639"><ele>226.6</ele><time>2026-04-08T16:37:54.821Z</time></trkpt><trkpt lat="41.8711667" lon="12.8162667"><ele>227.39999999999998</ele><time>2026-04-08T16:39:07.818Z</time></trkpt><trkpt lat="41.8712033" lon="12.816105"><ele>228.2</ele><time>2026-04-08T16:39:09.818Z</time></trkpt><trkpt lat="41.87122" lon="12.816015"><ele>229.0</ele><time>2026-04-08T16:39:10.82Z</time></trkpt><trkpt lat="41.8712333" lon="12.8159217"><ele>229.0</ele><time>2026-04-08T16:39:11.823Z</time></trkpt><trkpt lat="41.87124" lon="12.815825"><ele>229.0</ele><time>2026-04-08T16:39:12.817Z</time></trkpt><trkpt lat="41.8712333" lon="12.81573"><ele>229.0</ele><time>2026-04-08T16:39:13.818Z</time></trkpt><trkpt lat="41.8712233" lon="12.8156417"><ele>229.0</ele><time>2026-04-08T16:39:14.818Z</time></trkpt><trkpt lat="41.8712117" lon="12.8155567"><ele>229.0</ele><time>2026-04-08T16:39:15.817Z</time></trkpt><trkpt lat="41.871195" lon="12.815465"><ele>229.0</ele><time>2026-04-08T16:39:16.818Z</time></trkpt><trkpt lat="41.8711717" lon="12.8153617"><ele>229.0</ele><time>2026-04-08T16:39:17.818Z</time></trkpt><trkpt lat="41.8711367" lon="12.8152283"><ele>228.75</ele><time>2026-04-08T16:39:18.818Z</time></trkpt><trkpt lat="41.87108" lon="12.81508"><ele>228.5</ele><time>2026-04-08T16:39:19.818Z</time></trkpt><trkpt lat="41.871025" lon="12.81492"><ele>228.25</ele><time>2026-04-08T16:39:20.818Z</time></trkpt><trkpt lat="41.8709483" lon="12.81475"><ele>228.0</ele><time>2026-04-08T16:39:21.817Z</time></trkpt><trkpt lat="41.870855" lon="12.8145717"><ele>228.0</ele><time>2026-04-08T16:39:22.818Z</time></trkpt><trkpt lat="41.8707633" lon="12.8143983"><ele>228.0</ele><time>2026-04-08T16:39:23.818Z</time></trkpt><trkpt lat="41.8706683" lon="12.81423"><ele>228.0</ele><time>2026-04-08T16:39:24.818Z</time></trkpt><trkpt lat="41.8705833" lon="12.81406"><ele>227.25</ele><time>2026-04-08T16:39:25.818Z</time></trkpt><trkpt lat="41.8704983" lon="12.81391"><ele>226.5</ele><time>2026-04-08T16:39:26.82Z</time></trkpt><trkpt lat="41.8704267" lon="12.8137667"><ele>225.75</ele><time>2026-04-08T16:39:27.816Z</time></trkpt><trkpt lat="41.8703517" lon="12.8136367"><ele>225.0</ele><time>2026-04-08T16:39:28.818Z</time></trkpt><trkpt lat="41.8702867" lon="12.8135083"><ele>223.8</ele><time>2026-04-08T16:39:29.817Z</time></trkpt><trkpt lat="41.8702317" lon="12.8133883"><ele>222.6</ele><time>2026-04-08T16:39:30.82Z</time></trkpt><trkpt lat="41.870185" lon="12.8132717"><ele>221.39999999999998</ele><time>2026-04-08T16:39:31.821Z</time></trkpt><trkpt lat="41.8701367" lon="12.81314"><ele>220.2</ele><time>2026-04-08T16:39:32.821Z</time></trkpt><trkpt lat="41.8700883" lon="12.81299"><ele>219.0</ele><time>2026-04-08T16:39:33.821Z</time></trkpt><trkpt lat="41.8700533" lon="12.812805"><ele>213.0</ele><time>2026-04-08T16:39:34.821Z</time></trkpt><trkpt lat="41.8700217" lon="12.8125967"><ele>207.0</ele><time>2026-04-08T16:39:35.82Z</time></trkpt><trkpt lat="41.8699867" lon="12.8124017"><ele>201.0</ele><time>2026-04-08T16:39:36.821Z</time></trkpt><trkpt lat="41.8699433" lon="12.8122117"><ele>201.0</ele><time>2026-04-08T16:39:37.821Z</time></trkpt><trkpt lat="41.8698817" lon="12.812025"><ele>201.0</ele><time>2026-04-08T16:39:38.821Z</time></trkpt><trkpt lat="41.869795" lon="12.8118467"><ele>201.0</ele><time>2026-04-08T16:39:39.821Z</time></trkpt><trkpt lat="41.86969" lon="12.811665"><ele>199.33333333333331</ele><time>2026-04-08T16:39:40.819Z</time></trkpt><trkpt lat="41.869565" lon="12.8114783"><ele>197.66666666666666</ele><time>2026-04-08T16:39:41.821Z</time></trkpt><trkpt lat="41.8694317" lon="12.8112883"><ele>196.0</ele><time>2026-04-08T16:39:42.821Z</time></trkpt><trkpt lat="41.8693" lon="12.8111033"><ele>193.66666666666666</ele><time>2026-04-08T16:39:43.821Z</time></trkpt><trkpt lat="41.86917" lon="12.8109233"><ele>191.33333333333331</ele><time>2026-04-08T16:39:44.821Z</time></trkpt><trkpt lat="41.8690433" lon="12.810755"><ele>189.0</ele><time>2026-04-08T16:39:45.821Z</time></trkpt><trkpt lat="41.8689217" lon="12.8105983"><ele>189.0</ele><time>2026-04-08T16:39:46.821Z</time></trkpt><trkpt lat="41.8688067" lon="12.81045"><ele>189.0</ele><time>2026-04-08T16:39:47.82Z</time></trkpt><trkpt lat="41.8687" lon="12.810315"><ele>189.0</ele><time>2026-04-08T16:39:48.819Z</time></trkpt><trkpt lat="41.868605" lon="12.810185"><ele>189.0</ele><time>2026-04-08T16:39:49.818Z</time></trkpt><trkpt lat="41.8685283" lon="12.8100567"><ele>189.6</ele><time>2026-04-08T16:39:50.818Z</time></trkpt><trkpt lat="41.86847" lon="12.8099333"><ele>190.2</ele><time>2026-04-08T16:39:51.818Z</time></trkpt><trkpt lat="41.8684333" lon="12.8098033"><ele>190.79999999999998</ele><time>2026-04-08T16:39:52.817Z</time></trkpt><trkpt lat="41.86842" lon="12.8096667"><ele>191.39999999999998</ele><time>2026-04-08T16:39:53.818Z</time></trkpt><trkpt lat="41.868425" lon="12.809525"><ele>192.0</ele><time>2026-04-08T16:39:54.819Z</time></trkpt><trkpt lat="41.86844" lon="12.809375"><ele>194.8</ele><time>2026-04-08T16:39:55.819Z</time></trkpt><trkpt lat="41.8684533" lon="12.809225"><ele>197.6</ele><time>2026-04-08T16:39:56.819Z</time></trkpt><trkpt lat="41.8684533" lon="12.8090817"><ele>200.4</ele><time>2026-04-08T16:39:57.817Z</time></trkpt><trkpt lat="41.86843" lon="12.8089467"><ele>203.20000000000002</ele><time>2026-04-08T16:39:58.817Z</time></trkpt><trkpt lat="41.8684033" lon="12.80881"><ele>206.0</ele><time>2026-04-08T16:39:59.817Z</time></trkpt><trkpt lat="41.86836" lon="12.808665"><ele>207.75</ele><time>2026-04-08T16:40:00.818Z</time></trkpt><trkpt lat="41.8682817" lon="12.80851"><ele>209.5</ele><time>2026-04-08T16:40:01.818Z</time></trkpt><trkpt lat="41.8681983" lon="12.8083567"><ele>211.25</ele><time>2026-04-08T16:40:02.818Z</time></trkpt><trkpt lat="41.868115" lon="12.808215"><ele>213.0</ele><time>2026-04-08T16:40:03.819Z</time></trkpt><trkpt lat="41.8680533" lon="12.8080733"><ele>213.4</ele><time>2026-04-08T16:40:04.817Z</time></trkpt><trkpt lat="41.8680083" lon="12.807935"><ele>213.8</ele><time>2026-04-08T16:40:05.819Z</time></trkpt><trkpt lat="41.8679233" lon="12.8078283"><ele>214.2</ele><time>2026-04-08T16:40:06.819Z</time></trkpt><trkpt lat="41.86784" lon="12.8077567"><ele>214.6</ele><time>2026-04-08T16:40:07.818Z</time></trkpt><trkpt lat="41.8677933" lon="12.8076967"><ele>215.0</ele><time>2026-04-08T16:40:08.817Z</time></trkpt><trkpt lat="41.86773" lon="12.807645"><ele>215.0</ele><time>2026-04-08T16:40:11.821Z</time></trkpt><trkpt lat="41.8676133" lon="12.80775"><ele>215.0</ele><time>2026-04-08T16:40:13.818Z</time></trkpt><trkpt lat="41.8675417" lon="12.80782"><ele>215.0</ele><time>2026-04-08T16:40:14.821Z</time></trkpt><trkpt lat="41.8674617" lon="12.8079017"><ele>215.0</ele><time>2026-04-08T16:40:15.821Z</time></trkpt><trkpt lat="41.8673717" lon="12.8079983"><ele>215.0</ele><time>2026-04-08T16:40:16.821Z</time></trkpt><trkpt lat="41.8672817" lon="12.8080983"><ele>214.75</ele><time>2026-04-08T16:40:17.82Z</time></trkpt><trkpt lat="41.86719" lon="12.8082"><ele>214.5</ele><time>2026-04-08T16:40:18.818Z</time></trkpt><trkpt lat="41.8670933" lon="12.80831"><ele>214.25</ele><time>2026-04-08T16:40:19.818Z</time></trkpt><trkpt lat="41.8669833" lon="12.8084267"><ele>214.0</ele><time>2026-04-08T16:40:20.817Z</time></trkpt><trkpt lat="41.8668567" lon="12.80854"><ele>211.5</ele><time>2026-04-08T16:40:21.818Z</time></trkpt><trkpt lat="41.8667283" lon="12.8086383"><ele>209.0</ele><time>2026-04-08T16:40:22.818Z</time></trkpt><trkpt lat="41.8665983" lon="12.8087217"><ele>206.5</ele><time>2026-04-08T16:40:23.818Z</time></trkpt><trkpt lat="41.8664617" lon="12.808805"><ele>204.0</ele><time>2026-04-08T16:40:24.817Z</time></trkpt><trkpt lat="41.8663233" lon="12.8088867"><ele>204.0</ele><time>2026-04-08T16:40:25.818Z</time></trkpt><trkpt lat="41.8661867" lon="12.8089733"><ele>204.0</ele><time>2026-04-08T16:40:26.818Z</time></trkpt><trkpt lat="41.8660567" lon="12.8090533"><ele>204.0</ele><time>2026-04-08T16:40:27.817Z</time></trkpt><trkpt lat="41.8659367" lon="12.80913"><ele>204.0</ele><time>2026-04-08T16:40:28.819Z</time></trkpt><trkpt lat="41.8658183" lon="12.8092117"><ele>206.0</ele><time>2026-04-08T16:40:29.818Z</time></trkpt><trkpt lat="41.8656983" lon="12.8093"><ele>208.0</ele><time>2026-04-08T16:40:30.818Z</time></trkpt><trkpt lat="41.86557" lon="12.80939"><ele>210.0</ele><time>2026-04-08T16:40:31.818Z</time></trkpt><trkpt lat="41.8654367" lon="12.8094883"><ele>212.0</ele><time>2026-04-08T16:40:32.818Z</time></trkpt><trkpt lat="41.8652967" lon="12.8096033"><ele>212.0</ele><time>2026-04-08T16:40:33.822Z</time></trkpt><trkpt lat="41.86516" lon="12.8097383"><ele>212.0</ele><time>2026-04-08T16:40:34.82Z</time></trkpt><trkpt lat="41.8650317" lon="12.8098933"><ele>212.0</ele><time>2026-04-08T16:40:35.819Z</time></trkpt><trkpt lat="41.8649067" lon="12.8100567"><ele>213.66666666666669</ele><time>2026-04-08T16:40:36.817Z</time></trkpt><trkpt lat="41.8647817" lon="12.810225"><ele>215.33333333333331</ele><time>2026-04-08T16:40:37.817Z</time></trkpt><trkpt lat="41.864655" lon="12.810395"><ele>217.0</ele><time>2026-04-08T16:40:38.817Z</time></trkpt><trkpt lat="41.86453" lon="12.81057"><ele>217.0</ele><time>2026-04-08T16:40:39.817Z</time></trkpt><trkpt lat="41.8644017" lon="12.8107517"><ele>217.0</ele><time>2026-04-08T16:40:40.818Z</time></trkpt><trkpt lat="41.8642683" lon="12.8109383"><ele>217.0</ele><time>2026-04-08T16:40:41.82Z</time></trkpt><trkpt lat="41.8641267" lon="12.81113"><ele>216.33333333333331</ele><time>2026-04-08T16:40:42.82Z</time></trkpt><trkpt lat="41.863975" lon="12.8113267"><ele>215.66666666666669</ele><time>2026-04-08T16:40:43.82Z</time></trkpt><trkpt lat="41.8638183" lon="12.8115183"><ele>215.0</ele><time>2026-04-08T16:40:44.82Z</time></trkpt><trkpt lat="41.863665" lon="12.811705"><ele>213.33333333333334</ele><time>2026-04-08T16:40:45.821Z</time></trkpt><trkpt lat="41.8635083" lon="12.8118917"><ele>211.66666666666669</ele><time>2026-04-08T16:40:46.818Z</time></trkpt><trkpt lat="41.8633517" lon="12.8120833"><ele>210.0</ele><time>2026-04-08T16:40:47.817Z</time></trkpt><trkpt lat="41.8631917" lon="12.812275"><ele>210.0</ele><time>2026-04-08T16:40:48.818Z</time></trkpt><trkpt lat="41.86304" lon="12.812475"><ele>210.0</ele><time>2026-04-08T16:40:49.818Z</time></trkpt><trkpt lat="41.862885" lon="12.8126733"><ele>210.0</ele><time>2026-04-08T16:40:50.817Z</time></trkpt><trkpt lat="41.8627317" lon="12.812875"><ele>209.66666666666669</ele><time>2026-04-08T16:40:51.818Z</time></trkpt><trkpt lat="41.8625833" lon="12.8130767"><ele>209.33333333333334</ele><time>2026-04-08T16:40:52.818Z</time></trkpt><trkpt lat="41.8624367" lon="12.813275"><ele>209.0</ele><time>2026-04-08T16:40:53.82Z</time></trkpt><trkpt lat="41.862295" lon="12.81346"><ele>218.66666666666669</ele><time>2026-04-08T16:40:54.816Z</time></trkpt><trkpt lat="41.8621567" lon="12.8136333"><ele>228.33333333333331</ele><time>2026-04-08T16:40:55.818Z</time></trkpt><trkpt lat="41.8620167" lon="12.8137817"><ele>238.0</ele><time>2026-04-08T16:40:56.818Z</time></trkpt><trkpt lat="41.8618683" lon="12.8139083"><ele>228.66666666666666</ele><time>2026-04-08T16:40:57.817Z</time></trkpt><trkpt lat="41.861705" lon="12.814015"><ele>219.33333333333331</ele><time>2026-04-08T16:40:58.818Z</time></trkpt><trkpt lat="41.861525" lon="12.814105"><ele>210.0</ele><time>2026-04-08T16:40:59.817Z</time></trkpt><trkpt lat="41.8613333" lon="12.8141883"><ele>210.0</ele><time>2026-04-08T16:41:00.819Z</time></trkpt><trkpt lat="41.8611383" lon="12.81427"><ele>210.0</ele><time>2026-04-08T16:41:01.817Z</time></trkpt><trkpt lat="41.8609433" lon="12.814355"><ele>210.0</ele><time>2026-04-08T16:41:02.819Z</time></trkpt><trkpt lat="41.8607483" lon="12.814445"><ele>213.33333333333331</ele><time>2026-04-08T16:41:03.817Z</time></trkpt><trkpt lat="41.86055" lon="12.8145367"><ele>216.66666666666666</ele><time>2026-04-08T16:41:04.82Z</time></trkpt><trkpt lat="41.860355" lon="12.81463"><ele>220.0</ele><time>2026-04-08T16:41:05.818Z</time></trkpt><trkpt lat="41.8601617" lon="12.8147283"><ele>219.0</ele><time>2026-04-08T16:41:06.821Z</time></trkpt><trkpt lat="41.8599767" lon="12.8148367"><ele>218.0</ele><time>2026-04-08T16:41:07.821Z</time></trkpt><trkpt lat="41.8597917" lon="12.8149683"><ele>217.0</ele><time>2026-04-08T16:41:08.821Z</time></trkpt><trkpt lat="41.8596133" lon="12.8151183"><ele>215.66666666666666</ele><time>2026-04-08T16:41:09.821Z</time></trkpt><trkpt lat="41.8594333" lon="12.815285"><ele>214.33333333333331</ele><time>2026-04-08T16:41:10.82Z</time></trkpt><trkpt lat="41.8592517" lon="12.8154467"><ele>213.0</ele><time>2026-04-08T16:41:11.822Z</time></trkpt><trkpt lat="41.8590733" lon="12.815625"><ele>213.0</ele><time>2026-04-08T16:41:12.821Z</time></trkpt><trkpt lat="41.85889" lon="12.8157967"><ele>213.0</ele><time>2026-04-08T16:41:13.821Z</time></trkpt><trkpt lat="41.8587083" lon="12.8159733"><ele>213.0</ele><time>2026-04-08T16:41:14.822Z</time></trkpt><trkpt lat="41.8585283" lon="12.8161517"><ele>213.5</ele><time>2026-04-08T16:41:15.821Z</time></trkpt><trkpt lat="41.8583417" lon="12.8163267"><ele>214.0</ele><time>2026-04-08T16:41:16.818Z</time></trkpt><trkpt lat="41.8581517" lon="12.8165083"><ele>214.0</ele><time>2026-04-08T16:41:17.818Z</time></trkpt><trkpt lat="41.8579567" lon="12.816695"><ele>214.0</ele><time>2026-04-08T16:41:18.818Z</time></trkpt><trkpt lat="41.857755" lon="12.816885"><ele>214.0</ele><time>2026-04-08T16:41:19.819Z</time></trkpt><trkpt lat="41.8575483" lon="12.8170767"><ele>214.0</ele><time>2026-04-08T16:41:20.82Z</time></trkpt><trkpt lat="41.8573367" lon="12.8172667"><ele>214.0</ele><time>2026-04-08T16:41:21.818Z</time></trkpt><trkpt lat="41.857135" lon="12.8174483"><ele>214.0</ele><time>2026-04-08T16:41:22.819Z</time></trkpt><trkpt lat="41.8569367" lon="12.8176167"><ele>218.0</ele><time>2026-04-08T16:41:23.819Z</time></trkpt><trkpt lat="41.8567317" lon="12.81777"><ele>222.0</ele><time>2026-04-08T16:41:24.822Z</time></trkpt><trkpt lat="41.8565217" lon="12.817925"><ele>222.0</ele><time>2026-04-08T16:41:25.822Z</time></trkpt><trkpt lat="41.8563083" lon="12.8180717"><ele>222.0</ele><time>2026-04-08T16:41:26.823Z</time></trkpt><trkpt lat="41.8561017" lon="12.81821"><ele>223.66666666666669</ele><time>2026-04-08T16:41:27.819Z</time></trkpt><trkpt lat="41.8559083" lon="12.8183383"><ele>225.33333333333334</ele><time>2026-04-08T16:41:28.819Z</time></trkpt><trkpt lat="41.8557267" lon="12.8184633"><ele>227.0</ele><time>2026-04-08T16:41:29.821Z</time></trkpt><trkpt lat="41.85556" lon="12.8185967"><ele>227.0</ele><time>2026-04-08T16:41:30.82Z</time></trkpt><trkpt lat="41.8554017" lon="12.8187417"><ele>227.0</ele><time>2026-04-08T16:41:31.819Z</time></trkpt><trkpt lat="41.8552467" lon="12.8188917"><ele>227.0</ele><time>2026-04-08T16:41:32.819Z</time></trkpt><trkpt lat="41.8550967" lon="12.8190567"><ele>227.33333333333334</ele><time>2026-04-08T16:41:33.819Z</time></trkpt><trkpt lat="41.854955" lon="12.8192383"><ele>227.66666666666669</ele><time>2026-04-08T16:41:34.819Z</time></trkpt><trkpt lat="41.8548117" lon="12.8194283"><ele>228.0</ele><time>2026-04-08T16:41:35.82Z</time></trkpt><trkpt lat="41.85467" lon="12.8196167"><ele>228.0</ele><time>2026-04-08T16:41:36.82Z</time></trkpt><trkpt lat="41.8545333" lon="12.8197983"><ele>228.0</ele><time>2026-04-08T16:41:37.82Z</time></trkpt><trkpt lat="41.8543967" lon="12.81998"><ele>228.0</ele><time>2026-04-08T16:41:38.823Z</time></trkpt><trkpt lat="41.85426" lon="12.8201617"><ele>226.0</ele><time>2026-04-08T16:41:39.822Z</time></trkpt><trkpt lat="41.8541283" lon="12.8203467"><ele>224.0</ele><time>2026-04-08T16:41:40.818Z</time></trkpt><trkpt lat="41.8539933" lon="12.820535"><ele>222.0</ele><time>2026-04-08T16:41:41.822Z</time></trkpt><trkpt lat="41.8538533" lon="12.820725"><ele>222.0</ele><time>2026-04-08T16:41:42.821Z</time></trkpt><trkpt lat="41.8537133" lon="12.8209233"><ele>222.0</ele><time>2026-04-08T16:41:43.822Z</time></trkpt><trkpt lat="41.8535667" lon="12.821115"><ele>222.0</ele><time>2026-04-08T16:41:44.823Z</time></trkpt><trkpt lat="41.8534217" lon="12.8213067"><ele>220.0</ele><time>2026-04-08T16:41:45.821Z</time></trkpt><trkpt lat="41.8532817" lon="12.8214933"><ele>218.0</ele><time>2026-04-08T16:41:46.818Z</time></trkpt><trkpt lat="41.8531467" lon="12.82167"><ele>216.0</ele><time>2026-04-08T16:41:47.82Z</time></trkpt><trkpt lat="41.8530167" lon="12.8218367"><ele>222.33333333333331</ele><time>2026-04-08T16:41:48.818Z</time></trkpt><trkpt lat="41.8528933" lon="12.8219967"><ele>228.66666666666666</ele><time>2026-04-08T16:41:49.82Z</time></trkpt><trkpt lat="41.8527733" lon="12.82215"><ele>235.0</ele><time>2026-04-08T16:41:50.82Z</time></trkpt><trkpt lat="41.85265" lon="12.82229"><ele>229.0</ele><time>2026-04-08T16:41:51.818Z</time></trkpt><trkpt lat="41.8525167" lon="12.8224133"><ele>223.0</ele><time>2026-04-08T16:41:52.819Z</time></trkpt><trkpt lat="41.8523733" lon="12.8225183"><ele>217.0</ele><time>2026-04-08T16:41:53.819Z</time></trkpt><trkpt lat="41.8522267" lon="12.8226133"><ele>220.66666666666666</ele><time>2026-04-08T16:41:54.822Z</time></trkpt><trkpt lat="41.852075" lon="12.8227083"><ele>224.33333333333331</ele><time>2026-04-08T16:41:55.823Z</time></trkpt><trkpt lat="41.8519167" lon="12.822805"><ele>228.0</ele><time>2026-04-08T16:41:56.822Z</time></trkpt><trkpt lat="41.8517517" lon="12.8229133"><ele>228.0</ele><time>2026-04-08T16:41:57.821Z</time></trkpt><trkpt lat="41.8515883" lon="12.8230367"><ele>228.0</ele><time>2026-04-08T16:41:58.822Z</time></trkpt><trkpt lat="41.8514217" lon="12.8231717"><ele>228.0</ele><time>2026-04-08T16:41:59.821Z</time></trkpt><trkpt lat="41.8512467" lon="12.8233083"><ele>228.0</ele><time>2026-04-08T16:42:00.821Z</time></trkpt><trkpt lat="41.8510683" lon="12.823435"><ele>228.0</ele><time>2026-04-08T16:42:01.822Z</time></trkpt><trkpt lat="41.8508983" lon="12.82355"><ele>228.0</ele><time>2026-04-08T16:42:02.818Z</time></trkpt><trkpt lat="41.85074" lon="12.8236617"><ele>231.33333333333331</ele><time>2026-04-08T16:42:03.821Z</time></trkpt><trkpt lat="41.8505817" lon="12.8237683"><ele>234.66666666666666</ele><time>2026-04-08T16:42:04.822Z</time></trkpt><trkpt lat="41.85043" lon="12.8238717"><ele>238.0</ele><time>2026-04-08T16:42:05.821Z</time></trkpt><trkpt lat="41.8502783" lon="12.82397"><ele>238.0</ele><time>2026-04-08T16:42:06.822Z</time></trkpt><trkpt lat="41.8501317" lon="12.8240683"><ele>238.0</ele><time>2026-04-08T16:42:07.822Z</time></trkpt><trkpt lat="41.849985" lon="12.8241667"><ele>238.0</ele><time>2026-04-08T16:42:08.822Z</time></trkpt><trkpt lat="41.8498333" lon="12.824265"><ele>240.66666666666666</ele><time>2026-04-08T16:42:09.821Z</time></trkpt><trkpt lat="41.849685" lon="12.824365"><ele>243.33333333333331</ele><time>2026-04-08T16:42:10.821Z</time></trkpt><trkpt lat="41.8495367" lon="12.8244683"><ele>246.0</ele><time>2026-04-08T16:42:11.822Z</time></trkpt><trkpt lat="41.8493967" lon="12.8245667"><ele>239.66666666666669</ele><time>2026-04-08T16:42:12.822Z</time></trkpt><trkpt lat="41.8492583" lon="12.8246583"><ele>233.33333333333334</ele><time>2026-04-08T16:42:13.821Z</time></trkpt><trkpt lat="41.849125" lon="12.8247517"><ele>227.0</ele><time>2026-04-08T16:42:14.822Z</time></trkpt><trkpt lat="41.84899" lon="12.8248433"><ele>227.0</ele><time>2026-04-08T16:42:15.821Z</time></trkpt><trkpt lat="41.8488533" lon="12.824935"><ele>227.0</ele><time>2026-04-08T16:42:16.822Z</time></trkpt><trkpt lat="41.8487217" lon="12.825025"><ele>227.0</ele><time>2026-04-08T16:42:17.821Z</time></trkpt><trkpt lat="41.8485967" lon="12.825125"><ele>227.0</ele><time>2026-04-08T16:42:18.822Z</time></trkpt><trkpt lat="41.8484667" lon="12.82523"><ele>228.33333333333334</ele><time>2026-04-08T16:42:19.822Z</time></trkpt><trkpt lat="41.84833" lon="12.825335"><ele>229.66666666666669</ele><time>2026-04-08T16:42:20.822Z</time></trkpt><trkpt lat="41.8481967" lon="12.8254417"><ele>231.0</ele><time>2026-04-08T16:42:21.821Z</time></trkpt><trkpt lat="41.8480633" lon="12.8255517"><ele>231.0</ele><time>2026-04-08T16:42:22.822Z</time></trkpt><trkpt lat="41.84794" lon="12.82566"><ele>231.0</ele><time>2026-04-08T16:42:23.822Z</time></trkpt><trkpt lat="41.8478217" lon="12.8257633"><ele>231.0</ele><time>2026-04-08T16:42:24.822Z</time></trkpt><trkpt lat="41.847705" lon="12.825865"><ele>231.0</ele><time>2026-04-08T16:42:25.822Z</time></trkpt><trkpt lat="41.847585" lon="12.8259633"><ele>230.25</ele><time>2026-04-08T16:42:26.822Z</time></trkpt><trkpt lat="41.847475" lon="12.8260517"><ele>229.5</ele><time>2026-04-08T16:42:27.822Z</time></trkpt><trkpt lat="41.8473617" lon="12.8261333"><ele>228.75</ele><time>2026-04-08T16:42:28.821Z</time></trkpt><trkpt lat="41.8472467" lon="12.826205"><ele>228.0</ele><time>2026-04-08T16:42:29.821Z</time></trkpt><trkpt lat="41.84713" lon="12.8262767"><ele>228.0</ele><time>2026-04-08T16:42:30.822Z</time></trkpt><trkpt lat="41.8470167" lon="12.82635"><ele>228.0</ele><time>2026-04-08T16:42:31.822Z</time></trkpt><trkpt lat="41.8469" lon="12.8264183"><ele>228.0</ele><time>2026-04-08T16:42:32.822Z</time></trkpt><trkpt lat="41.84679" lon="12.8264817"><ele>228.0</ele><time>2026-04-08T16:42:33.822Z</time></trkpt><trkpt lat="41.846685" lon="12.8265367"><ele>227.8</ele><time>2026-04-08T16:42:34.822Z</time></trkpt><trkpt lat="41.846585" lon="12.826585"><ele>227.60000000000002</ele><time>2026-04-08T16:42:35.82Z</time></trkpt><trkpt lat="41.8464917" lon="12.8266267"><ele>227.39999999999998</ele><time>2026-04-08T16:42:36.822Z</time></trkpt><trkpt lat="41.8464" lon="12.826665"><ele>227.2</ele><time>2026-04-08T16:42:37.822Z</time></trkpt><trkpt lat="41.8463183" lon="12.8266867"><ele>227.0</ele><time>2026-04-08T16:42:38.822Z</time></trkpt><trkpt lat="41.8462433" lon="12.8267017"><ele>227.00000000000003</ele><time>2026-04-08T16:42:39.821Z</time></trkpt><trkpt lat="41.84617" lon="12.8267117"><ele>227.0</ele><time>2026-04-08T16:42:40.821Z</time></trkpt><trkpt lat="41.846095" lon="12.8267183"><ele>227.0</ele><time>2026-04-08T16:42:41.821Z</time></trkpt><trkpt lat="41.8460283" lon="12.8267217"><ele>227.0</ele><time>2026-04-08T16:42:42.821Z</time></trkpt><trkpt lat="41.8459167" lon="12.8267233"><ele>227.00000000000003</ele><time>2026-04-08T16:42:44.821Z</time></trkpt><trkpt lat="41.845835" lon="12.8267133"><ele>227.0</ele><time>2026-04-08T16:42:46.822Z</time></trkpt><trkpt lat="41.8457733" lon="12.8266833"><ele>226.83333333333334</ele><time>2026-04-08T16:42:48.821Z</time></trkpt><trkpt lat="41.8456917" lon="12.8265933"><ele>226.66666666666669</ele><time>2026-04-08T16:42:51.822Z</time></trkpt><trkpt lat="41.8456483" lon="12.8265283"><ele>226.5</ele><time>2026-04-08T16:42:52.822Z</time></trkpt><trkpt lat="41.8456083" lon="12.8264583"><ele>226.33333333333331</ele><time>2026-04-08T16:42:53.822Z</time></trkpt><trkpt lat="41.8455667" lon="12.82639"><ele>226.16666666666666</ele><time>2026-04-08T16:42:54.822Z</time></trkpt><trkpt lat="41.845505" lon="12.826335"><ele>226.0</ele><time>2026-04-08T16:42:55.823Z</time></trkpt><trkpt lat="41.8454367" lon="12.8262967"><ele>226.0</ele><time>2026-04-08T16:42:56.821Z</time></trkpt><trkpt lat="41.845355" lon="12.8262967"><ele>226.00000000000003</ele><time>2026-04-08T16:42:57.822Z</time></trkpt><trkpt lat="41.8452617" lon="12.8263467"><ele>226.00000000000003</ele><time>2026-04-08T16:42:58.818Z</time></trkpt><trkpt lat="41.8451633" lon="12.8264383"><ele>226.0</ele><time>2026-04-08T16:42:59.821Z</time></trkpt><trkpt lat="41.8450883" lon="12.8265683"><ele>226.0</ele><time>2026-04-08T16:43:00.821Z</time></trkpt><trkpt lat="41.8450333" lon="12.8267233"><ele>228.0</ele><time>2026-04-08T16:43:01.822Z</time></trkpt><trkpt lat="41.8449667" lon="12.82687"><ele>230.0</ele><time>2026-04-08T16:43:02.822Z</time></trkpt><trkpt lat="41.8448933" lon="12.826995"><ele>232.0</ele><time>2026-04-08T16:43:03.823Z</time></trkpt><trkpt lat="41.8448" lon="12.8271"><ele>234.0</ele><time>2026-04-08T16:43:04.821Z</time></trkpt><trkpt lat="41.8446917" lon="12.8271833"><ele>234.0</ele><time>2026-04-08T16:43:05.821Z</time></trkpt><trkpt lat="41.8445583" lon="12.82726"><ele>234.0</ele><time>2026-04-08T16:43:06.818Z</time></trkpt><trkpt lat="41.8444233" lon="12.82735"><ele>234.0</ele><time>2026-04-08T16:43:07.821Z</time></trkpt><trkpt lat="41.84429" lon="12.8274367"><ele>234.0</ele><time>2026-04-08T16:43:08.821Z</time></trkpt><trkpt lat="41.8441583" lon="12.82752"><ele>234.75</ele><time>2026-04-08T16:43:09.821Z</time></trkpt><trkpt lat="41.8440333" lon="12.8276133"><ele>235.5</ele><time>2026-04-08T16:43:10.818Z</time></trkpt><trkpt lat="41.8439067" lon="12.8277133"><ele>236.25</ele><time>2026-04-08T16:43:11.819Z</time></trkpt><trkpt lat="41.8437833" lon="12.8278167"><ele>237.0</ele><time>2026-04-08T16:43:12.819Z</time></trkpt><trkpt lat="41.8436517" lon="12.827915"><ele>237.0</ele><time>2026-04-08T16:43:13.822Z</time></trkpt><trkpt lat="41.8435217" lon="12.8280133"><ele>237.0</ele><time>2026-04-08T16:43:14.821Z</time></trkpt><trkpt lat="41.8433867" lon="12.8281167"><ele>237.0</ele><time>2026-04-08T16:43:15.821Z</time></trkpt><trkpt lat="41.84325" lon="12.8282267"><ele>239.66666666666669</ele><time>2026-04-08T16:43:16.817Z</time></trkpt><trkpt lat="41.8431117" lon="12.82833"><ele>242.33333333333334</ele><time>2026-04-08T16:43:17.819Z</time></trkpt><trkpt lat="41.8429783" lon="12.8284283"><ele>245.0</ele><time>2026-04-08T16:43:18.819Z</time></trkpt><trkpt lat="41.8428467" lon="12.8285183"><ele>245.0</ele><time>2026-04-08T16:43:19.822Z</time></trkpt><trkpt lat="41.8427117" lon="12.8286067"><ele>245.0</ele><time>2026-04-08T16:43:20.819Z</time></trkpt><trkpt lat="41.842565" lon="12.8286933"><ele>245.0</ele><time>2026-04-08T16:43:21.817Z</time></trkpt><trkpt lat="41.842415" lon="12.828785"><ele>246.25</ele><time>2026-04-08T16:43:22.82Z</time></trkpt><trkpt lat="41.842275" lon="12.8288767"><ele>247.5</ele><time>2026-04-08T16:43:23.819Z</time></trkpt><trkpt lat="41.84214" lon="12.82896"><ele>248.75</ele><time>2026-04-08T16:43:24.818Z</time></trkpt><trkpt lat="41.8420133" lon="12.8290433"><ele>250.0</ele><time>2026-04-08T16:43:25.82Z</time></trkpt><trkpt lat="41.8418867" lon="12.8291283"><ele>253.25</ele><time>2026-04-08T16:43:26.819Z</time></trkpt><trkpt lat="41.8417583" lon="12.8292167"><ele>256.5</ele><time>2026-04-08T16:43:27.817Z</time></trkpt><trkpt lat="41.8416317" lon="12.8293117"><ele>259.75</ele><time>2026-04-08T16:43:28.819Z</time></trkpt><trkpt lat="41.8415183" lon="12.8294233"><ele>263.0</ele><time>2026-04-08T16:43:29.821Z</time></trkpt><trkpt lat="41.8414283" lon="12.8295433"><ele>263.0</ele><time>2026-04-08T16:43:30.821Z</time></trkpt><trkpt lat="41.8413417" lon="12.8296667"><ele>263.0</ele><time>2026-04-08T16:43:31.819Z</time></trkpt><trkpt lat="41.8412583" lon="12.82979"><ele>263.0</ele><time>2026-04-08T16:43:32.822Z</time></trkpt><trkpt lat="41.841175" lon="12.829915"><ele>263.0</ele><time>2026-04-08T16:43:33.822Z</time></trkpt><trkpt lat="41.841085" lon="12.8300383"><ele>264.5</ele><time>2026-04-08T16:43:34.819Z</time></trkpt><trkpt lat="41.8409917" lon="12.8301583"><ele>266.0</ele><time>2026-04-08T16:43:35.819Z</time></trkpt><trkpt lat="41.8408933" lon="12.830275"><ele>267.5</ele><time>2026-04-08T16:43:36.822Z</time></trkpt><trkpt lat="41.8407983" lon="12.8303933"><ele>269.0</ele><time>2026-04-08T16:43:37.818Z</time></trkpt><trkpt lat="41.8407" lon="12.8305067"><ele>269.0</ele><time>2026-04-08T16:43:38.82Z</time></trkpt><trkpt lat="41.84059" lon="12.830615"><ele>269.0</ele><time>2026-04-08T16:43:39.823Z</time></trkpt><trkpt lat="41.840475" lon="12.83072"><ele>269.0</ele><time>2026-04-08T16:43:40.82Z</time></trkpt><trkpt lat="41.8403533" lon="12.8308217"><ele>269.0</ele><time>2026-04-08T16:43:41.819Z</time></trkpt><trkpt lat="41.8402367" lon="12.8309217"><ele>270.5</ele><time>2026-04-08T16:43:42.818Z</time></trkpt><trkpt lat="41.8401233" lon="12.831015"><ele>272.0</ele><time>2026-04-08T16:43:43.821Z</time></trkpt><trkpt lat="41.840015" lon="12.8311033"><ele>273.5</ele><time>2026-04-08T16:43:44.822Z</time></trkpt><trkpt lat="41.83991" lon="12.83119"><ele>275.0</ele><time>2026-04-08T16:43:45.818Z</time></trkpt><trkpt lat="41.83981" lon="12.831275"><ele>275.0</ele><time>2026-04-08T16:43:46.822Z</time></trkpt><trkpt lat="41.8397117" lon="12.8313433"><ele>275.0</ele><time>2026-04-08T16:43:47.82Z</time></trkpt><trkpt lat="41.8396267" lon="12.8314017"><ele>275.0</ele><time>2026-04-08T16:43:48.821Z</time></trkpt><trkpt lat="41.8395483" lon="12.8314583"><ele>275.0</ele><time>2026-04-08T16:43:49.823Z</time></trkpt><trkpt lat="41.8394717" lon="12.8315167"><ele>275.0</ele><time>2026-04-08T16:43:50.821Z</time></trkpt><trkpt lat="41.8393917" lon="12.8315783"><ele>275.0</ele><time>2026-04-08T16:43:51.821Z</time></trkpt><trkpt lat="41.839305" lon="12.8316467"><ele>275.0</ele><time>2026-04-08T16:43:52.819Z</time></trkpt><trkpt lat="41.8392117" lon="12.83172"><ele>275.0</ele><time>2026-04-08T16:43:53.821Z</time></trkpt><trkpt lat="41.839115" lon="12.8317917"><ele>275.0</ele><time>2026-04-08T16:43:54.818Z</time></trkpt><trkpt lat="41.8390183" lon="12.831865"><ele>275.0</ele><time>2026-04-08T16:43:55.818Z</time></trkpt><trkpt lat="41.8389233" lon="12.8319383"><ele>276.5</ele><time>2026-04-08T16:43:56.822Z</time></trkpt><trkpt lat="41.8388217" lon="12.8320117"><ele>278.0</ele><time>2026-04-08T16:43:57.817Z</time></trkpt><trkpt lat="41.8387233" lon="12.8320867"><ele>279.5</ele><time>2026-04-08T16:43:58.822Z</time></trkpt><trkpt lat="41.83862" lon="12.8321617"><ele>281.0</ele><time>2026-04-08T16:43:59.82Z</time></trkpt><trkpt lat="41.83851" lon="12.8322367"><ele>280.75</ele><time>2026-04-08T16:44:00.819Z</time></trkpt><trkpt lat="41.8383983" lon="12.8323183"><ele>280.5</ele><time>2026-04-08T16:44:01.822Z</time></trkpt><trkpt lat="41.8382833" lon="12.83241"><ele>280.25</ele><time>2026-04-08T16:44:02.822Z</time></trkpt><trkpt lat="41.838155" lon="12.832505"><ele>280.0</ele><time>2026-04-08T16:44:03.82Z</time></trkpt><trkpt lat="41.838025" lon="12.8325967"><ele>282.25</ele><time>2026-04-08T16:44:04.82Z</time></trkpt><trkpt lat="41.8378967" lon="12.8326867"><ele>284.5</ele><time>2026-04-08T16:44:05.822Z</time></trkpt><trkpt lat="41.837765" lon="12.83278"><ele>286.75</ele><time>2026-04-08T16:44:06.821Z</time></trkpt><trkpt lat="41.8376267" lon="12.8328733"><ele>289.0</ele><time>2026-04-08T16:44:07.821Z</time></trkpt><trkpt lat="41.8374883" lon="12.8329683"><ele>289.0</ele><time>2026-04-08T16:44:08.821Z</time></trkpt><trkpt lat="41.8373417" lon="12.8330583"><ele>289.0</ele><time>2026-04-08T16:44:09.821Z</time></trkpt><trkpt lat="41.8371933" lon="12.8331433"><ele>289.0</ele><time>2026-04-08T16:44:10.821Z</time></trkpt><trkpt lat="41.83705" lon="12.8332233"><ele>289.0</ele><time>2026-04-08T16:44:11.819Z</time></trkpt><trkpt lat="41.8369183" lon="12.8333017"><ele>289.0</ele><time>2026-04-08T16:44:12.822Z</time></trkpt><trkpt lat="41.836795" lon="12.8333733"><ele>289.0</ele><time>2026-04-08T16:44:13.821Z</time></trkpt><trkpt lat="41.8366767" lon="12.83344"><ele>289.0</ele><time>2026-04-08T16:44:14.822Z</time></trkpt><trkpt lat="41.8365617" lon="12.8335033"><ele>292.0</ele><time>2026-04-08T16:44:15.818Z</time></trkpt><trkpt lat="41.836445" lon="12.8335683"><ele>295.0</ele><time>2026-04-08T16:44:16.822Z</time></trkpt><trkpt lat="41.836325" lon="12.8336417"><ele>298.0</ele><time>2026-04-08T16:44:17.819Z</time></trkpt><trkpt lat="41.836205" lon="12.8337217"><ele>301.0</ele><time>2026-04-08T16:44:18.822Z</time></trkpt><trkpt lat="41.836075" lon="12.8338067"><ele>301.0</ele><time>2026-04-08T16:44:19.819Z</time></trkpt><trkpt lat="41.8359433" lon="12.8338917"><ele>301.0</ele><time>2026-04-08T16:44:20.818Z</time></trkpt><trkpt lat="41.8358017" lon="12.8339733"><ele>301.0</ele><time>2026-04-08T16:44:21.818Z</time></trkpt><trkpt lat="41.8356683" lon="12.83406"><ele>301.0</ele><time>2026-04-08T16:44:22.822Z</time></trkpt><trkpt lat="41.8355417" lon="12.8341433"><ele>301.0</ele><time>2026-04-08T16:44:23.819Z</time></trkpt><trkpt lat="41.8354183" lon="12.8342217"><ele>301.0</ele><time>2026-04-08T16:44:24.822Z</time></trkpt><trkpt lat="41.8353033" lon="12.8343017"><ele>301.0</ele><time>2026-04-08T16:44:25.821Z</time></trkpt><trkpt lat="41.8351883" lon="12.83438"><ele>301.0</ele><time>2026-04-08T16:44:26.819Z</time></trkpt><trkpt lat="41.8350733" lon="12.8344633"><ele>303.0</ele><time>2026-04-08T16:44:27.819Z</time></trkpt><trkpt lat="41.83496" lon="12.83455"><ele>305.0</ele><time>2026-04-08T16:44:28.818Z</time></trkpt><trkpt lat="41.8348533" lon="12.8346317"><ele>307.0</ele><time>2026-04-08T16:44:29.818Z</time></trkpt><trkpt lat="41.8347533" lon="12.8347067"><ele>309.0</ele><time>2026-04-08T16:44:30.819Z</time></trkpt><trkpt lat="41.8346533" lon="12.8347817"><ele>309.0</ele><time>2026-04-08T16:44:31.823Z</time></trkpt><trkpt lat="41.8345517" lon="12.8348617"><ele>309.0</ele><time>2026-04-08T16:44:32.819Z</time></trkpt><trkpt lat="41.83445" lon="12.8349433"><ele>309.0</ele><time>2026-04-08T16:44:33.819Z</time></trkpt><trkpt lat="41.8343567" lon="12.8350183"><ele>309.0</ele><time>2026-04-08T16:44:34.819Z</time></trkpt><trkpt lat="41.8342733" lon="12.8350833"><ele>309.0</ele><time>2026-04-08T16:44:35.818Z</time></trkpt><trkpt lat="41.8341983" lon="12.83514"><ele>310.8333333333333</ele><time>2026-04-08T16:44:36.818Z</time></trkpt><trkpt lat="41.8341333" lon="12.8351933"><ele>312.6666666666667</ele><time>2026-04-08T16:44:37.821Z</time></trkpt><trkpt lat="41.8340767" lon="12.8352417"><ele>314.5</ele><time>2026-04-08T16:44:38.819Z</time></trkpt><trkpt lat="41.8340217" lon="12.8352833"><ele>316.33333333333337</ele><time>2026-04-08T16:44:39.817Z</time></trkpt><trkpt lat="41.833925" lon="12.8353583"><ele>318.1666666666667</ele><time>2026-04-08T16:44:41.82Z</time></trkpt><trkpt lat="41.8338467" lon="12.8354133"><ele>320.0</ele><time>2026-04-08T16:44:43.819Z</time></trkpt><trkpt lat="41.8337567" lon="12.8354733"><ele>320.0</ele><time>2026-04-08T16:44:45.822Z</time></trkpt><trkpt lat="41.8336767" lon="12.8355367"><ele>320.0</ele><time>2026-04-08T16:44:47.819Z</time></trkpt><trkpt lat="41.8336167" lon="12.8355833"><ele>320.0</ele><time>2026-04-08T16:44:49.82Z</time></trkpt><trkpt lat="41.8335533" lon="12.8356467"><ele>320.0</ele><time>2026-04-08T16:44:51.821Z</time></trkpt><trkpt lat="41.833465" lon="12.835725"><ele>320.0</ele><time>2026-04-08T16:44:53.818Z</time></trkpt><trkpt lat="41.833365" lon="12.83581"><ele>320.6</ele><time>2026-04-08T16:44:55.819Z</time></trkpt><trkpt lat="41.8332533" lon="12.83588"><ele>321.2</ele><time>2026-04-08T16:44:57.818Z</time></trkpt><trkpt lat="41.8331783" lon="12.835925"><ele>321.79999999999995</ele><time>2026-04-08T16:44:59.818Z</time></trkpt><trkpt lat="41.8331067" lon="12.8359817"><ele>322.4</ele><time>2026-04-08T16:45:05.818Z</time></trkpt><trkpt lat="41.8330317" lon="12.836015"><ele>323.0</ele><time>2026-04-08T16:45:08.818Z</time></trkpt><trkpt lat="41.8329383" lon="12.8360533"><ele>323.0</ele><time>2026-04-08T16:45:11.819Z</time></trkpt><trkpt lat="41.8328617" lon="12.8360567"><ele>323.0</ele><time>2026-04-08T16:45:13.818Z</time></trkpt><trkpt lat="41.8327767" lon="12.8360667"><ele>323.0</ele><time>2026-04-08T16:45:15.819Z</time></trkpt><trkpt lat="41.8326933" lon="12.8361217"><ele>323.0</ele><time>2026-04-08T16:45:17.821Z</time></trkpt><trkpt lat="41.8326217" lon="12.8361917"><ele>323.0</ele><time>2026-04-08T16:45:19.822Z</time></trkpt><trkpt lat="41.8325483" lon="12.8362667"><ele>323.0</ele><time>2026-04-08T16:45:21.821Z</time></trkpt><trkpt lat="41.83246" lon="12.836345"><ele>321.5</ele><time>2026-04-08T16:45:23.82Z</time></trkpt><trkpt lat="41.8323683" lon="12.8364333"><ele>320.0</ele><time>2026-04-08T16:45:25.821Z</time></trkpt><trkpt lat="41.832315" lon="12.83649"><ele>318.5</ele><time>2026-04-08T16:45:26.822Z</time></trkpt><trkpt lat="41.8322617" lon="12.83655"><ele>317.0</ele><time>2026-04-08T16:45:27.821Z</time></trkpt><trkpt lat="41.8322067" lon="12.8366133"><ele>315.5</ele><time>2026-04-08T16:45:28.82Z</time></trkpt><trkpt lat="41.8321567" lon="12.836675"><ele>314.0</ele><time>2026-04-08T16:45:29.821Z</time></trkpt><trkpt lat="41.83207" lon="12.8367717"><ele>314.59999999999997</ele><time>2026-04-08T16:45:31.817Z</time></trkpt><trkpt lat="41.831975" lon="12.836865"><ele>315.2</ele><time>2026-04-08T16:45:33.818Z</time></trkpt><trkpt lat="41.8318683" lon="12.8369583"><ele>315.79999999999995</ele><time>2026-04-08T16:45:35.823Z</time></trkpt><trkpt lat="41.8318067" lon="12.8370033"><ele>316.4</ele><time>2026-04-08T16:45:36.822Z</time></trkpt><trkpt lat="41.8317417" lon="12.83705"><ele>317.0</ele><time>2026-04-08T16:45:37.82Z</time></trkpt><trkpt lat="41.8316783" lon="12.837105"><ele>317.0</ele><time>2026-04-08T16:45:38.818Z</time></trkpt><trkpt lat="41.8316183" lon="12.8371633"><ele>317.0</ele><time>2026-04-08T16:45:39.817Z</time></trkpt><trkpt lat="41.83156" lon="12.83722"><ele>317.0</ele><time>2026-04-08T16:45:40.818Z</time></trkpt><trkpt lat="41.8315017" lon="12.837275"><ele>317.0</ele><time>2026-04-08T16:45:41.822Z</time></trkpt><trkpt lat="41.8314433" lon="12.837325"><ele>317.0</ele><time>2026-04-08T16:45:42.817Z</time></trkpt><trkpt lat="41.8313833" lon="12.83737"><ele>317.0</ele><time>2026-04-08T16:45:43.819Z</time></trkpt><trkpt lat="41.831325" lon="12.8374133"><ele>317.0</ele><time>2026-04-08T16:45:44.82Z</time></trkpt><trkpt lat="41.8312683" lon="12.8374583"><ele>317.0</ele><time>2026-04-08T16:45:45.818Z</time></trkpt><trkpt lat="41.8312133" lon="12.8375067"><ele>317.0</ele><time>2026-04-08T16:45:46.818Z</time></trkpt><trkpt lat="41.8311117" lon="12.837605"><ele>317.0</ele><time>2026-04-08T16:45:48.819Z</time></trkpt><trkpt lat="41.83101" lon="12.8376983"><ele>317.0</ele><time>2026-04-08T16:45:50.819Z</time></trkpt><trkpt lat="41.830955" lon="12.8377467"><ele>317.0</ele><time>2026-04-08T16:45:51.817Z</time></trkpt><trkpt lat="41.8309033" lon="12.8377967"><ele>317.0</ele><time>2026-04-08T16:45:52.818Z</time></trkpt><trkpt lat="41.8308467" lon="12.837845"><ele>317.57142857142856</ele><time>2026-04-08T16:45:53.819Z</time></trkpt><trkpt lat="41.830785" lon="12.8378933"><ele>318.1428571428571</ele><time>2026-04-08T16:45:54.818Z</time></trkpt><trkpt lat="41.8307233" lon="12.8379467"><ele>318.71428571428567</ele><time>2026-04-08T16:45:55.821Z</time></trkpt><trkpt lat="41.8306617" lon="12.8380033"><ele>319.2857142857143</ele><time>2026-04-08T16:45:56.82Z</time></trkpt><trkpt lat="41.8305967" lon="12.8380567"><ele>319.85714285714283</ele><time>2026-04-08T16:45:57.817Z</time></trkpt><trkpt lat="41.83053" lon="12.83811"><ele>320.4285714285714</ele><time>2026-04-08T16:45:58.82Z</time></trkpt><trkpt lat="41.8304633" lon="12.8381583"><ele>321.0</ele><time>2026-04-08T16:45:59.818Z</time></trkpt><trkpt lat="41.8303967" lon="12.8382117"><ele>321.0</ele><time>2026-04-08T16:46:00.817Z</time></trkpt><trkpt lat="41.83034" lon="12.8382633"><ele>321.0</ele><time>2026-04-08T16:46:01.822Z</time></trkpt><trkpt lat="41.8302817" lon="12.838315"><ele>321.0</ele><time>2026-04-08T16:46:02.818Z</time></trkpt><trkpt lat="41.83022" lon="12.8383617"><ele>321.0</ele><time>2026-04-08T16:46:03.818Z</time></trkpt><trkpt lat="41.8301583" lon="12.8384033"><ele>321.0</ele><time>2026-04-08T16:46:04.818Z</time></trkpt><trkpt lat="41.8300983" lon="12.8384467"><ele>321.0</ele><time>2026-04-08T16:46:05.818Z</time></trkpt><trkpt lat="41.8299817" lon="12.83852"><ele>321.0</ele><time>2026-04-08T16:46:07.82Z</time></trkpt><trkpt lat="41.829875" lon="12.8385783"><ele>321.0</ele><time>2026-04-08T16:46:09.822Z</time></trkpt><trkpt lat="41.8297567" lon="12.83864"><ele>321.0</ele><time>2026-04-08T16:46:11.818Z</time></trkpt><trkpt lat="41.82967" lon="12.83868"><ele>321.0</ele><time>2026-04-08T16:46:13.819Z</time></trkpt><trkpt lat="41.8296" lon="12.8386967"><ele>321.0</ele><time>2026-04-08T16:46:15.819Z</time></trkpt><trkpt lat="41.8295283" lon="12.83872"><ele>321.0</ele><time>2026-04-08T16:46:18.818Z</time></trkpt><trkpt lat="41.8294533" lon="12.8387417"><ele>321.0</ele><time>2026-04-08T16:46:20.819Z</time></trkpt><trkpt lat="41.8293883" lon="12.8387733"><ele>321.0</ele><time>2026-04-08T16:46:22.819Z</time></trkpt><trkpt lat="41.82932" lon="12.838785"><ele>321.0</ele><time>2026-04-08T16:46:24.818Z</time></trkpt><trkpt lat="41.8292483" lon="12.838795"><ele>321.0</ele><time>2026-04-08T16:46:26.819Z</time></trkpt><trkpt lat="41.8291583" lon="12.83881"><ele>321.0</ele><time>2026-04-08T16:46:28.819Z</time></trkpt><trkpt lat="41.8290317" lon="12.83884"><ele>321.5</ele><time>2026-04-08T16:46:30.818Z</time></trkpt><trkpt lat="41.82892" lon="12.83886"><ele>322.0</ele><time>2026-04-08T16:46:32.818Z</time></trkpt><trkpt lat="41.8288083" lon="12.83888"><ele>322.5</ele><time>2026-04-08T16:46:34.82Z</time></trkpt><trkpt lat="41.8287433" lon="12.8388983"><ele>323.0</ele><time>2026-04-08T16:46:35.82Z</time></trkpt><trkpt lat="41.8286717" lon="12.8389183"><ele>323.5</ele><time>2026-04-08T16:46:36.821Z</time></trkpt><trkpt lat="41.82859" lon="12.83894"><ele>324.0</ele><time>2026-04-08T16:46:37.818Z</time></trkpt><trkpt lat="41.8285017" lon="12.8389533"><ele>324.5</ele><time>2026-04-08T16:46:38.818Z</time></trkpt><trkpt lat="41.8284117" lon="12.83897"><ele>325.0</ele><time>2026-04-08T16:46:39.818Z</time></trkpt><trkpt lat="41.8283233" lon="12.8389817"><ele>325.5</ele><time>2026-04-08T16:46:40.818Z</time></trkpt><trkpt lat="41.82824" lon="12.8389933"><ele>326.0</ele><time>2026-04-08T16:46:41.82Z</time></trkpt><trkpt lat="41.82816" lon="12.8390017"><ele>326.5</ele><time>2026-04-08T16:46:42.819Z</time></trkpt><trkpt lat="41.8280867" lon="12.839015"><ele>327.0</ele><time>2026-04-08T16:46:43.819Z</time></trkpt><trkpt lat="41.8280117" lon="12.8390167"><ele>327.0</ele><time>2026-04-08T16:46:44.822Z</time></trkpt><trkpt lat="41.82794" lon="12.839015"><ele>327.0</ele><time>2026-04-08T16:46:45.821Z</time></trkpt><trkpt lat="41.8278767" lon="12.8390033"><ele>327.0</ele><time>2026-04-08T16:46:46.819Z</time></trkpt><trkpt lat="41.8277633" lon="12.8389733"><ele>327.0</ele><time>2026-04-08T16:46:48.819Z</time></trkpt><trkpt lat="41.8276533" lon="12.8389533"><ele>327.0</ele><time>2026-04-08T16:46:50.82Z</time></trkpt><trkpt lat="41.827565" lon="12.8389067"><ele>326.1666666666667</ele><time>2026-04-08T16:46:52.819Z</time></trkpt><trkpt lat="41.8274967" lon="12.8388233"><ele>325.3333333333333</ele><time>2026-04-08T16:46:55.819Z</time></trkpt><trkpt lat="41.82743" lon="12.83875"><ele>324.5</ele><time>2026-04-08T16:46:58.82Z</time></trkpt><trkpt lat="41.8273667" lon="12.838665"><ele>323.66666666666663</ele><time>2026-04-08T16:47:00.821Z</time></trkpt><trkpt lat="41.8273167" lon="12.838595"><ele>322.8333333333333</ele><time>2026-04-08T16:47:01.821Z</time></trkpt><trkpt lat="41.82726" lon="12.838515"><ele>322.0</ele><time>2026-04-08T16:47:02.822Z</time></trkpt><trkpt lat="41.827205" lon="12.8384167"><ele>322.0</ele><time>2026-04-08T16:47:03.821Z</time></trkpt><trkpt lat="41.82715" lon="12.838295"><ele>322.0</ele><time>2026-04-08T16:47:04.821Z</time></trkpt><trkpt lat="41.8271" lon="12.8381617"><ele>322.0</ele><time>2026-04-08T16:47:05.821Z</time></trkpt><trkpt lat="41.8270533" lon="12.8380283"><ele>322.0</ele><time>2026-04-08T16:47:06.822Z</time></trkpt><trkpt lat="41.8270083" lon="12.837885"><ele>322.0</ele><time>2026-04-08T16:47:07.821Z</time></trkpt><trkpt lat="41.8269567" lon="12.837725"><ele>323.25</ele><time>2026-04-08T16:47:08.822Z</time></trkpt><trkpt lat="41.8269" lon="12.8375583"><ele>324.5</ele><time>2026-04-08T16:47:09.818Z</time></trkpt><trkpt lat="41.8268417" lon="12.8373933"><ele>325.75</ele><time>2026-04-08T16:47:10.819Z</time></trkpt><trkpt lat="41.8267867" lon="12.8372317"><ele>327.0</ele><time>2026-04-08T16:47:11.818Z</time></trkpt><trkpt lat="41.8267317" lon="12.8370817"><ele>327.0</ele><time>2026-04-08T16:47:12.818Z</time></trkpt><trkpt lat="41.8266733" lon="12.836935"><ele>327.0</ele><time>2026-04-08T16:47:13.819Z</time></trkpt><trkpt lat="41.826615" lon="12.836785"><ele>327.0</ele><time>2026-04-08T16:47:14.819Z</time></trkpt><trkpt lat="41.8265533" lon="12.83663"><ele>327.0</ele><time>2026-04-08T16:47:15.817Z</time></trkpt><trkpt lat="41.8264917" lon="12.8364533"><ele>324.0</ele><time>2026-04-08T16:47:16.819Z</time></trkpt><trkpt lat="41.8264317" lon="12.8362683"><ele>321.0</ele><time>2026-04-08T16:47:17.82Z</time></trkpt><trkpt lat="41.8263633" lon="12.8360767"><ele>318.0</ele><time>2026-04-08T16:47:18.818Z</time></trkpt><trkpt lat="41.8262917" lon="12.8358833"><ele>314.25</ele><time>2026-04-08T16:47:19.818Z</time></trkpt><trkpt lat="41.8262217" lon="12.8357017"><ele>310.5</ele><time>2026-04-08T16:47:20.818Z</time></trkpt><trkpt lat="41.8261667" lon="12.8355283"><ele>306.75</ele><time>2026-04-08T16:47:21.818Z</time></trkpt><trkpt lat="41.8261217" lon="12.835355"><ele>303.0</ele><time>2026-04-08T16:47:22.817Z</time></trkpt><trkpt lat="41.8260883" lon="12.8351817"><ele>302.5</ele><time>2026-04-08T16:47:23.818Z</time></trkpt><trkpt lat="41.8260783" lon="12.8350083"><ele>302.0</ele><time>2026-04-08T16:47:24.821Z</time></trkpt><trkpt lat="41.8260817" lon="12.8348317"><ele>301.5</ele><time>2026-04-08T16:47:25.823Z</time></trkpt><trkpt lat="41.8261083" lon="12.8346533"><ele>301.0</ele><time>2026-04-08T16:47:26.821Z</time></trkpt><trkpt lat="41.826145" lon="12.8344767"><ele>301.0</ele><time>2026-04-08T16:47:27.821Z</time></trkpt><trkpt lat="41.826185" lon="12.8343067"><ele>301.0</ele><time>2026-04-08T16:47:28.821Z</time></trkpt><trkpt lat="41.82622" lon="12.8341367"><ele>301.0</ele><time>2026-04-08T16:47:29.821Z</time></trkpt><trkpt lat="41.8262533" lon="12.8339667"><ele>301.0</ele><time>2026-04-08T16:47:30.82Z</time></trkpt><trkpt lat="41.8262883" lon="12.8338"><ele>303.0</ele><time>2026-04-08T16:47:31.821Z</time></trkpt><trkpt lat="41.8263233" lon="12.8336483"><ele>305.0</ele><time>2026-04-08T16:47:32.821Z</time></trkpt><trkpt lat="41.8263517" lon="12.83351"><ele>307.0</ele><time>2026-04-08T16:47:33.821Z</time></trkpt><trkpt lat="41.8263817" lon="12.83338"><ele>309.0</ele><time>2026-04-08T16:47:34.822Z</time></trkpt><trkpt lat="41.8264133" lon="12.8332617"><ele>311.0</ele><time>2026-04-08T16:47:35.82Z</time></trkpt><trkpt lat="41.82644" lon="12.83315"><ele>313.20000000000005</ele><time>2026-04-08T16:47:36.822Z</time></trkpt><trkpt lat="41.8264717" lon="12.8330383"><ele>315.40000000000003</ele><time>2026-04-08T16:47:37.821Z</time></trkpt><trkpt lat="41.8265033" lon="12.8329217"><ele>317.6</ele><time>2026-04-08T16:47:38.821Z</time></trkpt><trkpt lat="41.8265333" lon="12.8327933"><ele>319.8</ele><time>2026-04-08T16:47:39.817Z</time></trkpt><trkpt lat="41.82656" lon="12.832655"><ele>322.0</ele><time>2026-04-08T16:47:40.818Z</time></trkpt><trkpt lat="41.8265867" lon="12.8325183"><ele>323.40000000000003</ele><time>2026-04-08T16:47:41.82Z</time></trkpt><trkpt lat="41.8266133" lon="12.83239"><ele>324.8</ele><time>2026-04-08T16:47:42.821Z</time></trkpt><trkpt lat="41.8266383" lon="12.832265"><ele>326.2</ele><time>2026-04-08T16:47:43.821Z</time></trkpt><trkpt lat="41.826655" lon="12.8321383"><ele>327.6</ele><time>2026-04-08T16:47:44.821Z</time></trkpt><trkpt lat="41.82666" lon="12.8320217"><ele>329.0</ele><time>2026-04-08T16:47:45.821Z</time></trkpt><trkpt lat="41.8266583" lon="12.8319133"><ele>329.0</ele><time>2026-04-08T16:47:46.82Z</time></trkpt><trkpt lat="41.8266533" lon="12.8318133"><ele>329.0</ele><time>2026-04-08T16:47:47.821Z</time></trkpt><trkpt lat="41.8266483" lon="12.8317167"><ele>329.0</ele><time>2026-04-08T16:47:48.821Z</time></trkpt><trkpt lat="41.8266433" lon="12.8316183"><ele>329.0</ele><time>2026-04-08T16:47:49.821Z</time></trkpt><trkpt lat="41.8266383" lon="12.8315117"><ele>329.0</ele><time>2026-04-08T16:47:50.818Z</time></trkpt><trkpt lat="41.8266367" lon="12.8313967"><ele>329.0</ele><time>2026-04-08T16:47:51.818Z</time></trkpt><trkpt lat="41.8266317" lon="12.8312767"><ele>328.6</ele><time>2026-04-08T16:47:52.818Z</time></trkpt><trkpt lat="41.8266317" lon="12.8311533"><ele>328.2</ele><time>2026-04-08T16:47:53.817Z</time></trkpt><trkpt lat="41.82663" lon="12.831025"><ele>327.8</ele><time>2026-04-08T16:47:54.819Z</time></trkpt><trkpt lat="41.8266233" lon="12.8309033"><ele>327.40000000000003</ele><time>2026-04-08T16:47:55.819Z</time></trkpt><trkpt lat="41.8266167" lon="12.8307833"><ele>327.0</ele><time>2026-04-08T16:47:56.818Z</time></trkpt><trkpt lat="41.8266117" lon="12.8306733"><ele>326.5</ele><time>2026-04-08T16:47:57.818Z</time></trkpt><trkpt lat="41.8266067" lon="12.8305667"><ele>326.0</ele><time>2026-04-08T16:47:58.818Z</time></trkpt><trkpt lat="41.8266017" lon="12.8304583"><ele>325.5</ele><time>2026-04-08T16:47:59.817Z</time></trkpt><trkpt lat="41.8265967" lon="12.8303467"><ele>325.0</ele><time>2026-04-08T16:48:00.818Z</time></trkpt><trkpt lat="41.8265917" lon="12.83023"><ele>324.5</ele><time>2026-04-08T16:48:01.819Z</time></trkpt><trkpt lat="41.8265883" lon="12.830105"><ele>324.0</ele><time>2026-04-08T16:48:02.818Z</time></trkpt><trkpt lat="41.8265783" lon="12.8299633"><ele>324.0</ele><time>2026-04-08T16:48:03.818Z</time></trkpt><trkpt lat="41.826565" lon="12.8298133"><ele>324.0</ele><time>2026-04-08T16:48:04.818Z</time></trkpt><trkpt lat="41.8265467" lon="12.829665"><ele>324.0</ele><time>2026-04-08T16:48:05.819Z</time></trkpt><trkpt lat="41.82652" lon="12.82952"><ele>324.0</ele><time>2026-04-08T16:48:06.82Z</time></trkpt><trkpt lat="41.8264833" lon="12.8293783"><ele>324.0</ele><time>2026-04-08T16:48:07.821Z</time></trkpt><trkpt lat="41.8264417" lon="12.8292383"><ele>323.79999999999995</ele><time>2026-04-08T16:48:08.821Z</time></trkpt><trkpt lat="41.8264033" lon="12.8291033"><ele>323.59999999999997</ele><time>2026-04-08T16:48:09.82Z</time></trkpt><trkpt lat="41.8263633" lon="12.82897"><ele>323.4</ele><time>2026-04-08T16:48:10.821Z</time></trkpt><trkpt lat="41.8263217" lon="12.8288333"><ele>323.2</ele><time>2026-04-08T16:48:11.822Z</time></trkpt><trkpt lat="41.8262783" lon="12.8286917"><ele>323.0</ele><time>2026-04-08T16:48:12.82Z</time></trkpt><trkpt lat="41.8262367" lon="12.8285517"><ele>322.79999999999995</ele><time>2026-04-08T16:48:13.822Z</time></trkpt><trkpt lat="41.826195" lon="12.8284117"><ele>322.6</ele><time>2026-04-08T16:48:14.822Z</time></trkpt><trkpt lat="41.826155" lon="12.8282733"><ele>322.4</ele><time>2026-04-08T16:48:15.82Z</time></trkpt><trkpt lat="41.8261167" lon="12.828145"><ele>322.20000000000005</ele><time>2026-04-08T16:48:16.821Z</time></trkpt><trkpt lat="41.8260817" lon="12.8280267"><ele>322.0</ele><time>2026-04-08T16:48:17.821Z</time></trkpt><trkpt lat="41.8260483" lon="12.8279167"><ele>322.0</ele><time>2026-04-08T16:48:18.821Z</time></trkpt><trkpt lat="41.826015" lon="12.8278133"><ele>322.0</ele><time>2026-04-08T16:48:19.821Z</time></trkpt><trkpt lat="41.8259833" lon="12.827725"><ele>322.0</ele><time>2026-04-08T16:48:20.82Z</time></trkpt><trkpt lat="41.825935" lon="12.8276067"><ele>322.0</ele><time>2026-04-08T16:48:22.822Z</time></trkpt><trkpt lat="41.8258933" lon="12.82747"><ele>322.0</ele><time>2026-04-08T16:48:31.821Z</time></trkpt><trkpt lat="41.8258383" lon="12.82741"><ele>322.0</ele><time>2026-04-08T16:48:33.817Z</time></trkpt><trkpt lat="41.825775" lon="12.827395"><ele>320.8</ele><time>2026-04-08T16:48:34.821Z</time></trkpt><trkpt lat="41.8256967" lon="12.8273883"><ele>319.6</ele><time>2026-04-08T16:48:35.818Z</time></trkpt><trkpt lat="41.82561" lon="12.82738"><ele>318.40000000000003</ele><time>2026-04-08T16:48:36.82Z</time></trkpt><trkpt lat="41.8255183" lon="12.8273717"><ele>317.20000000000005</ele><time>2026-04-08T16:48:37.822Z</time></trkpt><trkpt lat="41.8254217" lon="12.827365"><ele>316.0</ele><time>2026-04-08T16:48:38.822Z</time></trkpt><trkpt lat="41.8253217" lon="12.82736"><ele>316.0</ele><time>2026-04-08T16:48:39.821Z</time></trkpt><trkpt lat="41.8252217" lon="12.8273667"><ele>316.0</ele><time>2026-04-08T16:48:40.82Z</time></trkpt><trkpt lat="41.82512" lon="12.82738"><ele>316.0</ele><time>2026-04-08T16:48:41.82Z</time></trkpt><trkpt lat="41.8250167" lon="12.8273883"><ele>316.0</ele><time>2026-04-08T16:48:42.821Z</time></trkpt><trkpt lat="41.824915" lon="12.8273933"><ele>316.0</ele><time>2026-04-08T16:48:43.821Z</time></trkpt><trkpt lat="41.8248133" lon="12.8273983"><ele>316.2</ele><time>2026-04-08T16:48:44.821Z</time></trkpt><trkpt lat="41.8247133" lon="12.8274"><ele>316.40000000000003</ele><time>2026-04-08T16:48:45.821Z</time></trkpt><trkpt lat="41.824615" lon="12.8274033"><ele>316.6</ele><time>2026-04-08T16:48:46.818Z</time></trkpt><trkpt lat="41.82452" lon="12.8274033"><ele>316.8</ele><time>2026-04-08T16:48:47.82Z</time></trkpt><trkpt lat="41.8244333" lon="12.8274033"><ele>317.0</ele><time>2026-04-08T16:48:48.817Z</time></trkpt><trkpt lat="41.824355" lon="12.827405"><ele>316.83333333333337</ele><time>2026-04-08T16:48:49.822Z</time></trkpt><trkpt lat="41.8242783" lon="12.82741"><ele>316.6666666666667</ele><time>2026-04-08T16:48:50.819Z</time></trkpt><trkpt lat="41.8242067" lon="12.8274117"><ele>316.5</ele><time>2026-04-08T16:48:51.818Z</time></trkpt><trkpt lat="41.82414" lon="12.8274167"><ele>316.3333333333333</ele><time>2026-04-08T16:48:52.819Z</time></trkpt><trkpt lat="41.8240333" lon="12.8274133"><ele>316.16666666666663</ele><time>2026-04-08T16:48:54.818Z</time></trkpt><trkpt lat="41.8239817" lon="12.8273467"><ele>316.0</ele><time>2026-04-08T16:48:57.821Z</time></trkpt><trkpt lat="41.8240317" lon="12.827285"><ele>316.0</ele><time>2026-04-08T16:49:00.82Z</time></trkpt><trkpt lat="41.824095" lon="12.827255"><ele>316.0</ele><time>2026-04-08T16:49:03.82Z</time></trkpt></trkseg></trk></gpx>